<?xml version="1.0" encoding="UTF-8" standalone="no" ?>
<gpx xmlns="http://www.topografix.com/GPX/1/1" xmlns:xsi="http://www.w3.org/2001/XMLSchema-instance" xsi:schemaLocation="http://www.topografix.com/GPX/1/1 http://www.topografix.com/GPX/1/1/gpx.xsd" version="1.1" creator="VisuGPX - https://www.visugpx.com">
  <metadata>
    <name>Grand tour de Chamelet</name>
    <desc><![CDATA[Grand tour de Chamelet, en passant par sous Saint-Just-d\'Avray, pas Allière, la Cantinière et par les hameaux de Létra. Le parcours est varié : on longe des vignes, des paturages, on traverse des forêts de feuillus et de résineux.]]></desc>
  </metadata>
  <trk>
    <name><![CDATA[Mountain Biking 11/5/15 10:02 am]]></name>
    <trkseg>
      <trkpt lat="45.98236" lon="4.50933">
        <ele>383.6</ele>
        <time>2015-11-05T09:02:49Z</time>
      </trkpt>
      <trkpt lat="45.98239" lon="4.50935">
        <ele>385.3</ele>
        <time>2015-11-05T09:02:50Z</time>
      </trkpt>
      <trkpt lat="45.98234" lon="4.50946">
        <ele>386.6</ele>
        <time>2015-11-05T09:02:52Z</time>
      </trkpt>
      <trkpt lat="45.98237" lon="4.50957">
        <ele>387.8</ele>
        <time>2015-11-05T09:03:20Z</time>
      </trkpt>
      <trkpt lat="45.98247" lon="4.50956">
        <ele>388.6</ele>
        <time>2015-11-05T09:03:25Z</time>
      </trkpt>
      <trkpt lat="45.98255" lon="4.50955">
        <ele>389.4</ele>
        <time>2015-11-05T09:03:30Z</time>
      </trkpt>
      <trkpt lat="45.98263" lon="4.50955">
        <ele>391.8</ele>
        <time>2015-11-05T09:03:35Z</time>
      </trkpt>
      <trkpt lat="45.98273" lon="4.50956">
        <ele>394.4</ele>
        <time>2015-11-05T09:03:41Z</time>
      </trkpt>
      <trkpt lat="45.98282" lon="4.5096">
        <ele>395.8</ele>
        <time>2015-11-05T09:03:47Z</time>
      </trkpt>
      <trkpt lat="45.9829" lon="4.50964">
        <ele>396.6</ele>
        <time>2015-11-05T09:03:52Z</time>
      </trkpt>
      <trkpt lat="45.98298" lon="4.50969">
        <ele>397.6</ele>
        <time>2015-11-05T09:03:56Z</time>
      </trkpt>
      <trkpt lat="45.98305" lon="4.50973">
        <ele>398.2</ele>
        <time>2015-11-05T09:04:00Z</time>
      </trkpt>
      <trkpt lat="45.98315" lon="4.50978">
        <ele>398.9</ele>
        <time>2015-11-05T09:04:05Z</time>
      </trkpt>
      <trkpt lat="45.98324" lon="4.50985">
        <ele>399.8</ele>
        <time>2015-11-05T09:04:10Z</time>
      </trkpt>
      <trkpt lat="45.9833" lon="4.50994">
        <ele>400.5</ele>
        <time>2015-11-05T09:04:14Z</time>
      </trkpt>
      <trkpt lat="45.98335" lon="4.51004">
        <ele>401.3</ele>
        <time>2015-11-05T09:04:18Z</time>
      </trkpt>
      <trkpt lat="45.98341" lon="4.51013">
        <ele>402.1</ele>
        <time>2015-11-05T09:04:22Z</time>
      </trkpt>
      <trkpt lat="45.98348" lon="4.51025">
        <ele>403.1</ele>
        <time>2015-11-05T09:04:26Z</time>
      </trkpt>
      <trkpt lat="45.98354" lon="4.51035">
        <ele>404</ele>
        <time>2015-11-05T09:04:29Z</time>
      </trkpt>
      <trkpt lat="45.98362" lon="4.51047">
        <ele>405.1</ele>
        <time>2015-11-05T09:04:32Z</time>
      </trkpt>
      <trkpt lat="45.9837" lon="4.51059">
        <ele>406</ele>
        <time>2015-11-05T09:04:35Z</time>
      </trkpt>
      <trkpt lat="45.98377" lon="4.51071">
        <ele>406.6</ele>
        <time>2015-11-05T09:04:38Z</time>
      </trkpt>
      <trkpt lat="45.98385" lon="4.51082">
        <ele>407.1</ele>
        <time>2015-11-05T09:04:41Z</time>
      </trkpt>
      <trkpt lat="45.98391" lon="4.51093">
        <ele>407.5</ele>
        <time>2015-11-05T09:04:44Z</time>
      </trkpt>
      <trkpt lat="45.98398" lon="4.51098">
        <ele>407.7</ele>
        <time>2015-11-05T09:04:48Z</time>
      </trkpt>
      <trkpt lat="45.98406" lon="4.51101">
        <ele>407.9</ele>
        <time>2015-11-05T09:04:51Z</time>
      </trkpt>
      <trkpt lat="45.98418" lon="4.511">
        <ele>407.9</ele>
        <time>2015-11-05T09:04:54Z</time>
      </trkpt>
      <trkpt lat="45.9843" lon="4.51091">
        <ele>408</ele>
        <time>2015-11-05T09:04:56Z</time>
      </trkpt>
      <trkpt lat="45.98441" lon="4.51085">
        <ele>407.6</ele>
        <time>2015-11-05T09:04:58Z</time>
      </trkpt>
      <trkpt lat="45.98454" lon="4.51082">
        <ele>407</ele>
        <time>2015-11-05T09:05:00Z</time>
      </trkpt>
      <trkpt lat="45.98467" lon="4.51079">
        <ele>406</ele>
        <time>2015-11-05T09:05:02Z</time>
      </trkpt>
      <trkpt lat="45.98475" lon="4.51078">
        <ele>405.1</ele>
        <time>2015-11-05T09:05:03Z</time>
      </trkpt>
      <trkpt lat="45.98488" lon="4.5107">
        <ele>404.2</ele>
        <time>2015-11-05T09:05:05Z</time>
      </trkpt>
      <trkpt lat="45.98497" lon="4.51068">
        <ele>403.4</ele>
        <time>2015-11-05T09:05:06Z</time>
      </trkpt>
      <trkpt lat="45.98505" lon="4.51063">
        <ele>402.5</ele>
        <time>2015-11-05T09:05:07Z</time>
      </trkpt>
      <trkpt lat="45.98518" lon="4.51052">
        <ele>401.6</ele>
        <time>2015-11-05T09:05:09Z</time>
      </trkpt>
      <trkpt lat="45.98525" lon="4.51046">
        <ele>400.5</ele>
        <time>2015-11-05T09:05:10Z</time>
      </trkpt>
      <trkpt lat="45.98532" lon="4.51039">
        <ele>399.5</ele>
        <time>2015-11-05T09:05:11Z</time>
      </trkpt>
      <trkpt lat="45.9854" lon="4.51032">
        <ele>398.3</ele>
        <time>2015-11-05T09:05:12Z</time>
      </trkpt>
      <trkpt lat="45.98548" lon="4.51025">
        <ele>397.4</ele>
        <time>2015-11-05T09:05:13Z</time>
      </trkpt>
      <trkpt lat="45.9856" lon="4.51011">
        <ele>396.5</ele>
        <time>2015-11-05T09:05:15Z</time>
      </trkpt>
      <trkpt lat="45.98572" lon="4.50997">
        <ele>395.8</ele>
        <time>2015-11-05T09:05:17Z</time>
      </trkpt>
      <trkpt lat="45.98578" lon="4.50989">
        <ele>395.1</ele>
        <time>2015-11-05T09:05:18Z</time>
      </trkpt>
      <trkpt lat="45.98584" lon="4.50981">
        <ele>394.5</ele>
        <time>2015-11-05T09:05:19Z</time>
      </trkpt>
      <trkpt lat="45.98591" lon="4.50972">
        <ele>393.8</ele>
        <time>2015-11-05T09:05:20Z</time>
      </trkpt>
      <trkpt lat="45.98597" lon="4.50964">
        <ele>393.2</ele>
        <time>2015-11-05T09:05:21Z</time>
      </trkpt>
      <trkpt lat="45.98603" lon="4.50956">
        <ele>392.6</ele>
        <time>2015-11-05T09:05:22Z</time>
      </trkpt>
      <trkpt lat="45.98609" lon="4.50947">
        <ele>392.2</ele>
        <time>2015-11-05T09:05:23Z</time>
      </trkpt>
      <trkpt lat="45.98616" lon="4.50939">
        <ele>391.9</ele>
        <time>2015-11-05T09:05:24Z</time>
      </trkpt>
      <trkpt lat="45.98622" lon="4.50931">
        <ele>391.7</ele>
        <time>2015-11-05T09:05:25Z</time>
      </trkpt>
      <trkpt lat="45.98628" lon="4.50921">
        <ele>391.5</ele>
        <time>2015-11-05T09:05:26Z</time>
      </trkpt>
      <trkpt lat="45.98636" lon="4.50901">
        <ele>391.2</ele>
        <time>2015-11-05T09:05:28Z</time>
      </trkpt>
      <trkpt lat="45.9864" lon="4.5089">
        <ele>391</ele>
        <time>2015-11-05T09:05:29Z</time>
      </trkpt>
      <trkpt lat="45.98643" lon="4.5088">
        <ele>390.8</ele>
        <time>2015-11-05T09:05:30Z</time>
      </trkpt>
      <trkpt lat="45.9865" lon="4.5086">
        <ele>390.6</ele>
        <time>2015-11-05T09:05:32Z</time>
      </trkpt>
      <trkpt lat="45.98654" lon="4.50849">
        <ele>390.6</ele>
        <time>2015-11-05T09:05:33Z</time>
      </trkpt>
      <trkpt lat="45.98666" lon="4.50833">
        <ele>390.7</ele>
        <time>2015-11-05T09:05:35Z</time>
      </trkpt>
      <trkpt lat="45.98678" lon="4.50819">
        <ele>390.7</ele>
        <time>2015-11-05T09:05:37Z</time>
      </trkpt>
      <trkpt lat="45.9869" lon="4.50806">
        <ele>390.7</ele>
        <time>2015-11-05T09:05:39Z</time>
      </trkpt>
      <trkpt lat="45.98701" lon="4.50794">
        <ele>390.8</ele>
        <time>2015-11-05T09:05:41Z</time>
      </trkpt>
      <trkpt lat="45.98709" lon="4.50782">
        <ele>390.9</ele>
        <time>2015-11-05T09:05:43Z</time>
      </trkpt>
      <trkpt lat="45.98715" lon="4.5077">
        <ele>391</ele>
        <time>2015-11-05T09:05:45Z</time>
      </trkpt>
      <trkpt lat="45.98721" lon="4.50759">
        <ele>391.3</ele>
        <time>2015-11-05T09:05:47Z</time>
      </trkpt>
      <trkpt lat="45.98726" lon="4.50749">
        <ele>391.7</ele>
        <time>2015-11-05T09:05:49Z</time>
      </trkpt>
      <trkpt lat="45.98732" lon="4.5074">
        <ele>392.2</ele>
        <time>2015-11-05T09:05:51Z</time>
      </trkpt>
      <trkpt lat="45.98739" lon="4.50733">
        <ele>392.5</ele>
        <time>2015-11-05T09:05:53Z</time>
      </trkpt>
      <trkpt lat="45.98747" lon="4.50728">
        <ele>392.7</ele>
        <time>2015-11-05T09:05:55Z</time>
      </trkpt>
      <trkpt lat="45.98755" lon="4.50724">
        <ele>392.8</ele>
        <time>2015-11-05T09:05:57Z</time>
      </trkpt>
      <trkpt lat="45.98766" lon="4.5072">
        <ele>392.9</ele>
        <time>2015-11-05T09:06:00Z</time>
      </trkpt>
      <trkpt lat="45.98777" lon="4.50715">
        <ele>392.9</ele>
        <time>2015-11-05T09:06:03Z</time>
      </trkpt>
      <trkpt lat="45.98787" lon="4.5071">
        <ele>392.8</ele>
        <time>2015-11-05T09:06:06Z</time>
      </trkpt>
      <trkpt lat="45.98797" lon="4.50701">
        <ele>392.6</ele>
        <time>2015-11-05T09:06:09Z</time>
      </trkpt>
      <trkpt lat="45.98807" lon="4.50692">
        <ele>392.4</ele>
        <time>2015-11-05T09:06:11Z</time>
      </trkpt>
      <trkpt lat="45.98817" lon="4.50684">
        <ele>392</ele>
        <time>2015-11-05T09:06:13Z</time>
      </trkpt>
      <trkpt lat="45.98828" lon="4.50677">
        <ele>391.7</ele>
        <time>2015-11-05T09:06:15Z</time>
      </trkpt>
      <trkpt lat="45.9884" lon="4.50667">
        <ele>391.2</ele>
        <time>2015-11-05T09:06:17Z</time>
      </trkpt>
      <trkpt lat="45.98854" lon="4.50654">
        <ele>390.7</ele>
        <time>2015-11-05T09:06:19Z</time>
      </trkpt>
      <trkpt lat="45.98861" lon="4.50647">
        <ele>390.3</ele>
        <time>2015-11-05T09:06:20Z</time>
      </trkpt>
      <trkpt lat="45.98869" lon="4.5064">
        <ele>390.1</ele>
        <time>2015-11-05T09:06:21Z</time>
      </trkpt>
      <trkpt lat="45.98877" lon="4.50634">
        <ele>389.8</ele>
        <time>2015-11-05T09:06:22Z</time>
      </trkpt>
      <trkpt lat="45.98888" lon="4.50627">
        <ele>389.6</ele>
        <time>2015-11-05T09:06:24Z</time>
      </trkpt>
      <trkpt lat="45.98896" lon="4.50619">
        <ele>389.5</ele>
        <time>2015-11-05T09:06:26Z</time>
      </trkpt>
      <trkpt lat="45.98893" lon="4.50605">
        <ele>389.4</ele>
        <time>2015-11-05T09:06:28Z</time>
      </trkpt>
      <trkpt lat="45.98883" lon="4.50598">
        <ele>389.4</ele>
        <time>2015-11-05T09:06:31Z</time>
      </trkpt>
      <trkpt lat="45.98872" lon="4.50596">
        <ele>389.4</ele>
        <time>2015-11-05T09:06:40Z</time>
      </trkpt>
      <trkpt lat="45.98862" lon="4.50586">
        <ele>389.4</ele>
        <time>2015-11-05T09:06:42Z</time>
      </trkpt>
      <trkpt lat="45.98852" lon="4.50574">
        <ele>389.6</ele>
        <time>2015-11-05T09:06:44Z</time>
      </trkpt>
      <trkpt lat="45.98842" lon="4.50564">
        <ele>389.8</ele>
        <time>2015-11-05T09:06:46Z</time>
      </trkpt>
      <trkpt lat="45.98834" lon="4.50556">
        <ele>390.1</ele>
        <time>2015-11-05T09:06:48Z</time>
      </trkpt>
      <trkpt lat="45.98827" lon="4.50549">
        <ele>390</ele>
        <time>2015-11-05T09:06:50Z</time>
      </trkpt>
      <trkpt lat="45.98819" lon="4.50537">
        <ele>389.9</ele>
        <time>2015-11-05T09:06:53Z</time>
      </trkpt>
      <trkpt lat="45.98814" lon="4.50523">
        <ele>390.1</ele>
        <time>2015-11-05T09:06:56Z</time>
      </trkpt>
      <trkpt lat="45.98812" lon="4.50507">
        <ele>390.3</ele>
        <time>2015-11-05T09:06:59Z</time>
      </trkpt>
      <trkpt lat="45.98812" lon="4.50491">
        <ele>390.6</ele>
        <time>2015-11-05T09:07:02Z</time>
      </trkpt>
      <trkpt lat="45.98814" lon="4.50477">
        <ele>390.8</ele>
        <time>2015-11-05T09:07:05Z</time>
      </trkpt>
      <trkpt lat="45.98818" lon="4.50463">
        <ele>391.3</ele>
        <time>2015-11-05T09:07:08Z</time>
      </trkpt>
      <trkpt lat="45.98822" lon="4.50449">
        <ele>391.8</ele>
        <time>2015-11-05T09:07:11Z</time>
      </trkpt>
      <trkpt lat="45.98827" lon="4.50436">
        <ele>392.2</ele>
        <time>2015-11-05T09:07:14Z</time>
      </trkpt>
      <trkpt lat="45.98832" lon="4.50423">
        <ele>392.9</ele>
        <time>2015-11-05T09:07:17Z</time>
      </trkpt>
      <trkpt lat="45.98837" lon="4.50411">
        <ele>393.5</ele>
        <time>2015-11-05T09:07:20Z</time>
      </trkpt>
      <trkpt lat="45.98842" lon="4.504">
        <ele>394.1</ele>
        <time>2015-11-05T09:07:23Z</time>
      </trkpt>
      <trkpt lat="45.98848" lon="4.5039">
        <ele>394.7</ele>
        <time>2015-11-05T09:07:26Z</time>
      </trkpt>
      <trkpt lat="45.98854" lon="4.50381">
        <ele>395.2</ele>
        <time>2015-11-05T09:07:30Z</time>
      </trkpt>
      <trkpt lat="45.98858" lon="4.50371">
        <ele>395.6</ele>
        <time>2015-11-05T09:07:33Z</time>
      </trkpt>
      <trkpt lat="45.98866" lon="4.50362">
        <ele>395.9</ele>
        <time>2015-11-05T09:07:36Z</time>
      </trkpt>
      <trkpt lat="45.98873" lon="4.50355">
        <ele>396.2</ele>
        <time>2015-11-05T09:07:39Z</time>
      </trkpt>
      <trkpt lat="45.98881" lon="4.50347">
        <ele>396.2</ele>
        <time>2015-11-05T09:07:42Z</time>
      </trkpt>
      <trkpt lat="45.98889" lon="4.50341">
        <ele>396.2</ele>
        <time>2015-11-05T09:07:45Z</time>
      </trkpt>
      <trkpt lat="45.98898" lon="4.50336">
        <ele>396</ele>
        <time>2015-11-05T09:07:48Z</time>
      </trkpt>
      <trkpt lat="45.98907" lon="4.50332">
        <ele>395.8</ele>
        <time>2015-11-05T09:07:51Z</time>
      </trkpt>
      <trkpt lat="45.98916" lon="4.50329">
        <ele>395.6</ele>
        <time>2015-11-05T09:07:54Z</time>
      </trkpt>
      <trkpt lat="45.98925" lon="4.50326">
        <ele>395.5</ele>
        <time>2015-11-05T09:07:57Z</time>
      </trkpt>
      <trkpt lat="45.98934" lon="4.50324">
        <ele>395.5</ele>
        <time>2015-11-05T09:08:00Z</time>
      </trkpt>
      <trkpt lat="45.98946" lon="4.50321">
        <ele>395.6</ele>
        <time>2015-11-05T09:08:04Z</time>
      </trkpt>
      <trkpt lat="45.98953" lon="4.50332">
        <ele>395.8</ele>
        <time>2015-11-05T09:08:07Z</time>
      </trkpt>
      <trkpt lat="45.98956" lon="4.50343">
        <ele>396</ele>
        <time>2015-11-05T09:08:09Z</time>
      </trkpt>
      <trkpt lat="45.98963" lon="4.50363">
        <ele>396.3</ele>
        <time>2015-11-05T09:08:11Z</time>
      </trkpt>
      <trkpt lat="45.9897" lon="4.50375">
        <ele>396.9</ele>
        <time>2015-11-05T09:08:14Z</time>
      </trkpt>
      <trkpt lat="45.98979" lon="4.50386">
        <ele>397.5</ele>
        <time>2015-11-05T09:08:17Z</time>
      </trkpt>
      <trkpt lat="45.98988" lon="4.50395">
        <ele>397.9</ele>
        <time>2015-11-05T09:08:20Z</time>
      </trkpt>
      <trkpt lat="45.98995" lon="4.50402">
        <ele>398.3</ele>
        <time>2015-11-05T09:08:23Z</time>
      </trkpt>
      <trkpt lat="45.99003" lon="4.50408">
        <ele>398.9</ele>
        <time>2015-11-05T09:08:26Z</time>
      </trkpt>
      <trkpt lat="45.9901" lon="4.50413">
        <ele>399.4</ele>
        <time>2015-11-05T09:08:29Z</time>
      </trkpt>
      <trkpt lat="45.99019" lon="4.50417">
        <ele>399.9</ele>
        <time>2015-11-05T09:08:32Z</time>
      </trkpt>
      <trkpt lat="45.99037" lon="4.50421">
        <ele>400.3</ele>
        <time>2015-11-05T09:08:35Z</time>
      </trkpt>
      <trkpt lat="45.99047" lon="4.50421">
        <ele>400.4</ele>
        <time>2015-11-05T09:08:37Z</time>
      </trkpt>
      <trkpt lat="45.99057" lon="4.50424">
        <ele>400.4</ele>
        <time>2015-11-05T09:08:39Z</time>
      </trkpt>
      <trkpt lat="45.99067" lon="4.50427">
        <ele>400.4</ele>
        <time>2015-11-05T09:08:41Z</time>
      </trkpt>
      <trkpt lat="45.99077" lon="4.50432">
        <ele>400.1</ele>
        <time>2015-11-05T09:08:43Z</time>
      </trkpt>
      <trkpt lat="45.99088" lon="4.50435">
        <ele>399.6</ele>
        <time>2015-11-05T09:08:46Z</time>
      </trkpt>
      <trkpt lat="45.99098" lon="4.50432">
        <ele>399.3</ele>
        <time>2015-11-05T09:08:49Z</time>
      </trkpt>
      <trkpt lat="45.99109" lon="4.50429">
        <ele>398.6</ele>
        <time>2015-11-05T09:08:51Z</time>
      </trkpt>
      <trkpt lat="45.9912" lon="4.50427">
        <ele>397.7</ele>
        <time>2015-11-05T09:08:53Z</time>
      </trkpt>
      <trkpt lat="45.99131" lon="4.50426">
        <ele>396.6</ele>
        <time>2015-11-05T09:08:55Z</time>
      </trkpt>
      <trkpt lat="45.9914" lon="4.50424">
        <ele>395.8</ele>
        <time>2015-11-05T09:08:57Z</time>
      </trkpt>
      <trkpt lat="45.99151" lon="4.50421">
        <ele>395</ele>
        <time>2015-11-05T09:08:59Z</time>
      </trkpt>
      <trkpt lat="45.99165" lon="4.50423">
        <ele>394.3</ele>
        <time>2015-11-05T09:09:01Z</time>
      </trkpt>
      <trkpt lat="45.99177" lon="4.50425">
        <ele>393.9</ele>
        <time>2015-11-05T09:09:03Z</time>
      </trkpt>
      <trkpt lat="45.99189" lon="4.50424">
        <ele>393.4</ele>
        <time>2015-11-05T09:09:05Z</time>
      </trkpt>
      <trkpt lat="45.99198" lon="4.50424">
        <ele>393.1</ele>
        <time>2015-11-05T09:09:07Z</time>
      </trkpt>
      <trkpt lat="45.99207" lon="4.50423">
        <ele>393</ele>
        <time>2015-11-05T09:09:09Z</time>
      </trkpt>
      <trkpt lat="45.99219" lon="4.50418">
        <ele>392.9</ele>
        <time>2015-11-05T09:09:12Z</time>
      </trkpt>
      <trkpt lat="45.99232" lon="4.50414">
        <ele>392.9</ele>
        <time>2015-11-05T09:09:15Z</time>
      </trkpt>
      <trkpt lat="45.99241" lon="4.5041">
        <ele>393.1</ele>
        <time>2015-11-05T09:09:17Z</time>
      </trkpt>
      <trkpt lat="45.99251" lon="4.50406">
        <ele>393.3</ele>
        <time>2015-11-05T09:09:19Z</time>
      </trkpt>
      <trkpt lat="45.99264" lon="4.50403">
        <ele>393.4</ele>
        <time>2015-11-05T09:09:21Z</time>
      </trkpt>
      <trkpt lat="45.99276" lon="4.50398">
        <ele>393.3</ele>
        <time>2015-11-05T09:09:23Z</time>
      </trkpt>
      <trkpt lat="45.99287" lon="4.50398">
        <ele>393.3</ele>
        <time>2015-11-05T09:09:25Z</time>
      </trkpt>
      <trkpt lat="45.99296" lon="4.50401">
        <ele>393</ele>
        <time>2015-11-05T09:09:27Z</time>
      </trkpt>
      <trkpt lat="45.99308" lon="4.50402">
        <ele>392.6</ele>
        <time>2015-11-05T09:09:30Z</time>
      </trkpt>
      <trkpt lat="45.99319" lon="4.50397">
        <ele>392.2</ele>
        <time>2015-11-05T09:09:33Z</time>
      </trkpt>
      <trkpt lat="45.99328" lon="4.50393">
        <ele>391.9</ele>
        <time>2015-11-05T09:09:36Z</time>
      </trkpt>
      <trkpt lat="45.99337" lon="4.50386">
        <ele>391.6</ele>
        <time>2015-11-05T09:09:40Z</time>
      </trkpt>
      <trkpt lat="45.99344" lon="4.50377">
        <ele>391.5</ele>
        <time>2015-11-05T09:09:44Z</time>
      </trkpt>
      <trkpt lat="45.99354" lon="4.50371">
        <ele>391.4</ele>
        <time>2015-11-05T09:09:48Z</time>
      </trkpt>
      <trkpt lat="45.99364" lon="4.50365">
        <ele>391.5</ele>
        <time>2015-11-05T09:09:52Z</time>
      </trkpt>
      <trkpt lat="45.99373" lon="4.50359">
        <ele>391.6</ele>
        <time>2015-11-05T09:09:56Z</time>
      </trkpt>
      <trkpt lat="45.99383" lon="4.50357">
        <ele>391.6</ele>
        <time>2015-11-05T09:10:00Z</time>
      </trkpt>
      <trkpt lat="45.99393" lon="4.50356">
        <ele>391.5</ele>
        <time>2015-11-05T09:10:04Z</time>
      </trkpt>
      <trkpt lat="45.99402" lon="4.50351">
        <ele>391.5</ele>
        <time>2015-11-05T09:10:08Z</time>
      </trkpt>
      <trkpt lat="45.9941" lon="4.50344">
        <ele>391.5</ele>
        <time>2015-11-05T09:10:12Z</time>
      </trkpt>
      <trkpt lat="45.99416" lon="4.50333">
        <ele>391.6</ele>
        <time>2015-11-05T09:10:17Z</time>
      </trkpt>
      <trkpt lat="45.9942" lon="4.50321">
        <ele>391.5</ele>
        <time>2015-11-05T09:10:20Z</time>
      </trkpt>
      <trkpt lat="45.99424" lon="4.50309">
        <ele>391.2</ele>
        <time>2015-11-05T09:10:22Z</time>
      </trkpt>
      <trkpt lat="45.99429" lon="4.50296">
        <ele>390.9</ele>
        <time>2015-11-05T09:10:24Z</time>
      </trkpt>
      <trkpt lat="45.99433" lon="4.50285">
        <ele>390.5</ele>
        <time>2015-11-05T09:10:26Z</time>
      </trkpt>
      <trkpt lat="45.99437" lon="4.50274">
        <ele>390</ele>
        <time>2015-11-05T09:10:28Z</time>
      </trkpt>
      <trkpt lat="45.99441" lon="4.50263">
        <ele>389.3</ele>
        <time>2015-11-05T09:10:30Z</time>
      </trkpt>
      <trkpt lat="45.99448" lon="4.50252">
        <ele>388.5</ele>
        <time>2015-11-05T09:10:32Z</time>
      </trkpt>
      <trkpt lat="45.99453" lon="4.50237">
        <ele>387.5</ele>
        <time>2015-11-05T09:10:34Z</time>
      </trkpt>
      <trkpt lat="45.99458" lon="4.50225">
        <ele>386.5</ele>
        <time>2015-11-05T09:10:36Z</time>
      </trkpt>
      <trkpt lat="45.99462" lon="4.50215">
        <ele>385.5</ele>
        <time>2015-11-05T09:10:38Z</time>
      </trkpt>
      <trkpt lat="45.9947" lon="4.50203">
        <ele>384.4</ele>
        <time>2015-11-05T09:10:41Z</time>
      </trkpt>
      <trkpt lat="45.99475" lon="4.50189">
        <ele>383.8</ele>
        <time>2015-11-05T09:10:44Z</time>
      </trkpt>
      <trkpt lat="45.99482" lon="4.50174">
        <ele>383.4</ele>
        <time>2015-11-05T09:10:47Z</time>
      </trkpt>
      <trkpt lat="45.99487" lon="4.50162">
        <ele>382.9</ele>
        <time>2015-11-05T09:10:49Z</time>
      </trkpt>
      <trkpt lat="45.99493" lon="4.50151">
        <ele>382.2</ele>
        <time>2015-11-05T09:10:51Z</time>
      </trkpt>
      <trkpt lat="45.995" lon="4.50141">
        <ele>382</ele>
        <time>2015-11-05T09:10:53Z</time>
      </trkpt>
      <trkpt lat="45.99506" lon="4.50133">
        <ele>382.3</ele>
        <time>2015-11-05T09:10:56Z</time>
      </trkpt>
      <trkpt lat="45.99513" lon="4.50126">
        <ele>382.9</ele>
        <time>2015-11-05T09:11:01Z</time>
      </trkpt>
      <trkpt lat="45.99521" lon="4.50121">
        <ele>383.8</ele>
        <time>2015-11-05T09:11:07Z</time>
      </trkpt>
      <trkpt lat="45.9953" lon="4.5012">
        <ele>384.7</ele>
        <time>2015-11-05T09:11:12Z</time>
      </trkpt>
      <trkpt lat="45.9954" lon="4.50119">
        <ele>385.7</ele>
        <time>2015-11-05T09:11:18Z</time>
      </trkpt>
      <trkpt lat="45.99547" lon="4.50113">
        <ele>386.5</ele>
        <time>2015-11-05T09:11:25Z</time>
      </trkpt>
      <trkpt lat="45.99555" lon="4.50105">
        <ele>386.5</ele>
        <time>2015-11-05T09:11:29Z</time>
      </trkpt>
      <trkpt lat="45.99563" lon="4.50097">
        <ele>386.3</ele>
        <time>2015-11-05T09:11:33Z</time>
      </trkpt>
      <trkpt lat="45.99569" lon="4.50088">
        <ele>386</ele>
        <time>2015-11-05T09:11:36Z</time>
      </trkpt>
      <trkpt lat="45.99575" lon="4.5008">
        <ele>386.1</ele>
        <time>2015-11-05T09:11:39Z</time>
      </trkpt>
      <trkpt lat="45.99578" lon="4.50066">
        <ele>385.7</ele>
        <time>2015-11-05T09:11:44Z</time>
      </trkpt>
      <trkpt lat="45.99581" lon="4.5005">
        <ele>384.8</ele>
        <time>2015-11-05T09:11:48Z</time>
      </trkpt>
      <trkpt lat="45.99586" lon="4.5004">
        <ele>383.6</ele>
        <time>2015-11-05T09:11:50Z</time>
      </trkpt>
      <trkpt lat="45.99592" lon="4.50031">
        <ele>382.6</ele>
        <time>2015-11-05T09:11:52Z</time>
      </trkpt>
      <trkpt lat="45.99598" lon="4.50022">
        <ele>381.4</ele>
        <time>2015-11-05T09:11:54Z</time>
      </trkpt>
      <trkpt lat="45.99606" lon="4.50007">
        <ele>380.2</ele>
        <time>2015-11-05T09:11:56Z</time>
      </trkpt>
      <trkpt lat="45.99613" lon="4.49993">
        <ele>379.3</ele>
        <time>2015-11-05T09:11:58Z</time>
      </trkpt>
      <trkpt lat="45.99622" lon="4.49985">
        <ele>378.7</ele>
        <time>2015-11-05T09:12:00Z</time>
      </trkpt>
      <trkpt lat="45.99631" lon="4.49977">
        <ele>378.1</ele>
        <time>2015-11-05T09:12:02Z</time>
      </trkpt>
      <trkpt lat="45.99639" lon="4.49971">
        <ele>377.9</ele>
        <time>2015-11-05T09:12:04Z</time>
      </trkpt>
      <trkpt lat="45.99644" lon="4.49962">
        <ele>377.4</ele>
        <time>2015-11-05T09:12:06Z</time>
      </trkpt>
      <trkpt lat="45.99656" lon="4.49956">
        <ele>377.2</ele>
        <time>2015-11-05T09:12:09Z</time>
      </trkpt>
      <trkpt lat="45.99662" lon="4.49945">
        <ele>377.3</ele>
        <time>2015-11-05T09:12:12Z</time>
      </trkpt>
      <trkpt lat="45.99663" lon="4.49928">
        <ele>377.8</ele>
        <time>2015-11-05T09:12:15Z</time>
      </trkpt>
      <trkpt lat="45.99659" lon="4.49918">
        <ele>378.3</ele>
        <time>2015-11-05T09:12:17Z</time>
      </trkpt>
      <trkpt lat="45.99654" lon="4.49905">
        <ele>378.8</ele>
        <time>2015-11-05T09:12:20Z</time>
      </trkpt>
      <trkpt lat="45.99651" lon="4.49892">
        <ele>379.4</ele>
        <time>2015-11-05T09:12:23Z</time>
      </trkpt>
      <trkpt lat="45.99646" lon="4.4988">
        <ele>379.9</ele>
        <time>2015-11-05T09:12:26Z</time>
      </trkpt>
      <trkpt lat="45.99635" lon="4.49877">
        <ele>380.5</ele>
        <time>2015-11-05T09:12:29Z</time>
      </trkpt>
      <trkpt lat="45.99626" lon="4.49881">
        <ele>381.2</ele>
        <time>2015-11-05T09:12:31Z</time>
      </trkpt>
      <trkpt lat="45.99618" lon="4.49893">
        <ele>381.9</ele>
        <time>2015-11-05T09:12:33Z</time>
      </trkpt>
      <trkpt lat="45.99608" lon="4.49903">
        <ele>382.8</ele>
        <time>2015-11-05T09:12:36Z</time>
      </trkpt>
      <trkpt lat="45.99598" lon="4.49908">
        <ele>383.4</ele>
        <time>2015-11-05T09:12:38Z</time>
      </trkpt>
      <trkpt lat="45.99591" lon="4.49914">
        <ele>384</ele>
        <time>2015-11-05T09:12:40Z</time>
      </trkpt>
      <trkpt lat="45.99584" lon="4.4992">
        <ele>384.4</ele>
        <time>2015-11-05T09:12:42Z</time>
      </trkpt>
      <trkpt lat="45.99574" lon="4.49926">
        <ele>384.9</ele>
        <time>2015-11-05T09:12:45Z</time>
      </trkpt>
      <trkpt lat="45.99566" lon="4.4993">
        <ele>385.6</ele>
        <time>2015-11-05T09:12:47Z</time>
      </trkpt>
      <trkpt lat="45.99555" lon="4.49937">
        <ele>386.4</ele>
        <time>2015-11-05T09:12:50Z</time>
      </trkpt>
      <trkpt lat="45.99545" lon="4.49944">
        <ele>387.3</ele>
        <time>2015-11-05T09:12:53Z</time>
      </trkpt>
      <trkpt lat="45.99536" lon="4.49951">
        <ele>388.4</ele>
        <time>2015-11-05T09:12:56Z</time>
      </trkpt>
      <trkpt lat="45.99527" lon="4.49959">
        <ele>389.3</ele>
        <time>2015-11-05T09:12:59Z</time>
      </trkpt>
      <trkpt lat="45.9952" lon="4.49966">
        <ele>389.8</ele>
        <time>2015-11-05T09:13:02Z</time>
      </trkpt>
      <trkpt lat="45.99512" lon="4.49972">
        <ele>390.3</ele>
        <time>2015-11-05T09:13:05Z</time>
      </trkpt>
      <trkpt lat="45.99503" lon="4.49973">
        <ele>390.7</ele>
        <time>2015-11-05T09:13:08Z</time>
      </trkpt>
      <trkpt lat="45.99494" lon="4.49965">
        <ele>391.2</ele>
        <time>2015-11-05T09:13:12Z</time>
      </trkpt>
      <trkpt lat="45.99488" lon="4.49955">
        <ele>391.5</ele>
        <time>2015-11-05T09:13:14Z</time>
      </trkpt>
      <trkpt lat="45.99483" lon="4.49943">
        <ele>391.8</ele>
        <time>2015-11-05T09:13:16Z</time>
      </trkpt>
      <trkpt lat="45.99481" lon="4.49931">
        <ele>392</ele>
        <time>2015-11-05T09:13:18Z</time>
      </trkpt>
      <trkpt lat="45.9948" lon="4.49919">
        <ele>392.3</ele>
        <time>2015-11-05T09:13:20Z</time>
      </trkpt>
      <trkpt lat="45.99481" lon="4.49907">
        <ele>392.4</ele>
        <time>2015-11-05T09:13:22Z</time>
      </trkpt>
      <trkpt lat="45.99482" lon="4.49895">
        <ele>392.4</ele>
        <time>2015-11-05T09:13:24Z</time>
      </trkpt>
      <trkpt lat="45.99485" lon="4.49879">
        <ele>392.4</ele>
        <time>2015-11-05T09:13:27Z</time>
      </trkpt>
      <trkpt lat="45.99489" lon="4.49865">
        <ele>392.7</ele>
        <time>2015-11-05T09:13:30Z</time>
      </trkpt>
      <trkpt lat="45.99493" lon="4.49851">
        <ele>393.1</ele>
        <time>2015-11-05T09:13:33Z</time>
      </trkpt>
      <trkpt lat="45.99498" lon="4.49837">
        <ele>393.6</ele>
        <time>2015-11-05T09:13:36Z</time>
      </trkpt>
      <trkpt lat="45.99504" lon="4.49824">
        <ele>394</ele>
        <time>2015-11-05T09:13:39Z</time>
      </trkpt>
      <trkpt lat="45.99509" lon="4.4981">
        <ele>394.5</ele>
        <time>2015-11-05T09:13:42Z</time>
      </trkpt>
      <trkpt lat="45.99513" lon="4.49795">
        <ele>395</ele>
        <time>2015-11-05T09:13:45Z</time>
      </trkpt>
      <trkpt lat="45.99518" lon="4.49783">
        <ele>395.2</ele>
        <time>2015-11-05T09:13:48Z</time>
      </trkpt>
      <trkpt lat="45.99522" lon="4.49772">
        <ele>395.4</ele>
        <time>2015-11-05T09:13:51Z</time>
      </trkpt>
      <trkpt lat="45.99526" lon="4.49761">
        <ele>395.8</ele>
        <time>2015-11-05T09:13:54Z</time>
      </trkpt>
      <trkpt lat="45.9953" lon="4.49747">
        <ele>396</ele>
        <time>2015-11-05T09:13:57Z</time>
      </trkpt>
      <trkpt lat="45.99533" lon="4.49736">
        <ele>396.3</ele>
        <time>2015-11-05T09:13:59Z</time>
      </trkpt>
      <trkpt lat="45.99535" lon="4.49724">
        <ele>396.8</ele>
        <time>2015-11-05T09:14:01Z</time>
      </trkpt>
      <trkpt lat="45.99535" lon="4.49712">
        <ele>397.3</ele>
        <time>2015-11-05T09:14:03Z</time>
      </trkpt>
      <trkpt lat="45.9953" lon="4.49702">
        <ele>397.9</ele>
        <time>2015-11-05T09:14:05Z</time>
      </trkpt>
      <trkpt lat="45.99522" lon="4.49698">
        <ele>398.7</ele>
        <time>2015-11-05T09:14:07Z</time>
      </trkpt>
      <trkpt lat="45.99511" lon="4.49698">
        <ele>399.4</ele>
        <time>2015-11-05T09:14:10Z</time>
      </trkpt>
      <trkpt lat="45.995" lon="4.49705">
        <ele>400</ele>
        <time>2015-11-05T09:14:13Z</time>
      </trkpt>
      <trkpt lat="45.99495" lon="4.49718">
        <ele>400.6</ele>
        <time>2015-11-05T09:14:15Z</time>
      </trkpt>
      <trkpt lat="45.9949" lon="4.49732">
        <ele>401.3</ele>
        <time>2015-11-05T09:14:17Z</time>
      </trkpt>
      <trkpt lat="45.99486" lon="4.49746">
        <ele>401.8</ele>
        <time>2015-11-05T09:14:19Z</time>
      </trkpt>
      <trkpt lat="45.99482" lon="4.49759">
        <ele>402.4</ele>
        <time>2015-11-05T09:14:21Z</time>
      </trkpt>
      <trkpt lat="45.99478" lon="4.49771">
        <ele>402.7</ele>
        <time>2015-11-05T09:14:23Z</time>
      </trkpt>
      <trkpt lat="45.99473" lon="4.49783">
        <ele>402.8</ele>
        <time>2015-11-05T09:14:25Z</time>
      </trkpt>
      <trkpt lat="45.99468" lon="4.49793">
        <ele>402.8</ele>
        <time>2015-11-05T09:14:27Z</time>
      </trkpt>
      <trkpt lat="45.99463" lon="4.49803">
        <ele>402.9</ele>
        <time>2015-11-05T09:14:29Z</time>
      </trkpt>
      <trkpt lat="45.99458" lon="4.49814">
        <ele>402.9</ele>
        <time>2015-11-05T09:14:31Z</time>
      </trkpt>
      <trkpt lat="45.99454" lon="4.49826">
        <ele>403</ele>
        <time>2015-11-05T09:14:33Z</time>
      </trkpt>
      <trkpt lat="45.99444" lon="4.49837">
        <ele>403.3</ele>
        <time>2015-11-05T09:14:35Z</time>
      </trkpt>
      <trkpt lat="45.99433" lon="4.49844">
        <ele>403.6</ele>
        <time>2015-11-05T09:14:37Z</time>
      </trkpt>
      <trkpt lat="45.99427" lon="4.49854">
        <ele>404</ele>
        <time>2015-11-05T09:14:39Z</time>
      </trkpt>
      <trkpt lat="45.99424" lon="4.49865">
        <ele>404.2</ele>
        <time>2015-11-05T09:14:41Z</time>
      </trkpt>
      <trkpt lat="45.99419" lon="4.49875">
        <ele>404.6</ele>
        <time>2015-11-05T09:14:43Z</time>
      </trkpt>
      <trkpt lat="45.99417" lon="4.4989">
        <ele>405</ele>
        <time>2015-11-05T09:14:46Z</time>
      </trkpt>
      <trkpt lat="45.99412" lon="4.499">
        <ele>405.5</ele>
        <time>2015-11-05T09:14:48Z</time>
      </trkpt>
      <trkpt lat="45.99412" lon="4.49914">
        <ele>405.9</ele>
        <time>2015-11-05T09:14:51Z</time>
      </trkpt>
      <trkpt lat="45.9941" lon="4.49928">
        <ele>406.3</ele>
        <time>2015-11-05T09:14:54Z</time>
      </trkpt>
      <trkpt lat="45.9941" lon="4.49948">
        <ele>406.6</ele>
        <time>2015-11-05T09:14:57Z</time>
      </trkpt>
      <trkpt lat="45.9941" lon="4.4996">
        <ele>406.6</ele>
        <time>2015-11-05T09:14:58Z</time>
      </trkpt>
      <trkpt lat="45.99414" lon="4.49974">
        <ele>406.5</ele>
        <time>2015-11-05T09:15:00Z</time>
      </trkpt>
      <trkpt lat="45.99416" lon="4.49988">
        <ele>406.3</ele>
        <time>2015-11-05T09:15:02Z</time>
      </trkpt>
      <trkpt lat="45.99419" lon="4.50001">
        <ele>406</ele>
        <time>2015-11-05T09:15:04Z</time>
      </trkpt>
      <trkpt lat="45.9942" lon="4.50014">
        <ele>405.6</ele>
        <time>2015-11-05T09:15:06Z</time>
      </trkpt>
      <trkpt lat="45.99417" lon="4.50025">
        <ele>404.8</ele>
        <time>2015-11-05T09:15:08Z</time>
      </trkpt>
      <trkpt lat="45.99413" lon="4.50039">
        <ele>404</ele>
        <time>2015-11-05T09:15:10Z</time>
      </trkpt>
      <trkpt lat="45.99407" lon="4.50049">
        <ele>403</ele>
        <time>2015-11-05T09:15:12Z</time>
      </trkpt>
      <trkpt lat="45.99398" lon="4.50066">
        <ele>401.7</ele>
        <time>2015-11-05T09:15:14Z</time>
      </trkpt>
      <trkpt lat="45.99392" lon="4.50077">
        <ele>400.3</ele>
        <time>2015-11-05T09:15:16Z</time>
      </trkpt>
      <trkpt lat="45.99387" lon="4.50088">
        <ele>399.1</ele>
        <time>2015-11-05T09:15:18Z</time>
      </trkpt>
      <trkpt lat="45.99383" lon="4.501">
        <ele>398.3</ele>
        <time>2015-11-05T09:15:20Z</time>
      </trkpt>
      <trkpt lat="45.99379" lon="4.50113">
        <ele>397.6</ele>
        <time>2015-11-05T09:15:22Z</time>
      </trkpt>
      <trkpt lat="45.99375" lon="4.50125">
        <ele>397</ele>
        <time>2015-11-05T09:15:24Z</time>
      </trkpt>
      <trkpt lat="45.99369" lon="4.50136">
        <ele>396.1</ele>
        <time>2015-11-05T09:15:27Z</time>
      </trkpt>
      <trkpt lat="45.99361" lon="4.50141">
        <ele>395.5</ele>
        <time>2015-11-05T09:15:31Z</time>
      </trkpt>
      <trkpt lat="45.99353" lon="4.5014">
        <ele>395.1</ele>
        <time>2015-11-05T09:15:36Z</time>
      </trkpt>
      <trkpt lat="45.99344" lon="4.50137">
        <ele>394.9</ele>
        <time>2015-11-05T09:15:38Z</time>
      </trkpt>
      <trkpt lat="45.99335" lon="4.50134">
        <ele>395.3</ele>
        <time>2015-11-05T09:15:40Z</time>
      </trkpt>
      <trkpt lat="45.99326" lon="4.5013">
        <ele>396.1</ele>
        <time>2015-11-05T09:15:42Z</time>
      </trkpt>
      <trkpt lat="45.99319" lon="4.50124">
        <ele>397.2</ele>
        <time>2015-11-05T09:15:44Z</time>
      </trkpt>
      <trkpt lat="45.99312" lon="4.50113">
        <ele>398</ele>
        <time>2015-11-05T09:15:47Z</time>
      </trkpt>
      <trkpt lat="45.99307" lon="4.50103">
        <ele>398.8</ele>
        <time>2015-11-05T09:15:50Z</time>
      </trkpt>
      <trkpt lat="45.99301" lon="4.50092">
        <ele>399.4</ele>
        <time>2015-11-05T09:15:54Z</time>
      </trkpt>
      <trkpt lat="45.99294" lon="4.50082">
        <ele>400.1</ele>
        <time>2015-11-05T09:15:58Z</time>
      </trkpt>
      <trkpt lat="45.99286" lon="4.50074">
        <ele>401.4</ele>
        <time>2015-11-05T09:16:02Z</time>
      </trkpt>
      <trkpt lat="45.99279" lon="4.50068">
        <ele>402.7</ele>
        <time>2015-11-05T09:16:05Z</time>
      </trkpt>
      <trkpt lat="45.9927" lon="4.50061">
        <ele>404.3</ele>
        <time>2015-11-05T09:16:09Z</time>
      </trkpt>
      <trkpt lat="45.99261" lon="4.50057">
        <ele>405.7</ele>
        <time>2015-11-05T09:16:13Z</time>
      </trkpt>
      <trkpt lat="45.99253" lon="4.50056">
        <ele>406.8</ele>
        <time>2015-11-05T09:16:17Z</time>
      </trkpt>
      <trkpt lat="45.99242" lon="4.50056">
        <ele>408</ele>
        <time>2015-11-05T09:16:21Z</time>
      </trkpt>
      <trkpt lat="45.99232" lon="4.50055">
        <ele>408.8</ele>
        <time>2015-11-05T09:16:25Z</time>
      </trkpt>
      <trkpt lat="45.99223" lon="4.50053">
        <ele>409.9</ele>
        <time>2015-11-05T09:16:28Z</time>
      </trkpt>
      <trkpt lat="45.99215" lon="4.50049">
        <ele>411.1</ele>
        <time>2015-11-05T09:16:32Z</time>
      </trkpt>
      <trkpt lat="45.99207" lon="4.50045">
        <ele>412.3</ele>
        <time>2015-11-05T09:16:35Z</time>
      </trkpt>
      <trkpt lat="45.992" lon="4.50037">
        <ele>413</ele>
        <time>2015-11-05T09:16:39Z</time>
      </trkpt>
      <trkpt lat="45.99192" lon="4.50031">
        <ele>413.2</ele>
        <time>2015-11-05T09:16:43Z</time>
      </trkpt>
      <trkpt lat="45.99185" lon="4.50026">
        <ele>413.1</ele>
        <time>2015-11-05T09:16:49Z</time>
      </trkpt>
      <trkpt lat="45.99178" lon="4.50018">
        <ele>412.9</ele>
        <time>2015-11-05T09:17:00Z</time>
      </trkpt>
      <trkpt lat="45.99169" lon="4.50012">
        <ele>412.9</ele>
        <time>2015-11-05T09:17:04Z</time>
      </trkpt>
      <trkpt lat="45.99159" lon="4.50006">
        <ele>413.3</ele>
        <time>2015-11-05T09:17:07Z</time>
      </trkpt>
      <trkpt lat="45.99149" lon="4.50001">
        <ele>413.5</ele>
        <time>2015-11-05T09:17:10Z</time>
      </trkpt>
      <trkpt lat="45.99141" lon="4.49995">
        <ele>414</ele>
        <time>2015-11-05T09:17:13Z</time>
      </trkpt>
      <trkpt lat="45.99134" lon="4.49987">
        <ele>414.7</ele>
        <time>2015-11-05T09:17:17Z</time>
      </trkpt>
      <trkpt lat="45.99126" lon="4.49979">
        <ele>415.3</ele>
        <time>2015-11-05T09:17:22Z</time>
      </trkpt>
      <trkpt lat="45.99118" lon="4.49971">
        <ele>416.1</ele>
        <time>2015-11-05T09:17:27Z</time>
      </trkpt>
      <trkpt lat="45.99113" lon="4.49963">
        <ele>417.6</ele>
        <time>2015-11-05T09:17:33Z</time>
      </trkpt>
      <trkpt lat="45.99106" lon="4.49954">
        <ele>419.4</ele>
        <time>2015-11-05T09:17:42Z</time>
      </trkpt>
      <trkpt lat="45.99098" lon="4.49948">
        <ele>421.6</ele>
        <time>2015-11-05T09:17:46Z</time>
      </trkpt>
      <trkpt lat="45.99089" lon="4.49941">
        <ele>423.7</ele>
        <time>2015-11-05T09:17:50Z</time>
      </trkpt>
      <trkpt lat="45.9908" lon="4.49936">
        <ele>425.6</ele>
        <time>2015-11-05T09:17:54Z</time>
      </trkpt>
      <trkpt lat="45.99072" lon="4.4993">
        <ele>427.3</ele>
        <time>2015-11-05T09:18:00Z</time>
      </trkpt>
      <trkpt lat="45.99064" lon="4.49923">
        <ele>428.6</ele>
        <time>2015-11-05T09:18:06Z</time>
      </trkpt>
      <trkpt lat="45.99055" lon="4.49919">
        <ele>429.4</ele>
        <time>2015-11-05T09:18:11Z</time>
      </trkpt>
      <trkpt lat="45.99047" lon="4.49915">
        <ele>430.3</ele>
        <time>2015-11-05T09:18:17Z</time>
      </trkpt>
      <trkpt lat="45.99039" lon="4.49911">
        <ele>431.1</ele>
        <time>2015-11-05T09:18:22Z</time>
      </trkpt>
      <trkpt lat="45.9903" lon="4.49906">
        <ele>431.8</ele>
        <time>2015-11-05T09:18:28Z</time>
      </trkpt>
      <trkpt lat="45.99021" lon="4.499">
        <ele>432.2</ele>
        <time>2015-11-05T09:18:31Z</time>
      </trkpt>
      <trkpt lat="45.99012" lon="4.49894">
        <ele>432.2</ele>
        <time>2015-11-05T09:18:35Z</time>
      </trkpt>
      <trkpt lat="45.99005" lon="4.49885">
        <ele>432.2</ele>
        <time>2015-11-05T09:18:39Z</time>
      </trkpt>
      <trkpt lat="45.98999" lon="4.49874">
        <ele>431.9</ele>
        <time>2015-11-05T09:18:43Z</time>
      </trkpt>
      <trkpt lat="45.98995" lon="4.49862">
        <ele>431.8</ele>
        <time>2015-11-05T09:18:47Z</time>
      </trkpt>
      <trkpt lat="45.98991" lon="4.4985">
        <ele>431.8</ele>
        <time>2015-11-05T09:18:51Z</time>
      </trkpt>
      <trkpt lat="45.98986" lon="4.49839">
        <ele>431.9</ele>
        <time>2015-11-05T09:18:55Z</time>
      </trkpt>
      <trkpt lat="45.98982" lon="4.49827">
        <ele>432.4</ele>
        <time>2015-11-05T09:19:00Z</time>
      </trkpt>
      <trkpt lat="45.98978" lon="4.49814">
        <ele>432.7</ele>
        <time>2015-11-05T09:19:05Z</time>
      </trkpt>
      <trkpt lat="45.98975" lon="4.49801">
        <ele>432.9</ele>
        <time>2015-11-05T09:19:10Z</time>
      </trkpt>
      <trkpt lat="45.98974" lon="4.49789">
        <ele>433</ele>
        <time>2015-11-05T09:19:14Z</time>
      </trkpt>
      <trkpt lat="45.98973" lon="4.49777">
        <ele>433.1</ele>
        <time>2015-11-05T09:19:18Z</time>
      </trkpt>
      <trkpt lat="45.98973" lon="4.49764">
        <ele>433.7</ele>
        <time>2015-11-05T09:19:22Z</time>
      </trkpt>
      <trkpt lat="45.98975" lon="4.49752">
        <ele>434.1</ele>
        <time>2015-11-05T09:19:26Z</time>
      </trkpt>
      <trkpt lat="45.98976" lon="4.4974">
        <ele>434.9</ele>
        <time>2015-11-05T09:19:30Z</time>
      </trkpt>
      <trkpt lat="45.98978" lon="4.49728">
        <ele>435.6</ele>
        <time>2015-11-05T09:19:34Z</time>
      </trkpt>
      <trkpt lat="45.9898" lon="4.49716">
        <ele>436.3</ele>
        <time>2015-11-05T09:19:38Z</time>
      </trkpt>
      <trkpt lat="45.98982" lon="4.49705">
        <ele>437.1</ele>
        <time>2015-11-05T09:19:42Z</time>
      </trkpt>
      <trkpt lat="45.98985" lon="4.49692">
        <ele>437.9</ele>
        <time>2015-11-05T09:19:47Z</time>
      </trkpt>
      <trkpt lat="45.98987" lon="4.49678">
        <ele>438.7</ele>
        <time>2015-11-05T09:19:52Z</time>
      </trkpt>
      <trkpt lat="45.98989" lon="4.49664">
        <ele>439.2</ele>
        <time>2015-11-05T09:19:57Z</time>
      </trkpt>
      <trkpt lat="45.9899" lon="4.49651">
        <ele>439.8</ele>
        <time>2015-11-05T09:20:02Z</time>
      </trkpt>
      <trkpt lat="45.98991" lon="4.49637">
        <ele>440.4</ele>
        <time>2015-11-05T09:20:07Z</time>
      </trkpt>
      <trkpt lat="45.98992" lon="4.49623">
        <ele>441.1</ele>
        <time>2015-11-05T09:20:12Z</time>
      </trkpt>
      <trkpt lat="45.98993" lon="4.49609">
        <ele>441.7</ele>
        <time>2015-11-05T09:20:17Z</time>
      </trkpt>
      <trkpt lat="45.98995" lon="4.49597">
        <ele>442.2</ele>
        <time>2015-11-05T09:20:21Z</time>
      </trkpt>
      <trkpt lat="45.98997" lon="4.49583">
        <ele>442.5</ele>
        <time>2015-11-05T09:20:26Z</time>
      </trkpt>
      <trkpt lat="45.99" lon="4.49569">
        <ele>442.6</ele>
        <time>2015-11-05T09:20:31Z</time>
      </trkpt>
      <trkpt lat="45.99003" lon="4.49558">
        <ele>442.5</ele>
        <time>2015-11-05T09:20:35Z</time>
      </trkpt>
      <trkpt lat="45.99006" lon="4.49546">
        <ele>442.8</ele>
        <time>2015-11-05T09:20:39Z</time>
      </trkpt>
      <trkpt lat="45.9901" lon="4.49535">
        <ele>443.3</ele>
        <time>2015-11-05T09:20:43Z</time>
      </trkpt>
      <trkpt lat="45.99013" lon="4.49523">
        <ele>443.9</ele>
        <time>2015-11-05T09:20:47Z</time>
      </trkpt>
      <trkpt lat="45.99017" lon="4.49511">
        <ele>444.4</ele>
        <time>2015-11-05T09:20:51Z</time>
      </trkpt>
      <trkpt lat="45.99021" lon="4.49498">
        <ele>445.1</ele>
        <time>2015-11-05T09:20:55Z</time>
      </trkpt>
      <trkpt lat="45.99024" lon="4.49487">
        <ele>445.9</ele>
        <time>2015-11-05T09:20:59Z</time>
      </trkpt>
      <trkpt lat="45.99029" lon="4.49475">
        <ele>446.7</ele>
        <time>2015-11-05T09:21:04Z</time>
      </trkpt>
      <trkpt lat="45.99034" lon="4.49463">
        <ele>447.5</ele>
        <time>2015-11-05T09:21:09Z</time>
      </trkpt>
      <trkpt lat="45.99039" lon="4.49454">
        <ele>448.3</ele>
        <time>2015-11-05T09:21:13Z</time>
      </trkpt>
      <trkpt lat="45.99043" lon="4.49441">
        <ele>449.1</ele>
        <time>2015-11-05T09:21:18Z</time>
      </trkpt>
      <trkpt lat="45.99047" lon="4.49428">
        <ele>450.1</ele>
        <time>2015-11-05T09:21:23Z</time>
      </trkpt>
      <trkpt lat="45.99049" lon="4.49416">
        <ele>450.7</ele>
        <time>2015-11-05T09:21:27Z</time>
      </trkpt>
      <trkpt lat="45.9905" lon="4.49404">
        <ele>451.2</ele>
        <time>2015-11-05T09:21:31Z</time>
      </trkpt>
      <trkpt lat="45.9905" lon="4.49391">
        <ele>451.7</ele>
        <time>2015-11-05T09:21:35Z</time>
      </trkpt>
      <trkpt lat="45.99051" lon="4.49378">
        <ele>452.5</ele>
        <time>2015-11-05T09:21:39Z</time>
      </trkpt>
      <trkpt lat="45.99053" lon="4.49366">
        <ele>453.1</ele>
        <time>2015-11-05T09:21:43Z</time>
      </trkpt>
      <trkpt lat="45.99056" lon="4.49353">
        <ele>453.6</ele>
        <time>2015-11-05T09:21:47Z</time>
      </trkpt>
      <trkpt lat="45.99059" lon="4.49341">
        <ele>454.1</ele>
        <time>2015-11-05T09:21:51Z</time>
      </trkpt>
      <trkpt lat="45.99063" lon="4.4933">
        <ele>454.8</ele>
        <time>2015-11-05T09:21:55Z</time>
      </trkpt>
      <trkpt lat="45.99069" lon="4.49319">
        <ele>455.6</ele>
        <time>2015-11-05T09:22:00Z</time>
      </trkpt>
      <trkpt lat="45.99077" lon="4.49308">
        <ele>456.3</ele>
        <time>2015-11-05T09:22:05Z</time>
      </trkpt>
      <trkpt lat="45.99083" lon="4.49297">
        <ele>456.8</ele>
        <time>2015-11-05T09:22:09Z</time>
      </trkpt>
      <trkpt lat="45.99089" lon="4.49285">
        <ele>457.2</ele>
        <time>2015-11-05T09:22:13Z</time>
      </trkpt>
      <trkpt lat="45.99095" lon="4.49272">
        <ele>457.8</ele>
        <time>2015-11-05T09:22:17Z</time>
      </trkpt>
      <trkpt lat="45.99099" lon="4.49259">
        <ele>458.5</ele>
        <time>2015-11-05T09:22:21Z</time>
      </trkpt>
      <trkpt lat="45.991" lon="4.49246">
        <ele>458.9</ele>
        <time>2015-11-05T09:22:24Z</time>
      </trkpt>
      <trkpt lat="45.99101" lon="4.49231">
        <ele>459.2</ele>
        <time>2015-11-05T09:22:27Z</time>
      </trkpt>
      <trkpt lat="45.99101" lon="4.49216">
        <ele>459.6</ele>
        <time>2015-11-05T09:22:30Z</time>
      </trkpt>
      <trkpt lat="45.99097" lon="4.49204">
        <ele>460.1</ele>
        <time>2015-11-05T09:22:33Z</time>
      </trkpt>
      <trkpt lat="45.99092" lon="4.49193">
        <ele>460.3</ele>
        <time>2015-11-05T09:22:36Z</time>
      </trkpt>
      <trkpt lat="45.99088" lon="4.49178">
        <ele>460.7</ele>
        <time>2015-11-05T09:22:40Z</time>
      </trkpt>
      <trkpt lat="45.99085" lon="4.49167">
        <ele>461.2</ele>
        <time>2015-11-05T09:22:43Z</time>
      </trkpt>
      <trkpt lat="45.99082" lon="4.49154">
        <ele>461.8</ele>
        <time>2015-11-05T09:22:46Z</time>
      </trkpt>
      <trkpt lat="45.9908" lon="4.49143">
        <ele>462.6</ele>
        <time>2015-11-05T09:22:49Z</time>
      </trkpt>
      <trkpt lat="45.99079" lon="4.49128">
        <ele>463.2</ele>
        <time>2015-11-05T09:22:53Z</time>
      </trkpt>
      <trkpt lat="45.99075" lon="4.49114">
        <ele>463.5</ele>
        <time>2015-11-05T09:22:57Z</time>
      </trkpt>
      <trkpt lat="45.99075" lon="4.49101">
        <ele>463.9</ele>
        <time>2015-11-05T09:23:00Z</time>
      </trkpt>
      <trkpt lat="45.99076" lon="4.49089">
        <ele>464.3</ele>
        <time>2015-11-05T09:23:03Z</time>
      </trkpt>
      <trkpt lat="45.99077" lon="4.49076">
        <ele>464.7</ele>
        <time>2015-11-05T09:23:06Z</time>
      </trkpt>
      <trkpt lat="45.99077" lon="4.49064">
        <ele>465</ele>
        <time>2015-11-05T09:23:09Z</time>
      </trkpt>
      <trkpt lat="45.99077" lon="4.49051">
        <ele>465.5</ele>
        <time>2015-11-05T09:23:12Z</time>
      </trkpt>
      <trkpt lat="45.99076" lon="4.49038">
        <ele>465.8</ele>
        <time>2015-11-05T09:23:15Z</time>
      </trkpt>
      <trkpt lat="45.99075" lon="4.49026">
        <ele>466.3</ele>
        <time>2015-11-05T09:23:18Z</time>
      </trkpt>
      <trkpt lat="45.99074" lon="4.49015">
        <ele>466.7</ele>
        <time>2015-11-05T09:23:21Z</time>
      </trkpt>
      <trkpt lat="45.99073" lon="4.49003">
        <ele>467.2</ele>
        <time>2015-11-05T09:23:24Z</time>
      </trkpt>
      <trkpt lat="45.99072" lon="4.48991">
        <ele>467.7</ele>
        <time>2015-11-05T09:23:27Z</time>
      </trkpt>
      <trkpt lat="45.99072" lon="4.48978">
        <ele>468.5</ele>
        <time>2015-11-05T09:23:30Z</time>
      </trkpt>
      <trkpt lat="45.99072" lon="4.48966">
        <ele>469.2</ele>
        <time>2015-11-05T09:23:33Z</time>
      </trkpt>
      <trkpt lat="45.99072" lon="4.48954">
        <ele>469.9</ele>
        <time>2015-11-05T09:23:36Z</time>
      </trkpt>
      <trkpt lat="45.99072" lon="4.48942">
        <ele>470.7</ele>
        <time>2015-11-05T09:23:39Z</time>
      </trkpt>
      <trkpt lat="45.99073" lon="4.48931">
        <ele>471.4</ele>
        <time>2015-11-05T09:23:42Z</time>
      </trkpt>
      <trkpt lat="45.99072" lon="4.48916">
        <ele>472.1</ele>
        <time>2015-11-05T09:23:46Z</time>
      </trkpt>
      <trkpt lat="45.99068" lon="4.48904">
        <ele>472.8</ele>
        <time>2015-11-05T09:23:50Z</time>
      </trkpt>
      <trkpt lat="45.99058" lon="4.48894">
        <ele>473.4</ele>
        <time>2015-11-05T09:23:52Z</time>
      </trkpt>
      <trkpt lat="45.99047" lon="4.48886">
        <ele>474.1</ele>
        <time>2015-11-05T09:23:54Z</time>
      </trkpt>
      <trkpt lat="45.99036" lon="4.48878">
        <ele>474.7</ele>
        <time>2015-11-05T09:23:56Z</time>
      </trkpt>
      <trkpt lat="45.99026" lon="4.48874">
        <ele>475.3</ele>
        <time>2015-11-05T09:23:58Z</time>
      </trkpt>
      <trkpt lat="45.99017" lon="4.48869">
        <ele>475.8</ele>
        <time>2015-11-05T09:24:00Z</time>
      </trkpt>
      <trkpt lat="45.99008" lon="4.48863">
        <ele>476.3</ele>
        <time>2015-11-05T09:24:02Z</time>
      </trkpt>
      <trkpt lat="45.99001" lon="4.48856">
        <ele>476.8</ele>
        <time>2015-11-05T09:24:04Z</time>
      </trkpt>
      <trkpt lat="45.98993" lon="4.48851">
        <ele>477.3</ele>
        <time>2015-11-05T09:24:06Z</time>
      </trkpt>
      <trkpt lat="45.98983" lon="4.48844">
        <ele>477.8</ele>
        <time>2015-11-05T09:24:09Z</time>
      </trkpt>
      <trkpt lat="45.98975" lon="4.48838">
        <ele>478.2</ele>
        <time>2015-11-05T09:24:11Z</time>
      </trkpt>
      <trkpt lat="45.98964" lon="4.48828">
        <ele>478.8</ele>
        <time>2015-11-05T09:24:14Z</time>
      </trkpt>
      <trkpt lat="45.98957" lon="4.4882">
        <ele>479.3</ele>
        <time>2015-11-05T09:24:16Z</time>
      </trkpt>
      <trkpt lat="45.98949" lon="4.48809">
        <ele>479.7</ele>
        <time>2015-11-05T09:24:19Z</time>
      </trkpt>
      <trkpt lat="45.98943" lon="4.48797">
        <ele>479.9</ele>
        <time>2015-11-05T09:24:21Z</time>
      </trkpt>
      <trkpt lat="45.98939" lon="4.48783">
        <ele>480</ele>
        <time>2015-11-05T09:24:23Z</time>
      </trkpt>
      <trkpt lat="45.9894" lon="4.48767">
        <ele>480.2</ele>
        <time>2015-11-05T09:24:26Z</time>
      </trkpt>
      <trkpt lat="45.98938" lon="4.48753">
        <ele>480.3</ele>
        <time>2015-11-05T09:24:28Z</time>
      </trkpt>
      <trkpt lat="45.98939" lon="4.48741">
        <ele>480.6</ele>
        <time>2015-11-05T09:24:30Z</time>
      </trkpt>
      <trkpt lat="45.9894" lon="4.48728">
        <ele>480.9</ele>
        <time>2015-11-05T09:24:32Z</time>
      </trkpt>
      <trkpt lat="45.98941" lon="4.48717">
        <ele>481.2</ele>
        <time>2015-11-05T09:24:34Z</time>
      </trkpt>
      <trkpt lat="45.98943" lon="4.487">
        <ele>481.6</ele>
        <time>2015-11-05T09:24:37Z</time>
      </trkpt>
      <trkpt lat="45.98943" lon="4.48682">
        <ele>481.8</ele>
        <time>2015-11-05T09:24:40Z</time>
      </trkpt>
      <trkpt lat="45.98942" lon="4.48666">
        <ele>482</ele>
        <time>2015-11-05T09:24:43Z</time>
      </trkpt>
      <trkpt lat="45.98941" lon="4.48649">
        <ele>482.3</ele>
        <time>2015-11-05T09:24:46Z</time>
      </trkpt>
      <trkpt lat="45.98938" lon="4.48637">
        <ele>482.8</ele>
        <time>2015-11-05T09:24:47Z</time>
      </trkpt>
      <trkpt lat="45.98938" lon="4.48619">
        <ele>483.4</ele>
        <time>2015-11-05T09:24:49Z</time>
      </trkpt>
      <trkpt lat="45.98935" lon="4.48601">
        <ele>483.9</ele>
        <time>2015-11-05T09:24:51Z</time>
      </trkpt>
      <trkpt lat="45.98934" lon="4.48585">
        <ele>484.5</ele>
        <time>2015-11-05T09:24:53Z</time>
      </trkpt>
      <trkpt lat="45.98935" lon="4.48569">
        <ele>484.7</ele>
        <time>2015-11-05T09:24:55Z</time>
      </trkpt>
      <trkpt lat="45.98933" lon="4.48551">
        <ele>484.9</ele>
        <time>2015-11-05T09:24:57Z</time>
      </trkpt>
      <trkpt lat="45.98935" lon="4.48533">
        <ele>485.1</ele>
        <time>2015-11-05T09:24:59Z</time>
      </trkpt>
      <trkpt lat="45.98935" lon="4.48516">
        <ele>485.3</ele>
        <time>2015-11-05T09:25:01Z</time>
      </trkpt>
      <trkpt lat="45.98928" lon="4.48498">
        <ele>485.5</ele>
        <time>2015-11-05T09:25:03Z</time>
      </trkpt>
      <trkpt lat="45.98928" lon="4.48484">
        <ele>485.7</ele>
        <time>2015-11-05T09:25:05Z</time>
      </trkpt>
      <trkpt lat="45.98921" lon="4.48468">
        <ele>485.9</ele>
        <time>2015-11-05T09:25:07Z</time>
      </trkpt>
      <trkpt lat="45.98916" lon="4.4845">
        <ele>486</ele>
        <time>2015-11-05T09:25:09Z</time>
      </trkpt>
      <trkpt lat="45.9891" lon="4.48431">
        <ele>486.1</ele>
        <time>2015-11-05T09:25:11Z</time>
      </trkpt>
      <trkpt lat="45.98907" lon="4.48412">
        <ele>486.1</ele>
        <time>2015-11-05T09:25:13Z</time>
      </trkpt>
      <trkpt lat="45.98905" lon="4.48395">
        <ele>486</ele>
        <time>2015-11-05T09:25:15Z</time>
      </trkpt>
      <trkpt lat="45.98899" lon="4.48377">
        <ele>486.2</ele>
        <time>2015-11-05T09:25:17Z</time>
      </trkpt>
      <trkpt lat="45.98894" lon="4.48363">
        <ele>486.3</ele>
        <time>2015-11-05T09:25:19Z</time>
      </trkpt>
      <trkpt lat="45.98884" lon="4.48349">
        <ele>486.4</ele>
        <time>2015-11-05T09:25:21Z</time>
      </trkpt>
      <trkpt lat="45.98877" lon="4.48336">
        <ele>486.6</ele>
        <time>2015-11-05T09:25:23Z</time>
      </trkpt>
      <trkpt lat="45.98872" lon="4.48324">
        <ele>486.7</ele>
        <time>2015-11-05T09:25:25Z</time>
      </trkpt>
      <trkpt lat="45.98864" lon="4.48319">
        <ele>487</ele>
        <time>2015-11-05T09:25:28Z</time>
      </trkpt>
      <trkpt lat="45.98855" lon="4.48328">
        <ele>487.3</ele>
        <time>2015-11-05T09:25:30Z</time>
      </trkpt>
      <trkpt lat="45.98845" lon="4.48338">
        <ele>487.6</ele>
        <time>2015-11-05T09:25:32Z</time>
      </trkpt>
      <trkpt lat="45.98836" lon="4.4835">
        <ele>487.9</ele>
        <time>2015-11-05T09:25:34Z</time>
      </trkpt>
      <trkpt lat="45.98843" lon="4.48366">
        <ele>488.4</ele>
        <time>2015-11-05T09:25:35Z</time>
      </trkpt>
      <trkpt lat="45.98848" lon="4.48378">
        <ele>488.8</ele>
        <time>2015-11-05T09:25:36Z</time>
      </trkpt>
      <trkpt lat="45.9885" lon="4.48395">
        <ele>489.3</ele>
        <time>2015-11-05T09:25:38Z</time>
      </trkpt>
      <trkpt lat="45.98849" lon="4.48413">
        <ele>489.8</ele>
        <time>2015-11-05T09:25:40Z</time>
      </trkpt>
      <trkpt lat="45.98848" lon="4.48433">
        <ele>490.2</ele>
        <time>2015-11-05T09:25:42Z</time>
      </trkpt>
      <trkpt lat="45.9884" lon="4.48449">
        <ele>490.6</ele>
        <time>2015-11-05T09:25:44Z</time>
      </trkpt>
      <trkpt lat="45.98839" lon="4.48468">
        <ele>490.9</ele>
        <time>2015-11-05T09:25:46Z</time>
      </trkpt>
      <trkpt lat="45.9884" lon="4.4848">
        <ele>491.2</ele>
        <time>2015-11-05T09:25:47Z</time>
      </trkpt>
      <trkpt lat="45.98839" lon="4.48499">
        <ele>491.5</ele>
        <time>2015-11-05T09:25:49Z</time>
      </trkpt>
      <trkpt lat="45.98833" lon="4.48514">
        <ele>491.9</ele>
        <time>2015-11-05T09:25:51Z</time>
      </trkpt>
      <trkpt lat="45.98833" lon="4.48534">
        <ele>492.3</ele>
        <time>2015-11-05T09:25:53Z</time>
      </trkpt>
      <trkpt lat="45.98828" lon="4.4855">
        <ele>492.6</ele>
        <time>2015-11-05T09:25:55Z</time>
      </trkpt>
      <trkpt lat="45.98825" lon="4.48568">
        <ele>492.9</ele>
        <time>2015-11-05T09:25:57Z</time>
      </trkpt>
      <trkpt lat="45.98828" lon="4.48587">
        <ele>493.1</ele>
        <time>2015-11-05T09:25:59Z</time>
      </trkpt>
      <trkpt lat="45.98828" lon="4.48605">
        <ele>493.3</ele>
        <time>2015-11-05T09:26:01Z</time>
      </trkpt>
      <trkpt lat="45.98825" lon="4.48621">
        <ele>493.4</ele>
        <time>2015-11-05T09:26:03Z</time>
      </trkpt>
      <trkpt lat="45.9882" lon="4.48634">
        <ele>493.5</ele>
        <time>2015-11-05T09:26:05Z</time>
      </trkpt>
      <trkpt lat="45.98823" lon="4.48652">
        <ele>493.6</ele>
        <time>2015-11-05T09:26:07Z</time>
      </trkpt>
      <trkpt lat="45.98824" lon="4.48666">
        <ele>493.6</ele>
        <time>2015-11-05T09:26:09Z</time>
      </trkpt>
      <trkpt lat="45.98824" lon="4.48684">
        <ele>493.3</ele>
        <time>2015-11-05T09:26:11Z</time>
      </trkpt>
      <trkpt lat="45.98819" lon="4.48696">
        <ele>492.9</ele>
        <time>2015-11-05T09:26:13Z</time>
      </trkpt>
      <trkpt lat="45.98818" lon="4.48712">
        <ele>492.2</ele>
        <time>2015-11-05T09:26:15Z</time>
      </trkpt>
      <trkpt lat="45.98816" lon="4.48724">
        <ele>491.6</ele>
        <time>2015-11-05T09:26:17Z</time>
      </trkpt>
      <trkpt lat="45.98809" lon="4.48732">
        <ele>491</ele>
        <time>2015-11-05T09:26:19Z</time>
      </trkpt>
      <trkpt lat="45.98804" lon="4.48744">
        <ele>490.3</ele>
        <time>2015-11-05T09:26:22Z</time>
      </trkpt>
      <trkpt lat="45.98798" lon="4.48753">
        <ele>489.6</ele>
        <time>2015-11-05T09:26:25Z</time>
      </trkpt>
      <trkpt lat="45.98792" lon="4.48764">
        <ele>489.1</ele>
        <time>2015-11-05T09:26:28Z</time>
      </trkpt>
      <trkpt lat="45.98784" lon="4.48777">
        <ele>488.9</ele>
        <time>2015-11-05T09:26:31Z</time>
      </trkpt>
      <trkpt lat="45.98772" lon="4.48786">
        <ele>488.8</ele>
        <time>2015-11-05T09:26:33Z</time>
      </trkpt>
      <trkpt lat="45.98765" lon="4.48796">
        <ele>488.9</ele>
        <time>2015-11-05T09:26:35Z</time>
      </trkpt>
      <trkpt lat="45.98757" lon="4.48809">
        <ele>489.2</ele>
        <time>2015-11-05T09:26:37Z</time>
      </trkpt>
      <trkpt lat="45.98744" lon="4.48811">
        <ele>489.6</ele>
        <time>2015-11-05T09:26:39Z</time>
      </trkpt>
      <trkpt lat="45.98743" lon="4.48826">
        <ele>490.1</ele>
        <time>2015-11-05T09:26:42Z</time>
      </trkpt>
      <trkpt lat="45.98746" lon="4.48839">
        <ele>490.5</ele>
        <time>2015-11-05T09:26:44Z</time>
      </trkpt>
      <trkpt lat="45.98752" lon="4.48855">
        <ele>490.9</ele>
        <time>2015-11-05T09:26:46Z</time>
      </trkpt>
      <trkpt lat="45.98756" lon="4.48871">
        <ele>491.2</ele>
        <time>2015-11-05T09:26:48Z</time>
      </trkpt>
      <trkpt lat="45.98758" lon="4.48887">
        <ele>491.5</ele>
        <time>2015-11-05T09:26:50Z</time>
      </trkpt>
      <trkpt lat="45.98759" lon="4.48904">
        <ele>491.6</ele>
        <time>2015-11-05T09:26:52Z</time>
      </trkpt>
      <trkpt lat="45.98762" lon="4.48923">
        <ele>491.4</ele>
        <time>2015-11-05T09:26:54Z</time>
      </trkpt>
      <trkpt lat="45.98765" lon="4.48942">
        <ele>491.2</ele>
        <time>2015-11-05T09:26:56Z</time>
      </trkpt>
      <trkpt lat="45.98768" lon="4.48961">
        <ele>490.7</ele>
        <time>2015-11-05T09:26:58Z</time>
      </trkpt>
      <trkpt lat="45.9877" lon="4.48979">
        <ele>490.1</ele>
        <time>2015-11-05T09:27:00Z</time>
      </trkpt>
      <trkpt lat="45.98772" lon="4.48997">
        <ele>489.4</ele>
        <time>2015-11-05T09:27:02Z</time>
      </trkpt>
      <trkpt lat="45.9877" lon="4.49014">
        <ele>488.7</ele>
        <time>2015-11-05T09:27:04Z</time>
      </trkpt>
      <trkpt lat="45.98766" lon="4.49031">
        <ele>487.9</ele>
        <time>2015-11-05T09:27:06Z</time>
      </trkpt>
      <trkpt lat="45.98765" lon="4.49049">
        <ele>487</ele>
        <time>2015-11-05T09:27:08Z</time>
      </trkpt>
      <trkpt lat="45.98765" lon="4.49068">
        <ele>486</ele>
        <time>2015-11-05T09:27:10Z</time>
      </trkpt>
      <trkpt lat="45.98767" lon="4.49088">
        <ele>484.9</ele>
        <time>2015-11-05T09:27:12Z</time>
      </trkpt>
      <trkpt lat="45.98765" lon="4.49107">
        <ele>484</ele>
        <time>2015-11-05T09:27:14Z</time>
      </trkpt>
      <trkpt lat="45.98763" lon="4.49124">
        <ele>482.8</ele>
        <time>2015-11-05T09:27:16Z</time>
      </trkpt>
      <trkpt lat="45.98763" lon="4.49142">
        <ele>481.6</ele>
        <time>2015-11-05T09:27:18Z</time>
      </trkpt>
      <trkpt lat="45.98764" lon="4.49163">
        <ele>480.6</ele>
        <time>2015-11-05T09:27:20Z</time>
      </trkpt>
      <trkpt lat="45.98762" lon="4.49179">
        <ele>479.5</ele>
        <time>2015-11-05T09:27:22Z</time>
      </trkpt>
      <trkpt lat="45.98759" lon="4.49195">
        <ele>478.3</ele>
        <time>2015-11-05T09:27:24Z</time>
      </trkpt>
      <trkpt lat="45.98761" lon="4.49208">
        <ele>476.9</ele>
        <time>2015-11-05T09:27:25Z</time>
      </trkpt>
      <trkpt lat="45.98761" lon="4.49227">
        <ele>475.5</ele>
        <time>2015-11-05T09:27:27Z</time>
      </trkpt>
      <trkpt lat="45.98758" lon="4.49244">
        <ele>473.9</ele>
        <time>2015-11-05T09:27:29Z</time>
      </trkpt>
      <trkpt lat="45.98757" lon="4.49264">
        <ele>472.7</ele>
        <time>2015-11-05T09:27:31Z</time>
      </trkpt>
      <trkpt lat="45.98757" lon="4.49283">
        <ele>471.4</ele>
        <time>2015-11-05T09:27:33Z</time>
      </trkpt>
      <trkpt lat="45.98757" lon="4.49295">
        <ele>470</ele>
        <time>2015-11-05T09:27:34Z</time>
      </trkpt>
      <trkpt lat="45.98752" lon="4.49314">
        <ele>468.9</ele>
        <time>2015-11-05T09:27:36Z</time>
      </trkpt>
      <trkpt lat="45.98746" lon="4.49331">
        <ele>468</ele>
        <time>2015-11-05T09:27:38Z</time>
      </trkpt>
      <trkpt lat="45.98742" lon="4.49351">
        <ele>467</ele>
        <time>2015-11-05T09:27:40Z</time>
      </trkpt>
      <trkpt lat="45.98737" lon="4.49369">
        <ele>466.1</ele>
        <time>2015-11-05T09:27:42Z</time>
      </trkpt>
      <trkpt lat="45.98733" lon="4.4939">
        <ele>465.5</ele>
        <time>2015-11-05T09:27:44Z</time>
      </trkpt>
      <trkpt lat="45.98729" lon="4.49409">
        <ele>464.8</ele>
        <time>2015-11-05T09:27:46Z</time>
      </trkpt>
      <trkpt lat="45.98723" lon="4.49427">
        <ele>464.3</ele>
        <time>2015-11-05T09:27:48Z</time>
      </trkpt>
      <trkpt lat="45.98718" lon="4.49448">
        <ele>463.9</ele>
        <time>2015-11-05T09:27:50Z</time>
      </trkpt>
      <trkpt lat="45.98711" lon="4.49467">
        <ele>463.6</ele>
        <time>2015-11-05T09:27:52Z</time>
      </trkpt>
      <trkpt lat="45.98705" lon="4.49487">
        <ele>463.2</ele>
        <time>2015-11-05T09:27:54Z</time>
      </trkpt>
      <trkpt lat="45.98703" lon="4.49507">
        <ele>462.9</ele>
        <time>2015-11-05T09:27:56Z</time>
      </trkpt>
      <trkpt lat="45.98702" lon="4.49527">
        <ele>462.5</ele>
        <time>2015-11-05T09:27:58Z</time>
      </trkpt>
      <trkpt lat="45.98701" lon="4.49546">
        <ele>462</ele>
        <time>2015-11-05T09:28:00Z</time>
      </trkpt>
      <trkpt lat="45.98703" lon="4.49566">
        <ele>461.5</ele>
        <time>2015-11-05T09:28:02Z</time>
      </trkpt>
      <trkpt lat="45.98704" lon="4.49583">
        <ele>461.1</ele>
        <time>2015-11-05T09:28:04Z</time>
      </trkpt>
      <trkpt lat="45.98704" lon="4.49598">
        <ele>460.7</ele>
        <time>2015-11-05T09:28:06Z</time>
      </trkpt>
      <trkpt lat="45.98707" lon="4.49615">
        <ele>460.8</ele>
        <time>2015-11-05T09:28:08Z</time>
      </trkpt>
      <trkpt lat="45.98708" lon="4.4963">
        <ele>460.7</ele>
        <time>2015-11-05T09:28:10Z</time>
      </trkpt>
      <trkpt lat="45.98709" lon="4.49645">
        <ele>460.7</ele>
        <time>2015-11-05T09:28:12Z</time>
      </trkpt>
      <trkpt lat="45.9871" lon="4.49661">
        <ele>460.8</ele>
        <time>2015-11-05T09:28:14Z</time>
      </trkpt>
      <trkpt lat="45.98707" lon="4.49679">
        <ele>461</ele>
        <time>2015-11-05T09:28:17Z</time>
      </trkpt>
      <trkpt lat="45.98707" lon="4.49694">
        <ele>461.1</ele>
        <time>2015-11-05T09:28:19Z</time>
      </trkpt>
      <trkpt lat="45.98708" lon="4.49707">
        <ele>461.2</ele>
        <time>2015-11-05T09:28:21Z</time>
      </trkpt>
      <trkpt lat="45.98708" lon="4.49721">
        <ele>461.4</ele>
        <time>2015-11-05T09:28:23Z</time>
      </trkpt>
      <trkpt lat="45.98704" lon="4.49734">
        <ele>461.3</ele>
        <time>2015-11-05T09:28:25Z</time>
      </trkpt>
      <trkpt lat="45.98705" lon="4.49747">
        <ele>461.1</ele>
        <time>2015-11-05T09:28:27Z</time>
      </trkpt>
      <trkpt lat="45.98704" lon="4.4976">
        <ele>460.8</ele>
        <time>2015-11-05T09:28:29Z</time>
      </trkpt>
      <trkpt lat="45.98702" lon="4.49774">
        <ele>460.3</ele>
        <time>2015-11-05T09:28:31Z</time>
      </trkpt>
      <trkpt lat="45.98698" lon="4.49789">
        <ele>459.9</ele>
        <time>2015-11-05T09:28:33Z</time>
      </trkpt>
      <trkpt lat="45.98694" lon="4.49805">
        <ele>459.2</ele>
        <time>2015-11-05T09:28:35Z</time>
      </trkpt>
      <trkpt lat="45.98688" lon="4.49819">
        <ele>458.5</ele>
        <time>2015-11-05T09:28:37Z</time>
      </trkpt>
      <trkpt lat="45.98681" lon="4.49831">
        <ele>457.6</ele>
        <time>2015-11-05T09:28:39Z</time>
      </trkpt>
      <trkpt lat="45.98672" lon="4.49839">
        <ele>456.4</ele>
        <time>2015-11-05T09:28:41Z</time>
      </trkpt>
      <trkpt lat="45.98662" lon="4.49849">
        <ele>455.2</ele>
        <time>2015-11-05T09:28:43Z</time>
      </trkpt>
      <trkpt lat="45.98651" lon="4.49856">
        <ele>454.1</ele>
        <time>2015-11-05T09:28:45Z</time>
      </trkpt>
      <trkpt lat="45.98643" lon="4.49862">
        <ele>452.9</ele>
        <time>2015-11-05T09:28:47Z</time>
      </trkpt>
      <trkpt lat="45.98635" lon="4.49875">
        <ele>451.7</ele>
        <time>2015-11-05T09:28:49Z</time>
      </trkpt>
      <trkpt lat="45.98627" lon="4.49894">
        <ele>450.7</ele>
        <time>2015-11-05T09:28:51Z</time>
      </trkpt>
      <trkpt lat="45.98623" lon="4.49904">
        <ele>449.5</ele>
        <time>2015-11-05T09:28:52Z</time>
      </trkpt>
      <trkpt lat="45.98618" lon="4.49914">
        <ele>448.5</ele>
        <time>2015-11-05T09:28:53Z</time>
      </trkpt>
      <trkpt lat="45.98612" lon="4.49926">
        <ele>447.7</ele>
        <time>2015-11-05T09:28:54Z</time>
      </trkpt>
      <trkpt lat="45.98606" lon="4.49937">
        <ele>446.9</ele>
        <time>2015-11-05T09:28:55Z</time>
      </trkpt>
      <trkpt lat="45.98602" lon="4.4995">
        <ele>446</ele>
        <time>2015-11-05T09:28:56Z</time>
      </trkpt>
      <trkpt lat="45.98598" lon="4.49964">
        <ele>445.4</ele>
        <time>2015-11-05T09:28:57Z</time>
      </trkpt>
      <trkpt lat="45.98593" lon="4.49978">
        <ele>444.7</ele>
        <time>2015-11-05T09:28:58Z</time>
      </trkpt>
      <trkpt lat="45.9859" lon="4.49992">
        <ele>444.1</ele>
        <time>2015-11-05T09:28:59Z</time>
      </trkpt>
      <trkpt lat="45.98587" lon="4.50005">
        <ele>443.7</ele>
        <time>2015-11-05T09:29:00Z</time>
      </trkpt>
      <trkpt lat="45.98585" lon="4.5002">
        <ele>443.3</ele>
        <time>2015-11-05T09:29:01Z</time>
      </trkpt>
      <trkpt lat="45.98582" lon="4.50033">
        <ele>442.9</ele>
        <time>2015-11-05T09:29:02Z</time>
      </trkpt>
      <trkpt lat="45.98579" lon="4.50045">
        <ele>442.5</ele>
        <time>2015-11-05T09:29:03Z</time>
      </trkpt>
      <trkpt lat="45.98576" lon="4.50057">
        <ele>442.1</ele>
        <time>2015-11-05T09:29:04Z</time>
      </trkpt>
      <trkpt lat="45.98574" lon="4.5007">
        <ele>441.6</ele>
        <time>2015-11-05T09:29:05Z</time>
      </trkpt>
      <trkpt lat="45.98571" lon="4.50082">
        <ele>441</ele>
        <time>2015-11-05T09:29:06Z</time>
      </trkpt>
      <trkpt lat="45.98568" lon="4.50093">
        <ele>440.5</ele>
        <time>2015-11-05T09:29:07Z</time>
      </trkpt>
      <trkpt lat="45.98565" lon="4.50105">
        <ele>439.9</ele>
        <time>2015-11-05T09:29:08Z</time>
      </trkpt>
      <trkpt lat="45.9856" lon="4.50126">
        <ele>439.1</ele>
        <time>2015-11-05T09:29:10Z</time>
      </trkpt>
      <trkpt lat="45.98557" lon="4.50138">
        <ele>438.3</ele>
        <time>2015-11-05T09:29:11Z</time>
      </trkpt>
      <trkpt lat="45.98552" lon="4.50156">
        <ele>437.4</ele>
        <time>2015-11-05T09:29:13Z</time>
      </trkpt>
      <trkpt lat="45.98546" lon="4.50168">
        <ele>436.5</ele>
        <time>2015-11-05T09:29:15Z</time>
      </trkpt>
      <trkpt lat="45.98535" lon="4.50161">
        <ele>435.5</ele>
        <time>2015-11-05T09:29:18Z</time>
      </trkpt>
      <trkpt lat="45.98532" lon="4.50143">
        <ele>434.5</ele>
        <time>2015-11-05T09:29:20Z</time>
      </trkpt>
      <trkpt lat="45.98533" lon="4.50123">
        <ele>433.4</ele>
        <time>2015-11-05T09:29:22Z</time>
      </trkpt>
      <trkpt lat="45.98533" lon="4.50102">
        <ele>432.5</ele>
        <time>2015-11-05T09:29:24Z</time>
      </trkpt>
      <trkpt lat="45.98534" lon="4.50078">
        <ele>431.6</ele>
        <time>2015-11-05T09:29:26Z</time>
      </trkpt>
      <trkpt lat="45.98535" lon="4.50065">
        <ele>430.7</ele>
        <time>2015-11-05T09:29:27Z</time>
      </trkpt>
      <trkpt lat="45.98536" lon="4.50052">
        <ele>429.9</ele>
        <time>2015-11-05T09:29:28Z</time>
      </trkpt>
      <trkpt lat="45.98535" lon="4.50038">
        <ele>429.3</ele>
        <time>2015-11-05T09:29:29Z</time>
      </trkpt>
      <trkpt lat="45.98535" lon="4.50024">
        <ele>428.8</ele>
        <time>2015-11-05T09:29:30Z</time>
      </trkpt>
      <trkpt lat="45.98535" lon="4.50011">
        <ele>428.3</ele>
        <time>2015-11-05T09:29:31Z</time>
      </trkpt>
      <trkpt lat="45.98536" lon="4.49999">
        <ele>427.6</ele>
        <time>2015-11-05T09:29:32Z</time>
      </trkpt>
      <trkpt lat="45.98536" lon="4.49987">
        <ele>426.7</ele>
        <time>2015-11-05T09:29:33Z</time>
      </trkpt>
      <trkpt lat="45.98535" lon="4.49964">
        <ele>425.8</ele>
        <time>2015-11-05T09:29:35Z</time>
      </trkpt>
      <trkpt lat="45.98533" lon="4.49942">
        <ele>424.7</ele>
        <time>2015-11-05T09:29:37Z</time>
      </trkpt>
      <trkpt lat="45.98534" lon="4.49923">
        <ele>423.7</ele>
        <time>2015-11-05T09:29:39Z</time>
      </trkpt>
      <trkpt lat="45.98536" lon="4.49909">
        <ele>422.7</ele>
        <time>2015-11-05T09:29:41Z</time>
      </trkpt>
      <trkpt lat="45.98527" lon="4.49913">
        <ele>421.9</ele>
        <time>2015-11-05T09:29:46Z</time>
      </trkpt>
      <trkpt lat="45.98523" lon="4.49925">
        <ele>421</ele>
        <time>2015-11-05T09:29:48Z</time>
      </trkpt>
      <trkpt lat="45.98519" lon="4.49942">
        <ele>420</ele>
        <time>2015-11-05T09:29:50Z</time>
      </trkpt>
      <trkpt lat="45.98512" lon="4.49961">
        <ele>419</ele>
        <time>2015-11-05T09:29:52Z</time>
      </trkpt>
      <trkpt lat="45.98508" lon="4.4998">
        <ele>418.1</ele>
        <time>2015-11-05T09:29:54Z</time>
      </trkpt>
      <trkpt lat="45.98505" lon="4.49992">
        <ele>417.3</ele>
        <time>2015-11-05T09:29:55Z</time>
      </trkpt>
      <trkpt lat="45.98503" lon="4.50004">
        <ele>416.8</ele>
        <time>2015-11-05T09:29:56Z</time>
      </trkpt>
      <trkpt lat="45.985" lon="4.50016">
        <ele>416.3</ele>
        <time>2015-11-05T09:29:57Z</time>
      </trkpt>
      <trkpt lat="45.98497" lon="4.50027">
        <ele>415.7</ele>
        <time>2015-11-05T09:29:58Z</time>
      </trkpt>
      <trkpt lat="45.98494" lon="4.50039">
        <ele>415.1</ele>
        <time>2015-11-05T09:29:59Z</time>
      </trkpt>
      <trkpt lat="45.98489" lon="4.50059">
        <ele>414.4</ele>
        <time>2015-11-05T09:30:01Z</time>
      </trkpt>
      <trkpt lat="45.98484" lon="4.50076">
        <ele>413.7</ele>
        <time>2015-11-05T09:30:03Z</time>
      </trkpt>
      <trkpt lat="45.98479" lon="4.5009">
        <ele>412.9</ele>
        <time>2015-11-05T09:30:05Z</time>
      </trkpt>
      <trkpt lat="45.98481" lon="4.50073">
        <ele>412</ele>
        <time>2015-11-05T09:30:13Z</time>
      </trkpt>
      <trkpt lat="45.98484" lon="4.5006">
        <ele>411.3</ele>
        <time>2015-11-05T09:30:15Z</time>
      </trkpt>
      <trkpt lat="45.98485" lon="4.50048">
        <ele>410.5</ele>
        <time>2015-11-05T09:30:17Z</time>
      </trkpt>
      <trkpt lat="45.98484" lon="4.50033">
        <ele>409.7</ele>
        <time>2015-11-05T09:30:19Z</time>
      </trkpt>
      <trkpt lat="45.98486" lon="4.5002">
        <ele>409</ele>
        <time>2015-11-05T09:30:21Z</time>
      </trkpt>
      <trkpt lat="45.98487" lon="4.50005">
        <ele>408.2</ele>
        <time>2015-11-05T09:30:23Z</time>
      </trkpt>
      <trkpt lat="45.98487" lon="4.49989">
        <ele>407.9</ele>
        <time>2015-11-05T09:30:25Z</time>
      </trkpt>
      <trkpt lat="45.98488" lon="4.49973">
        <ele>407.6</ele>
        <time>2015-11-05T09:30:27Z</time>
      </trkpt>
      <trkpt lat="45.98488" lon="4.49958">
        <ele>407.2</ele>
        <time>2015-11-05T09:30:29Z</time>
      </trkpt>
      <trkpt lat="45.98487" lon="4.49944">
        <ele>407</ele>
        <time>2015-11-05T09:30:31Z</time>
      </trkpt>
      <trkpt lat="45.98483" lon="4.49932">
        <ele>407.1</ele>
        <time>2015-11-05T09:30:33Z</time>
      </trkpt>
      <trkpt lat="45.98473" lon="4.4993">
        <ele>407.5</ele>
        <time>2015-11-05T09:30:35Z</time>
      </trkpt>
      <trkpt lat="45.98465" lon="4.49933">
        <ele>408.2</ele>
        <time>2015-11-05T09:30:37Z</time>
      </trkpt>
      <trkpt lat="45.98458" lon="4.49944">
        <ele>409.2</ele>
        <time>2015-11-05T09:30:40Z</time>
      </trkpt>
      <trkpt lat="45.98455" lon="4.49955">
        <ele>410.3</ele>
        <time>2015-11-05T09:30:43Z</time>
      </trkpt>
      <trkpt lat="45.98452" lon="4.4997">
        <ele>411.4</ele>
        <time>2015-11-05T09:30:47Z</time>
      </trkpt>
      <trkpt lat="45.98448" lon="4.49983">
        <ele>412.7</ele>
        <time>2015-11-05T09:30:51Z</time>
      </trkpt>
      <trkpt lat="45.98445" lon="4.49996">
        <ele>414.1</ele>
        <time>2015-11-05T09:30:55Z</time>
      </trkpt>
      <trkpt lat="45.9844" lon="4.50008">
        <ele>415.8</ele>
        <time>2015-11-05T09:30:59Z</time>
      </trkpt>
      <trkpt lat="45.98437" lon="4.5002">
        <ele>417.1</ele>
        <time>2015-11-05T09:31:03Z</time>
      </trkpt>
      <trkpt lat="45.98436" lon="4.50033">
        <ele>418.6</ele>
        <time>2015-11-05T09:31:07Z</time>
      </trkpt>
      <trkpt lat="45.98431" lon="4.50044">
        <ele>419.8</ele>
        <time>2015-11-05T09:31:11Z</time>
      </trkpt>
      <trkpt lat="45.98427" lon="4.50054">
        <ele>420.8</ele>
        <time>2015-11-05T09:31:15Z</time>
      </trkpt>
      <trkpt lat="45.98422" lon="4.50064">
        <ele>421.2</ele>
        <time>2015-11-05T09:31:19Z</time>
      </trkpt>
      <trkpt lat="45.98415" lon="4.50073">
        <ele>421.5</ele>
        <time>2015-11-05T09:31:23Z</time>
      </trkpt>
      <trkpt lat="45.98407" lon="4.50081">
        <ele>421.7</ele>
        <time>2015-11-05T09:31:27Z</time>
      </trkpt>
      <trkpt lat="45.984" lon="4.50089">
        <ele>422.1</ele>
        <time>2015-11-05T09:31:31Z</time>
      </trkpt>
      <trkpt lat="45.98392" lon="4.50097">
        <ele>422.3</ele>
        <time>2015-11-05T09:31:35Z</time>
      </trkpt>
      <trkpt lat="45.98383" lon="4.50102">
        <ele>422.3</ele>
        <time>2015-11-05T09:31:39Z</time>
      </trkpt>
      <trkpt lat="45.98374" lon="4.5011">
        <ele>422</ele>
        <time>2015-11-05T09:31:43Z</time>
      </trkpt>
      <trkpt lat="45.98367" lon="4.50119">
        <ele>422</ele>
        <time>2015-11-05T09:31:47Z</time>
      </trkpt>
      <trkpt lat="45.98361" lon="4.50126">
        <ele>421.8</ele>
        <time>2015-11-05T09:31:51Z</time>
      </trkpt>
      <trkpt lat="45.98354" lon="4.50133">
        <ele>421.8</ele>
        <time>2015-11-05T09:31:56Z</time>
      </trkpt>
      <trkpt lat="45.98344" lon="4.50134">
        <ele>421.5</ele>
        <time>2015-11-05T09:32:01Z</time>
      </trkpt>
      <trkpt lat="45.98335" lon="4.50128">
        <ele>421.8</ele>
        <time>2015-11-05T09:32:05Z</time>
      </trkpt>
      <trkpt lat="45.98326" lon="4.50121">
        <ele>422.2</ele>
        <time>2015-11-05T09:32:09Z</time>
      </trkpt>
      <trkpt lat="45.98319" lon="4.50115">
        <ele>422.8</ele>
        <time>2015-11-05T09:32:13Z</time>
      </trkpt>
      <trkpt lat="45.98313" lon="4.50106">
        <ele>423.4</ele>
        <time>2015-11-05T09:32:19Z</time>
      </trkpt>
      <trkpt lat="45.98312" lon="4.50094">
        <ele>424.2</ele>
        <time>2015-11-05T09:32:44Z</time>
      </trkpt>
      <trkpt lat="45.98318" lon="4.50084">
        <ele>425.2</ele>
        <time>2015-11-05T09:33:54Z</time>
      </trkpt>
      <trkpt lat="45.98319" lon="4.50072">
        <ele>426.4</ele>
        <time>2015-11-05T09:34:00Z</time>
      </trkpt>
      <trkpt lat="45.9832" lon="4.50059">
        <ele>427.8</ele>
        <time>2015-11-05T09:34:06Z</time>
      </trkpt>
      <trkpt lat="45.98322" lon="4.50047">
        <ele>429.6</ele>
        <time>2015-11-05T09:34:12Z</time>
      </trkpt>
      <trkpt lat="45.98325" lon="4.50036">
        <ele>431.6</ele>
        <time>2015-11-05T09:34:18Z</time>
      </trkpt>
      <trkpt lat="45.9833" lon="4.50026">
        <ele>434</ele>
        <time>2015-11-05T09:34:26Z</time>
      </trkpt>
      <trkpt lat="45.98337" lon="4.50018">
        <ele>436.3</ele>
        <time>2015-11-05T09:34:34Z</time>
      </trkpt>
      <trkpt lat="45.98342" lon="4.50007">
        <ele>438.7</ele>
        <time>2015-11-05T09:34:43Z</time>
      </trkpt>
      <trkpt lat="45.98344" lon="4.49996">
        <ele>441.1</ele>
        <time>2015-11-05T09:34:56Z</time>
      </trkpt>
      <trkpt lat="45.98345" lon="4.49984">
        <ele>443.3</ele>
        <time>2015-11-05T09:35:13Z</time>
      </trkpt>
      <trkpt lat="45.98345" lon="4.49972">
        <ele>445.5</ele>
        <time>2015-11-05T09:35:25Z</time>
      </trkpt>
      <trkpt lat="45.98345" lon="4.49959">
        <ele>447.6</ele>
        <time>2015-11-05T09:35:37Z</time>
      </trkpt>
      <trkpt lat="45.98344" lon="4.49948">
        <ele>449.6</ele>
        <time>2015-11-05T09:35:48Z</time>
      </trkpt>
      <trkpt lat="45.98344" lon="4.49935">
        <ele>451.6</ele>
        <time>2015-11-05T09:36:00Z</time>
      </trkpt>
      <trkpt lat="45.98344" lon="4.49923">
        <ele>453.4</ele>
        <time>2015-11-05T09:36:10Z</time>
      </trkpt>
      <trkpt lat="45.98345" lon="4.4991">
        <ele>455.2</ele>
        <time>2015-11-05T09:36:21Z</time>
      </trkpt>
      <trkpt lat="45.98346" lon="4.49898">
        <ele>456.8</ele>
        <time>2015-11-05T09:36:31Z</time>
      </trkpt>
      <trkpt lat="45.98348" lon="4.49886">
        <ele>458.3</ele>
        <time>2015-11-05T09:36:41Z</time>
      </trkpt>
      <trkpt lat="45.98349" lon="4.49873">
        <ele>459.5</ele>
        <time>2015-11-05T09:36:53Z</time>
      </trkpt>
      <trkpt lat="45.9835" lon="4.49861">
        <ele>460.6</ele>
        <time>2015-11-05T09:37:04Z</time>
      </trkpt>
      <trkpt lat="45.98351" lon="4.49849">
        <ele>461.7</ele>
        <time>2015-11-05T09:37:14Z</time>
      </trkpt>
      <trkpt lat="45.98347" lon="4.49838">
        <ele>462.9</ele>
        <time>2015-11-05T09:37:24Z</time>
      </trkpt>
      <trkpt lat="45.98348" lon="4.49824">
        <ele>464</ele>
        <time>2015-11-05T09:37:30Z</time>
      </trkpt>
      <trkpt lat="45.98348" lon="4.4981">
        <ele>465</ele>
        <time>2015-11-05T09:37:36Z</time>
      </trkpt>
      <trkpt lat="45.98348" lon="4.49796">
        <ele>465.8</ele>
        <time>2015-11-05T09:37:42Z</time>
      </trkpt>
      <trkpt lat="45.98349" lon="4.49783">
        <ele>466.5</ele>
        <time>2015-11-05T09:37:48Z</time>
      </trkpt>
      <trkpt lat="45.98349" lon="4.4977">
        <ele>467.4</ele>
        <time>2015-11-05T09:37:54Z</time>
      </trkpt>
      <trkpt lat="45.98347" lon="4.49757">
        <ele>468.7</ele>
        <time>2015-11-05T09:38:00Z</time>
      </trkpt>
      <trkpt lat="45.98347" lon="4.49745">
        <ele>470</ele>
        <time>2015-11-05T09:38:05Z</time>
      </trkpt>
      <trkpt lat="45.98346" lon="4.49733">
        <ele>471.6</ele>
        <time>2015-11-05T09:38:10Z</time>
      </trkpt>
      <trkpt lat="45.98346" lon="4.49721">
        <ele>473.5</ele>
        <time>2015-11-05T09:38:15Z</time>
      </trkpt>
      <trkpt lat="45.98348" lon="4.49708">
        <ele>475.9</ele>
        <time>2015-11-05T09:38:20Z</time>
      </trkpt>
      <trkpt lat="45.98346" lon="4.49695">
        <ele>478.2</ele>
        <time>2015-11-05T09:38:26Z</time>
      </trkpt>
      <trkpt lat="45.98341" lon="4.49683">
        <ele>480.5</ele>
        <time>2015-11-05T09:38:32Z</time>
      </trkpt>
      <trkpt lat="45.98337" lon="4.49672">
        <ele>482.9</ele>
        <time>2015-11-05T09:38:39Z</time>
      </trkpt>
      <trkpt lat="45.98336" lon="4.49658">
        <ele>485.5</ele>
        <time>2015-11-05T09:38:45Z</time>
      </trkpt>
      <trkpt lat="45.98335" lon="4.49645">
        <ele>488.5</ele>
        <time>2015-11-05T09:38:51Z</time>
      </trkpt>
      <trkpt lat="45.98334" lon="4.49634">
        <ele>491.5</ele>
        <time>2015-11-05T09:38:56Z</time>
      </trkpt>
      <trkpt lat="45.98332" lon="4.4962">
        <ele>494.7</ele>
        <time>2015-11-05T09:39:02Z</time>
      </trkpt>
      <trkpt lat="45.98329" lon="4.49608">
        <ele>498.2</ele>
        <time>2015-11-05T09:39:08Z</time>
      </trkpt>
      <trkpt lat="45.98323" lon="4.49598">
        <ele>501.4</ele>
        <time>2015-11-05T09:39:15Z</time>
      </trkpt>
      <trkpt lat="45.9832" lon="4.49586">
        <ele>504</ele>
        <time>2015-11-05T09:39:21Z</time>
      </trkpt>
      <trkpt lat="45.98322" lon="4.49574">
        <ele>505.8</ele>
        <time>2015-11-05T09:39:28Z</time>
      </trkpt>
      <trkpt lat="45.98325" lon="4.49562">
        <ele>507.2</ele>
        <time>2015-11-05T09:39:36Z</time>
      </trkpt>
      <trkpt lat="45.98321" lon="4.49551">
        <ele>508.6</ele>
        <time>2015-11-05T09:39:43Z</time>
      </trkpt>
      <trkpt lat="45.98319" lon="4.49539">
        <ele>509.8</ele>
        <time>2015-11-05T09:39:49Z</time>
      </trkpt>
      <trkpt lat="45.98316" lon="4.49528">
        <ele>510.9</ele>
        <time>2015-11-05T09:39:58Z</time>
      </trkpt>
      <trkpt lat="45.98314" lon="4.49515">
        <ele>511.4</ele>
        <time>2015-11-05T09:40:05Z</time>
      </trkpt>
      <trkpt lat="45.9831" lon="4.49504">
        <ele>511.5</ele>
        <time>2015-11-05T09:40:11Z</time>
      </trkpt>
      <trkpt lat="45.98307" lon="4.49494">
        <ele>511.1</ele>
        <time>2015-11-05T09:40:16Z</time>
      </trkpt>
      <trkpt lat="45.98303" lon="4.49483">
        <ele>510.1</ele>
        <time>2015-11-05T09:40:21Z</time>
      </trkpt>
      <trkpt lat="45.98298" lon="4.49471">
        <ele>509.8</ele>
        <time>2015-11-05T09:40:27Z</time>
      </trkpt>
      <trkpt lat="45.98293" lon="4.49459">
        <ele>510</ele>
        <time>2015-11-05T09:40:33Z</time>
      </trkpt>
      <trkpt lat="45.98288" lon="4.49448">
        <ele>510.2</ele>
        <time>2015-11-05T09:40:38Z</time>
      </trkpt>
      <trkpt lat="45.98283" lon="4.49438">
        <ele>511.1</ele>
        <time>2015-11-05T09:40:43Z</time>
      </trkpt>
      <trkpt lat="45.98276" lon="4.49429">
        <ele>512.2</ele>
        <time>2015-11-05T09:40:49Z</time>
      </trkpt>
      <trkpt lat="45.98279" lon="4.49417">
        <ele>513.4</ele>
        <time>2015-11-05T09:40:57Z</time>
      </trkpt>
      <trkpt lat="45.98278" lon="4.49406">
        <ele>514.6</ele>
        <time>2015-11-05T09:41:05Z</time>
      </trkpt>
      <trkpt lat="45.98273" lon="4.49395">
        <ele>516</ele>
        <time>2015-11-05T09:41:11Z</time>
      </trkpt>
      <trkpt lat="45.98267" lon="4.49387">
        <ele>517.8</ele>
        <time>2015-11-05T09:41:16Z</time>
      </trkpt>
      <trkpt lat="45.9827" lon="4.49374">
        <ele>519.9</ele>
        <time>2015-11-05T09:41:22Z</time>
      </trkpt>
      <trkpt lat="45.98267" lon="4.49363">
        <ele>522.7</ele>
        <time>2015-11-05T09:41:27Z</time>
      </trkpt>
      <trkpt lat="45.98259" lon="4.49353">
        <ele>525</ele>
        <time>2015-11-05T09:41:32Z</time>
      </trkpt>
      <trkpt lat="45.98254" lon="4.49343">
        <ele>527.3</ele>
        <time>2015-11-05T09:41:36Z</time>
      </trkpt>
      <trkpt lat="45.98251" lon="4.49331">
        <ele>529.6</ele>
        <time>2015-11-05T09:41:43Z</time>
      </trkpt>
      <trkpt lat="45.98247" lon="4.49319">
        <ele>531.4</ele>
        <time>2015-11-05T09:41:52Z</time>
      </trkpt>
      <trkpt lat="45.98243" lon="4.49308">
        <ele>533.2</ele>
        <time>2015-11-05T09:42:00Z</time>
      </trkpt>
      <trkpt lat="45.98245" lon="4.49295">
        <ele>535.2</ele>
        <time>2015-11-05T09:42:09Z</time>
      </trkpt>
      <trkpt lat="45.98247" lon="4.49282">
        <ele>537.2</ele>
        <time>2015-11-05T09:42:13Z</time>
      </trkpt>
      <trkpt lat="45.98246" lon="4.49267">
        <ele>539.1</ele>
        <time>2015-11-05T09:42:17Z</time>
      </trkpt>
      <trkpt lat="45.98244" lon="4.49253">
        <ele>540.4</ele>
        <time>2015-11-05T09:42:20Z</time>
      </trkpt>
      <trkpt lat="45.98246" lon="4.49241">
        <ele>541.2</ele>
        <time>2015-11-05T09:42:23Z</time>
      </trkpt>
      <trkpt lat="45.98244" lon="4.4923">
        <ele>541.2</ele>
        <time>2015-11-05T09:42:27Z</time>
      </trkpt>
      <trkpt lat="45.9824" lon="4.49219">
        <ele>541.5</ele>
        <time>2015-11-05T09:42:30Z</time>
      </trkpt>
      <trkpt lat="45.98239" lon="4.49207">
        <ele>541.4</ele>
        <time>2015-11-05T09:42:33Z</time>
      </trkpt>
      <trkpt lat="45.98238" lon="4.49193">
        <ele>541.6</ele>
        <time>2015-11-05T09:42:37Z</time>
      </trkpt>
      <trkpt lat="45.98236" lon="4.49179">
        <ele>541.8</ele>
        <time>2015-11-05T09:42:41Z</time>
      </trkpt>
      <trkpt lat="45.98234" lon="4.49167">
        <ele>541.8</ele>
        <time>2015-11-05T09:42:45Z</time>
      </trkpt>
      <trkpt lat="45.98229" lon="4.49157">
        <ele>541.9</ele>
        <time>2015-11-05T09:42:49Z</time>
      </trkpt>
      <trkpt lat="45.98224" lon="4.49146">
        <ele>542.3</ele>
        <time>2015-11-05T09:42:53Z</time>
      </trkpt>
      <trkpt lat="45.98222" lon="4.49134">
        <ele>542.4</ele>
        <time>2015-11-05T09:42:57Z</time>
      </trkpt>
      <trkpt lat="45.98221" lon="4.49122">
        <ele>542.7</ele>
        <time>2015-11-05T09:43:01Z</time>
      </trkpt>
      <trkpt lat="45.98221" lon="4.49109">
        <ele>543</ele>
        <time>2015-11-05T09:43:06Z</time>
      </trkpt>
      <trkpt lat="45.98213" lon="4.49101">
        <ele>543.6</ele>
        <time>2015-11-05T09:43:12Z</time>
      </trkpt>
      <trkpt lat="45.98206" lon="4.49092">
        <ele>543.8</ele>
        <time>2015-11-05T09:43:16Z</time>
      </trkpt>
      <trkpt lat="45.98199" lon="4.49082">
        <ele>543.5</ele>
        <time>2015-11-05T09:43:20Z</time>
      </trkpt>
      <trkpt lat="45.98193" lon="4.49074">
        <ele>543</ele>
        <time>2015-11-05T09:43:24Z</time>
      </trkpt>
      <trkpt lat="45.98187" lon="4.49064">
        <ele>542.9</ele>
        <time>2015-11-05T09:43:28Z</time>
      </trkpt>
      <trkpt lat="45.98181" lon="4.49054">
        <ele>542.7</ele>
        <time>2015-11-05T09:43:33Z</time>
      </trkpt>
      <trkpt lat="45.98174" lon="4.49045">
        <ele>542</ele>
        <time>2015-11-05T09:43:38Z</time>
      </trkpt>
      <trkpt lat="45.98169" lon="4.49033">
        <ele>541.3</ele>
        <time>2015-11-05T09:43:43Z</time>
      </trkpt>
      <trkpt lat="45.98165" lon="4.49022">
        <ele>540.8</ele>
        <time>2015-11-05T09:43:48Z</time>
      </trkpt>
      <trkpt lat="45.98159" lon="4.49013">
        <ele>539.8</ele>
        <time>2015-11-05T09:43:53Z</time>
      </trkpt>
      <trkpt lat="45.98153" lon="4.49004">
        <ele>538.8</ele>
        <time>2015-11-05T09:43:58Z</time>
      </trkpt>
      <trkpt lat="45.98145" lon="4.48997">
        <ele>537.7</ele>
        <time>2015-11-05T09:44:03Z</time>
      </trkpt>
      <trkpt lat="45.98139" lon="4.48988">
        <ele>536.8</ele>
        <time>2015-11-05T09:44:09Z</time>
      </trkpt>
      <trkpt lat="45.98131" lon="4.48979">
        <ele>536.7</ele>
        <time>2015-11-05T09:44:14Z</time>
      </trkpt>
      <trkpt lat="45.98124" lon="4.48969">
        <ele>536.6</ele>
        <time>2015-11-05T09:44:18Z</time>
      </trkpt>
      <trkpt lat="45.98118" lon="4.48959">
        <ele>535.9</ele>
        <time>2015-11-05T09:44:22Z</time>
      </trkpt>
      <trkpt lat="45.98111" lon="4.48949">
        <ele>535.4</ele>
        <time>2015-11-05T09:44:27Z</time>
      </trkpt>
      <trkpt lat="45.98103" lon="4.48941">
        <ele>535.1</ele>
        <time>2015-11-05T09:44:32Z</time>
      </trkpt>
      <trkpt lat="45.98096" lon="4.48932">
        <ele>535.3</ele>
        <time>2015-11-05T09:44:37Z</time>
      </trkpt>
      <trkpt lat="45.98088" lon="4.48927">
        <ele>536.5</ele>
        <time>2015-11-05T09:44:42Z</time>
      </trkpt>
      <trkpt lat="45.9808" lon="4.48922">
        <ele>538.5</ele>
        <time>2015-11-05T09:44:47Z</time>
      </trkpt>
      <trkpt lat="45.98072" lon="4.48918">
        <ele>540.8</ele>
        <time>2015-11-05T09:44:52Z</time>
      </trkpt>
      <trkpt lat="45.98064" lon="4.48913">
        <ele>542.9</ele>
        <time>2015-11-05T09:45:07Z</time>
      </trkpt>
      <trkpt lat="45.98057" lon="4.48907">
        <ele>545.2</ele>
        <time>2015-11-05T09:45:15Z</time>
      </trkpt>
      <trkpt lat="45.98049" lon="4.48903">
        <ele>547</ele>
        <time>2015-11-05T09:45:27Z</time>
      </trkpt>
      <trkpt lat="45.9805" lon="4.48891">
        <ele>548.7</ele>
        <time>2015-11-05T09:46:14Z</time>
      </trkpt>
      <trkpt lat="45.98047" lon="4.4888">
        <ele>550.8</ele>
        <time>2015-11-05T09:46:26Z</time>
      </trkpt>
      <trkpt lat="45.98039" lon="4.48878">
        <ele>553</ele>
        <time>2015-11-05T09:47:10Z</time>
      </trkpt>
      <trkpt lat="45.9803" lon="4.48875">
        <ele>555.8</ele>
        <time>2015-11-05T09:47:25Z</time>
      </trkpt>
      <trkpt lat="45.98023" lon="4.4887">
        <ele>558.3</ele>
        <time>2015-11-05T09:47:28Z</time>
      </trkpt>
      <trkpt lat="45.98014" lon="4.48863">
        <ele>559.7</ele>
        <time>2015-11-05T09:47:32Z</time>
      </trkpt>
      <trkpt lat="45.98006" lon="4.48858">
        <ele>560.8</ele>
        <time>2015-11-05T09:47:36Z</time>
      </trkpt>
      <trkpt lat="45.97999" lon="4.4885">
        <ele>561.7</ele>
        <time>2015-11-05T09:47:43Z</time>
      </trkpt>
      <trkpt lat="45.97999" lon="4.48838">
        <ele>562.5</ele>
        <time>2015-11-05T09:47:49Z</time>
      </trkpt>
      <trkpt lat="45.97994" lon="4.48828">
        <ele>563.2</ele>
        <time>2015-11-05T09:47:55Z</time>
      </trkpt>
      <trkpt lat="45.97989" lon="4.48818">
        <ele>563.7</ele>
        <time>2015-11-05T09:48:00Z</time>
      </trkpt>
      <trkpt lat="45.97984" lon="4.48809">
        <ele>564.7</ele>
        <time>2015-11-05T09:48:05Z</time>
      </trkpt>
      <trkpt lat="45.97978" lon="4.48799">
        <ele>565.7</ele>
        <time>2015-11-05T09:48:10Z</time>
      </trkpt>
      <trkpt lat="45.97972" lon="4.48789">
        <ele>566.8</ele>
        <time>2015-11-05T09:48:15Z</time>
      </trkpt>
      <trkpt lat="45.97966" lon="4.48779">
        <ele>567.4</ele>
        <time>2015-11-05T09:48:20Z</time>
      </trkpt>
      <trkpt lat="45.97958" lon="4.48771">
        <ele>568.1</ele>
        <time>2015-11-05T09:48:25Z</time>
      </trkpt>
      <trkpt lat="45.97951" lon="4.48765">
        <ele>569.1</ele>
        <time>2015-11-05T09:48:31Z</time>
      </trkpt>
      <trkpt lat="45.97947" lon="4.48755">
        <ele>570.1</ele>
        <time>2015-11-05T09:48:38Z</time>
      </trkpt>
      <trkpt lat="45.9794" lon="4.48746">
        <ele>570.8</ele>
        <time>2015-11-05T09:48:48Z</time>
      </trkpt>
      <trkpt lat="45.97933" lon="4.48737">
        <ele>571.7</ele>
        <time>2015-11-05T09:48:56Z</time>
      </trkpt>
      <trkpt lat="45.97931" lon="4.48725">
        <ele>572.8</ele>
        <time>2015-11-05T09:49:03Z</time>
      </trkpt>
      <trkpt lat="45.97925" lon="4.48715">
        <ele>574.3</ele>
        <time>2015-11-05T09:49:10Z</time>
      </trkpt>
      <trkpt lat="45.97918" lon="4.48705">
        <ele>575.5</ele>
        <time>2015-11-05T09:49:16Z</time>
      </trkpt>
      <trkpt lat="45.9791" lon="4.48698">
        <ele>577</ele>
        <time>2015-11-05T09:49:22Z</time>
      </trkpt>
      <trkpt lat="45.97904" lon="4.48688">
        <ele>578.2</ele>
        <time>2015-11-05T09:49:28Z</time>
      </trkpt>
      <trkpt lat="45.97899" lon="4.48679">
        <ele>579</ele>
        <time>2015-11-05T09:49:34Z</time>
      </trkpt>
      <trkpt lat="45.97896" lon="4.48666">
        <ele>579.3</ele>
        <time>2015-11-05T09:49:40Z</time>
      </trkpt>
      <trkpt lat="45.97893" lon="4.48656">
        <ele>579.7</ele>
        <time>2015-11-05T09:49:46Z</time>
      </trkpt>
      <trkpt lat="45.9789" lon="4.48645">
        <ele>580.4</ele>
        <time>2015-11-05T09:49:55Z</time>
      </trkpt>
      <trkpt lat="45.97887" lon="4.48634">
        <ele>581.4</ele>
        <time>2015-11-05T09:50:01Z</time>
      </trkpt>
      <trkpt lat="45.9788" lon="4.48625">
        <ele>582.1</ele>
        <time>2015-11-05T09:50:06Z</time>
      </trkpt>
      <trkpt lat="45.9788" lon="4.48613">
        <ele>582.7</ele>
        <time>2015-11-05T09:50:11Z</time>
      </trkpt>
      <trkpt lat="45.97882" lon="4.48601">
        <ele>583.4</ele>
        <time>2015-11-05T09:50:16Z</time>
      </trkpt>
      <trkpt lat="45.97881" lon="4.48588">
        <ele>584</ele>
        <time>2015-11-05T09:50:22Z</time>
      </trkpt>
      <trkpt lat="45.97877" lon="4.48578">
        <ele>583.9</ele>
        <time>2015-11-05T09:50:27Z</time>
      </trkpt>
      <trkpt lat="45.97871" lon="4.48568">
        <ele>584</ele>
        <time>2015-11-05T09:50:33Z</time>
      </trkpt>
      <trkpt lat="45.97864" lon="4.48562">
        <ele>584.2</ele>
        <time>2015-11-05T09:50:40Z</time>
      </trkpt>
      <trkpt lat="45.97869" lon="4.48553">
        <ele>584.6</ele>
        <time>2015-11-05T09:50:51Z</time>
      </trkpt>
      <trkpt lat="45.97866" lon="4.48565">
        <ele>584.6</ele>
        <time>2015-11-05T09:51:02Z</time>
      </trkpt>
      <trkpt lat="45.97868" lon="4.48578">
        <ele>584.3</ele>
        <time>2015-11-05T09:51:28Z</time>
      </trkpt>
      <trkpt lat="45.97866" lon="4.4859">
        <ele>583.9</ele>
        <time>2015-11-05T09:51:36Z</time>
      </trkpt>
      <trkpt lat="45.97865" lon="4.48602">
        <ele>583.8</ele>
        <time>2015-11-05T09:51:44Z</time>
      </trkpt>
      <trkpt lat="45.97865" lon="4.48615">
        <ele>583.9</ele>
        <time>2015-11-05T09:51:50Z</time>
      </trkpt>
      <trkpt lat="45.97865" lon="4.48628">
        <ele>583.8</ele>
        <time>2015-11-05T09:51:55Z</time>
      </trkpt>
      <trkpt lat="45.97867" lon="4.4864">
        <ele>583.9</ele>
        <time>2015-11-05T09:51:59Z</time>
      </trkpt>
      <trkpt lat="45.97867" lon="4.48652">
        <ele>584.4</ele>
        <time>2015-11-05T09:52:03Z</time>
      </trkpt>
      <trkpt lat="45.97865" lon="4.48666">
        <ele>584.7</ele>
        <time>2015-11-05T09:52:08Z</time>
      </trkpt>
      <trkpt lat="45.97862" lon="4.48678">
        <ele>585.4</ele>
        <time>2015-11-05T09:52:13Z</time>
      </trkpt>
      <trkpt lat="45.97863" lon="4.48691">
        <ele>586.2</ele>
        <time>2015-11-05T09:52:19Z</time>
      </trkpt>
      <trkpt lat="45.97864" lon="4.48705">
        <ele>587.3</ele>
        <time>2015-11-05T09:52:25Z</time>
      </trkpt>
      <trkpt lat="45.97866" lon="4.48716">
        <ele>588.7</ele>
        <time>2015-11-05T09:52:30Z</time>
      </trkpt>
      <trkpt lat="45.97867" lon="4.48729">
        <ele>589.9</ele>
        <time>2015-11-05T09:52:35Z</time>
      </trkpt>
      <trkpt lat="45.97869" lon="4.48743">
        <ele>591.4</ele>
        <time>2015-11-05T09:52:41Z</time>
      </trkpt>
      <trkpt lat="45.97871" lon="4.48755">
        <ele>592.8</ele>
        <time>2015-11-05T09:52:47Z</time>
      </trkpt>
      <trkpt lat="45.97875" lon="4.48767">
        <ele>594.2</ele>
        <time>2015-11-05T09:52:53Z</time>
      </trkpt>
      <trkpt lat="45.97875" lon="4.4878">
        <ele>595.6</ele>
        <time>2015-11-05T09:53:00Z</time>
      </trkpt>
      <trkpt lat="45.97874" lon="4.48792">
        <ele>596.9</ele>
        <time>2015-11-05T09:53:06Z</time>
      </trkpt>
      <trkpt lat="45.97874" lon="4.48805">
        <ele>598.3</ele>
        <time>2015-11-05T09:53:12Z</time>
      </trkpt>
      <trkpt lat="45.97872" lon="4.48818">
        <ele>599.8</ele>
        <time>2015-11-05T09:53:18Z</time>
      </trkpt>
      <trkpt lat="45.97872" lon="4.48831">
        <ele>601</ele>
        <time>2015-11-05T09:53:24Z</time>
      </trkpt>
      <trkpt lat="45.97874" lon="4.48842">
        <ele>601.9</ele>
        <time>2015-11-05T09:53:29Z</time>
      </trkpt>
      <trkpt lat="45.97878" lon="4.48853">
        <ele>602.7</ele>
        <time>2015-11-05T09:53:34Z</time>
      </trkpt>
      <trkpt lat="45.97882" lon="4.48863">
        <ele>603.7</ele>
        <time>2015-11-05T09:53:40Z</time>
      </trkpt>
      <trkpt lat="45.97884" lon="4.48876">
        <ele>604.8</ele>
        <time>2015-11-05T09:53:47Z</time>
      </trkpt>
      <trkpt lat="45.97885" lon="4.48887">
        <ele>605.8</ele>
        <time>2015-11-05T09:53:53Z</time>
      </trkpt>
      <trkpt lat="45.97884" lon="4.489">
        <ele>606.7</ele>
        <time>2015-11-05T09:53:59Z</time>
      </trkpt>
      <trkpt lat="45.97882" lon="4.48913">
        <ele>607.6</ele>
        <time>2015-11-05T09:54:05Z</time>
      </trkpt>
      <trkpt lat="45.97878" lon="4.48925">
        <ele>608.6</ele>
        <time>2015-11-05T09:54:11Z</time>
      </trkpt>
      <trkpt lat="45.97872" lon="4.48935">
        <ele>609.5</ele>
        <time>2015-11-05T09:54:17Z</time>
      </trkpt>
      <trkpt lat="45.97864" lon="4.48941">
        <ele>610.5</ele>
        <time>2015-11-05T09:54:23Z</time>
      </trkpt>
      <trkpt lat="45.97855" lon="4.48944">
        <ele>611.6</ele>
        <time>2015-11-05T09:54:29Z</time>
      </trkpt>
      <trkpt lat="45.97846" lon="4.48944">
        <ele>612.7</ele>
        <time>2015-11-05T09:54:35Z</time>
      </trkpt>
      <trkpt lat="45.97837" lon="4.48941">
        <ele>613.8</ele>
        <time>2015-11-05T09:54:41Z</time>
      </trkpt>
      <trkpt lat="45.97828" lon="4.48938">
        <ele>614.9</ele>
        <time>2015-11-05T09:54:47Z</time>
      </trkpt>
      <trkpt lat="45.97819" lon="4.48934">
        <ele>615.9</ele>
        <time>2015-11-05T09:54:53Z</time>
      </trkpt>
      <trkpt lat="45.9781" lon="4.48929">
        <ele>616.8</ele>
        <time>2015-11-05T09:54:58Z</time>
      </trkpt>
      <trkpt lat="45.97802" lon="4.48924">
        <ele>617.7</ele>
        <time>2015-11-05T09:55:02Z</time>
      </trkpt>
      <trkpt lat="45.97794" lon="4.48917">
        <ele>618.6</ele>
        <time>2015-11-05T09:55:07Z</time>
      </trkpt>
      <trkpt lat="45.97787" lon="4.48909">
        <ele>619.4</ele>
        <time>2015-11-05T09:55:10Z</time>
      </trkpt>
      <trkpt lat="45.9778" lon="4.48903">
        <ele>620.1</ele>
        <time>2015-11-05T09:55:14Z</time>
      </trkpt>
      <trkpt lat="45.97773" lon="4.48895">
        <ele>620.8</ele>
        <time>2015-11-05T09:55:18Z</time>
      </trkpt>
      <trkpt lat="45.97766" lon="4.48887">
        <ele>621.3</ele>
        <time>2015-11-05T09:55:23Z</time>
      </trkpt>
      <trkpt lat="45.97762" lon="4.48877">
        <ele>621.8</ele>
        <time>2015-11-05T09:55:26Z</time>
      </trkpt>
      <trkpt lat="45.9777" lon="4.48872">
        <ele>622.1</ele>
        <time>2015-11-05T09:55:31Z</time>
      </trkpt>
      <trkpt lat="45.97779" lon="4.48872">
        <ele>622.3</ele>
        <time>2015-11-05T09:55:35Z</time>
      </trkpt>
      <trkpt lat="45.97786" lon="4.48866">
        <ele>622.6</ele>
        <time>2015-11-05T09:55:39Z</time>
      </trkpt>
      <trkpt lat="45.97794" lon="4.48857">
        <ele>622.7</ele>
        <time>2015-11-05T09:55:44Z</time>
      </trkpt>
      <trkpt lat="45.97799" lon="4.48848">
        <ele>622.8</ele>
        <time>2015-11-05T09:55:48Z</time>
      </trkpt>
      <trkpt lat="45.97804" lon="4.48835">
        <ele>622.8</ele>
        <time>2015-11-05T09:55:51Z</time>
      </trkpt>
      <trkpt lat="45.97805" lon="4.48823">
        <ele>622.9</ele>
        <time>2015-11-05T09:55:53Z</time>
      </trkpt>
      <trkpt lat="45.97804" lon="4.4881">
        <ele>622.8</ele>
        <time>2015-11-05T09:55:55Z</time>
      </trkpt>
      <trkpt lat="45.97802" lon="4.48794">
        <ele>622.7</ele>
        <time>2015-11-05T09:55:57Z</time>
      </trkpt>
      <trkpt lat="45.97801" lon="4.48775">
        <ele>622.6</ele>
        <time>2015-11-05T09:55:59Z</time>
      </trkpt>
      <trkpt lat="45.97802" lon="4.48756">
        <ele>622.5</ele>
        <time>2015-11-05T09:56:01Z</time>
      </trkpt>
      <trkpt lat="45.97802" lon="4.48744">
        <ele>622.5</ele>
        <time>2015-11-05T09:56:02Z</time>
      </trkpt>
      <trkpt lat="45.97804" lon="4.48733">
        <ele>622.6</ele>
        <time>2015-11-05T09:56:03Z</time>
      </trkpt>
      <trkpt lat="45.97802" lon="4.48719">
        <ele>622.6</ele>
        <time>2015-11-05T09:56:05Z</time>
      </trkpt>
      <trkpt lat="45.97805" lon="4.48705">
        <ele>622.5</ele>
        <time>2015-11-05T09:56:22Z</time>
      </trkpt>
      <trkpt lat="45.97803" lon="4.48689">
        <ele>622.5</ele>
        <time>2015-11-05T09:56:25Z</time>
      </trkpt>
      <trkpt lat="45.97803" lon="4.48673">
        <ele>622.4</ele>
        <time>2015-11-05T09:56:27Z</time>
      </trkpt>
      <trkpt lat="45.97805" lon="4.48651">
        <ele>622.4</ele>
        <time>2015-11-05T09:56:29Z</time>
      </trkpt>
      <trkpt lat="45.97805" lon="4.48638">
        <ele>622.3</ele>
        <time>2015-11-05T09:56:30Z</time>
      </trkpt>
      <trkpt lat="45.97806" lon="4.48615">
        <ele>622.4</ele>
        <time>2015-11-05T09:56:32Z</time>
      </trkpt>
      <trkpt lat="45.97804" lon="4.48598">
        <ele>622.5</ele>
        <time>2015-11-05T09:56:34Z</time>
      </trkpt>
      <trkpt lat="45.97798" lon="4.48576">
        <ele>622.8</ele>
        <time>2015-11-05T09:56:36Z</time>
      </trkpt>
      <trkpt lat="45.97797" lon="4.48563">
        <ele>623.1</ele>
        <time>2015-11-05T09:56:37Z</time>
      </trkpt>
      <trkpt lat="45.97791" lon="4.48553">
        <ele>623.2</ele>
        <time>2015-11-05T09:56:38Z</time>
      </trkpt>
      <trkpt lat="45.97794" lon="4.4854">
        <ele>623.5</ele>
        <time>2015-11-05T09:56:39Z</time>
      </trkpt>
      <trkpt lat="45.97794" lon="4.48527">
        <ele>623.8</ele>
        <time>2015-11-05T09:56:40Z</time>
      </trkpt>
      <trkpt lat="45.97794" lon="4.48515">
        <ele>624.1</ele>
        <time>2015-11-05T09:56:41Z</time>
      </trkpt>
      <trkpt lat="45.97794" lon="4.48496">
        <ele>624.5</ele>
        <time>2015-11-05T09:56:43Z</time>
      </trkpt>
      <trkpt lat="45.97792" lon="4.48475">
        <ele>624.6</ele>
        <time>2015-11-05T09:56:45Z</time>
      </trkpt>
      <trkpt lat="45.97791" lon="4.48454">
        <ele>624.4</ele>
        <time>2015-11-05T09:56:47Z</time>
      </trkpt>
      <trkpt lat="45.9779" lon="4.48438">
        <ele>623.5</ele>
        <time>2015-11-05T09:56:49Z</time>
      </trkpt>
      <trkpt lat="45.97789" lon="4.48425">
        <ele>622.6</ele>
        <time>2015-11-05T09:56:51Z</time>
      </trkpt>
      <trkpt lat="45.97783" lon="4.48417">
        <ele>622.1</ele>
        <time>2015-11-05T09:56:54Z</time>
      </trkpt>
      <trkpt lat="45.97779" lon="4.48399">
        <ele>621.9</ele>
        <time>2015-11-05T09:56:57Z</time>
      </trkpt>
      <trkpt lat="45.97779" lon="4.48388">
        <ele>621.5</ele>
        <time>2015-11-05T09:57:02Z</time>
      </trkpt>
      <trkpt lat="45.97772" lon="4.48378">
        <ele>621.2</ele>
        <time>2015-11-05T09:57:08Z</time>
      </trkpt>
      <trkpt lat="45.97773" lon="4.48365">
        <ele>621.2</ele>
        <time>2015-11-05T09:57:12Z</time>
      </trkpt>
      <trkpt lat="45.97777" lon="4.48353">
        <ele>621.1</ele>
        <time>2015-11-05T09:57:15Z</time>
      </trkpt>
      <trkpt lat="45.97782" lon="4.48341">
        <ele>621</ele>
        <time>2015-11-05T09:57:18Z</time>
      </trkpt>
      <trkpt lat="45.97786" lon="4.48329">
        <ele>621.2</ele>
        <time>2015-11-05T09:57:21Z</time>
      </trkpt>
      <trkpt lat="45.97792" lon="4.48315">
        <ele>621.8</ele>
        <time>2015-11-05T09:57:25Z</time>
      </trkpt>
      <trkpt lat="45.97797" lon="4.48304">
        <ele>622.9</ele>
        <time>2015-11-05T09:57:29Z</time>
      </trkpt>
      <trkpt lat="45.97801" lon="4.48292">
        <ele>623.9</ele>
        <time>2015-11-05T09:57:33Z</time>
      </trkpt>
      <trkpt lat="45.97806" lon="4.4828">
        <ele>624.5</ele>
        <time>2015-11-05T09:57:37Z</time>
      </trkpt>
      <trkpt lat="45.9781" lon="4.48269">
        <ele>624.7</ele>
        <time>2015-11-05T09:57:41Z</time>
      </trkpt>
      <trkpt lat="45.97815" lon="4.48258">
        <ele>625.1</ele>
        <time>2015-11-05T09:57:45Z</time>
      </trkpt>
      <trkpt lat="45.9782" lon="4.48246">
        <ele>625.4</ele>
        <time>2015-11-05T09:57:49Z</time>
      </trkpt>
      <trkpt lat="45.97824" lon="4.48232">
        <ele>625.4</ele>
        <time>2015-11-05T09:57:53Z</time>
      </trkpt>
      <trkpt lat="45.97825" lon="4.48218">
        <ele>625.3</ele>
        <time>2015-11-05T09:57:56Z</time>
      </trkpt>
      <trkpt lat="45.97825" lon="4.48204">
        <ele>625.2</ele>
        <time>2015-11-05T09:57:59Z</time>
      </trkpt>
      <trkpt lat="45.97823" lon="4.48187">
        <ele>625.1</ele>
        <time>2015-11-05T09:58:02Z</time>
      </trkpt>
      <trkpt lat="45.97821" lon="4.48174">
        <ele>624.8</ele>
        <time>2015-11-05T09:58:04Z</time>
      </trkpt>
      <trkpt lat="45.97818" lon="4.48157">
        <ele>624.6</ele>
        <time>2015-11-05T09:58:06Z</time>
      </trkpt>
      <trkpt lat="45.97814" lon="4.48143">
        <ele>624.4</ele>
        <time>2015-11-05T09:58:08Z</time>
      </trkpt>
      <trkpt lat="45.9781" lon="4.48126">
        <ele>624.1</ele>
        <time>2015-11-05T09:58:10Z</time>
      </trkpt>
      <trkpt lat="45.97807" lon="4.48109">
        <ele>623.9</ele>
        <time>2015-11-05T09:58:12Z</time>
      </trkpt>
      <trkpt lat="45.97804" lon="4.48092">
        <ele>623.5</ele>
        <time>2015-11-05T09:58:14Z</time>
      </trkpt>
      <trkpt lat="45.97801" lon="4.48075">
        <ele>623.4</ele>
        <time>2015-11-05T09:58:16Z</time>
      </trkpt>
      <trkpt lat="45.97799" lon="4.48059">
        <ele>623.2</ele>
        <time>2015-11-05T09:58:18Z</time>
      </trkpt>
      <trkpt lat="45.97797" lon="4.48043">
        <ele>623.2</ele>
        <time>2015-11-05T09:58:20Z</time>
      </trkpt>
      <trkpt lat="45.97795" lon="4.48027">
        <ele>623</ele>
        <time>2015-11-05T09:58:22Z</time>
      </trkpt>
      <trkpt lat="45.9779" lon="4.48013">
        <ele>622.8</ele>
        <time>2015-11-05T09:58:24Z</time>
      </trkpt>
      <trkpt lat="45.97785" lon="4.48001">
        <ele>622.8</ele>
        <time>2015-11-05T09:58:26Z</time>
      </trkpt>
      <trkpt lat="45.9778" lon="4.47987">
        <ele>623.7</ele>
        <time>2015-11-05T09:58:28Z</time>
      </trkpt>
      <trkpt lat="45.97775" lon="4.47974">
        <ele>625.1</ele>
        <time>2015-11-05T09:58:30Z</time>
      </trkpt>
      <trkpt lat="45.97771" lon="4.47961">
        <ele>626.6</ele>
        <time>2015-11-05T09:58:32Z</time>
      </trkpt>
      <trkpt lat="45.97767" lon="4.47948">
        <ele>628.3</ele>
        <time>2015-11-05T09:58:34Z</time>
      </trkpt>
      <trkpt lat="45.97762" lon="4.47934">
        <ele>630.1</ele>
        <time>2015-11-05T09:58:37Z</time>
      </trkpt>
      <trkpt lat="45.9776" lon="4.47921">
        <ele>632</ele>
        <time>2015-11-05T09:58:41Z</time>
      </trkpt>
      <trkpt lat="45.97758" lon="4.47909">
        <ele>633.9</ele>
        <time>2015-11-05T09:58:44Z</time>
      </trkpt>
      <trkpt lat="45.97755" lon="4.47897">
        <ele>635.7</ele>
        <time>2015-11-05T09:58:47Z</time>
      </trkpt>
      <trkpt lat="45.97751" lon="4.47885">
        <ele>637.4</ele>
        <time>2015-11-05T09:58:50Z</time>
      </trkpt>
      <trkpt lat="45.97747" lon="4.47873">
        <ele>638.8</ele>
        <time>2015-11-05T09:58:53Z</time>
      </trkpt>
      <trkpt lat="45.97744" lon="4.47861">
        <ele>640.4</ele>
        <time>2015-11-05T09:58:56Z</time>
      </trkpt>
      <trkpt lat="45.97739" lon="4.4785">
        <ele>641</ele>
        <time>2015-11-05T09:58:59Z</time>
      </trkpt>
      <trkpt lat="45.97731" lon="4.47836">
        <ele>641.1</ele>
        <time>2015-11-05T09:59:02Z</time>
      </trkpt>
      <trkpt lat="45.97726" lon="4.47826">
        <ele>641.1</ele>
        <time>2015-11-05T09:59:04Z</time>
      </trkpt>
      <trkpt lat="45.97719" lon="4.47816">
        <ele>641.1</ele>
        <time>2015-11-05T09:59:06Z</time>
      </trkpt>
      <trkpt lat="45.97713" lon="4.47806">
        <ele>641.1</ele>
        <time>2015-11-05T09:59:08Z</time>
      </trkpt>
      <trkpt lat="45.97706" lon="4.47796">
        <ele>640.9</ele>
        <time>2015-11-05T09:59:11Z</time>
      </trkpt>
      <trkpt lat="45.97699" lon="4.47786">
        <ele>641.2</ele>
        <time>2015-11-05T09:59:14Z</time>
      </trkpt>
      <trkpt lat="45.97692" lon="4.47777">
        <ele>641.7</ele>
        <time>2015-11-05T09:59:17Z</time>
      </trkpt>
      <trkpt lat="45.97686" lon="4.47767">
        <ele>642.4</ele>
        <time>2015-11-05T09:59:21Z</time>
      </trkpt>
      <trkpt lat="45.97681" lon="4.47757">
        <ele>643.4</ele>
        <time>2015-11-05T09:59:25Z</time>
      </trkpt>
      <trkpt lat="45.97676" lon="4.47745">
        <ele>643.9</ele>
        <time>2015-11-05T09:59:29Z</time>
      </trkpt>
      <trkpt lat="45.9767" lon="4.47733">
        <ele>644.6</ele>
        <time>2015-11-05T09:59:33Z</time>
      </trkpt>
      <trkpt lat="45.97666" lon="4.47721">
        <ele>645.2</ele>
        <time>2015-11-05T09:59:37Z</time>
      </trkpt>
      <trkpt lat="45.97662" lon="4.4771">
        <ele>646.1</ele>
        <time>2015-11-05T09:59:41Z</time>
      </trkpt>
      <trkpt lat="45.97655" lon="4.47703">
        <ele>646.6</ele>
        <time>2015-11-05T09:59:45Z</time>
      </trkpt>
      <trkpt lat="45.97648" lon="4.47697">
        <ele>646.9</ele>
        <time>2015-11-05T09:59:48Z</time>
      </trkpt>
      <trkpt lat="45.97639" lon="4.4769">
        <ele>647.2</ele>
        <time>2015-11-05T09:59:52Z</time>
      </trkpt>
      <trkpt lat="45.97632" lon="4.47681">
        <ele>646.8</ele>
        <time>2015-11-05T09:59:58Z</time>
      </trkpt>
      <trkpt lat="45.97626" lon="4.47673">
        <ele>646.2</ele>
        <time>2015-11-05T10:00:03Z</time>
      </trkpt>
      <trkpt lat="45.97618" lon="4.47667">
        <ele>645.9</ele>
        <time>2015-11-05T10:00:08Z</time>
      </trkpt>
      <trkpt lat="45.97609" lon="4.4766">
        <ele>645.6</ele>
        <time>2015-11-05T10:00:13Z</time>
      </trkpt>
      <trkpt lat="45.97602" lon="4.47654">
        <ele>645.5</ele>
        <time>2015-11-05T10:00:17Z</time>
      </trkpt>
      <trkpt lat="45.97595" lon="4.47645">
        <ele>645.3</ele>
        <time>2015-11-05T10:00:21Z</time>
      </trkpt>
      <trkpt lat="45.97588" lon="4.47639">
        <ele>645.2</ele>
        <time>2015-11-05T10:00:25Z</time>
      </trkpt>
      <trkpt lat="45.97581" lon="4.4763">
        <ele>645</ele>
        <time>2015-11-05T10:00:30Z</time>
      </trkpt>
      <trkpt lat="45.97573" lon="4.47621">
        <ele>644.9</ele>
        <time>2015-11-05T10:00:35Z</time>
      </trkpt>
      <trkpt lat="45.97565" lon="4.47613">
        <ele>645</ele>
        <time>2015-11-05T10:00:40Z</time>
      </trkpt>
      <trkpt lat="45.97558" lon="4.47606">
        <ele>645.4</ele>
        <time>2015-11-05T10:00:44Z</time>
      </trkpt>
      <trkpt lat="45.9755" lon="4.47597">
        <ele>646.1</ele>
        <time>2015-11-05T10:00:48Z</time>
      </trkpt>
      <trkpt lat="45.97544" lon="4.4759">
        <ele>646.9</ele>
        <time>2015-11-05T10:00:51Z</time>
      </trkpt>
      <trkpt lat="45.97537" lon="4.47583">
        <ele>647.3</ele>
        <time>2015-11-05T10:00:54Z</time>
      </trkpt>
      <trkpt lat="45.97529" lon="4.47575">
        <ele>647.7</ele>
        <time>2015-11-05T10:00:58Z</time>
      </trkpt>
      <trkpt lat="45.9752" lon="4.47568">
        <ele>648</ele>
        <time>2015-11-05T10:01:02Z</time>
      </trkpt>
      <trkpt lat="45.97511" lon="4.47562">
        <ele>648.2</ele>
        <time>2015-11-05T10:01:06Z</time>
      </trkpt>
      <trkpt lat="45.97502" lon="4.47559">
        <ele>648.4</ele>
        <time>2015-11-05T10:01:10Z</time>
      </trkpt>
      <trkpt lat="45.97493" lon="4.47553">
        <ele>648.6</ele>
        <time>2015-11-05T10:01:14Z</time>
      </trkpt>
      <trkpt lat="45.97484" lon="4.47547">
        <ele>648.8</ele>
        <time>2015-11-05T10:01:18Z</time>
      </trkpt>
      <trkpt lat="45.97474" lon="4.4754">
        <ele>649.3</ele>
        <time>2015-11-05T10:01:21Z</time>
      </trkpt>
      <trkpt lat="45.97463" lon="4.47533">
        <ele>649.9</ele>
        <time>2015-11-05T10:01:24Z</time>
      </trkpt>
      <trkpt lat="45.97454" lon="4.47529">
        <ele>650.7</ele>
        <time>2015-11-05T10:01:26Z</time>
      </trkpt>
      <trkpt lat="45.97445" lon="4.47526">
        <ele>651.3</ele>
        <time>2015-11-05T10:01:28Z</time>
      </trkpt>
      <trkpt lat="45.97437" lon="4.47524">
        <ele>651.9</ele>
        <time>2015-11-05T10:01:30Z</time>
      </trkpt>
      <trkpt lat="45.97429" lon="4.47519">
        <ele>652.3</ele>
        <time>2015-11-05T10:01:34Z</time>
      </trkpt>
      <trkpt lat="45.97419" lon="4.47516">
        <ele>652.8</ele>
        <time>2015-11-05T10:01:38Z</time>
      </trkpt>
      <trkpt lat="45.97411" lon="4.47514">
        <ele>653.2</ele>
        <time>2015-11-05T10:01:41Z</time>
      </trkpt>
      <trkpt lat="45.974" lon="4.47512">
        <ele>653.6</ele>
        <time>2015-11-05T10:01:44Z</time>
      </trkpt>
      <trkpt lat="45.97391" lon="4.47507">
        <ele>654.1</ele>
        <time>2015-11-05T10:01:45Z</time>
      </trkpt>
      <trkpt lat="45.97382" lon="4.47503">
        <ele>655.1</ele>
        <time>2015-11-05T10:01:47Z</time>
      </trkpt>
      <trkpt lat="45.97374" lon="4.47501">
        <ele>655.5</ele>
        <time>2015-11-05T10:01:49Z</time>
      </trkpt>
      <trkpt lat="45.97364" lon="4.47498">
        <ele>655.5</ele>
        <time>2015-11-05T10:01:51Z</time>
      </trkpt>
      <trkpt lat="45.97353" lon="4.47491">
        <ele>655.2</ele>
        <time>2015-11-05T10:01:54Z</time>
      </trkpt>
      <trkpt lat="45.97345" lon="4.47486">
        <ele>654.8</ele>
        <time>2015-11-05T10:01:56Z</time>
      </trkpt>
      <trkpt lat="45.97338" lon="4.47477">
        <ele>654.5</ele>
        <time>2015-11-05T10:01:59Z</time>
      </trkpt>
      <trkpt lat="45.97328" lon="4.47471">
        <ele>654.4</ele>
        <time>2015-11-05T10:02:02Z</time>
      </trkpt>
      <trkpt lat="45.97317" lon="4.47468">
        <ele>654.3</ele>
        <time>2015-11-05T10:02:05Z</time>
      </trkpt>
      <trkpt lat="45.97308" lon="4.47466">
        <ele>654.3</ele>
        <time>2015-11-05T10:02:07Z</time>
      </trkpt>
      <trkpt lat="45.973" lon="4.47465">
        <ele>654.3</ele>
        <time>2015-11-05T10:02:09Z</time>
      </trkpt>
      <trkpt lat="45.97291" lon="4.47463">
        <ele>654.6</ele>
        <time>2015-11-05T10:02:11Z</time>
      </trkpt>
      <trkpt lat="45.97283" lon="4.47461">
        <ele>654.2</ele>
        <time>2015-11-05T10:02:13Z</time>
      </trkpt>
      <trkpt lat="45.97271" lon="4.4746">
        <ele>654.1</ele>
        <time>2015-11-05T10:02:16Z</time>
      </trkpt>
      <trkpt lat="45.97263" lon="4.4746">
        <ele>654.2</ele>
        <time>2015-11-05T10:02:19Z</time>
      </trkpt>
      <trkpt lat="45.97253" lon="4.47463">
        <ele>654.4</ele>
        <time>2015-11-05T10:02:23Z</time>
      </trkpt>
      <trkpt lat="45.97243" lon="4.47465">
        <ele>654.6</ele>
        <time>2015-11-05T10:02:27Z</time>
      </trkpt>
      <trkpt lat="45.97233" lon="4.47469">
        <ele>655.3</ele>
        <time>2015-11-05T10:02:31Z</time>
      </trkpt>
      <trkpt lat="45.97224" lon="4.47474">
        <ele>656.1</ele>
        <time>2015-11-05T10:02:35Z</time>
      </trkpt>
      <trkpt lat="45.97217" lon="4.47481">
        <ele>657.3</ele>
        <time>2015-11-05T10:02:39Z</time>
      </trkpt>
      <trkpt lat="45.97208" lon="4.47485">
        <ele>658.2</ele>
        <time>2015-11-05T10:02:43Z</time>
      </trkpt>
      <trkpt lat="45.97199" lon="4.47482">
        <ele>658.6</ele>
        <time>2015-11-05T10:02:47Z</time>
      </trkpt>
      <trkpt lat="45.97193" lon="4.47472">
        <ele>658.6</ele>
        <time>2015-11-05T10:02:52Z</time>
      </trkpt>
      <trkpt lat="45.97189" lon="4.4746">
        <ele>658.5</ele>
        <time>2015-11-05T10:02:56Z</time>
      </trkpt>
      <trkpt lat="45.97186" lon="4.47448">
        <ele>658.3</ele>
        <time>2015-11-05T10:03:02Z</time>
      </trkpt>
      <trkpt lat="45.9718" lon="4.47438">
        <ele>658</ele>
        <time>2015-11-05T10:03:07Z</time>
      </trkpt>
      <trkpt lat="45.97173" lon="4.47431">
        <ele>657.7</ele>
        <time>2015-11-05T10:03:09Z</time>
      </trkpt>
      <trkpt lat="45.97166" lon="4.47421">
        <ele>657.6</ele>
        <time>2015-11-05T10:03:12Z</time>
      </trkpt>
      <trkpt lat="45.9716" lon="4.47411">
        <ele>657.4</ele>
        <time>2015-11-05T10:03:16Z</time>
      </trkpt>
      <trkpt lat="45.97153" lon="4.47401">
        <ele>657</ele>
        <time>2015-11-05T10:03:19Z</time>
      </trkpt>
      <trkpt lat="45.97146" lon="4.47392">
        <ele>656.2</ele>
        <time>2015-11-05T10:03:21Z</time>
      </trkpt>
      <trkpt lat="45.9714" lon="4.47382">
        <ele>655.9</ele>
        <time>2015-11-05T10:03:24Z</time>
      </trkpt>
      <trkpt lat="45.97134" lon="4.47369">
        <ele>655.9</ele>
        <time>2015-11-05T10:03:28Z</time>
      </trkpt>
      <trkpt lat="45.9713" lon="4.47358">
        <ele>656.2</ele>
        <time>2015-11-05T10:03:29Z</time>
      </trkpt>
      <trkpt lat="45.97127" lon="4.47347">
        <ele>656.7</ele>
        <time>2015-11-05T10:03:31Z</time>
      </trkpt>
      <trkpt lat="45.97127" lon="4.47334">
        <ele>657.1</ele>
        <time>2015-11-05T10:03:33Z</time>
      </trkpt>
      <trkpt lat="45.97127" lon="4.47322">
        <ele>657.6</ele>
        <time>2015-11-05T10:03:35Z</time>
      </trkpt>
      <trkpt lat="45.97127" lon="4.47306">
        <ele>658</ele>
        <time>2015-11-05T10:03:38Z</time>
      </trkpt>
      <trkpt lat="45.97124" lon="4.47293">
        <ele>658.6</ele>
        <time>2015-11-05T10:03:41Z</time>
      </trkpt>
      <trkpt lat="45.97123" lon="4.47279">
        <ele>658.8</ele>
        <time>2015-11-05T10:03:45Z</time>
      </trkpt>
      <trkpt lat="45.97128" lon="4.47267">
        <ele>659.3</ele>
        <time>2015-11-05T10:03:47Z</time>
      </trkpt>
      <trkpt lat="45.97134" lon="4.47258">
        <ele>659.8</ele>
        <time>2015-11-05T10:03:50Z</time>
      </trkpt>
      <trkpt lat="45.97142" lon="4.4725">
        <ele>660.4</ele>
        <time>2015-11-05T10:03:54Z</time>
      </trkpt>
      <trkpt lat="45.97149" lon="4.47242">
        <ele>660.9</ele>
        <time>2015-11-05T10:03:58Z</time>
      </trkpt>
      <trkpt lat="45.97158" lon="4.47233">
        <ele>661.6</ele>
        <time>2015-11-05T10:04:02Z</time>
      </trkpt>
      <trkpt lat="45.97166" lon="4.47227">
        <ele>662.3</ele>
        <time>2015-11-05T10:04:06Z</time>
      </trkpt>
      <trkpt lat="45.97173" lon="4.4722">
        <ele>663.1</ele>
        <time>2015-11-05T10:04:10Z</time>
      </trkpt>
      <trkpt lat="45.9718" lon="4.47214">
        <ele>664</ele>
        <time>2015-11-05T10:04:14Z</time>
      </trkpt>
      <trkpt lat="45.97188" lon="4.47208">
        <ele>664.9</ele>
        <time>2015-11-05T10:04:18Z</time>
      </trkpt>
      <trkpt lat="45.97196" lon="4.47201">
        <ele>665.8</ele>
        <time>2015-11-05T10:04:22Z</time>
      </trkpt>
      <trkpt lat="45.97204" lon="4.47196">
        <ele>666.8</ele>
        <time>2015-11-05T10:04:26Z</time>
      </trkpt>
      <trkpt lat="45.97213" lon="4.47189">
        <ele>667.7</ele>
        <time>2015-11-05T10:04:31Z</time>
      </trkpt>
      <trkpt lat="45.97222" lon="4.47183">
        <ele>668.6</ele>
        <time>2015-11-05T10:04:36Z</time>
      </trkpt>
      <trkpt lat="45.97231" lon="4.47181">
        <ele>669.5</ele>
        <time>2015-11-05T10:04:41Z</time>
      </trkpt>
      <trkpt lat="45.9724" lon="4.47181">
        <ele>670.4</ele>
        <time>2015-11-05T10:04:47Z</time>
      </trkpt>
      <trkpt lat="45.9725" lon="4.47179">
        <ele>671.3</ele>
        <time>2015-11-05T10:04:52Z</time>
      </trkpt>
      <trkpt lat="45.97259" lon="4.47175">
        <ele>672.3</ele>
        <time>2015-11-05T10:04:56Z</time>
      </trkpt>
      <trkpt lat="45.97267" lon="4.4717">
        <ele>673.3</ele>
        <time>2015-11-05T10:05:01Z</time>
      </trkpt>
      <trkpt lat="45.97272" lon="4.47157">
        <ele>674.3</ele>
        <time>2015-11-05T10:05:08Z</time>
      </trkpt>
      <trkpt lat="45.97276" lon="4.47144">
        <ele>675.2</ele>
        <time>2015-11-05T10:05:11Z</time>
      </trkpt>
      <trkpt lat="45.9728" lon="4.47133">
        <ele>676.2</ele>
        <time>2015-11-05T10:05:14Z</time>
      </trkpt>
      <trkpt lat="45.97284" lon="4.47121">
        <ele>677.2</ele>
        <time>2015-11-05T10:05:18Z</time>
      </trkpt>
      <trkpt lat="45.97288" lon="4.47111">
        <ele>678.1</ele>
        <time>2015-11-05T10:05:22Z</time>
      </trkpt>
      <trkpt lat="45.97293" lon="4.47098">
        <ele>679.1</ele>
        <time>2015-11-05T10:05:26Z</time>
      </trkpt>
      <trkpt lat="45.97298" lon="4.47086">
        <ele>680.1</ele>
        <time>2015-11-05T10:05:29Z</time>
      </trkpt>
      <trkpt lat="45.97301" lon="4.47073">
        <ele>681.2</ele>
        <time>2015-11-05T10:05:32Z</time>
      </trkpt>
      <trkpt lat="45.97308" lon="4.47059">
        <ele>681.8</ele>
        <time>2015-11-05T10:05:35Z</time>
      </trkpt>
      <trkpt lat="45.97315" lon="4.47046">
        <ele>682.6</ele>
        <time>2015-11-05T10:05:38Z</time>
      </trkpt>
      <trkpt lat="45.97322" lon="4.47034">
        <ele>683.3</ele>
        <time>2015-11-05T10:05:41Z</time>
      </trkpt>
      <trkpt lat="45.97328" lon="4.47023">
        <ele>684</ele>
        <time>2015-11-05T10:05:44Z</time>
      </trkpt>
      <trkpt lat="45.97335" lon="4.47012">
        <ele>684.5</ele>
        <time>2015-11-05T10:05:47Z</time>
      </trkpt>
      <trkpt lat="45.97341" lon="4.47001">
        <ele>685</ele>
        <time>2015-11-05T10:05:51Z</time>
      </trkpt>
      <trkpt lat="45.97348" lon="4.46991">
        <ele>685.2</ele>
        <time>2015-11-05T10:05:55Z</time>
      </trkpt>
      <trkpt lat="45.97355" lon="4.4698">
        <ele>685.3</ele>
        <time>2015-11-05T10:05:59Z</time>
      </trkpt>
      <trkpt lat="45.97361" lon="4.46971">
        <ele>685.3</ele>
        <time>2015-11-05T10:06:03Z</time>
      </trkpt>
      <trkpt lat="45.97369" lon="4.46962">
        <ele>685.2</ele>
        <time>2015-11-05T10:06:07Z</time>
      </trkpt>
      <trkpt lat="45.97375" lon="4.46954">
        <ele>684.9</ele>
        <time>2015-11-05T10:06:10Z</time>
      </trkpt>
      <trkpt lat="45.97384" lon="4.46949">
        <ele>684.9</ele>
        <time>2015-11-05T10:06:12Z</time>
      </trkpt>
      <trkpt lat="45.97392" lon="4.46945">
        <ele>684.4</ele>
        <time>2015-11-05T10:06:15Z</time>
      </trkpt>
      <trkpt lat="45.97399" lon="4.46951">
        <ele>683.9</ele>
        <time>2015-11-05T10:11:19Z</time>
      </trkpt>
      <trkpt lat="45.97409" lon="4.46947">
        <ele>683.3</ele>
        <time>2015-11-05T10:11:22Z</time>
      </trkpt>
      <trkpt lat="45.97417" lon="4.46951">
        <ele>682.7</ele>
        <time>2015-11-05T10:11:24Z</time>
      </trkpt>
      <trkpt lat="45.97427" lon="4.46964">
        <ele>682.1</ele>
        <time>2015-11-05T10:11:27Z</time>
      </trkpt>
      <trkpt lat="45.97434" lon="4.46976">
        <ele>681.6</ele>
        <time>2015-11-05T10:11:29Z</time>
      </trkpt>
      <trkpt lat="45.9744" lon="4.46986">
        <ele>681.3</ele>
        <time>2015-11-05T10:11:31Z</time>
      </trkpt>
      <trkpt lat="45.97446" lon="4.46997">
        <ele>681.1</ele>
        <time>2015-11-05T10:11:32Z</time>
      </trkpt>
      <trkpt lat="45.97452" lon="4.47007">
        <ele>680.7</ele>
        <time>2015-11-05T10:11:34Z</time>
      </trkpt>
      <trkpt lat="45.97458" lon="4.47015">
        <ele>680.5</ele>
        <time>2015-11-05T10:11:36Z</time>
      </trkpt>
      <trkpt lat="45.97466" lon="4.47023">
        <ele>680.1</ele>
        <time>2015-11-05T10:11:39Z</time>
      </trkpt>
      <trkpt lat="45.97476" lon="4.47032">
        <ele>679.6</ele>
        <time>2015-11-05T10:11:41Z</time>
      </trkpt>
      <trkpt lat="45.97485" lon="4.47038">
        <ele>679.2</ele>
        <time>2015-11-05T10:11:44Z</time>
      </trkpt>
      <trkpt lat="45.97492" lon="4.47045">
        <ele>678.8</ele>
        <time>2015-11-05T10:11:46Z</time>
      </trkpt>
      <trkpt lat="45.975" lon="4.47051">
        <ele>678.3</ele>
        <time>2015-11-05T10:11:48Z</time>
      </trkpt>
      <trkpt lat="45.97511" lon="4.47055">
        <ele>677.8</ele>
        <time>2015-11-05T10:11:50Z</time>
      </trkpt>
      <trkpt lat="45.97522" lon="4.47056">
        <ele>677.2</ele>
        <time>2015-11-05T10:11:52Z</time>
      </trkpt>
      <trkpt lat="45.97532" lon="4.47057">
        <ele>676.5</ele>
        <time>2015-11-05T10:11:55Z</time>
      </trkpt>
      <trkpt lat="45.97545" lon="4.47057">
        <ele>675.8</ele>
        <time>2015-11-05T10:11:58Z</time>
      </trkpt>
      <trkpt lat="45.97557" lon="4.47056">
        <ele>674.9</ele>
        <time>2015-11-05T10:12:00Z</time>
      </trkpt>
      <trkpt lat="45.97569" lon="4.47058">
        <ele>673.9</ele>
        <time>2015-11-05T10:12:03Z</time>
      </trkpt>
      <trkpt lat="45.9758" lon="4.47061">
        <ele>672.8</ele>
        <time>2015-11-05T10:12:05Z</time>
      </trkpt>
      <trkpt lat="45.9759" lon="4.47064">
        <ele>671.8</ele>
        <time>2015-11-05T10:12:06Z</time>
      </trkpt>
      <trkpt lat="45.976" lon="4.47067">
        <ele>670.8</ele>
        <time>2015-11-05T10:12:08Z</time>
      </trkpt>
      <trkpt lat="45.97609" lon="4.47071">
        <ele>669.8</ele>
        <time>2015-11-05T10:12:10Z</time>
      </trkpt>
      <trkpt lat="45.97619" lon="4.47076">
        <ele>668.9</ele>
        <time>2015-11-05T10:12:12Z</time>
      </trkpt>
      <trkpt lat="45.97628" lon="4.47082">
        <ele>667.9</ele>
        <time>2015-11-05T10:12:15Z</time>
      </trkpt>
      <trkpt lat="45.97636" lon="4.4709">
        <ele>666.9</ele>
        <time>2015-11-05T10:12:17Z</time>
      </trkpt>
      <trkpt lat="45.97643" lon="4.47098">
        <ele>665.9</ele>
        <time>2015-11-05T10:12:18Z</time>
      </trkpt>
      <trkpt lat="45.9765" lon="4.47106">
        <ele>664.8</ele>
        <time>2015-11-05T10:12:20Z</time>
      </trkpt>
      <trkpt lat="45.97659" lon="4.47116">
        <ele>663.8</ele>
        <time>2015-11-05T10:12:22Z</time>
      </trkpt>
      <trkpt lat="45.97666" lon="4.47126">
        <ele>663</ele>
        <time>2015-11-05T10:12:24Z</time>
      </trkpt>
      <trkpt lat="45.97673" lon="4.47137">
        <ele>662</ele>
        <time>2015-11-05T10:12:27Z</time>
      </trkpt>
      <trkpt lat="45.97676" lon="4.47148">
        <ele>661</ele>
        <time>2015-11-05T10:12:29Z</time>
      </trkpt>
      <trkpt lat="45.97682" lon="4.47162">
        <ele>659.9</ele>
        <time>2015-11-05T10:12:31Z</time>
      </trkpt>
      <trkpt lat="45.97686" lon="4.47176">
        <ele>658.7</ele>
        <time>2015-11-05T10:12:32Z</time>
      </trkpt>
      <trkpt lat="45.97692" lon="4.47188">
        <ele>657.6</ele>
        <time>2015-11-05T10:12:34Z</time>
      </trkpt>
      <trkpt lat="45.977" lon="4.472">
        <ele>656.5</ele>
        <time>2015-11-05T10:12:36Z</time>
      </trkpt>
      <trkpt lat="45.97709" lon="4.47212">
        <ele>655.5</ele>
        <time>2015-11-05T10:12:39Z</time>
      </trkpt>
      <trkpt lat="45.9772" lon="4.47223">
        <ele>654.3</ele>
        <time>2015-11-05T10:12:41Z</time>
      </trkpt>
      <trkpt lat="45.9773" lon="4.4723">
        <ele>653.4</ele>
        <time>2015-11-05T10:12:43Z</time>
      </trkpt>
      <trkpt lat="45.97739" lon="4.47234">
        <ele>652.6</ele>
        <time>2015-11-05T10:12:44Z</time>
      </trkpt>
      <trkpt lat="45.97748" lon="4.47237">
        <ele>651.9</ele>
        <time>2015-11-05T10:12:46Z</time>
      </trkpt>
      <trkpt lat="45.97759" lon="4.47238">
        <ele>651.6</ele>
        <time>2015-11-05T10:12:48Z</time>
      </trkpt>
      <trkpt lat="45.97769" lon="4.47236">
        <ele>651.6</ele>
        <time>2015-11-05T10:12:51Z</time>
      </trkpt>
      <trkpt lat="45.9778" lon="4.47234">
        <ele>651.6</ele>
        <time>2015-11-05T10:12:53Z</time>
      </trkpt>
      <trkpt lat="45.97793" lon="4.47233">
        <ele>651.7</ele>
        <time>2015-11-05T10:12:54Z</time>
      </trkpt>
      <trkpt lat="45.97803" lon="4.47236">
        <ele>651.8</ele>
        <time>2015-11-05T10:12:56Z</time>
      </trkpt>
      <trkpt lat="45.97813" lon="4.47242">
        <ele>651.8</ele>
        <time>2015-11-05T10:12:58Z</time>
      </trkpt>
      <trkpt lat="45.97822" lon="4.47251">
        <ele>651.7</ele>
        <time>2015-11-05T10:13:00Z</time>
      </trkpt>
      <trkpt lat="45.97831" lon="4.47262">
        <ele>651.5</ele>
        <time>2015-11-05T10:13:03Z</time>
      </trkpt>
      <trkpt lat="45.97838" lon="4.47271">
        <ele>651</ele>
        <time>2015-11-05T10:13:05Z</time>
      </trkpt>
      <trkpt lat="45.97845" lon="4.47284">
        <ele>650.2</ele>
        <time>2015-11-05T10:13:06Z</time>
      </trkpt>
      <trkpt lat="45.97852" lon="4.47297">
        <ele>649.2</ele>
        <time>2015-11-05T10:13:08Z</time>
      </trkpt>
      <trkpt lat="45.97858" lon="4.47308">
        <ele>647.9</ele>
        <time>2015-11-05T10:13:10Z</time>
      </trkpt>
      <trkpt lat="45.97864" lon="4.47321">
        <ele>646.5</ele>
        <time>2015-11-05T10:13:12Z</time>
      </trkpt>
      <trkpt lat="45.97872" lon="4.47334">
        <ele>645.1</ele>
        <time>2015-11-05T10:13:15Z</time>
      </trkpt>
      <trkpt lat="45.97879" lon="4.47347">
        <ele>643.7</ele>
        <time>2015-11-05T10:13:17Z</time>
      </trkpt>
      <trkpt lat="45.97887" lon="4.47359">
        <ele>642.3</ele>
        <time>2015-11-05T10:13:18Z</time>
      </trkpt>
      <trkpt lat="45.97895" lon="4.47366">
        <ele>641</ele>
        <time>2015-11-05T10:13:20Z</time>
      </trkpt>
      <trkpt lat="45.97903" lon="4.47371">
        <ele>640</ele>
        <time>2015-11-05T10:13:22Z</time>
      </trkpt>
      <trkpt lat="45.97912" lon="4.47373">
        <ele>639</ele>
        <time>2015-11-05T10:13:24Z</time>
      </trkpt>
      <trkpt lat="45.97922" lon="4.47375">
        <ele>638.2</ele>
        <time>2015-11-05T10:13:26Z</time>
      </trkpt>
      <trkpt lat="45.97934" lon="4.47377">
        <ele>637.5</ele>
        <time>2015-11-05T10:13:29Z</time>
      </trkpt>
      <trkpt lat="45.97944" lon="4.47383">
        <ele>636.9</ele>
        <time>2015-11-05T10:13:30Z</time>
      </trkpt>
      <trkpt lat="45.97951" lon="4.47391">
        <ele>636.5</ele>
        <time>2015-11-05T10:13:32Z</time>
      </trkpt>
      <trkpt lat="45.97961" lon="4.47403">
        <ele>636</ele>
        <time>2015-11-05T10:13:34Z</time>
      </trkpt>
      <trkpt lat="45.97967" lon="4.47416">
        <ele>635.4</ele>
        <time>2015-11-05T10:13:36Z</time>
      </trkpt>
      <trkpt lat="45.97975" lon="4.4743">
        <ele>634.5</ele>
        <time>2015-11-05T10:13:38Z</time>
      </trkpt>
      <trkpt lat="45.97982" lon="4.47444">
        <ele>633.5</ele>
        <time>2015-11-05T10:13:40Z</time>
      </trkpt>
      <trkpt lat="45.97989" lon="4.47459">
        <ele>632.4</ele>
        <time>2015-11-05T10:13:42Z</time>
      </trkpt>
      <trkpt lat="45.97995" lon="4.47477">
        <ele>631.1</ele>
        <time>2015-11-05T10:13:44Z</time>
      </trkpt>
      <trkpt lat="45.98001" lon="4.47493">
        <ele>629.6</ele>
        <time>2015-11-05T10:13:46Z</time>
      </trkpt>
      <trkpt lat="45.98009" lon="4.4751">
        <ele>628.1</ele>
        <time>2015-11-05T10:13:49Z</time>
      </trkpt>
      <trkpt lat="45.98016" lon="4.47524">
        <ele>626.5</ele>
        <time>2015-11-05T10:13:51Z</time>
      </trkpt>
      <trkpt lat="45.98023" lon="4.47538">
        <ele>624.9</ele>
        <time>2015-11-05T10:13:53Z</time>
      </trkpt>
      <trkpt lat="45.98032" lon="4.47549">
        <ele>623.2</ele>
        <time>2015-11-05T10:13:54Z</time>
      </trkpt>
      <trkpt lat="45.98041" lon="4.4756">
        <ele>621.5</ele>
        <time>2015-11-05T10:13:56Z</time>
      </trkpt>
      <trkpt lat="45.98051" lon="4.47573">
        <ele>620.1</ele>
        <time>2015-11-05T10:13:58Z</time>
      </trkpt>
      <trkpt lat="45.98062" lon="4.47587">
        <ele>619.1</ele>
        <time>2015-11-05T10:14:00Z</time>
      </trkpt>
      <trkpt lat="45.98072" lon="4.47601">
        <ele>618.1</ele>
        <time>2015-11-05T10:14:03Z</time>
      </trkpt>
      <trkpt lat="45.98082" lon="4.47617">
        <ele>617.1</ele>
        <time>2015-11-05T10:14:05Z</time>
      </trkpt>
      <trkpt lat="45.98091" lon="4.47631">
        <ele>616.1</ele>
        <time>2015-11-05T10:14:06Z</time>
      </trkpt>
      <trkpt lat="45.98101" lon="4.47645">
        <ele>615</ele>
        <time>2015-11-05T10:14:08Z</time>
      </trkpt>
      <trkpt lat="45.98109" lon="4.4766">
        <ele>614</ele>
        <time>2015-11-05T10:14:10Z</time>
      </trkpt>
      <trkpt lat="45.98117" lon="4.47676">
        <ele>612.8</ele>
        <time>2015-11-05T10:14:12Z</time>
      </trkpt>
      <trkpt lat="45.98127" lon="4.47692">
        <ele>611.5</ele>
        <time>2015-11-05T10:14:15Z</time>
      </trkpt>
      <trkpt lat="45.98137" lon="4.47707">
        <ele>610.1</ele>
        <time>2015-11-05T10:14:17Z</time>
      </trkpt>
      <trkpt lat="45.98145" lon="4.47722">
        <ele>608.4</ele>
        <time>2015-11-05T10:14:18Z</time>
      </trkpt>
      <trkpt lat="45.98155" lon="4.47737">
        <ele>606.5</ele>
        <time>2015-11-05T10:14:20Z</time>
      </trkpt>
      <trkpt lat="45.98162" lon="4.47752">
        <ele>604.4</ele>
        <time>2015-11-05T10:14:22Z</time>
      </trkpt>
      <trkpt lat="45.98169" lon="4.47765">
        <ele>602.3</ele>
        <time>2015-11-05T10:14:25Z</time>
      </trkpt>
      <trkpt lat="45.98175" lon="4.47778">
        <ele>600.1</ele>
        <time>2015-11-05T10:14:27Z</time>
      </trkpt>
      <trkpt lat="45.98184" lon="4.47792">
        <ele>598</ele>
        <time>2015-11-05T10:14:29Z</time>
      </trkpt>
      <trkpt lat="45.98193" lon="4.47804">
        <ele>595.9</ele>
        <time>2015-11-05T10:14:30Z</time>
      </trkpt>
      <trkpt lat="45.982" lon="4.47816">
        <ele>593.9</ele>
        <time>2015-11-05T10:14:32Z</time>
      </trkpt>
      <trkpt lat="45.98206" lon="4.47827">
        <ele>592.1</ele>
        <time>2015-11-05T10:14:34Z</time>
      </trkpt>
      <trkpt lat="45.98213" lon="4.47837">
        <ele>590.5</ele>
        <time>2015-11-05T10:14:36Z</time>
      </trkpt>
      <trkpt lat="45.98219" lon="4.47846">
        <ele>589.4</ele>
        <time>2015-11-05T10:14:38Z</time>
      </trkpt>
      <trkpt lat="45.98225" lon="4.4786">
        <ele>588.7</ele>
        <time>2015-11-05T10:14:40Z</time>
      </trkpt>
      <trkpt lat="45.9823" lon="4.47878">
        <ele>588.2</ele>
        <time>2015-11-05T10:14:42Z</time>
      </trkpt>
      <trkpt lat="45.9824" lon="4.47894">
        <ele>587.8</ele>
        <time>2015-11-05T10:14:44Z</time>
      </trkpt>
      <trkpt lat="45.98249" lon="4.47909">
        <ele>587.5</ele>
        <time>2015-11-05T10:14:46Z</time>
      </trkpt>
      <trkpt lat="45.98258" lon="4.47921">
        <ele>587.5</ele>
        <time>2015-11-05T10:14:49Z</time>
      </trkpt>
      <trkpt lat="45.98265" lon="4.4793">
        <ele>587.5</ele>
        <time>2015-11-05T10:14:51Z</time>
      </trkpt>
      <trkpt lat="45.98271" lon="4.47938">
        <ele>587.6</ele>
        <time>2015-11-05T10:14:53Z</time>
      </trkpt>
      <trkpt lat="45.98278" lon="4.47946">
        <ele>587.7</ele>
        <time>2015-11-05T10:14:54Z</time>
      </trkpt>
      <trkpt lat="45.98284" lon="4.47953">
        <ele>587.8</ele>
        <time>2015-11-05T10:14:56Z</time>
      </trkpt>
      <trkpt lat="45.98291" lon="4.4796">
        <ele>587.9</ele>
        <time>2015-11-05T10:14:58Z</time>
      </trkpt>
      <trkpt lat="45.98298" lon="4.47967">
        <ele>587.8</ele>
        <time>2015-11-05T10:15:00Z</time>
      </trkpt>
      <trkpt lat="45.98309" lon="4.47974">
        <ele>587.6</ele>
        <time>2015-11-05T10:15:03Z</time>
      </trkpt>
      <trkpt lat="45.98319" lon="4.4798">
        <ele>587.4</ele>
        <time>2015-11-05T10:15:04Z</time>
      </trkpt>
      <trkpt lat="45.9833" lon="4.47985">
        <ele>587</ele>
        <time>2015-11-05T10:15:06Z</time>
      </trkpt>
      <trkpt lat="45.98343" lon="4.47989">
        <ele>586.8</ele>
        <time>2015-11-05T10:15:08Z</time>
      </trkpt>
      <trkpt lat="45.98356" lon="4.47994">
        <ele>586.3</ele>
        <time>2015-11-05T10:15:10Z</time>
      </trkpt>
      <trkpt lat="45.98367" lon="4.48006">
        <ele>586.1</ele>
        <time>2015-11-05T10:15:13Z</time>
      </trkpt>
      <trkpt lat="45.98381" lon="4.48016">
        <ele>585.9</ele>
        <time>2015-11-05T10:15:15Z</time>
      </trkpt>
      <trkpt lat="45.98394" lon="4.48026">
        <ele>585.9</ele>
        <time>2015-11-05T10:15:17Z</time>
      </trkpt>
      <trkpt lat="45.98407" lon="4.48036">
        <ele>586</ele>
        <time>2015-11-05T10:15:18Z</time>
      </trkpt>
      <trkpt lat="45.98419" lon="4.48043">
        <ele>586.1</ele>
        <time>2015-11-05T10:15:20Z</time>
      </trkpt>
      <trkpt lat="45.98429" lon="4.48049">
        <ele>586.2</ele>
        <time>2015-11-05T10:15:22Z</time>
      </trkpt>
      <trkpt lat="45.98438" lon="4.48057">
        <ele>586.3</ele>
        <time>2015-11-05T10:15:24Z</time>
      </trkpt>
      <trkpt lat="45.98447" lon="4.48065">
        <ele>586.3</ele>
        <time>2015-11-05T10:15:27Z</time>
      </trkpt>
      <trkpt lat="45.98455" lon="4.48074">
        <ele>586.4</ele>
        <time>2015-11-05T10:15:29Z</time>
      </trkpt>
      <trkpt lat="45.98464" lon="4.48082">
        <ele>586.5</ele>
        <time>2015-11-05T10:15:30Z</time>
      </trkpt>
      <trkpt lat="45.98471" lon="4.4809">
        <ele>586.6</ele>
        <time>2015-11-05T10:15:32Z</time>
      </trkpt>
      <trkpt lat="45.9848" lon="4.48101">
        <ele>586.4</ele>
        <time>2015-11-05T10:15:36Z</time>
      </trkpt>
      <trkpt lat="45.98487" lon="4.48109">
        <ele>586.3</ele>
        <time>2015-11-05T10:15:37Z</time>
      </trkpt>
      <trkpt lat="45.98494" lon="4.48117">
        <ele>586</ele>
        <time>2015-11-05T10:15:39Z</time>
      </trkpt>
      <trkpt lat="45.98501" lon="4.48125">
        <ele>585.7</ele>
        <time>2015-11-05T10:15:41Z</time>
      </trkpt>
      <trkpt lat="45.98506" lon="4.48133">
        <ele>585.5</ele>
        <time>2015-11-05T10:15:44Z</time>
      </trkpt>
      <trkpt lat="45.98512" lon="4.48141">
        <ele>585.2</ele>
        <time>2015-11-05T10:15:46Z</time>
      </trkpt>
      <trkpt lat="45.98519" lon="4.48155">
        <ele>585</ele>
        <time>2015-11-05T10:15:48Z</time>
      </trkpt>
      <trkpt lat="45.98529" lon="4.48153">
        <ele>584.8</ele>
        <time>2015-11-05T10:15:53Z</time>
      </trkpt>
      <trkpt lat="45.98535" lon="4.48143">
        <ele>584.5</ele>
        <time>2015-11-05T10:15:54Z</time>
      </trkpt>
      <trkpt lat="45.9854" lon="4.48133">
        <ele>584</ele>
        <time>2015-11-05T10:15:56Z</time>
      </trkpt>
      <trkpt lat="45.98542" lon="4.48117">
        <ele>584</ele>
        <time>2015-11-05T10:15:58Z</time>
      </trkpt>
      <trkpt lat="45.98546" lon="4.48106">
        <ele>584</ele>
        <time>2015-11-05T10:16:00Z</time>
      </trkpt>
      <trkpt lat="45.9855" lon="4.48093">
        <ele>583.8</ele>
        <time>2015-11-05T10:16:02Z</time>
      </trkpt>
      <trkpt lat="45.98552" lon="4.48075">
        <ele>583.6</ele>
        <time>2015-11-05T10:16:04Z</time>
      </trkpt>
      <trkpt lat="45.98554" lon="4.48059">
        <ele>583.3</ele>
        <time>2015-11-05T10:16:06Z</time>
      </trkpt>
      <trkpt lat="45.98559" lon="4.4804">
        <ele>582.8</ele>
        <time>2015-11-05T10:16:08Z</time>
      </trkpt>
      <trkpt lat="45.9856" lon="4.48024">
        <ele>582.4</ele>
        <time>2015-11-05T10:16:10Z</time>
      </trkpt>
      <trkpt lat="45.9856" lon="4.48011">
        <ele>581.7</ele>
        <time>2015-11-05T10:16:12Z</time>
      </trkpt>
      <trkpt lat="45.98562" lon="4.47994">
        <ele>581.3</ele>
        <time>2015-11-05T10:16:15Z</time>
      </trkpt>
      <trkpt lat="45.98567" lon="4.47976">
        <ele>581</ele>
        <time>2015-11-05T10:16:17Z</time>
      </trkpt>
      <trkpt lat="45.98569" lon="4.47961">
        <ele>580.7</ele>
        <time>2015-11-05T10:16:19Z</time>
      </trkpt>
      <trkpt lat="45.98576" lon="4.47946">
        <ele>580.1</ele>
        <time>2015-11-05T10:16:20Z</time>
      </trkpt>
      <trkpt lat="45.98581" lon="4.47927">
        <ele>579.4</ele>
        <time>2015-11-05T10:16:22Z</time>
      </trkpt>
      <trkpt lat="45.98584" lon="4.47912">
        <ele>578.9</ele>
        <time>2015-11-05T10:16:24Z</time>
      </trkpt>
      <trkpt lat="45.98588" lon="4.47894">
        <ele>578.5</ele>
        <time>2015-11-05T10:16:27Z</time>
      </trkpt>
      <trkpt lat="45.98591" lon="4.47876">
        <ele>578.2</ele>
        <time>2015-11-05T10:16:28Z</time>
      </trkpt>
      <trkpt lat="45.98591" lon="4.4786">
        <ele>578.1</ele>
        <time>2015-11-05T10:16:30Z</time>
      </trkpt>
      <trkpt lat="45.98595" lon="4.47845">
        <ele>577.9</ele>
        <time>2015-11-05T10:16:32Z</time>
      </trkpt>
      <trkpt lat="45.98592" lon="4.47828">
        <ele>577.6</ele>
        <time>2015-11-05T10:16:36Z</time>
      </trkpt>
      <trkpt lat="45.98587" lon="4.47808">
        <ele>577.1</ele>
        <time>2015-11-05T10:16:37Z</time>
      </trkpt>
      <trkpt lat="45.9858" lon="4.47793">
        <ele>576.7</ele>
        <time>2015-11-05T10:16:39Z</time>
      </trkpt>
      <trkpt lat="45.98575" lon="4.47782">
        <ele>576.3</ele>
        <time>2015-11-05T10:16:41Z</time>
      </trkpt>
      <trkpt lat="45.98566" lon="4.47768">
        <ele>575.8</ele>
        <time>2015-11-05T10:16:43Z</time>
      </trkpt>
      <trkpt lat="45.9856" lon="4.47753">
        <ele>575.5</ele>
        <time>2015-11-05T10:16:45Z</time>
      </trkpt>
      <trkpt lat="45.9855" lon="4.47738">
        <ele>575.2</ele>
        <time>2015-11-05T10:16:47Z</time>
      </trkpt>
      <trkpt lat="45.98543" lon="4.47732">
        <ele>574.9</ele>
        <time>2015-11-05T10:16:48Z</time>
      </trkpt>
      <trkpt lat="45.9853" lon="4.47723">
        <ele>574.6</ele>
        <time>2015-11-05T10:16:50Z</time>
      </trkpt>
      <trkpt lat="45.98517" lon="4.47708">
        <ele>574</ele>
        <time>2015-11-05T10:16:52Z</time>
      </trkpt>
      <trkpt lat="45.98509" lon="4.47703">
        <ele>573.6</ele>
        <time>2015-11-05T10:16:53Z</time>
      </trkpt>
      <trkpt lat="45.98501" lon="4.47693">
        <ele>573.2</ele>
        <time>2015-11-05T10:16:54Z</time>
      </trkpt>
      <trkpt lat="45.98495" lon="4.47684">
        <ele>572.6</ele>
        <time>2015-11-05T10:16:55Z</time>
      </trkpt>
      <trkpt lat="45.98487" lon="4.47678">
        <ele>571.8</ele>
        <time>2015-11-05T10:16:56Z</time>
      </trkpt>
      <trkpt lat="45.98482" lon="4.47667">
        <ele>571.3</ele>
        <time>2015-11-05T10:16:57Z</time>
      </trkpt>
      <trkpt lat="45.98468" lon="4.47655">
        <ele>570.8</ele>
        <time>2015-11-05T10:16:59Z</time>
      </trkpt>
      <trkpt lat="45.98456" lon="4.47646">
        <ele>570.1</ele>
        <time>2015-11-05T10:17:00Z</time>
      </trkpt>
      <trkpt lat="45.9845" lon="4.47632">
        <ele>569.5</ele>
        <time>2015-11-05T10:17:01Z</time>
      </trkpt>
      <trkpt lat="45.98445" lon="4.47609">
        <ele>568.9</ele>
        <time>2015-11-05T10:17:03Z</time>
      </trkpt>
      <trkpt lat="45.98444" lon="4.47591">
        <ele>568.2</ele>
        <time>2015-11-05T10:17:05Z</time>
      </trkpt>
      <trkpt lat="45.98442" lon="4.47577">
        <ele>567.5</ele>
        <time>2015-11-05T10:17:06Z</time>
      </trkpt>
      <trkpt lat="45.98437" lon="4.47566">
        <ele>566.9</ele>
        <time>2015-11-05T10:17:07Z</time>
      </trkpt>
      <trkpt lat="45.98441" lon="4.47556">
        <ele>566.5</ele>
        <time>2015-11-05T10:17:08Z</time>
      </trkpt>
      <trkpt lat="45.98439" lon="4.47543">
        <ele>566.2</ele>
        <time>2015-11-05T10:17:09Z</time>
      </trkpt>
      <trkpt lat="45.98432" lon="4.47524">
        <ele>566.1</ele>
        <time>2015-11-05T10:17:11Z</time>
      </trkpt>
      <trkpt lat="45.98425" lon="4.47513">
        <ele>566.3</ele>
        <time>2015-11-05T10:17:13Z</time>
      </trkpt>
      <trkpt lat="45.98417" lon="4.47498">
        <ele>566.5</ele>
        <time>2015-11-05T10:17:16Z</time>
      </trkpt>
      <trkpt lat="45.98411" lon="4.47483">
        <ele>566.5</ele>
        <time>2015-11-05T10:17:19Z</time>
      </trkpt>
      <trkpt lat="45.98413" lon="4.47471">
        <ele>566.6</ele>
        <time>2015-11-05T10:17:21Z</time>
      </trkpt>
      <trkpt lat="45.98411" lon="4.4746">
        <ele>566.7</ele>
        <time>2015-11-05T10:17:25Z</time>
      </trkpt>
      <trkpt lat="45.98412" lon="4.47446">
        <ele>568</ele>
        <time>2015-11-05T10:17:32Z</time>
      </trkpt>
      <trkpt lat="45.98412" lon="4.47434">
        <ele>569.5</ele>
        <time>2015-11-05T10:17:37Z</time>
      </trkpt>
      <trkpt lat="45.98412" lon="4.47421">
        <ele>571.2</ele>
        <time>2015-11-05T10:17:43Z</time>
      </trkpt>
      <trkpt lat="45.98419" lon="4.47413">
        <ele>573</ele>
        <time>2015-11-05T10:17:51Z</time>
      </trkpt>
      <trkpt lat="45.98427" lon="4.47407">
        <ele>575.2</ele>
        <time>2015-11-05T10:18:12Z</time>
      </trkpt>
      <trkpt lat="45.98435" lon="4.4741">
        <ele>577.2</ele>
        <time>2015-11-05T10:18:42Z</time>
      </trkpt>
      <trkpt lat="45.98439" lon="4.4742">
        <ele>578.4</ele>
        <time>2015-11-05T10:18:46Z</time>
      </trkpt>
      <trkpt lat="45.98444" lon="4.47431">
        <ele>579.4</ele>
        <time>2015-11-05T10:18:50Z</time>
      </trkpt>
      <trkpt lat="45.9845" lon="4.47441">
        <ele>580.7</ele>
        <time>2015-11-05T10:18:54Z</time>
      </trkpt>
      <trkpt lat="45.98458" lon="4.47451">
        <ele>582.2</ele>
        <time>2015-11-05T10:18:58Z</time>
      </trkpt>
      <trkpt lat="45.98464" lon="4.47462">
        <ele>584</ele>
        <time>2015-11-05T10:19:02Z</time>
      </trkpt>
      <trkpt lat="45.9847" lon="4.47475">
        <ele>584.9</ele>
        <time>2015-11-05T10:19:06Z</time>
      </trkpt>
      <trkpt lat="45.98477" lon="4.47485">
        <ele>585.7</ele>
        <time>2015-11-05T10:19:10Z</time>
      </trkpt>
      <trkpt lat="45.98483" lon="4.47497">
        <ele>586.7</ele>
        <time>2015-11-05T10:19:14Z</time>
      </trkpt>
      <trkpt lat="45.98491" lon="4.47504">
        <ele>587.4</ele>
        <time>2015-11-05T10:19:17Z</time>
      </trkpt>
      <trkpt lat="45.98499" lon="4.47509">
        <ele>587.5</ele>
        <time>2015-11-05T10:19:21Z</time>
      </trkpt>
      <trkpt lat="45.98508" lon="4.47514">
        <ele>587.7</ele>
        <time>2015-11-05T10:19:27Z</time>
      </trkpt>
      <trkpt lat="45.98518" lon="4.47518">
        <ele>588.2</ele>
        <time>2015-11-05T10:19:32Z</time>
      </trkpt>
      <trkpt lat="45.98527" lon="4.47522">
        <ele>588.9</ele>
        <time>2015-11-05T10:19:36Z</time>
      </trkpt>
      <trkpt lat="45.98536" lon="4.47525">
        <ele>590.1</ele>
        <time>2015-11-05T10:19:41Z</time>
      </trkpt>
      <trkpt lat="45.98546" lon="4.47528">
        <ele>590.9</ele>
        <time>2015-11-05T10:19:46Z</time>
      </trkpt>
      <trkpt lat="45.98556" lon="4.47531">
        <ele>591.4</ele>
        <time>2015-11-05T10:19:49Z</time>
      </trkpt>
      <trkpt lat="45.98565" lon="4.47531">
        <ele>591.7</ele>
        <time>2015-11-05T10:19:53Z</time>
      </trkpt>
      <trkpt lat="45.98573" lon="4.47536">
        <ele>591.9</ele>
        <time>2015-11-05T10:19:57Z</time>
      </trkpt>
      <trkpt lat="45.98582" lon="4.47541">
        <ele>591.6</ele>
        <time>2015-11-05T10:20:02Z</time>
      </trkpt>
      <trkpt lat="45.98592" lon="4.47541">
        <ele>591.5</ele>
        <time>2015-11-05T10:20:06Z</time>
      </trkpt>
      <trkpt lat="45.98601" lon="4.47542">
        <ele>591.4</ele>
        <time>2015-11-05T10:20:09Z</time>
      </trkpt>
      <trkpt lat="45.98612" lon="4.47542">
        <ele>591.1</ele>
        <time>2015-11-05T10:20:13Z</time>
      </trkpt>
      <trkpt lat="45.98621" lon="4.47543">
        <ele>590.6</ele>
        <time>2015-11-05T10:20:17Z</time>
      </trkpt>
      <trkpt lat="45.98631" lon="4.47544">
        <ele>589.9</ele>
        <time>2015-11-05T10:20:21Z</time>
      </trkpt>
      <trkpt lat="45.98641" lon="4.47542">
        <ele>588.6</ele>
        <time>2015-11-05T10:20:25Z</time>
      </trkpt>
      <trkpt lat="45.98649" lon="4.47537">
        <ele>587.3</ele>
        <time>2015-11-05T10:20:32Z</time>
      </trkpt>
      <trkpt lat="45.98658" lon="4.47536">
        <ele>586</ele>
        <time>2015-11-05T10:20:36Z</time>
      </trkpt>
      <trkpt lat="45.98669" lon="4.47535">
        <ele>584.9</ele>
        <time>2015-11-05T10:20:40Z</time>
      </trkpt>
      <trkpt lat="45.98677" lon="4.47533">
        <ele>583.9</ele>
        <time>2015-11-05T10:20:44Z</time>
      </trkpt>
      <trkpt lat="45.98688" lon="4.47528">
        <ele>583.1</ele>
        <time>2015-11-05T10:20:48Z</time>
      </trkpt>
      <trkpt lat="45.98696" lon="4.47525">
        <ele>582.7</ele>
        <time>2015-11-05T10:20:49Z</time>
      </trkpt>
      <trkpt lat="45.98704" lon="4.47521">
        <ele>582.5</ele>
        <time>2015-11-05T10:20:53Z</time>
      </trkpt>
      <trkpt lat="45.98713" lon="4.4752">
        <ele>582.8</ele>
        <time>2015-11-05T10:20:58Z</time>
      </trkpt>
      <trkpt lat="45.98723" lon="4.47519">
        <ele>583.5</ele>
        <time>2015-11-05T10:21:03Z</time>
      </trkpt>
      <trkpt lat="45.98731" lon="4.4752">
        <ele>584.4</ele>
        <time>2015-11-05T10:21:10Z</time>
      </trkpt>
      <trkpt lat="45.9874" lon="4.4752">
        <ele>585.8</ele>
        <time>2015-11-05T10:21:14Z</time>
      </trkpt>
      <trkpt lat="45.98749" lon="4.47519">
        <ele>587.3</ele>
        <time>2015-11-05T10:21:22Z</time>
      </trkpt>
      <trkpt lat="45.98757" lon="4.4752">
        <ele>588.9</ele>
        <time>2015-11-05T10:21:31Z</time>
      </trkpt>
      <trkpt lat="45.98766" lon="4.4752">
        <ele>590.5</ele>
        <time>2015-11-05T10:21:42Z</time>
      </trkpt>
      <trkpt lat="45.98775" lon="4.47521">
        <ele>592</ele>
        <time>2015-11-05T10:22:23Z</time>
      </trkpt>
      <trkpt lat="45.98784" lon="4.47522">
        <ele>593.6</ele>
        <time>2015-11-05T10:22:29Z</time>
      </trkpt>
      <trkpt lat="45.98792" lon="4.47524">
        <ele>595.1</ele>
        <time>2015-11-05T10:22:35Z</time>
      </trkpt>
      <trkpt lat="45.98801" lon="4.47529">
        <ele>596.5</ele>
        <time>2015-11-05T10:22:41Z</time>
      </trkpt>
      <trkpt lat="45.98809" lon="4.47534">
        <ele>597.4</ele>
        <time>2015-11-05T10:22:47Z</time>
      </trkpt>
      <trkpt lat="45.98817" lon="4.47539">
        <ele>598.1</ele>
        <time>2015-11-05T10:22:52Z</time>
      </trkpt>
      <trkpt lat="45.98824" lon="4.47548">
        <ele>598.6</ele>
        <time>2015-11-05T10:22:58Z</time>
      </trkpt>
      <trkpt lat="45.98828" lon="4.47559">
        <ele>598.9</ele>
        <time>2015-11-05T10:23:04Z</time>
      </trkpt>
      <trkpt lat="45.98832" lon="4.4757">
        <ele>599.1</ele>
        <time>2015-11-05T10:23:10Z</time>
      </trkpt>
      <trkpt lat="45.98836" lon="4.47581">
        <ele>599.2</ele>
        <time>2015-11-05T10:23:14Z</time>
      </trkpt>
      <trkpt lat="45.98839" lon="4.47593">
        <ele>599.2</ele>
        <time>2015-11-05T10:23:19Z</time>
      </trkpt>
      <trkpt lat="45.98842" lon="4.47604">
        <ele>599.2</ele>
        <time>2015-11-05T10:23:23Z</time>
      </trkpt>
      <trkpt lat="45.98844" lon="4.47618">
        <ele>598.9</ele>
        <time>2015-11-05T10:23:27Z</time>
      </trkpt>
      <trkpt lat="45.98846" lon="4.47632">
        <ele>598.8</ele>
        <time>2015-11-05T10:23:31Z</time>
      </trkpt>
      <trkpt lat="45.98848" lon="4.47645">
        <ele>598.7</ele>
        <time>2015-11-05T10:23:35Z</time>
      </trkpt>
      <trkpt lat="45.9885" lon="4.47658">
        <ele>598.8</ele>
        <time>2015-11-05T10:23:39Z</time>
      </trkpt>
      <trkpt lat="45.98852" lon="4.47671">
        <ele>599.1</ele>
        <time>2015-11-05T10:23:43Z</time>
      </trkpt>
      <trkpt lat="45.98854" lon="4.47684">
        <ele>599.5</ele>
        <time>2015-11-05T10:23:47Z</time>
      </trkpt>
      <trkpt lat="45.98855" lon="4.47697">
        <ele>599.9</ele>
        <time>2015-11-05T10:23:51Z</time>
      </trkpt>
      <trkpt lat="45.98856" lon="4.47709">
        <ele>600.2</ele>
        <time>2015-11-05T10:23:55Z</time>
      </trkpt>
      <trkpt lat="45.98858" lon="4.47723">
        <ele>600.5</ele>
        <time>2015-11-05T10:24:00Z</time>
      </trkpt>
      <trkpt lat="45.98859" lon="4.47736">
        <ele>600.8</ele>
        <time>2015-11-05T10:24:05Z</time>
      </trkpt>
      <trkpt lat="45.98861" lon="4.4775">
        <ele>601.2</ele>
        <time>2015-11-05T10:24:10Z</time>
      </trkpt>
      <trkpt lat="45.98862" lon="4.47762">
        <ele>601.5</ele>
        <time>2015-11-05T10:24:14Z</time>
      </trkpt>
      <trkpt lat="45.98862" lon="4.47775">
        <ele>601.7</ele>
        <time>2015-11-05T10:24:18Z</time>
      </trkpt>
      <trkpt lat="45.98863" lon="4.47787">
        <ele>601.9</ele>
        <time>2015-11-05T10:24:22Z</time>
      </trkpt>
      <trkpt lat="45.98864" lon="4.478">
        <ele>602.1</ele>
        <time>2015-11-05T10:24:26Z</time>
      </trkpt>
      <trkpt lat="45.98864" lon="4.47812">
        <ele>602.7</ele>
        <time>2015-11-05T10:24:30Z</time>
      </trkpt>
      <trkpt lat="45.98865" lon="4.47825">
        <ele>603.2</ele>
        <time>2015-11-05T10:24:35Z</time>
      </trkpt>
      <trkpt lat="45.98867" lon="4.47839">
        <ele>603.6</ele>
        <time>2015-11-05T10:24:39Z</time>
      </trkpt>
      <trkpt lat="45.98871" lon="4.47852">
        <ele>604.1</ele>
        <time>2015-11-05T10:24:43Z</time>
      </trkpt>
      <trkpt lat="45.98879" lon="4.47861">
        <ele>604.7</ele>
        <time>2015-11-05T10:24:47Z</time>
      </trkpt>
      <trkpt lat="45.98886" lon="4.47866">
        <ele>605.2</ele>
        <time>2015-11-05T10:24:51Z</time>
      </trkpt>
      <trkpt lat="45.98895" lon="4.4787">
        <ele>605.7</ele>
        <time>2015-11-05T10:24:55Z</time>
      </trkpt>
      <trkpt lat="45.98904" lon="4.47875">
        <ele>606.2</ele>
        <time>2015-11-05T10:24:59Z</time>
      </trkpt>
      <trkpt lat="45.98912" lon="4.47879">
        <ele>606.6</ele>
        <time>2015-11-05T10:25:00Z</time>
      </trkpt>
      <trkpt lat="45.9892" lon="4.47882">
        <ele>606.8</ele>
        <time>2015-11-05T10:25:02Z</time>
      </trkpt>
      <trkpt lat="45.98931" lon="4.47888">
        <ele>606.8</ele>
        <time>2015-11-05T10:25:04Z</time>
      </trkpt>
      <trkpt lat="45.98941" lon="4.47895">
        <ele>606.4</ele>
        <time>2015-11-05T10:25:06Z</time>
      </trkpt>
      <trkpt lat="45.98953" lon="4.47904">
        <ele>605.7</ele>
        <time>2015-11-05T10:25:08Z</time>
      </trkpt>
      <trkpt lat="45.98965" lon="4.47913">
        <ele>605.2</ele>
        <time>2015-11-05T10:25:10Z</time>
      </trkpt>
      <trkpt lat="45.98979" lon="4.47919">
        <ele>604.5</ele>
        <time>2015-11-05T10:25:12Z</time>
      </trkpt>
      <trkpt lat="45.98988" lon="4.47922">
        <ele>603.7</ele>
        <time>2015-11-05T10:25:14Z</time>
      </trkpt>
      <trkpt lat="45.98996" lon="4.47926">
        <ele>602.9</ele>
        <time>2015-11-05T10:25:14Z</time>
      </trkpt>
      <trkpt lat="45.9901" lon="4.47938">
        <ele>602.1</ele>
        <time>2015-11-05T10:25:16Z</time>
      </trkpt>
      <trkpt lat="45.99021" lon="4.47955">
        <ele>601.4</ele>
        <time>2015-11-05T10:25:18Z</time>
      </trkpt>
      <trkpt lat="45.99031" lon="4.47973">
        <ele>600.8</ele>
        <time>2015-11-05T10:25:20Z</time>
      </trkpt>
      <trkpt lat="45.99039" lon="4.47992">
        <ele>600.1</ele>
        <time>2015-11-05T10:25:22Z</time>
      </trkpt>
      <trkpt lat="45.99048" lon="4.48009">
        <ele>599.5</ele>
        <time>2015-11-05T10:25:24Z</time>
      </trkpt>
      <trkpt lat="45.99053" lon="4.48023">
        <ele>599</ele>
        <time>2015-11-05T10:25:26Z</time>
      </trkpt>
      <trkpt lat="45.99061" lon="4.48028">
        <ele>598.3</ele>
        <time>2015-11-05T10:25:30Z</time>
      </trkpt>
      <trkpt lat="45.99067" lon="4.48014">
        <ele>597.7</ele>
        <time>2015-11-05T10:25:33Z</time>
      </trkpt>
      <trkpt lat="45.99072" lon="4.47997">
        <ele>597</ele>
        <time>2015-11-05T10:25:36Z</time>
      </trkpt>
      <trkpt lat="45.99074" lon="4.47985">
        <ele>595.9</ele>
        <time>2015-11-05T10:25:39Z</time>
      </trkpt>
      <trkpt lat="45.99077" lon="4.47969">
        <ele>594.8</ele>
        <time>2015-11-05T10:25:40Z</time>
      </trkpt>
      <trkpt lat="45.99081" lon="4.4795">
        <ele>593.6</ele>
        <time>2015-11-05T10:25:42Z</time>
      </trkpt>
      <trkpt lat="45.99082" lon="4.47938">
        <ele>592.8</ele>
        <time>2015-11-05T10:25:44Z</time>
      </trkpt>
      <trkpt lat="45.99085" lon="4.47924">
        <ele>591.8</ele>
        <time>2015-11-05T10:25:46Z</time>
      </trkpt>
      <trkpt lat="45.99086" lon="4.47912">
        <ele>590.8</ele>
        <time>2015-11-05T10:25:48Z</time>
      </trkpt>
      <trkpt lat="45.99088" lon="4.47897">
        <ele>589.3</ele>
        <time>2015-11-05T10:25:50Z</time>
      </trkpt>
      <trkpt lat="45.99085" lon="4.47885">
        <ele>587.8</ele>
        <time>2015-11-05T10:25:52Z</time>
      </trkpt>
      <trkpt lat="45.99085" lon="4.47873">
        <ele>586.3</ele>
        <time>2015-11-05T10:25:55Z</time>
      </trkpt>
      <trkpt lat="45.99088" lon="4.4786">
        <ele>584.7</ele>
        <time>2015-11-05T10:25:57Z</time>
      </trkpt>
      <trkpt lat="45.99095" lon="4.47847">
        <ele>583.1</ele>
        <time>2015-11-05T10:25:59Z</time>
      </trkpt>
      <trkpt lat="45.99105" lon="4.47837">
        <ele>581.2</ele>
        <time>2015-11-05T10:26:01Z</time>
      </trkpt>
      <trkpt lat="45.99116" lon="4.47827">
        <ele>579</ele>
        <time>2015-11-05T10:26:03Z</time>
      </trkpt>
      <trkpt lat="45.99128" lon="4.47822">
        <ele>576.7</ele>
        <time>2015-11-05T10:26:04Z</time>
      </trkpt>
      <trkpt lat="45.99143" lon="4.47821">
        <ele>574</ele>
        <time>2015-11-05T10:26:06Z</time>
      </trkpt>
      <trkpt lat="45.99156" lon="4.47819">
        <ele>571.3</ele>
        <time>2015-11-05T10:26:08Z</time>
      </trkpt>
      <trkpt lat="45.99167" lon="4.47816">
        <ele>568.6</ele>
        <time>2015-11-05T10:26:10Z</time>
      </trkpt>
      <trkpt lat="45.9918" lon="4.47814">
        <ele>566</ele>
        <time>2015-11-05T10:26:12Z</time>
      </trkpt>
      <trkpt lat="45.99189" lon="4.47808">
        <ele>563.4</ele>
        <time>2015-11-05T10:26:14Z</time>
      </trkpt>
      <trkpt lat="45.99199" lon="4.47798">
        <ele>560.5</ele>
        <time>2015-11-05T10:26:16Z</time>
      </trkpt>
      <trkpt lat="45.99205" lon="4.47789">
        <ele>557.8</ele>
        <time>2015-11-05T10:26:18Z</time>
      </trkpt>
      <trkpt lat="45.99212" lon="4.47779">
        <ele>555.1</ele>
        <time>2015-11-05T10:26:20Z</time>
      </trkpt>
      <trkpt lat="45.99219" lon="4.47768">
        <ele>552.7</ele>
        <time>2015-11-05T10:26:23Z</time>
      </trkpt>
      <trkpt lat="45.99225" lon="4.47782">
        <ele>550.6</ele>
        <time>2015-11-05T10:26:27Z</time>
      </trkpt>
      <trkpt lat="45.99224" lon="4.47795">
        <ele>548.8</ele>
        <time>2015-11-05T10:26:30Z</time>
      </trkpt>
      <trkpt lat="45.9922" lon="4.47808">
        <ele>546.9</ele>
        <time>2015-11-05T10:26:31Z</time>
      </trkpt>
      <trkpt lat="45.99215" lon="4.47824">
        <ele>545.1</ele>
        <time>2015-11-05T10:26:34Z</time>
      </trkpt>
      <trkpt lat="45.9921" lon="4.47835">
        <ele>543.7</ele>
        <time>2015-11-05T10:26:36Z</time>
      </trkpt>
      <trkpt lat="45.99203" lon="4.4785">
        <ele>542.5</ele>
        <time>2015-11-05T10:26:38Z</time>
      </trkpt>
      <trkpt lat="45.99202" lon="4.47867">
        <ele>541.4</ele>
        <time>2015-11-05T10:26:40Z</time>
      </trkpt>
      <trkpt lat="45.99206" lon="4.47882">
        <ele>540.7</ele>
        <time>2015-11-05T10:26:42Z</time>
      </trkpt>
      <trkpt lat="45.9921" lon="4.47895">
        <ele>539.7</ele>
        <time>2015-11-05T10:26:45Z</time>
      </trkpt>
      <trkpt lat="45.99216" lon="4.47909">
        <ele>538.8</ele>
        <time>2015-11-05T10:26:46Z</time>
      </trkpt>
      <trkpt lat="45.9922" lon="4.47923">
        <ele>538</ele>
        <time>2015-11-05T10:26:48Z</time>
      </trkpt>
      <trkpt lat="45.99221" lon="4.47937">
        <ele>537</ele>
        <time>2015-11-05T10:26:50Z</time>
      </trkpt>
      <trkpt lat="45.99223" lon="4.4795">
        <ele>535.9</ele>
        <time>2015-11-05T10:26:52Z</time>
      </trkpt>
      <trkpt lat="45.99223" lon="4.47936">
        <ele>534.7</ele>
        <time>2015-11-05T10:27:00Z</time>
      </trkpt>
      <trkpt lat="45.99224" lon="4.47923">
        <ele>533.5</ele>
        <time>2015-11-05T10:27:02Z</time>
      </trkpt>
      <trkpt lat="45.99224" lon="4.47906">
        <ele>532.3</ele>
        <time>2015-11-05T10:27:04Z</time>
      </trkpt>
      <trkpt lat="45.99224" lon="4.47887">
        <ele>531.1</ele>
        <time>2015-11-05T10:27:07Z</time>
      </trkpt>
      <trkpt lat="45.99229" lon="4.47866">
        <ele>530.1</ele>
        <time>2015-11-05T10:27:08Z</time>
      </trkpt>
      <trkpt lat="45.99236" lon="4.47855">
        <ele>529.1</ele>
        <time>2015-11-05T10:27:10Z</time>
      </trkpt>
      <trkpt lat="45.99245" lon="4.47845">
        <ele>528.6</ele>
        <time>2015-11-05T10:27:12Z</time>
      </trkpt>
      <trkpt lat="45.99252" lon="4.47835">
        <ele>528.3</ele>
        <time>2015-11-05T10:27:15Z</time>
      </trkpt>
      <trkpt lat="45.99257" lon="4.47825">
        <ele>528.1</ele>
        <time>2015-11-05T10:27:16Z</time>
      </trkpt>
      <trkpt lat="45.9926" lon="4.47811">
        <ele>527.8</ele>
        <time>2015-11-05T10:27:19Z</time>
      </trkpt>
      <trkpt lat="45.9926" lon="4.47799">
        <ele>527.4</ele>
        <time>2015-11-05T10:27:23Z</time>
      </trkpt>
      <trkpt lat="45.99259" lon="4.47785">
        <ele>527</ele>
        <time>2015-11-05T10:27:26Z</time>
      </trkpt>
      <trkpt lat="45.99257" lon="4.47772">
        <ele>526.4</ele>
        <time>2015-11-05T10:27:30Z</time>
      </trkpt>
      <trkpt lat="45.99259" lon="4.47761">
        <ele>525.8</ele>
        <time>2015-11-05T10:27:33Z</time>
      </trkpt>
      <trkpt lat="45.99264" lon="4.47751">
        <ele>525</ele>
        <time>2015-11-05T10:27:35Z</time>
      </trkpt>
      <trkpt lat="45.9927" lon="4.47738">
        <ele>524.3</ele>
        <time>2015-11-05T10:27:38Z</time>
      </trkpt>
      <trkpt lat="45.99276" lon="4.47724">
        <ele>523.5</ele>
        <time>2015-11-05T10:27:41Z</time>
      </trkpt>
      <trkpt lat="45.99282" lon="4.47712">
        <ele>522.5</ele>
        <time>2015-11-05T10:27:43Z</time>
      </trkpt>
      <trkpt lat="45.99289" lon="4.47698">
        <ele>521.3</ele>
        <time>2015-11-05T10:27:45Z</time>
      </trkpt>
      <trkpt lat="45.99293" lon="4.47686">
        <ele>520.3</ele>
        <time>2015-11-05T10:27:47Z</time>
      </trkpt>
      <trkpt lat="45.99294" lon="4.47673">
        <ele>519.8</ele>
        <time>2015-11-05T10:27:49Z</time>
      </trkpt>
      <trkpt lat="45.99294" lon="4.47661">
        <ele>519.5</ele>
        <time>2015-11-05T10:27:52Z</time>
      </trkpt>
      <trkpt lat="45.99292" lon="4.4765">
        <ele>519.5</ele>
        <time>2015-11-05T10:27:55Z</time>
      </trkpt>
      <trkpt lat="45.99289" lon="4.47634">
        <ele>519.7</ele>
        <time>2015-11-05T10:27:58Z</time>
      </trkpt>
      <trkpt lat="45.99289" lon="4.47622">
        <ele>520</ele>
        <time>2015-11-05T10:28:00Z</time>
      </trkpt>
      <trkpt lat="45.99287" lon="4.47611">
        <ele>520.9</ele>
        <time>2015-11-05T10:28:02Z</time>
      </trkpt>
      <trkpt lat="45.99281" lon="4.47597">
        <ele>522</ele>
        <time>2015-11-05T10:28:05Z</time>
      </trkpt>
      <trkpt lat="45.99289" lon="4.47592">
        <ele>523.4</ele>
        <time>2015-11-05T10:28:17Z</time>
      </trkpt>
      <trkpt lat="45.99296" lon="4.47599">
        <ele>524.6</ele>
        <time>2015-11-05T10:28:21Z</time>
      </trkpt>
      <trkpt lat="45.99304" lon="4.47605">
        <ele>526.2</ele>
        <time>2015-11-05T10:28:26Z</time>
      </trkpt>
      <trkpt lat="45.99311" lon="4.47614">
        <ele>527.9</ele>
        <time>2015-11-05T10:28:32Z</time>
      </trkpt>
      <trkpt lat="45.99319" lon="4.47623">
        <ele>529.2</ele>
        <time>2015-11-05T10:28:37Z</time>
      </trkpt>
      <trkpt lat="45.99324" lon="4.47633">
        <ele>530.5</ele>
        <time>2015-11-05T10:28:42Z</time>
      </trkpt>
      <trkpt lat="45.99331" lon="4.4764">
        <ele>531.8</ele>
        <time>2015-11-05T10:28:48Z</time>
      </trkpt>
      <trkpt lat="45.99338" lon="4.47651">
        <ele>533.2</ele>
        <time>2015-11-05T10:28:58Z</time>
      </trkpt>
      <trkpt lat="45.99343" lon="4.47662">
        <ele>534.3</ele>
        <time>2015-11-05T10:29:02Z</time>
      </trkpt>
      <trkpt lat="45.99349" lon="4.47671">
        <ele>534.9</ele>
        <time>2015-11-05T10:29:07Z</time>
      </trkpt>
      <trkpt lat="45.99357" lon="4.47678">
        <ele>535.2</ele>
        <time>2015-11-05T10:29:12Z</time>
      </trkpt>
      <trkpt lat="45.99361" lon="4.47689">
        <ele>535.5</ele>
        <time>2015-11-05T10:29:17Z</time>
      </trkpt>
      <trkpt lat="45.99366" lon="4.477">
        <ele>536.1</ele>
        <time>2015-11-05T10:29:20Z</time>
      </trkpt>
      <trkpt lat="45.9937" lon="4.47714">
        <ele>536.4</ele>
        <time>2015-11-05T10:29:24Z</time>
      </trkpt>
      <trkpt lat="45.99376" lon="4.47727">
        <ele>536.4</ele>
        <time>2015-11-05T10:29:28Z</time>
      </trkpt>
      <trkpt lat="45.99382" lon="4.47738">
        <ele>536.6</ele>
        <time>2015-11-05T10:29:30Z</time>
      </trkpt>
      <trkpt lat="45.99385" lon="4.47749">
        <ele>536.7</ele>
        <time>2015-11-05T10:29:35Z</time>
      </trkpt>
      <trkpt lat="45.99388" lon="4.47764">
        <ele>536.7</ele>
        <time>2015-11-05T10:29:41Z</time>
      </trkpt>
      <trkpt lat="45.99393" lon="4.47777">
        <ele>536.7</ele>
        <time>2015-11-05T10:29:44Z</time>
      </trkpt>
      <trkpt lat="45.994" lon="4.47788">
        <ele>536.9</ele>
        <time>2015-11-05T10:29:47Z</time>
      </trkpt>
      <trkpt lat="45.99405" lon="4.47799">
        <ele>537.3</ele>
        <time>2015-11-05T10:29:50Z</time>
      </trkpt>
      <trkpt lat="45.99409" lon="4.47811">
        <ele>537.7</ele>
        <time>2015-11-05T10:29:53Z</time>
      </trkpt>
      <trkpt lat="45.99413" lon="4.47821">
        <ele>538.1</ele>
        <time>2015-11-05T10:29:56Z</time>
      </trkpt>
      <trkpt lat="45.99418" lon="4.47832">
        <ele>538.4</ele>
        <time>2015-11-05T10:30:00Z</time>
      </trkpt>
      <trkpt lat="45.99425" lon="4.47842">
        <ele>539</ele>
        <time>2015-11-05T10:30:04Z</time>
      </trkpt>
      <trkpt lat="45.99427" lon="4.47854">
        <ele>539.5</ele>
        <time>2015-11-05T10:30:07Z</time>
      </trkpt>
      <trkpt lat="45.9943" lon="4.47871">
        <ele>539.8</ele>
        <time>2015-11-05T10:30:10Z</time>
      </trkpt>
      <trkpt lat="45.99433" lon="4.47886">
        <ele>539.8</ele>
        <time>2015-11-05T10:30:13Z</time>
      </trkpt>
      <trkpt lat="45.99437" lon="4.479">
        <ele>540</ele>
        <time>2015-11-05T10:30:16Z</time>
      </trkpt>
      <trkpt lat="45.99442" lon="4.47914">
        <ele>539.8</ele>
        <time>2015-11-05T10:30:19Z</time>
      </trkpt>
      <trkpt lat="45.99448" lon="4.47928">
        <ele>539.6</ele>
        <time>2015-11-05T10:30:22Z</time>
      </trkpt>
      <trkpt lat="45.99455" lon="4.47941">
        <ele>539.4</ele>
        <time>2015-11-05T10:30:25Z</time>
      </trkpt>
      <trkpt lat="45.9946" lon="4.47956">
        <ele>539.2</ele>
        <time>2015-11-05T10:30:28Z</time>
      </trkpt>
      <trkpt lat="45.99465" lon="4.4797">
        <ele>538.7</ele>
        <time>2015-11-05T10:30:31Z</time>
      </trkpt>
      <trkpt lat="45.9947" lon="4.4798">
        <ele>537.9</ele>
        <time>2015-11-05T10:30:34Z</time>
      </trkpt>
      <trkpt lat="45.99477" lon="4.4799">
        <ele>537.2</ele>
        <time>2015-11-05T10:30:38Z</time>
      </trkpt>
      <trkpt lat="45.9948" lon="4.48002">
        <ele>536.7</ele>
        <time>2015-11-05T10:30:42Z</time>
      </trkpt>
      <trkpt lat="45.99484" lon="4.48015">
        <ele>536.5</ele>
        <time>2015-11-05T10:30:45Z</time>
      </trkpt>
      <trkpt lat="45.99489" lon="4.48028">
        <ele>536.5</ele>
        <time>2015-11-05T10:30:48Z</time>
      </trkpt>
      <trkpt lat="45.99496" lon="4.48042">
        <ele>536.3</ele>
        <time>2015-11-05T10:30:51Z</time>
      </trkpt>
      <trkpt lat="45.99501" lon="4.48052">
        <ele>536.3</ele>
        <time>2015-11-05T10:30:53Z</time>
      </trkpt>
      <trkpt lat="45.99507" lon="4.4806">
        <ele>536.2</ele>
        <time>2015-11-05T10:30:55Z</time>
      </trkpt>
      <trkpt lat="45.99515" lon="4.48071">
        <ele>536.1</ele>
        <time>2015-11-05T10:30:58Z</time>
      </trkpt>
      <trkpt lat="45.99524" lon="4.4808">
        <ele>536</ele>
        <time>2015-11-05T10:31:01Z</time>
      </trkpt>
      <trkpt lat="45.99531" lon="4.48088">
        <ele>536</ele>
        <time>2015-11-05T10:31:04Z</time>
      </trkpt>
      <trkpt lat="45.99538" lon="4.48093">
        <ele>536</ele>
        <time>2015-11-05T10:31:08Z</time>
      </trkpt>
      <trkpt lat="45.99547" lon="4.48101">
        <ele>536.1</ele>
        <time>2015-11-05T10:31:12Z</time>
      </trkpt>
      <trkpt lat="45.99556" lon="4.48109">
        <ele>536.3</ele>
        <time>2015-11-05T10:31:15Z</time>
      </trkpt>
      <trkpt lat="45.99562" lon="4.48117">
        <ele>536.7</ele>
        <time>2015-11-05T10:31:18Z</time>
      </trkpt>
      <trkpt lat="45.99566" lon="4.48129">
        <ele>537.3</ele>
        <time>2015-11-05T10:31:22Z</time>
      </trkpt>
      <trkpt lat="45.9957" lon="4.48142">
        <ele>538</ele>
        <time>2015-11-05T10:31:26Z</time>
      </trkpt>
      <trkpt lat="45.99574" lon="4.48155">
        <ele>538.7</ele>
        <time>2015-11-05T10:31:30Z</time>
      </trkpt>
      <trkpt lat="45.99579" lon="4.48166">
        <ele>539.2</ele>
        <time>2015-11-05T10:31:35Z</time>
      </trkpt>
      <trkpt lat="45.99583" lon="4.48177">
        <ele>540</ele>
        <time>2015-11-05T10:31:41Z</time>
      </trkpt>
      <trkpt lat="45.99584" lon="4.48189">
        <ele>541.1</ele>
        <time>2015-11-05T10:31:46Z</time>
      </trkpt>
      <trkpt lat="45.99589" lon="4.48199">
        <ele>542.1</ele>
        <time>2015-11-05T10:31:49Z</time>
      </trkpt>
      <trkpt lat="45.99594" lon="4.48209">
        <ele>543.3</ele>
        <time>2015-11-05T10:31:53Z</time>
      </trkpt>
      <trkpt lat="45.996" lon="4.4822">
        <ele>544.2</ele>
        <time>2015-11-05T10:31:58Z</time>
      </trkpt>
      <trkpt lat="45.99606" lon="4.48232">
        <ele>545</ele>
        <time>2015-11-05T10:32:02Z</time>
      </trkpt>
      <trkpt lat="45.9961" lon="4.48244">
        <ele>545.2</ele>
        <time>2015-11-05T10:32:07Z</time>
      </trkpt>
      <trkpt lat="45.99614" lon="4.48255">
        <ele>545.1</ele>
        <time>2015-11-05T10:32:13Z</time>
      </trkpt>
      <trkpt lat="45.99619" lon="4.48267">
        <ele>544.9</ele>
        <time>2015-11-05T10:32:19Z</time>
      </trkpt>
      <trkpt lat="45.99624" lon="4.48276">
        <ele>545</ele>
        <time>2015-11-05T10:32:24Z</time>
      </trkpt>
      <trkpt lat="45.99632" lon="4.48283">
        <ele>545.1</ele>
        <time>2015-11-05T10:33:07Z</time>
      </trkpt>
      <trkpt lat="45.99641" lon="4.48287">
        <ele>544.9</ele>
        <time>2015-11-05T10:33:11Z</time>
      </trkpt>
      <trkpt lat="45.99651" lon="4.48286">
        <ele>544.4</ele>
        <time>2015-11-05T10:33:16Z</time>
      </trkpt>
      <trkpt lat="45.9966" lon="4.4828">
        <ele>543.9</ele>
        <time>2015-11-05T10:33:18Z</time>
      </trkpt>
      <trkpt lat="45.99667" lon="4.48274">
        <ele>542.8</ele>
        <time>2015-11-05T10:33:20Z</time>
      </trkpt>
      <trkpt lat="45.99676" lon="4.48269">
        <ele>541.6</ele>
        <time>2015-11-05T10:33:22Z</time>
      </trkpt>
      <trkpt lat="45.99688" lon="4.48266">
        <ele>540.4</ele>
        <time>2015-11-05T10:33:24Z</time>
      </trkpt>
      <trkpt lat="45.99702" lon="4.48264">
        <ele>539.5</ele>
        <time>2015-11-05T10:33:26Z</time>
      </trkpt>
      <trkpt lat="45.99714" lon="4.4826">
        <ele>538.8</ele>
        <time>2015-11-05T10:33:28Z</time>
      </trkpt>
      <trkpt lat="45.99726" lon="4.48255">
        <ele>538.1</ele>
        <time>2015-11-05T10:33:30Z</time>
      </trkpt>
      <trkpt lat="45.99736" lon="4.48247">
        <ele>537.2</ele>
        <time>2015-11-05T10:33:32Z</time>
      </trkpt>
      <trkpt lat="45.99743" lon="4.48238">
        <ele>536.5</ele>
        <time>2015-11-05T10:33:35Z</time>
      </trkpt>
      <trkpt lat="45.99753" lon="4.48231">
        <ele>535.8</ele>
        <time>2015-11-05T10:33:36Z</time>
      </trkpt>
      <trkpt lat="45.99763" lon="4.48224">
        <ele>535.1</ele>
        <time>2015-11-05T10:33:38Z</time>
      </trkpt>
      <trkpt lat="45.99778" lon="4.48223">
        <ele>534.4</ele>
        <time>2015-11-05T10:33:40Z</time>
      </trkpt>
      <trkpt lat="45.99788" lon="4.48225">
        <ele>533.9</ele>
        <time>2015-11-05T10:33:42Z</time>
      </trkpt>
      <trkpt lat="45.99801" lon="4.48224">
        <ele>533.3</ele>
        <time>2015-11-05T10:33:45Z</time>
      </trkpt>
      <trkpt lat="45.99811" lon="4.48225">
        <ele>532.6</ele>
        <time>2015-11-05T10:33:47Z</time>
      </trkpt>
      <trkpt lat="45.99819" lon="4.48222">
        <ele>531.6</ele>
        <time>2015-11-05T10:33:49Z</time>
      </trkpt>
      <trkpt lat="45.9983" lon="4.48216">
        <ele>530.3</ele>
        <time>2015-11-05T10:33:52Z</time>
      </trkpt>
      <trkpt lat="45.99841" lon="4.48214">
        <ele>528.9</ele>
        <time>2015-11-05T10:33:55Z</time>
      </trkpt>
      <trkpt lat="45.99852" lon="4.48217">
        <ele>527.4</ele>
        <time>2015-11-05T10:33:58Z</time>
      </trkpt>
      <trkpt lat="45.99862" lon="4.48216">
        <ele>525.6</ele>
        <time>2015-11-05T10:34:02Z</time>
      </trkpt>
      <trkpt lat="45.99869" lon="4.48205">
        <ele>523.4</ele>
        <time>2015-11-05T10:34:06Z</time>
      </trkpt>
      <trkpt lat="45.99873" lon="4.48195">
        <ele>521.3</ele>
        <time>2015-11-05T10:34:08Z</time>
      </trkpt>
      <trkpt lat="45.9988" lon="4.48188">
        <ele>518.8</ele>
        <time>2015-11-05T10:34:11Z</time>
      </trkpt>
      <trkpt lat="45.99887" lon="4.48177">
        <ele>516.4</ele>
        <time>2015-11-05T10:34:14Z</time>
      </trkpt>
      <trkpt lat="45.99893" lon="4.48168">
        <ele>514</ele>
        <time>2015-11-05T10:34:16Z</time>
      </trkpt>
      <trkpt lat="45.99897" lon="4.48158">
        <ele>511.6</ele>
        <time>2015-11-05T10:34:18Z</time>
      </trkpt>
      <trkpt lat="45.99903" lon="4.48143">
        <ele>509.2</ele>
        <time>2015-11-05T10:34:21Z</time>
      </trkpt>
      <trkpt lat="45.99908" lon="4.48132">
        <ele>506.4</ele>
        <time>2015-11-05T10:34:24Z</time>
      </trkpt>
      <trkpt lat="45.99913" lon="4.48118">
        <ele>503.1</ele>
        <time>2015-11-05T10:34:27Z</time>
      </trkpt>
      <trkpt lat="45.99918" lon="4.48105">
        <ele>499.7</ele>
        <time>2015-11-05T10:34:29Z</time>
      </trkpt>
      <trkpt lat="45.99923" lon="4.48093">
        <ele>496.4</ele>
        <time>2015-11-05T10:34:31Z</time>
      </trkpt>
      <trkpt lat="45.99927" lon="4.48083">
        <ele>493.4</ele>
        <time>2015-11-05T10:34:33Z</time>
      </trkpt>
      <trkpt lat="45.99933" lon="4.48073">
        <ele>490.6</ele>
        <time>2015-11-05T10:34:36Z</time>
      </trkpt>
      <trkpt lat="45.99939" lon="4.4806">
        <ele>488.4</ele>
        <time>2015-11-05T10:34:40Z</time>
      </trkpt>
      <trkpt lat="45.99939" lon="4.48047">
        <ele>486.6</ele>
        <time>2015-11-05T10:34:43Z</time>
      </trkpt>
      <trkpt lat="45.99939" lon="4.48031">
        <ele>485.2</ele>
        <time>2015-11-05T10:34:46Z</time>
      </trkpt>
      <trkpt lat="45.9994" lon="4.48015">
        <ele>483.8</ele>
        <time>2015-11-05T10:34:49Z</time>
      </trkpt>
      <trkpt lat="45.99943" lon="4.48">
        <ele>483.1</ele>
        <time>2015-11-05T10:34:52Z</time>
      </trkpt>
      <trkpt lat="45.99945" lon="4.47988">
        <ele>482.9</ele>
        <time>2015-11-05T10:34:58Z</time>
      </trkpt>
      <trkpt lat="45.99948" lon="4.47977">
        <ele>483.2</ele>
        <time>2015-11-05T10:35:12Z</time>
      </trkpt>
      <trkpt lat="45.99953" lon="4.47963">
        <ele>483.9</ele>
        <time>2015-11-05T10:35:16Z</time>
      </trkpt>
      <trkpt lat="45.99957" lon="4.47948">
        <ele>484.6</ele>
        <time>2015-11-05T10:35:19Z</time>
      </trkpt>
      <trkpt lat="45.99958" lon="4.47933">
        <ele>485.5</ele>
        <time>2015-11-05T10:35:22Z</time>
      </trkpt>
      <trkpt lat="45.99959" lon="4.47917">
        <ele>486.4</ele>
        <time>2015-11-05T10:35:25Z</time>
      </trkpt>
      <trkpt lat="45.9996" lon="4.479">
        <ele>487.5</ele>
        <time>2015-11-05T10:35:28Z</time>
      </trkpt>
      <trkpt lat="45.99961" lon="4.47888">
        <ele>488.6</ele>
        <time>2015-11-05T10:35:30Z</time>
      </trkpt>
      <trkpt lat="45.99961" lon="4.47874">
        <ele>489.5</ele>
        <time>2015-11-05T10:35:32Z</time>
      </trkpt>
      <trkpt lat="45.9996" lon="4.47861">
        <ele>490.5</ele>
        <time>2015-11-05T10:35:34Z</time>
      </trkpt>
      <trkpt lat="45.99957" lon="4.4785">
        <ele>491</ele>
        <time>2015-11-05T10:35:36Z</time>
      </trkpt>
      <trkpt lat="45.99956" lon="4.47836">
        <ele>491.6</ele>
        <time>2015-11-05T10:35:39Z</time>
      </trkpt>
      <trkpt lat="45.99958" lon="4.47824">
        <ele>492.4</ele>
        <time>2015-11-05T10:35:42Z</time>
      </trkpt>
      <trkpt lat="45.99965" lon="4.47817">
        <ele>493.1</ele>
        <time>2015-11-05T10:35:46Z</time>
      </trkpt>
      <trkpt lat="45.99974" lon="4.4781">
        <ele>493.7</ele>
        <time>2015-11-05T10:35:48Z</time>
      </trkpt>
      <trkpt lat="45.99983" lon="4.47805">
        <ele>494.4</ele>
        <time>2015-11-05T10:35:51Z</time>
      </trkpt>
      <trkpt lat="45.9999" lon="4.47797">
        <ele>494.9</ele>
        <time>2015-11-05T10:35:54Z</time>
      </trkpt>
      <trkpt lat="45.99998" lon="4.47791">
        <ele>495.3</ele>
        <time>2015-11-05T10:35:58Z</time>
      </trkpt>
      <trkpt lat="46.00005" lon="4.47785">
        <ele>495.8</ele>
        <time>2015-11-05T10:36:00Z</time>
      </trkpt>
      <trkpt lat="46.00012" lon="4.47775">
        <ele>496.2</ele>
        <time>2015-11-05T10:36:03Z</time>
      </trkpt>
      <trkpt lat="46.00019" lon="4.47764">
        <ele>496.7</ele>
        <time>2015-11-05T10:36:06Z</time>
      </trkpt>
      <trkpt lat="46.00024" lon="4.47753">
        <ele>497.2</ele>
        <time>2015-11-05T10:36:09Z</time>
      </trkpt>
      <trkpt lat="46.00026" lon="4.4774">
        <ele>497.8</ele>
        <time>2015-11-05T10:36:12Z</time>
      </trkpt>
      <trkpt lat="46.00028" lon="4.47728">
        <ele>498.1</ele>
        <time>2015-11-05T10:36:15Z</time>
      </trkpt>
      <trkpt lat="46.0003" lon="4.47715">
        <ele>498.4</ele>
        <time>2015-11-05T10:36:18Z</time>
      </trkpt>
      <trkpt lat="46.00032" lon="4.47703">
        <ele>498.5</ele>
        <time>2015-11-05T10:36:21Z</time>
      </trkpt>
      <trkpt lat="46.00036" lon="4.4769">
        <ele>498.6</ele>
        <time>2015-11-05T10:36:24Z</time>
      </trkpt>
      <trkpt lat="46.00039" lon="4.47677">
        <ele>498.6</ele>
        <time>2015-11-05T10:36:27Z</time>
      </trkpt>
      <trkpt lat="46.0004" lon="4.47663">
        <ele>498.1</ele>
        <time>2015-11-05T10:36:30Z</time>
      </trkpt>
      <trkpt lat="46.00043" lon="4.47649">
        <ele>497.4</ele>
        <time>2015-11-05T10:36:33Z</time>
      </trkpt>
      <trkpt lat="46.00048" lon="4.47636">
        <ele>496.7</ele>
        <time>2015-11-05T10:36:36Z</time>
      </trkpt>
      <trkpt lat="46.00053" lon="4.47627">
        <ele>496.1</ele>
        <time>2015-11-05T10:36:39Z</time>
      </trkpt>
      <trkpt lat="46.00061" lon="4.47614">
        <ele>495.5</ele>
        <time>2015-11-05T10:36:41Z</time>
      </trkpt>
      <trkpt lat="46.0007" lon="4.47603">
        <ele>495</ele>
        <time>2015-11-05T10:36:44Z</time>
      </trkpt>
      <trkpt lat="46.00079" lon="4.47591">
        <ele>494.7</ele>
        <time>2015-11-05T10:36:48Z</time>
      </trkpt>
      <trkpt lat="46.00088" lon="4.47581">
        <ele>494.5</ele>
        <time>2015-11-05T10:36:50Z</time>
      </trkpt>
      <trkpt lat="46.00095" lon="4.4757">
        <ele>494.5</ele>
        <time>2015-11-05T10:36:54Z</time>
      </trkpt>
      <trkpt lat="46.00102" lon="4.47559">
        <ele>494.5</ele>
        <time>2015-11-05T10:36:56Z</time>
      </trkpt>
      <trkpt lat="46.00107" lon="4.47547">
        <ele>494.6</ele>
        <time>2015-11-05T10:36:59Z</time>
      </trkpt>
      <trkpt lat="46.00114" lon="4.47536">
        <ele>494.8</ele>
        <time>2015-11-05T10:37:03Z</time>
      </trkpt>
      <trkpt lat="46.00121" lon="4.47522">
        <ele>495</ele>
        <time>2015-11-05T10:37:05Z</time>
      </trkpt>
      <trkpt lat="46.00128" lon="4.47509">
        <ele>495</ele>
        <time>2015-11-05T10:37:08Z</time>
      </trkpt>
      <trkpt lat="46.00134" lon="4.47497">
        <ele>495</ele>
        <time>2015-11-05T10:37:11Z</time>
      </trkpt>
      <trkpt lat="46.00139" lon="4.47484">
        <ele>495.1</ele>
        <time>2015-11-05T10:37:15Z</time>
      </trkpt>
      <trkpt lat="46.00145" lon="4.47471">
        <ele>495.1</ele>
        <time>2015-11-05T10:37:17Z</time>
      </trkpt>
      <trkpt lat="46.00152" lon="4.47457">
        <ele>495.5</ele>
        <time>2015-11-05T10:37:20Z</time>
      </trkpt>
      <trkpt lat="46.00156" lon="4.47447">
        <ele>495.8</ele>
        <time>2015-11-05T10:37:22Z</time>
      </trkpt>
      <trkpt lat="46.00161" lon="4.47437">
        <ele>496</ele>
        <time>2015-11-05T10:37:25Z</time>
      </trkpt>
      <trkpt lat="46.00166" lon="4.47427">
        <ele>496.2</ele>
        <time>2015-11-05T10:37:26Z</time>
      </trkpt>
      <trkpt lat="46.00172" lon="4.47413">
        <ele>496.3</ele>
        <time>2015-11-05T10:37:29Z</time>
      </trkpt>
      <trkpt lat="46.00178" lon="4.47399">
        <ele>496.5</ele>
        <time>2015-11-05T10:37:32Z</time>
      </trkpt>
      <trkpt lat="46.00185" lon="4.47387">
        <ele>496.6</ele>
        <time>2015-11-05T10:37:35Z</time>
      </trkpt>
      <trkpt lat="46.00191" lon="4.47373">
        <ele>496.7</ele>
        <time>2015-11-05T10:37:39Z</time>
      </trkpt>
      <trkpt lat="46.00195" lon="4.47363">
        <ele>496.8</ele>
        <time>2015-11-05T10:37:40Z</time>
      </trkpt>
      <trkpt lat="46.00202" lon="4.47347">
        <ele>496.7</ele>
        <time>2015-11-05T10:37:42Z</time>
      </trkpt>
      <trkpt lat="46.00205" lon="4.47333">
        <ele>496.5</ele>
        <time>2015-11-05T10:37:45Z</time>
      </trkpt>
      <trkpt lat="46.00211" lon="4.47314">
        <ele>495.9</ele>
        <time>2015-11-05T10:37:49Z</time>
      </trkpt>
      <trkpt lat="46.00216" lon="4.47299">
        <ele>495.4</ele>
        <time>2015-11-05T10:37:51Z</time>
      </trkpt>
      <trkpt lat="46.00221" lon="4.47287">
        <ele>495</ele>
        <time>2015-11-05T10:37:53Z</time>
      </trkpt>
      <trkpt lat="46.00225" lon="4.47275">
        <ele>494.8</ele>
        <time>2015-11-05T10:37:54Z</time>
      </trkpt>
      <trkpt lat="46.00228" lon="4.47264">
        <ele>494.5</ele>
        <time>2015-11-05T10:37:56Z</time>
      </trkpt>
      <trkpt lat="46.00233" lon="4.4725">
        <ele>494.1</ele>
        <time>2015-11-05T10:37:58Z</time>
      </trkpt>
      <trkpt lat="46.0024" lon="4.47236">
        <ele>493.8</ele>
        <time>2015-11-05T10:38:01Z</time>
      </trkpt>
      <trkpt lat="46.00245" lon="4.47223">
        <ele>493.8</ele>
        <time>2015-11-05T10:38:03Z</time>
      </trkpt>
      <trkpt lat="46.00251" lon="4.47212">
        <ele>493.9</ele>
        <time>2015-11-05T10:38:05Z</time>
      </trkpt>
      <trkpt lat="46.00256" lon="4.472">
        <ele>494.2</ele>
        <time>2015-11-05T10:38:06Z</time>
      </trkpt>
      <trkpt lat="46.00262" lon="4.47188">
        <ele>494.4</ele>
        <time>2015-11-05T10:38:08Z</time>
      </trkpt>
      <trkpt lat="46.00267" lon="4.47176">
        <ele>494.7</ele>
        <time>2015-11-05T10:38:10Z</time>
      </trkpt>
      <trkpt lat="46.00273" lon="4.47159">
        <ele>494.9</ele>
        <time>2015-11-05T10:38:13Z</time>
      </trkpt>
      <trkpt lat="46.00278" lon="4.47144">
        <ele>495</ele>
        <time>2015-11-05T10:38:15Z</time>
      </trkpt>
      <trkpt lat="46.00281" lon="4.47129">
        <ele>494.9</ele>
        <time>2015-11-05T10:38:17Z</time>
      </trkpt>
      <trkpt lat="46.00284" lon="4.4711">
        <ele>494.7</ele>
        <time>2015-11-05T10:38:19Z</time>
      </trkpt>
      <trkpt lat="46.00285" lon="4.47093">
        <ele>494.5</ele>
        <time>2015-11-05T10:38:22Z</time>
      </trkpt>
      <trkpt lat="46.00286" lon="4.47078">
        <ele>494.4</ele>
        <time>2015-11-05T10:38:23Z</time>
      </trkpt>
      <trkpt lat="46.00287" lon="4.47062">
        <ele>494.2</ele>
        <time>2015-11-05T10:38:25Z</time>
      </trkpt>
      <trkpt lat="46.00288" lon="4.47046">
        <ele>493.7</ele>
        <time>2015-11-05T10:38:27Z</time>
      </trkpt>
      <trkpt lat="46.0029" lon="4.47032">
        <ele>493.3</ele>
        <time>2015-11-05T10:38:29Z</time>
      </trkpt>
      <trkpt lat="46.0029" lon="4.47019">
        <ele>492.8</ele>
        <time>2015-11-05T10:38:32Z</time>
      </trkpt>
      <trkpt lat="46.00289" lon="4.47005">
        <ele>492.2</ele>
        <time>2015-11-05T10:38:34Z</time>
      </trkpt>
      <trkpt lat="46.00288" lon="4.46991">
        <ele>491.6</ele>
        <time>2015-11-05T10:38:35Z</time>
      </trkpt>
      <trkpt lat="46.00287" lon="4.46977">
        <ele>491.2</ele>
        <time>2015-11-05T10:38:37Z</time>
      </trkpt>
      <trkpt lat="46.00285" lon="4.46965">
        <ele>491</ele>
        <time>2015-11-05T10:38:39Z</time>
      </trkpt>
      <trkpt lat="46.00284" lon="4.46952">
        <ele>490.9</ele>
        <time>2015-11-05T10:38:41Z</time>
      </trkpt>
      <trkpt lat="46.00284" lon="4.46937">
        <ele>491</ele>
        <time>2015-11-05T10:38:44Z</time>
      </trkpt>
      <trkpt lat="46.00288" lon="4.46923">
        <ele>491</ele>
        <time>2015-11-05T10:38:45Z</time>
      </trkpt>
      <trkpt lat="46.00292" lon="4.46911">
        <ele>490.9</ele>
        <time>2015-11-05T10:38:47Z</time>
      </trkpt>
      <trkpt lat="46.00298" lon="4.46898">
        <ele>491</ele>
        <time>2015-11-05T10:38:49Z</time>
      </trkpt>
      <trkpt lat="46.00302" lon="4.46888">
        <ele>491</ele>
        <time>2015-11-05T10:38:51Z</time>
      </trkpt>
      <trkpt lat="46.00307" lon="4.46876">
        <ele>491.1</ele>
        <time>2015-11-05T10:38:53Z</time>
      </trkpt>
      <trkpt lat="46.00314" lon="4.46864">
        <ele>491.3</ele>
        <time>2015-11-05T10:38:55Z</time>
      </trkpt>
      <trkpt lat="46.00321" lon="4.46851">
        <ele>491.4</ele>
        <time>2015-11-05T10:38:57Z</time>
      </trkpt>
      <trkpt lat="46.00326" lon="4.4684">
        <ele>491.4</ele>
        <time>2015-11-05T10:38:59Z</time>
      </trkpt>
      <trkpt lat="46.00331" lon="4.46828">
        <ele>491.3</ele>
        <time>2015-11-05T10:39:01Z</time>
      </trkpt>
      <trkpt lat="46.00337" lon="4.46816">
        <ele>491.1</ele>
        <time>2015-11-05T10:39:03Z</time>
      </trkpt>
      <trkpt lat="46.00342" lon="4.46802">
        <ele>490.9</ele>
        <time>2015-11-05T10:39:05Z</time>
      </trkpt>
      <trkpt lat="46.00347" lon="4.46789">
        <ele>490.7</ele>
        <time>2015-11-05T10:39:07Z</time>
      </trkpt>
      <trkpt lat="46.00352" lon="4.46777">
        <ele>490.5</ele>
        <time>2015-11-05T10:39:09Z</time>
      </trkpt>
      <trkpt lat="46.00358" lon="4.46763">
        <ele>490.3</ele>
        <time>2015-11-05T10:39:11Z</time>
      </trkpt>
      <trkpt lat="46.00363" lon="4.46748">
        <ele>490.1</ele>
        <time>2015-11-05T10:39:13Z</time>
      </trkpt>
      <trkpt lat="46.00367" lon="4.46733">
        <ele>489.8</ele>
        <time>2015-11-05T10:39:15Z</time>
      </trkpt>
      <trkpt lat="46.00372" lon="4.46718">
        <ele>489.6</ele>
        <time>2015-11-05T10:39:17Z</time>
      </trkpt>
      <trkpt lat="46.00378" lon="4.46705">
        <ele>489.3</ele>
        <time>2015-11-05T10:39:19Z</time>
      </trkpt>
      <trkpt lat="46.00383" lon="4.46692">
        <ele>489</ele>
        <time>2015-11-05T10:39:21Z</time>
      </trkpt>
      <trkpt lat="46.00389" lon="4.46677">
        <ele>488.8</ele>
        <time>2015-11-05T10:39:23Z</time>
      </trkpt>
      <trkpt lat="46.00396" lon="4.46663">
        <ele>488.6</ele>
        <time>2015-11-05T10:39:25Z</time>
      </trkpt>
      <trkpt lat="46.00404" lon="4.46648">
        <ele>488.6</ele>
        <time>2015-11-05T10:39:27Z</time>
      </trkpt>
      <trkpt lat="46.00413" lon="4.46634">
        <ele>488.5</ele>
        <time>2015-11-05T10:39:29Z</time>
      </trkpt>
      <trkpt lat="46.00423" lon="4.4662">
        <ele>488.5</ele>
        <time>2015-11-05T10:39:31Z</time>
      </trkpt>
      <trkpt lat="46.00433" lon="4.46606">
        <ele>488.4</ele>
        <time>2015-11-05T10:39:33Z</time>
      </trkpt>
      <trkpt lat="46.00443" lon="4.46591">
        <ele>488.4</ele>
        <time>2015-11-05T10:39:35Z</time>
      </trkpt>
      <trkpt lat="46.00451" lon="4.46575">
        <ele>488.4</ele>
        <time>2015-11-05T10:39:37Z</time>
      </trkpt>
      <trkpt lat="46.00459" lon="4.46556">
        <ele>488.5</ele>
        <time>2015-11-05T10:39:39Z</time>
      </trkpt>
      <trkpt lat="46.00465" lon="4.46537">
        <ele>488.6</ele>
        <time>2015-11-05T10:39:41Z</time>
      </trkpt>
      <trkpt lat="46.00467" lon="4.46518">
        <ele>488.8</ele>
        <time>2015-11-05T10:39:43Z</time>
      </trkpt>
      <trkpt lat="46.00468" lon="4.46506">
        <ele>489</ele>
        <time>2015-11-05T10:39:44Z</time>
      </trkpt>
      <trkpt lat="46.00469" lon="4.46488">
        <ele>489.2</ele>
        <time>2015-11-05T10:39:46Z</time>
      </trkpt>
      <trkpt lat="46.00467" lon="4.46472">
        <ele>489.2</ele>
        <time>2015-11-05T10:39:48Z</time>
      </trkpt>
      <trkpt lat="46.00465" lon="4.46458">
        <ele>489.1</ele>
        <time>2015-11-05T10:39:50Z</time>
      </trkpt>
      <trkpt lat="46.00464" lon="4.4644">
        <ele>489</ele>
        <time>2015-11-05T10:39:52Z</time>
      </trkpt>
      <trkpt lat="46.00462" lon="4.46426">
        <ele>488.7</ele>
        <time>2015-11-05T10:39:54Z</time>
      </trkpt>
      <trkpt lat="46.00461" lon="4.46409">
        <ele>488.3</ele>
        <time>2015-11-05T10:39:56Z</time>
      </trkpt>
      <trkpt lat="46.0046" lon="4.46393">
        <ele>488.1</ele>
        <time>2015-11-05T10:39:58Z</time>
      </trkpt>
      <trkpt lat="46.00461" lon="4.4637">
        <ele>487.7</ele>
        <time>2015-11-05T10:40:00Z</time>
      </trkpt>
      <trkpt lat="46.00461" lon="4.4635">
        <ele>487.4</ele>
        <time>2015-11-05T10:40:02Z</time>
      </trkpt>
      <trkpt lat="46.0046" lon="4.46332">
        <ele>487</ele>
        <time>2015-11-05T10:40:04Z</time>
      </trkpt>
      <trkpt lat="46.00459" lon="4.46314">
        <ele>486.7</ele>
        <time>2015-11-05T10:40:06Z</time>
      </trkpt>
      <trkpt lat="46.00461" lon="4.46294">
        <ele>486.3</ele>
        <time>2015-11-05T10:40:08Z</time>
      </trkpt>
      <trkpt lat="46.00463" lon="4.46277">
        <ele>486</ele>
        <time>2015-11-05T10:40:10Z</time>
      </trkpt>
      <trkpt lat="46.00467" lon="4.46262">
        <ele>485.9</ele>
        <time>2015-11-05T10:40:12Z</time>
      </trkpt>
      <trkpt lat="46.0047" lon="4.46248">
        <ele>486</ele>
        <time>2015-11-05T10:40:14Z</time>
      </trkpt>
      <trkpt lat="46.00477" lon="4.46234">
        <ele>486.1</ele>
        <time>2015-11-05T10:40:17Z</time>
      </trkpt>
      <trkpt lat="46.00486" lon="4.46236">
        <ele>486.2</ele>
        <time>2015-11-05T10:40:20Z</time>
      </trkpt>
      <trkpt lat="46.00491" lon="4.46247">
        <ele>486.2</ele>
        <time>2015-11-05T10:40:22Z</time>
      </trkpt>
      <trkpt lat="46.00495" lon="4.46261">
        <ele>486.3</ele>
        <time>2015-11-05T10:40:24Z</time>
      </trkpt>
      <trkpt lat="46.005" lon="4.46276">
        <ele>486.3</ele>
        <time>2015-11-05T10:40:26Z</time>
      </trkpt>
      <trkpt lat="46.00507" lon="4.46291">
        <ele>486.3</ele>
        <time>2015-11-05T10:40:28Z</time>
      </trkpt>
      <trkpt lat="46.00511" lon="4.46307">
        <ele>486.2</ele>
        <time>2015-11-05T10:40:30Z</time>
      </trkpt>
      <trkpt lat="46.00515" lon="4.46321">
        <ele>486.1</ele>
        <time>2015-11-05T10:40:32Z</time>
      </trkpt>
      <trkpt lat="46.0052" lon="4.4634">
        <ele>485.8</ele>
        <time>2015-11-05T10:40:34Z</time>
      </trkpt>
      <trkpt lat="46.0052" lon="4.46363">
        <ele>485.5</ele>
        <time>2015-11-05T10:40:36Z</time>
      </trkpt>
      <trkpt lat="46.00521" lon="4.46383">
        <ele>485</ele>
        <time>2015-11-05T10:40:38Z</time>
      </trkpt>
      <trkpt lat="46.00523" lon="4.46403">
        <ele>484.8</ele>
        <time>2015-11-05T10:40:40Z</time>
      </trkpt>
      <trkpt lat="46.00524" lon="4.46422">
        <ele>484.6</ele>
        <time>2015-11-05T10:40:42Z</time>
      </trkpt>
      <trkpt lat="46.00526" lon="4.46442">
        <ele>484.5</ele>
        <time>2015-11-05T10:40:44Z</time>
      </trkpt>
      <trkpt lat="46.0053" lon="4.46461">
        <ele>484.3</ele>
        <time>2015-11-05T10:40:46Z</time>
      </trkpt>
      <trkpt lat="46.00535" lon="4.46479">
        <ele>484.3</ele>
        <time>2015-11-05T10:40:48Z</time>
      </trkpt>
      <trkpt lat="46.00538" lon="4.46497">
        <ele>484.2</ele>
        <time>2015-11-05T10:40:50Z</time>
      </trkpt>
      <trkpt lat="46.00541" lon="4.46512">
        <ele>484.2</ele>
        <time>2015-11-05T10:40:52Z</time>
      </trkpt>
      <trkpt lat="46.00544" lon="4.46526">
        <ele>484.2</ele>
        <time>2015-11-05T10:40:54Z</time>
      </trkpt>
      <trkpt lat="46.00548" lon="4.46541">
        <ele>484.5</ele>
        <time>2015-11-05T10:40:56Z</time>
      </trkpt>
      <trkpt lat="46.00552" lon="4.46553">
        <ele>484.7</ele>
        <time>2015-11-05T10:40:58Z</time>
      </trkpt>
      <trkpt lat="46.00558" lon="4.46564">
        <ele>485.1</ele>
        <time>2015-11-05T10:41:00Z</time>
      </trkpt>
      <trkpt lat="46.00564" lon="4.46573">
        <ele>485.5</ele>
        <time>2015-11-05T10:41:02Z</time>
      </trkpt>
      <trkpt lat="46.00572" lon="4.46583">
        <ele>486</ele>
        <time>2015-11-05T10:41:05Z</time>
      </trkpt>
      <trkpt lat="46.00577" lon="4.46595">
        <ele>486.7</ele>
        <time>2015-11-05T10:41:08Z</time>
      </trkpt>
      <trkpt lat="46.00581" lon="4.46607">
        <ele>487.6</ele>
        <time>2015-11-05T10:41:13Z</time>
      </trkpt>
      <trkpt lat="46.0058" lon="4.4662">
        <ele>488.6</ele>
        <time>2015-11-05T10:41:17Z</time>
      </trkpt>
      <trkpt lat="46.00577" lon="4.46632">
        <ele>489.8</ele>
        <time>2015-11-05T10:41:21Z</time>
      </trkpt>
      <trkpt lat="46.00575" lon="4.46643">
        <ele>491</ele>
        <time>2015-11-05T10:41:25Z</time>
      </trkpt>
      <trkpt lat="46.00572" lon="4.46654">
        <ele>492.2</ele>
        <time>2015-11-05T10:41:29Z</time>
      </trkpt>
      <trkpt lat="46.0057" lon="4.46666">
        <ele>493.2</ele>
        <time>2015-11-05T10:41:33Z</time>
      </trkpt>
      <trkpt lat="46.00567" lon="4.46677">
        <ele>494.1</ele>
        <time>2015-11-05T10:41:37Z</time>
      </trkpt>
      <trkpt lat="46.00563" lon="4.46689">
        <ele>494.9</ele>
        <time>2015-11-05T10:41:42Z</time>
      </trkpt>
      <trkpt lat="46.00561" lon="4.46702">
        <ele>495.8</ele>
        <time>2015-11-05T10:41:47Z</time>
      </trkpt>
      <trkpt lat="46.00559" lon="4.46715">
        <ele>496.5</ele>
        <time>2015-11-05T10:41:52Z</time>
      </trkpt>
      <trkpt lat="46.00557" lon="4.46729">
        <ele>497</ele>
        <time>2015-11-05T10:44:24Z</time>
      </trkpt>
      <trkpt lat="46.00557" lon="4.46742">
        <ele>497.4</ele>
        <time>2015-11-05T10:44:28Z</time>
      </trkpt>
      <trkpt lat="46.00558" lon="4.46755">
        <ele>497.6</ele>
        <time>2015-11-05T10:44:32Z</time>
      </trkpt>
      <trkpt lat="46.0056" lon="4.46769">
        <ele>497.7</ele>
        <time>2015-11-05T10:44:37Z</time>
      </trkpt>
      <trkpt lat="46.00561" lon="4.46781">
        <ele>498.1</ele>
        <time>2015-11-05T10:44:41Z</time>
      </trkpt>
      <trkpt lat="46.00562" lon="4.46794">
        <ele>498.4</ele>
        <time>2015-11-05T10:44:45Z</time>
      </trkpt>
      <trkpt lat="46.00564" lon="4.46807">
        <ele>498.9</ele>
        <time>2015-11-05T10:44:49Z</time>
      </trkpt>
      <trkpt lat="46.00566" lon="4.4682">
        <ele>499.4</ele>
        <time>2015-11-05T10:44:53Z</time>
      </trkpt>
      <trkpt lat="46.0057" lon="4.46833">
        <ele>499.9</ele>
        <time>2015-11-05T10:44:57Z</time>
      </trkpt>
      <trkpt lat="46.00574" lon="4.46845">
        <ele>500</ele>
        <time>2015-11-05T10:45:01Z</time>
      </trkpt>
      <trkpt lat="46.00579" lon="4.46855">
        <ele>500.2</ele>
        <time>2015-11-05T10:45:05Z</time>
      </trkpt>
      <trkpt lat="46.00584" lon="4.46866">
        <ele>500.3</ele>
        <time>2015-11-05T10:45:09Z</time>
      </trkpt>
      <trkpt lat="46.0059" lon="4.46875">
        <ele>500.3</ele>
        <time>2015-11-05T10:45:13Z</time>
      </trkpt>
      <trkpt lat="46.00595" lon="4.46888">
        <ele>500.2</ele>
        <time>2015-11-05T10:45:17Z</time>
      </trkpt>
      <trkpt lat="46.00598" lon="4.46901">
        <ele>500.1</ele>
        <time>2015-11-05T10:45:19Z</time>
      </trkpt>
      <trkpt lat="46.00601" lon="4.46912">
        <ele>499.7</ele>
        <time>2015-11-05T10:45:20Z</time>
      </trkpt>
      <trkpt lat="46.00608" lon="4.46928">
        <ele>499.3</ele>
        <time>2015-11-05T10:45:22Z</time>
      </trkpt>
      <trkpt lat="46.00616" lon="4.46942">
        <ele>499</ele>
        <time>2015-11-05T10:45:24Z</time>
      </trkpt>
      <trkpt lat="46.00621" lon="4.46951">
        <ele>498.6</ele>
        <time>2015-11-05T10:45:25Z</time>
      </trkpt>
      <trkpt lat="46.0063" lon="4.46969">
        <ele>498.3</ele>
        <time>2015-11-05T10:45:27Z</time>
      </trkpt>
      <trkpt lat="46.00639" lon="4.46989">
        <ele>498.1</ele>
        <time>2015-11-05T10:45:29Z</time>
      </trkpt>
      <trkpt lat="46.00644" lon="4.47">
        <ele>498</ele>
        <time>2015-11-05T10:45:30Z</time>
      </trkpt>
      <trkpt lat="46.00649" lon="4.47009">
        <ele>498.1</ele>
        <time>2015-11-05T10:45:31Z</time>
      </trkpt>
      <trkpt lat="46.00655" lon="4.4702">
        <ele>498.4</ele>
        <time>2015-11-05T10:45:32Z</time>
      </trkpt>
      <trkpt lat="46.00662" lon="4.4704">
        <ele>499</ele>
        <time>2015-11-05T10:45:34Z</time>
      </trkpt>
      <trkpt lat="46.00665" lon="4.47058">
        <ele>499.6</ele>
        <time>2015-11-05T10:45:36Z</time>
      </trkpt>
      <trkpt lat="46.00664" lon="4.47073">
        <ele>500.5</ele>
        <time>2015-11-05T10:45:38Z</time>
      </trkpt>
      <trkpt lat="46.00659" lon="4.47086">
        <ele>501.5</ele>
        <time>2015-11-05T10:45:41Z</time>
      </trkpt>
      <trkpt lat="46.00653" lon="4.47098">
        <ele>502.6</ele>
        <time>2015-11-05T10:45:45Z</time>
      </trkpt>
      <trkpt lat="46.00648" lon="4.47108">
        <ele>503.9</ele>
        <time>2015-11-05T10:45:49Z</time>
      </trkpt>
      <trkpt lat="46.00642" lon="4.47119">
        <ele>505.2</ele>
        <time>2015-11-05T10:45:53Z</time>
      </trkpt>
      <trkpt lat="46.00637" lon="4.47128">
        <ele>506.8</ele>
        <time>2015-11-05T10:45:57Z</time>
      </trkpt>
      <trkpt lat="46.0063" lon="4.47139">
        <ele>508.8</ele>
        <time>2015-11-05T10:46:02Z</time>
      </trkpt>
      <trkpt lat="46.00624" lon="4.4715">
        <ele>511.1</ele>
        <time>2015-11-05T10:46:07Z</time>
      </trkpt>
      <trkpt lat="46.00617" lon="4.4716">
        <ele>513</ele>
        <time>2015-11-05T10:46:12Z</time>
      </trkpt>
      <trkpt lat="46.00613" lon="4.4717">
        <ele>515</ele>
        <time>2015-11-05T10:46:17Z</time>
      </trkpt>
      <trkpt lat="46.00606" lon="4.4718">
        <ele>516.8</ele>
        <time>2015-11-05T10:46:24Z</time>
      </trkpt>
      <trkpt lat="46.00599" lon="4.4719">
        <ele>518.5</ele>
        <time>2015-11-05T10:46:29Z</time>
      </trkpt>
      <trkpt lat="46.00596" lon="4.47201">
        <ele>520.3</ele>
        <time>2015-11-05T10:46:36Z</time>
      </trkpt>
      <trkpt lat="46.0059" lon="4.47212">
        <ele>522.1</ele>
        <time>2015-11-05T10:46:41Z</time>
      </trkpt>
      <trkpt lat="46.00585" lon="4.47223">
        <ele>524</ele>
        <time>2015-11-05T10:46:46Z</time>
      </trkpt>
      <trkpt lat="46.00581" lon="4.47233">
        <ele>525.8</ele>
        <time>2015-11-05T10:46:51Z</time>
      </trkpt>
      <trkpt lat="46.00576" lon="4.47243">
        <ele>527.2</ele>
        <time>2015-11-05T10:46:57Z</time>
      </trkpt>
      <trkpt lat="46.0057" lon="4.47254">
        <ele>528.4</ele>
        <time>2015-11-05T10:47:03Z</time>
      </trkpt>
      <trkpt lat="46.00566" lon="4.47265">
        <ele>529.1</ele>
        <time>2015-11-05T10:47:08Z</time>
      </trkpt>
      <trkpt lat="46.00562" lon="4.47277">
        <ele>529.9</ele>
        <time>2015-11-05T10:47:14Z</time>
      </trkpt>
      <trkpt lat="46.00561" lon="4.47289">
        <ele>530.7</ele>
        <time>2015-11-05T10:47:19Z</time>
      </trkpt>
      <trkpt lat="46.0056" lon="4.47302">
        <ele>531.4</ele>
        <time>2015-11-05T10:47:24Z</time>
      </trkpt>
      <trkpt lat="46.00559" lon="4.47316">
        <ele>532</ele>
        <time>2015-11-05T10:47:29Z</time>
      </trkpt>
      <trkpt lat="46.00556" lon="4.47328">
        <ele>532.4</ele>
        <time>2015-11-05T10:47:33Z</time>
      </trkpt>
      <trkpt lat="46.00554" lon="4.47342">
        <ele>532.6</ele>
        <time>2015-11-05T10:47:36Z</time>
      </trkpt>
      <trkpt lat="46.00552" lon="4.47355">
        <ele>532.5</ele>
        <time>2015-11-05T10:47:39Z</time>
      </trkpt>
      <trkpt lat="46.0055" lon="4.47372">
        <ele>532.2</ele>
        <time>2015-11-05T10:47:42Z</time>
      </trkpt>
      <trkpt lat="46.00549" lon="4.47384">
        <ele>531.9</ele>
        <time>2015-11-05T10:47:43Z</time>
      </trkpt>
      <trkpt lat="46.00547" lon="4.47401">
        <ele>531.2</ele>
        <time>2015-11-05T10:47:45Z</time>
      </trkpt>
      <trkpt lat="46.00545" lon="4.47421">
        <ele>530.6</ele>
        <time>2015-11-05T10:47:47Z</time>
      </trkpt>
      <trkpt lat="46.00544" lon="4.47442">
        <ele>529.9</ele>
        <time>2015-11-05T10:47:49Z</time>
      </trkpt>
      <trkpt lat="46.00545" lon="4.47464">
        <ele>528.9</ele>
        <time>2015-11-05T10:47:51Z</time>
      </trkpt>
      <trkpt lat="46.00546" lon="4.47477">
        <ele>527.9</ele>
        <time>2015-11-05T10:47:52Z</time>
      </trkpt>
      <trkpt lat="46.00546" lon="4.47491">
        <ele>526.8</ele>
        <time>2015-11-05T10:47:53Z</time>
      </trkpt>
      <trkpt lat="46.00547" lon="4.47504">
        <ele>525.6</ele>
        <time>2015-11-05T10:47:54Z</time>
      </trkpt>
      <trkpt lat="46.00549" lon="4.47516">
        <ele>524.4</ele>
        <time>2015-11-05T10:47:55Z</time>
      </trkpt>
      <trkpt lat="46.0055" lon="4.47529">
        <ele>523.2</ele>
        <time>2015-11-05T10:47:56Z</time>
      </trkpt>
      <trkpt lat="46.00553" lon="4.47543">
        <ele>522</ele>
        <time>2015-11-05T10:47:57Z</time>
      </trkpt>
      <trkpt lat="46.00556" lon="4.47557">
        <ele>521</ele>
        <time>2015-11-05T10:47:58Z</time>
      </trkpt>
      <trkpt lat="46.00559" lon="4.4757">
        <ele>520.1</ele>
        <time>2015-11-05T10:47:59Z</time>
      </trkpt>
      <trkpt lat="46.00562" lon="4.47584">
        <ele>519.4</ele>
        <time>2015-11-05T10:48:00Z</time>
      </trkpt>
      <trkpt lat="46.00564" lon="4.47597">
        <ele>518.8</ele>
        <time>2015-11-05T10:48:01Z</time>
      </trkpt>
      <trkpt lat="46.00566" lon="4.4761">
        <ele>518.3</ele>
        <time>2015-11-05T10:48:02Z</time>
      </trkpt>
      <trkpt lat="46.00567" lon="4.47623">
        <ele>518</ele>
        <time>2015-11-05T10:48:03Z</time>
      </trkpt>
      <trkpt lat="46.00567" lon="4.47635">
        <ele>517.8</ele>
        <time>2015-11-05T10:48:04Z</time>
      </trkpt>
      <trkpt lat="46.00563" lon="4.47654">
        <ele>517.7</ele>
        <time>2015-11-05T10:48:06Z</time>
      </trkpt>
      <trkpt lat="46.00559" lon="4.47673">
        <ele>517.7</ele>
        <time>2015-11-05T10:48:08Z</time>
      </trkpt>
      <trkpt lat="46.00556" lon="4.4769">
        <ele>517.6</ele>
        <time>2015-11-05T10:48:10Z</time>
      </trkpt>
      <trkpt lat="46.00556" lon="4.47707">
        <ele>517.5</ele>
        <time>2015-11-05T10:48:12Z</time>
      </trkpt>
      <trkpt lat="46.00555" lon="4.47722">
        <ele>517.5</ele>
        <time>2015-11-05T10:48:14Z</time>
      </trkpt>
      <trkpt lat="46.00554" lon="4.47737">
        <ele>517.8</ele>
        <time>2015-11-05T10:48:16Z</time>
      </trkpt>
      <trkpt lat="46.00552" lon="4.4775">
        <ele>518.2</ele>
        <time>2015-11-05T10:48:18Z</time>
      </trkpt>
      <trkpt lat="46.0055" lon="4.47763">
        <ele>518.5</ele>
        <time>2015-11-05T10:48:20Z</time>
      </trkpt>
      <trkpt lat="46.00547" lon="4.47775">
        <ele>518.8</ele>
        <time>2015-11-05T10:48:22Z</time>
      </trkpt>
      <trkpt lat="46.0054" lon="4.47788">
        <ele>519.2</ele>
        <time>2015-11-05T10:48:25Z</time>
      </trkpt>
      <trkpt lat="46.00531" lon="4.47796">
        <ele>519.7</ele>
        <time>2015-11-05T10:48:28Z</time>
      </trkpt>
      <trkpt lat="46.00522" lon="4.47802">
        <ele>520.3</ele>
        <time>2015-11-05T10:48:31Z</time>
      </trkpt>
      <trkpt lat="46.00513" lon="4.47811">
        <ele>521.1</ele>
        <time>2015-11-05T10:48:35Z</time>
      </trkpt>
      <trkpt lat="46.00507" lon="4.47821">
        <ele>522.2</ele>
        <time>2015-11-05T10:48:39Z</time>
      </trkpt>
      <trkpt lat="46.00501" lon="4.47834">
        <ele>523.4</ele>
        <time>2015-11-05T10:48:43Z</time>
      </trkpt>
      <trkpt lat="46.00499" lon="4.47847">
        <ele>524.6</ele>
        <time>2015-11-05T10:48:47Z</time>
      </trkpt>
      <trkpt lat="46.00496" lon="4.47861">
        <ele>525.8</ele>
        <time>2015-11-05T10:48:52Z</time>
      </trkpt>
      <trkpt lat="46.00495" lon="4.47875">
        <ele>527</ele>
        <time>2015-11-05T10:48:57Z</time>
      </trkpt>
      <trkpt lat="46.00494" lon="4.47888">
        <ele>528.3</ele>
        <time>2015-11-05T10:49:02Z</time>
      </trkpt>
      <trkpt lat="46.00493" lon="4.479">
        <ele>529.6</ele>
        <time>2015-11-05T10:49:07Z</time>
      </trkpt>
      <trkpt lat="46.00491" lon="4.47913">
        <ele>531</ele>
        <time>2015-11-05T10:49:12Z</time>
      </trkpt>
      <trkpt lat="46.0049" lon="4.47925">
        <ele>532.3</ele>
        <time>2015-11-05T10:49:17Z</time>
      </trkpt>
      <trkpt lat="46.00488" lon="4.47938">
        <ele>533.4</ele>
        <time>2015-11-05T10:49:22Z</time>
      </trkpt>
      <trkpt lat="46.00485" lon="4.4795">
        <ele>534.7</ele>
        <time>2015-11-05T10:49:27Z</time>
      </trkpt>
      <trkpt lat="46.00483" lon="4.47961">
        <ele>536</ele>
        <time>2015-11-05T10:49:32Z</time>
      </trkpt>
      <trkpt lat="46.0048" lon="4.47974">
        <ele>537.3</ele>
        <time>2015-11-05T10:49:38Z</time>
      </trkpt>
      <trkpt lat="46.00478" lon="4.47986">
        <ele>538.7</ele>
        <time>2015-11-05T10:49:43Z</time>
      </trkpt>
      <trkpt lat="46.00474" lon="4.47999">
        <ele>539.9</ele>
        <time>2015-11-05T10:49:49Z</time>
      </trkpt>
      <trkpt lat="46.0047" lon="4.4801">
        <ele>541</ele>
        <time>2015-11-05T10:49:55Z</time>
      </trkpt>
      <trkpt lat="46.00465" lon="4.4802">
        <ele>542.1</ele>
        <time>2015-11-05T10:50:00Z</time>
      </trkpt>
      <trkpt lat="46.00463" lon="4.48032">
        <ele>543.1</ele>
        <time>2015-11-05T10:50:05Z</time>
      </trkpt>
      <trkpt lat="46.00461" lon="4.48043">
        <ele>544</ele>
        <time>2015-11-05T10:50:10Z</time>
      </trkpt>
      <trkpt lat="46.0046" lon="4.48055">
        <ele>545</ele>
        <time>2015-11-05T10:50:15Z</time>
      </trkpt>
      <trkpt lat="46.00461" lon="4.48069">
        <ele>546</ele>
        <time>2015-11-05T10:50:20Z</time>
      </trkpt>
      <trkpt lat="46.00463" lon="4.48083">
        <ele>546.6</ele>
        <time>2015-11-05T10:50:25Z</time>
      </trkpt>
      <trkpt lat="46.00465" lon="4.48097">
        <ele>547.1</ele>
        <time>2015-11-05T10:50:30Z</time>
      </trkpt>
      <trkpt lat="46.00468" lon="4.48109">
        <ele>547.7</ele>
        <time>2015-11-05T10:50:34Z</time>
      </trkpt>
      <trkpt lat="46.00472" lon="4.4812">
        <ele>548.1</ele>
        <time>2015-11-05T10:50:38Z</time>
      </trkpt>
      <trkpt lat="46.00476" lon="4.48133">
        <ele>548.5</ele>
        <time>2015-11-05T10:50:42Z</time>
      </trkpt>
      <trkpt lat="46.0048" lon="4.48146">
        <ele>548.8</ele>
        <time>2015-11-05T10:50:45Z</time>
      </trkpt>
      <trkpt lat="46.00481" lon="4.48161">
        <ele>548.9</ele>
        <time>2015-11-05T10:50:48Z</time>
      </trkpt>
      <trkpt lat="46.00477" lon="4.48176">
        <ele>549</ele>
        <time>2015-11-05T10:50:51Z</time>
      </trkpt>
      <trkpt lat="46.00473" lon="4.48191">
        <ele>549</ele>
        <time>2015-11-05T10:50:54Z</time>
      </trkpt>
      <trkpt lat="46.00469" lon="4.48207">
        <ele>548.8</ele>
        <time>2015-11-05T10:50:57Z</time>
      </trkpt>
      <trkpt lat="46.00466" lon="4.48222">
        <ele>548.5</ele>
        <time>2015-11-05T10:51:00Z</time>
      </trkpt>
      <trkpt lat="46.00462" lon="4.48238">
        <ele>548.3</ele>
        <time>2015-11-05T10:51:03Z</time>
      </trkpt>
      <trkpt lat="46.00458" lon="4.48248">
        <ele>548</ele>
        <time>2015-11-05T10:51:05Z</time>
      </trkpt>
      <trkpt lat="46.00452" lon="4.48269">
        <ele>547.6</ele>
        <time>2015-11-05T10:51:08Z</time>
      </trkpt>
      <trkpt lat="46.00448" lon="4.48284">
        <ele>547.1</ele>
        <time>2015-11-05T10:51:10Z</time>
      </trkpt>
      <trkpt lat="46.00445" lon="4.483">
        <ele>546.7</ele>
        <time>2015-11-05T10:51:12Z</time>
      </trkpt>
      <trkpt lat="46.00442" lon="4.48315">
        <ele>546.4</ele>
        <time>2015-11-05T10:51:14Z</time>
      </trkpt>
      <trkpt lat="46.00439" lon="4.48332">
        <ele>546.2</ele>
        <time>2015-11-05T10:51:16Z</time>
      </trkpt>
      <trkpt lat="46.00436" lon="4.48349">
        <ele>546.2</ele>
        <time>2015-11-05T10:51:19Z</time>
      </trkpt>
      <trkpt lat="46.00431" lon="4.48363">
        <ele>546.4</ele>
        <time>2015-11-05T10:51:21Z</time>
      </trkpt>
      <trkpt lat="46.00427" lon="4.48374">
        <ele>546.9</ele>
        <time>2015-11-05T10:51:24Z</time>
      </trkpt>
      <trkpt lat="46.00423" lon="4.48387">
        <ele>547.4</ele>
        <time>2015-11-05T10:51:27Z</time>
      </trkpt>
      <trkpt lat="46.0042" lon="4.48402">
        <ele>547.9</ele>
        <time>2015-11-05T10:51:30Z</time>
      </trkpt>
      <trkpt lat="46.00418" lon="4.48417">
        <ele>548.6</ele>
        <time>2015-11-05T10:51:33Z</time>
      </trkpt>
      <trkpt lat="46.00418" lon="4.48433">
        <ele>549.4</ele>
        <time>2015-11-05T10:51:36Z</time>
      </trkpt>
      <trkpt lat="46.00418" lon="4.48446">
        <ele>549.9</ele>
        <time>2015-11-05T10:51:38Z</time>
      </trkpt>
      <trkpt lat="46.00416" lon="4.4846">
        <ele>550</ele>
        <time>2015-11-05T10:51:40Z</time>
      </trkpt>
      <trkpt lat="46.00411" lon="4.48474">
        <ele>549.9</ele>
        <time>2015-11-05T10:51:42Z</time>
      </trkpt>
      <trkpt lat="46.00408" lon="4.4849">
        <ele>549.7</ele>
        <time>2015-11-05T10:51:44Z</time>
      </trkpt>
      <trkpt lat="46.00404" lon="4.48521">
        <ele>549.3</ele>
        <time>2015-11-05T10:51:46Z</time>
      </trkpt>
      <trkpt lat="46.00401" lon="4.48537">
        <ele>548.8</ele>
        <time>2015-11-05T10:51:48Z</time>
      </trkpt>
      <trkpt lat="46.00404" lon="4.48553">
        <ele>548</ele>
        <time>2015-11-05T10:51:50Z</time>
      </trkpt>
      <trkpt lat="46.00406" lon="4.48566">
        <ele>547.3</ele>
        <time>2015-11-05T10:51:52Z</time>
      </trkpt>
      <trkpt lat="46.0041" lon="4.48578">
        <ele>546.6</ele>
        <time>2015-11-05T10:51:54Z</time>
      </trkpt>
      <trkpt lat="46.00416" lon="4.48592">
        <ele>545.6</ele>
        <time>2015-11-05T10:51:56Z</time>
      </trkpt>
      <trkpt lat="46.0042" lon="4.48605">
        <ele>544.5</ele>
        <time>2015-11-05T10:51:58Z</time>
      </trkpt>
      <trkpt lat="46.00423" lon="4.48616">
        <ele>543.4</ele>
        <time>2015-11-05T10:52:00Z</time>
      </trkpt>
      <trkpt lat="46.00425" lon="4.48629">
        <ele>542.5</ele>
        <time>2015-11-05T10:52:02Z</time>
      </trkpt>
      <trkpt lat="46.00428" lon="4.48645">
        <ele>541.6</ele>
        <time>2015-11-05T10:52:04Z</time>
      </trkpt>
      <trkpt lat="46.00429" lon="4.4866">
        <ele>540.7</ele>
        <time>2015-11-05T10:52:06Z</time>
      </trkpt>
      <trkpt lat="46.00432" lon="4.48678">
        <ele>539.6</ele>
        <time>2015-11-05T10:52:08Z</time>
      </trkpt>
      <trkpt lat="46.00436" lon="4.48694">
        <ele>538.3</ele>
        <time>2015-11-05T10:52:10Z</time>
      </trkpt>
      <trkpt lat="46.00439" lon="4.48711">
        <ele>536.9</ele>
        <time>2015-11-05T10:52:12Z</time>
      </trkpt>
      <trkpt lat="46.00441" lon="4.48728">
        <ele>535.3</ele>
        <time>2015-11-05T10:52:14Z</time>
      </trkpt>
      <trkpt lat="46.00442" lon="4.48744">
        <ele>533.5</ele>
        <time>2015-11-05T10:52:16Z</time>
      </trkpt>
      <trkpt lat="46.00442" lon="4.48759">
        <ele>531.5</ele>
        <time>2015-11-05T10:52:18Z</time>
      </trkpt>
      <trkpt lat="46.00443" lon="4.48776">
        <ele>529.5</ele>
        <time>2015-11-05T10:52:20Z</time>
      </trkpt>
      <trkpt lat="46.00445" lon="4.48789">
        <ele>527.4</ele>
        <time>2015-11-05T10:52:22Z</time>
      </trkpt>
      <trkpt lat="46.00446" lon="4.48802">
        <ele>525.4</ele>
        <time>2015-11-05T10:52:24Z</time>
      </trkpt>
      <trkpt lat="46.00446" lon="4.48815">
        <ele>523.5</ele>
        <time>2015-11-05T10:52:26Z</time>
      </trkpt>
      <trkpt lat="46.00445" lon="4.48829">
        <ele>521.4</ele>
        <time>2015-11-05T10:52:28Z</time>
      </trkpt>
      <trkpt lat="46.00442" lon="4.48845">
        <ele>519.6</ele>
        <time>2015-11-05T10:52:30Z</time>
      </trkpt>
      <trkpt lat="46.00438" lon="4.48859">
        <ele>517.6</ele>
        <time>2015-11-05T10:52:32Z</time>
      </trkpt>
      <trkpt lat="46.00434" lon="4.48872">
        <ele>515.9</ele>
        <time>2015-11-05T10:52:34Z</time>
      </trkpt>
      <trkpt lat="46.00429" lon="4.48886">
        <ele>514.4</ele>
        <time>2015-11-05T10:52:37Z</time>
      </trkpt>
      <trkpt lat="46.0042" lon="4.48897">
        <ele>513.1</ele>
        <time>2015-11-05T10:52:40Z</time>
      </trkpt>
      <trkpt lat="46.00411" lon="4.48903">
        <ele>511.9</ele>
        <time>2015-11-05T10:52:43Z</time>
      </trkpt>
      <trkpt lat="46.00402" lon="4.48909">
        <ele>510.7</ele>
        <time>2015-11-05T10:52:44Z</time>
      </trkpt>
      <trkpt lat="46.00393" lon="4.48915">
        <ele>509.7</ele>
        <time>2015-11-05T10:52:46Z</time>
      </trkpt>
      <trkpt lat="46.00385" lon="4.48927">
        <ele>508.8</ele>
        <time>2015-11-05T10:52:48Z</time>
      </trkpt>
      <trkpt lat="46.0038" lon="4.4894">
        <ele>507.9</ele>
        <time>2015-11-05T10:52:51Z</time>
      </trkpt>
      <trkpt lat="46.00373" lon="4.48949">
        <ele>507.2</ele>
        <time>2015-11-05T10:52:52Z</time>
      </trkpt>
      <trkpt lat="46.00367" lon="4.48958">
        <ele>506.5</ele>
        <time>2015-11-05T10:52:54Z</time>
      </trkpt>
      <trkpt lat="46.00358" lon="4.48965">
        <ele>505.9</ele>
        <time>2015-11-05T10:52:56Z</time>
      </trkpt>
      <trkpt lat="46.0035" lon="4.4897">
        <ele>505.1</ele>
        <time>2015-11-05T10:52:58Z</time>
      </trkpt>
      <trkpt lat="46.00341" lon="4.48977">
        <ele>504.3</ele>
        <time>2015-11-05T10:53:00Z</time>
      </trkpt>
      <trkpt lat="46.00333" lon="4.48986">
        <ele>503.5</ele>
        <time>2015-11-05T10:53:02Z</time>
      </trkpt>
      <trkpt lat="46.00326" lon="4.48998">
        <ele>502.8</ele>
        <time>2015-11-05T10:53:04Z</time>
      </trkpt>
      <trkpt lat="46.0032" lon="4.49011">
        <ele>502</ele>
        <time>2015-11-05T10:53:06Z</time>
      </trkpt>
      <trkpt lat="46.00316" lon="4.49026">
        <ele>501.3</ele>
        <time>2015-11-05T10:53:08Z</time>
      </trkpt>
      <trkpt lat="46.00314" lon="4.49041">
        <ele>500.6</ele>
        <time>2015-11-05T10:53:10Z</time>
      </trkpt>
      <trkpt lat="46.00312" lon="4.49057">
        <ele>499.7</ele>
        <time>2015-11-05T10:53:12Z</time>
      </trkpt>
      <trkpt lat="46.0031" lon="4.49074">
        <ele>498.9</ele>
        <time>2015-11-05T10:53:14Z</time>
      </trkpt>
      <trkpt lat="46.00307" lon="4.49091">
        <ele>498.3</ele>
        <time>2015-11-05T10:53:16Z</time>
      </trkpt>
      <trkpt lat="46.00304" lon="4.49107">
        <ele>497.7</ele>
        <time>2015-11-05T10:53:18Z</time>
      </trkpt>
      <trkpt lat="46.003" lon="4.49124">
        <ele>497.2</ele>
        <time>2015-11-05T10:53:20Z</time>
      </trkpt>
      <trkpt lat="46.00296" lon="4.49141">
        <ele>496.7</ele>
        <time>2015-11-05T10:53:22Z</time>
      </trkpt>
      <trkpt lat="46.0029" lon="4.49158">
        <ele>496.3</ele>
        <time>2015-11-05T10:53:24Z</time>
      </trkpt>
      <trkpt lat="46.00283" lon="4.49172">
        <ele>495.9</ele>
        <time>2015-11-05T10:53:26Z</time>
      </trkpt>
      <trkpt lat="46.00275" lon="4.49186">
        <ele>495.6</ele>
        <time>2015-11-05T10:53:28Z</time>
      </trkpt>
      <trkpt lat="46.00269" lon="4.49199">
        <ele>495.4</ele>
        <time>2015-11-05T10:53:30Z</time>
      </trkpt>
      <trkpt lat="46.00262" lon="4.49216">
        <ele>495.2</ele>
        <time>2015-11-05T10:53:32Z</time>
      </trkpt>
      <trkpt lat="46.00256" lon="4.49231">
        <ele>495.2</ele>
        <time>2015-11-05T10:53:34Z</time>
      </trkpt>
      <trkpt lat="46.00254" lon="4.49249">
        <ele>495.2</ele>
        <time>2015-11-05T10:53:36Z</time>
      </trkpt>
      <trkpt lat="46.00255" lon="4.49266">
        <ele>495.3</ele>
        <time>2015-11-05T10:53:38Z</time>
      </trkpt>
      <trkpt lat="46.00257" lon="4.49281">
        <ele>495.3</ele>
        <time>2015-11-05T10:53:40Z</time>
      </trkpt>
      <trkpt lat="46.00261" lon="4.49295">
        <ele>495.1</ele>
        <time>2015-11-05T10:53:42Z</time>
      </trkpt>
      <trkpt lat="46.00267" lon="4.4931">
        <ele>495</ele>
        <time>2015-11-05T10:53:45Z</time>
      </trkpt>
      <trkpt lat="46.00276" lon="4.49321">
        <ele>494.8</ele>
        <time>2015-11-05T10:53:48Z</time>
      </trkpt>
      <trkpt lat="46.00285" lon="4.49326">
        <ele>494.5</ele>
        <time>2015-11-05T10:53:50Z</time>
      </trkpt>
      <trkpt lat="46.00295" lon="4.49333">
        <ele>494.3</ele>
        <time>2015-11-05T10:53:52Z</time>
      </trkpt>
      <trkpt lat="46.00307" lon="4.49338">
        <ele>494</ele>
        <time>2015-11-05T10:53:54Z</time>
      </trkpt>
      <trkpt lat="46.00319" lon="4.49343">
        <ele>493.7</ele>
        <time>2015-11-05T10:53:56Z</time>
      </trkpt>
      <trkpt lat="46.00333" lon="4.49344">
        <ele>493.5</ele>
        <time>2015-11-05T10:53:58Z</time>
      </trkpt>
      <trkpt lat="46.00348" lon="4.49343">
        <ele>493.1</ele>
        <time>2015-11-05T10:54:00Z</time>
      </trkpt>
      <trkpt lat="46.00363" lon="4.49334">
        <ele>492.9</ele>
        <time>2015-11-05T10:54:02Z</time>
      </trkpt>
      <trkpt lat="46.00376" lon="4.49325">
        <ele>492.6</ele>
        <time>2015-11-05T10:54:04Z</time>
      </trkpt>
      <trkpt lat="46.00388" lon="4.49315">
        <ele>492.5</ele>
        <time>2015-11-05T10:54:06Z</time>
      </trkpt>
      <trkpt lat="46.00401" lon="4.49304">
        <ele>492.5</ele>
        <time>2015-11-05T10:54:08Z</time>
      </trkpt>
      <trkpt lat="46.0041" lon="4.49292">
        <ele>492.6</ele>
        <time>2015-11-05T10:54:10Z</time>
      </trkpt>
      <trkpt lat="46.0042" lon="4.49283">
        <ele>492.8</ele>
        <time>2015-11-05T10:54:12Z</time>
      </trkpt>
      <trkpt lat="46.0043" lon="4.4927">
        <ele>493</ele>
        <time>2015-11-05T10:54:14Z</time>
      </trkpt>
      <trkpt lat="46.00438" lon="4.49264">
        <ele>493.2</ele>
        <time>2015-11-05T10:54:15Z</time>
      </trkpt>
      <trkpt lat="46.00449" lon="4.49252">
        <ele>493.4</ele>
        <time>2015-11-05T10:54:17Z</time>
      </trkpt>
      <trkpt lat="46.0046" lon="4.49237">
        <ele>493.6</ele>
        <time>2015-11-05T10:54:19Z</time>
      </trkpt>
      <trkpt lat="46.00469" lon="4.4922">
        <ele>493.8</ele>
        <time>2015-11-05T10:54:21Z</time>
      </trkpt>
      <trkpt lat="46.00477" lon="4.49202">
        <ele>493.9</ele>
        <time>2015-11-05T10:54:23Z</time>
      </trkpt>
      <trkpt lat="46.00482" lon="4.49184">
        <ele>493.9</ele>
        <time>2015-11-05T10:54:25Z</time>
      </trkpt>
      <trkpt lat="46.00486" lon="4.49165">
        <ele>493.8</ele>
        <time>2015-11-05T10:54:27Z</time>
      </trkpt>
      <trkpt lat="46.0049" lon="4.49148">
        <ele>493.6</ele>
        <time>2015-11-05T10:54:29Z</time>
      </trkpt>
      <trkpt lat="46.00493" lon="4.49136">
        <ele>493.5</ele>
        <time>2015-11-05T10:54:30Z</time>
      </trkpt>
      <trkpt lat="46.00492" lon="4.49113">
        <ele>493.5</ele>
        <time>2015-11-05T10:54:32Z</time>
      </trkpt>
      <trkpt lat="46.0049" lon="4.491">
        <ele>493.6</ele>
        <time>2015-11-05T10:54:33Z</time>
      </trkpt>
      <trkpt lat="46.00492" lon="4.49089">
        <ele>493.8</ele>
        <time>2015-11-05T10:54:34Z</time>
      </trkpt>
      <trkpt lat="46.00495" lon="4.49076">
        <ele>493.8</ele>
        <time>2015-11-05T10:54:35Z</time>
      </trkpt>
      <trkpt lat="46.00497" lon="4.49062">
        <ele>493.9</ele>
        <time>2015-11-05T10:54:36Z</time>
      </trkpt>
      <trkpt lat="46.00503" lon="4.49044">
        <ele>493.8</ele>
        <time>2015-11-05T10:54:38Z</time>
      </trkpt>
      <trkpt lat="46.00514" lon="4.49035">
        <ele>493.9</ele>
        <time>2015-11-05T10:54:40Z</time>
      </trkpt>
      <trkpt lat="46.00527" lon="4.49027">
        <ele>493.8</ele>
        <time>2015-11-05T10:54:42Z</time>
      </trkpt>
      <trkpt lat="46.00539" lon="4.49017">
        <ele>493.7</ele>
        <time>2015-11-05T10:54:44Z</time>
      </trkpt>
      <trkpt lat="46.00546" lon="4.49008">
        <ele>493.2</ele>
        <time>2015-11-05T10:54:45Z</time>
      </trkpt>
      <trkpt lat="46.00552" lon="4.48994">
        <ele>492.4</ele>
        <time>2015-11-05T10:54:47Z</time>
      </trkpt>
      <trkpt lat="46.00562" lon="4.48978">
        <ele>491.5</ele>
        <time>2015-11-05T10:54:49Z</time>
      </trkpt>
      <trkpt lat="46.0057" lon="4.48968">
        <ele>490.5</ele>
        <time>2015-11-05T10:54:51Z</time>
      </trkpt>
      <trkpt lat="46.00583" lon="4.48959">
        <ele>489.4</ele>
        <time>2015-11-05T10:54:53Z</time>
      </trkpt>
      <trkpt lat="46.00593" lon="4.4896">
        <ele>488.4</ele>
        <time>2015-11-05T10:54:55Z</time>
      </trkpt>
      <trkpt lat="46.00598" lon="4.48971">
        <ele>487.5</ele>
        <time>2015-11-05T10:54:58Z</time>
      </trkpt>
      <trkpt lat="46.00599" lon="4.48983">
        <ele>486.7</ele>
        <time>2015-11-05T10:55:01Z</time>
      </trkpt>
      <trkpt lat="46.006" lon="4.48996">
        <ele>485.8</ele>
        <time>2015-11-05T10:55:04Z</time>
      </trkpt>
      <trkpt lat="46.00602" lon="4.49012">
        <ele>485.1</ele>
        <time>2015-11-05T10:55:07Z</time>
      </trkpt>
      <trkpt lat="46.00604" lon="4.49029">
        <ele>484.6</ele>
        <time>2015-11-05T10:55:10Z</time>
      </trkpt>
      <trkpt lat="46.00607" lon="4.49045">
        <ele>484.6</ele>
        <time>2015-11-05T10:55:13Z</time>
      </trkpt>
      <trkpt lat="46.0061" lon="4.49061">
        <ele>484.8</ele>
        <time>2015-11-05T10:55:16Z</time>
      </trkpt>
      <trkpt lat="46.00614" lon="4.49076">
        <ele>485.1</ele>
        <time>2015-11-05T10:55:19Z</time>
      </trkpt>
      <trkpt lat="46.00618" lon="4.4909">
        <ele>485.3</ele>
        <time>2015-11-05T10:55:22Z</time>
      </trkpt>
      <trkpt lat="46.00623" lon="4.49102">
        <ele>485.2</ele>
        <time>2015-11-05T10:55:25Z</time>
      </trkpt>
      <trkpt lat="46.00628" lon="4.49115">
        <ele>485.1</ele>
        <time>2015-11-05T10:55:28Z</time>
      </trkpt>
      <trkpt lat="46.00633" lon="4.49128">
        <ele>485.3</ele>
        <time>2015-11-05T10:55:31Z</time>
      </trkpt>
      <trkpt lat="46.00639" lon="4.49141">
        <ele>485.3</ele>
        <time>2015-11-05T10:55:34Z</time>
      </trkpt>
      <trkpt lat="46.00645" lon="4.49155">
        <ele>484.9</ele>
        <time>2015-11-05T10:55:37Z</time>
      </trkpt>
      <trkpt lat="46.00651" lon="4.49165">
        <ele>484.4</ele>
        <time>2015-11-05T10:55:40Z</time>
      </trkpt>
      <trkpt lat="46.00658" lon="4.49174">
        <ele>483.7</ele>
        <time>2015-11-05T10:55:43Z</time>
      </trkpt>
      <trkpt lat="46.00667" lon="4.49179">
        <ele>482.9</ele>
        <time>2015-11-05T10:55:46Z</time>
      </trkpt>
      <trkpt lat="46.00674" lon="4.49183">
        <ele>482.1</ele>
        <time>2015-11-05T10:55:49Z</time>
      </trkpt>
      <trkpt lat="46.00684" lon="4.49183">
        <ele>481.2</ele>
        <time>2015-11-05T10:55:52Z</time>
      </trkpt>
      <trkpt lat="46.00692" lon="4.49176">
        <ele>480.5</ele>
        <time>2015-11-05T10:55:54Z</time>
      </trkpt>
      <trkpt lat="46.007" lon="4.49172">
        <ele>480</ele>
        <time>2015-11-05T10:55:55Z</time>
      </trkpt>
      <trkpt lat="46.00707" lon="4.49164">
        <ele>479.4</ele>
        <time>2015-11-05T10:55:57Z</time>
      </trkpt>
      <trkpt lat="46.00715" lon="4.49153">
        <ele>478.6</ele>
        <time>2015-11-05T10:55:59Z</time>
      </trkpt>
      <trkpt lat="46.00722" lon="4.49143">
        <ele>477.9</ele>
        <time>2015-11-05T10:56:01Z</time>
      </trkpt>
      <trkpt lat="46.00732" lon="4.49132">
        <ele>477.5</ele>
        <time>2015-11-05T10:56:03Z</time>
      </trkpt>
      <trkpt lat="46.00741" lon="4.49122">
        <ele>477.3</ele>
        <time>2015-11-05T10:56:05Z</time>
      </trkpt>
      <trkpt lat="46.00747" lon="4.49115">
        <ele>477.2</ele>
        <time>2015-11-05T10:56:07Z</time>
      </trkpt>
      <trkpt lat="46.00756" lon="4.49108">
        <ele>477.1</ele>
        <time>2015-11-05T10:56:09Z</time>
      </trkpt>
      <trkpt lat="46.00767" lon="4.49103">
        <ele>477</ele>
        <time>2015-11-05T10:56:11Z</time>
      </trkpt>
      <trkpt lat="46.00775" lon="4.49097">
        <ele>476.9</ele>
        <time>2015-11-05T10:56:12Z</time>
      </trkpt>
      <trkpt lat="46.00787" lon="4.49088">
        <ele>476.5</ele>
        <time>2015-11-05T10:56:14Z</time>
      </trkpt>
      <trkpt lat="46.00797" lon="4.49078">
        <ele>476.4</ele>
        <time>2015-11-05T10:56:16Z</time>
      </trkpt>
      <trkpt lat="46.00808" lon="4.49072">
        <ele>476</ele>
        <time>2015-11-05T10:56:18Z</time>
      </trkpt>
      <trkpt lat="46.00817" lon="4.49068">
        <ele>475.6</ele>
        <time>2015-11-05T10:56:20Z</time>
      </trkpt>
      <trkpt lat="46.00826" lon="4.49059">
        <ele>475.1</ele>
        <time>2015-11-05T10:56:23Z</time>
      </trkpt>
      <trkpt lat="46.00834" lon="4.49043">
        <ele>474.4</ele>
        <time>2015-11-05T10:56:25Z</time>
      </trkpt>
      <trkpt lat="46.00842" lon="4.4903">
        <ele>473.8</ele>
        <time>2015-11-05T10:56:27Z</time>
      </trkpt>
      <trkpt lat="46.00846" lon="4.49019">
        <ele>473.3</ele>
        <time>2015-11-05T10:56:29Z</time>
      </trkpt>
      <trkpt lat="46.00852" lon="4.49008">
        <ele>472.6</ele>
        <time>2015-11-05T10:56:31Z</time>
      </trkpt>
      <trkpt lat="46.00859" lon="4.48998">
        <ele>471.8</ele>
        <time>2015-11-05T10:56:34Z</time>
      </trkpt>
      <trkpt lat="46.00868" lon="4.48984">
        <ele>470.9</ele>
        <time>2015-11-05T10:56:36Z</time>
      </trkpt>
      <trkpt lat="46.0087" lon="4.4897">
        <ele>470</ele>
        <time>2015-11-05T10:56:40Z</time>
      </trkpt>
      <trkpt lat="46.0087" lon="4.48954">
        <ele>469</ele>
        <time>2015-11-05T10:56:44Z</time>
      </trkpt>
      <trkpt lat="46.00869" lon="4.4894">
        <ele>468</ele>
        <time>2015-11-05T10:56:46Z</time>
      </trkpt>
      <trkpt lat="46.00874" lon="4.48922">
        <ele>466.8</ele>
        <time>2015-11-05T10:56:47Z</time>
      </trkpt>
      <trkpt lat="46.00877" lon="4.48907">
        <ele>465.6</ele>
        <time>2015-11-05T10:56:49Z</time>
      </trkpt>
      <trkpt lat="46.0088" lon="4.48894">
        <ele>464.6</ele>
        <time>2015-11-05T10:56:51Z</time>
      </trkpt>
      <trkpt lat="46.00882" lon="4.48878">
        <ele>463</ele>
        <time>2015-11-05T10:56:53Z</time>
      </trkpt>
      <trkpt lat="46.00883" lon="4.48864">
        <ele>461.1</ele>
        <time>2015-11-05T10:56:56Z</time>
      </trkpt>
      <trkpt lat="46.00888" lon="4.48851">
        <ele>459.3</ele>
        <time>2015-11-05T10:56:59Z</time>
      </trkpt>
      <trkpt lat="46.00889" lon="4.48837">
        <ele>457.8</ele>
        <time>2015-11-05T10:57:02Z</time>
      </trkpt>
      <trkpt lat="46.00887" lon="4.48825">
        <ele>456.5</ele>
        <time>2015-11-05T10:57:04Z</time>
      </trkpt>
      <trkpt lat="46.00887" lon="4.48813">
        <ele>455.2</ele>
        <time>2015-11-05T10:57:06Z</time>
      </trkpt>
      <trkpt lat="46.00887" lon="4.488">
        <ele>454</ele>
        <time>2015-11-05T10:57:08Z</time>
      </trkpt>
      <trkpt lat="46.00888" lon="4.48788">
        <ele>452.8</ele>
        <time>2015-11-05T10:57:10Z</time>
      </trkpt>
      <trkpt lat="46.00888" lon="4.48776">
        <ele>451.8</ele>
        <time>2015-11-05T10:57:12Z</time>
      </trkpt>
      <trkpt lat="46.00889" lon="4.48759">
        <ele>450.7</ele>
        <time>2015-11-05T10:57:15Z</time>
      </trkpt>
      <trkpt lat="46.00891" lon="4.48744">
        <ele>449.5</ele>
        <time>2015-11-05T10:57:18Z</time>
      </trkpt>
      <trkpt lat="46.00891" lon="4.48726">
        <ele>448.8</ele>
        <time>2015-11-05T10:57:21Z</time>
      </trkpt>
      <trkpt lat="46.00891" lon="4.48712">
        <ele>448.1</ele>
        <time>2015-11-05T10:57:23Z</time>
      </trkpt>
      <trkpt lat="46.00892" lon="4.48699">
        <ele>447.6</ele>
        <time>2015-11-05T10:57:24Z</time>
      </trkpt>
      <trkpt lat="46.0089" lon="4.48682">
        <ele>447.1</ele>
        <time>2015-11-05T10:57:26Z</time>
      </trkpt>
      <trkpt lat="46.00889" lon="4.48664">
        <ele>446.6</ele>
        <time>2015-11-05T10:57:28Z</time>
      </trkpt>
      <trkpt lat="46.00888" lon="4.48647">
        <ele>446.3</ele>
        <time>2015-11-05T10:57:30Z</time>
      </trkpt>
      <trkpt lat="46.00887" lon="4.48631">
        <ele>446.1</ele>
        <time>2015-11-05T10:57:32Z</time>
      </trkpt>
      <trkpt lat="46.00887" lon="4.48616">
        <ele>446.1</ele>
        <time>2015-11-05T10:57:34Z</time>
      </trkpt>
      <trkpt lat="46.00891" lon="4.48604">
        <ele>446.1</ele>
        <time>2015-11-05T10:57:37Z</time>
      </trkpt>
      <trkpt lat="46.00898" lon="4.48597">
        <ele>446.2</ele>
        <time>2015-11-05T10:57:39Z</time>
      </trkpt>
      <trkpt lat="46.00904" lon="4.48589">
        <ele>446.3</ele>
        <time>2015-11-05T10:57:41Z</time>
      </trkpt>
      <trkpt lat="46.00911" lon="4.48582">
        <ele>446.5</ele>
        <time>2015-11-05T10:57:44Z</time>
      </trkpt>
      <trkpt lat="46.00922" lon="4.48576">
        <ele>446.8</ele>
        <time>2015-11-05T10:57:47Z</time>
      </trkpt>
      <trkpt lat="46.00933" lon="4.4857">
        <ele>447.1</ele>
        <time>2015-11-05T10:57:49Z</time>
      </trkpt>
      <trkpt lat="46.00943" lon="4.48563">
        <ele>447.2</ele>
        <time>2015-11-05T10:57:51Z</time>
      </trkpt>
      <trkpt lat="46.00954" lon="4.48558">
        <ele>447.2</ele>
        <time>2015-11-05T10:57:53Z</time>
      </trkpt>
      <trkpt lat="46.00966" lon="4.48552">
        <ele>447.2</ele>
        <time>2015-11-05T10:57:55Z</time>
      </trkpt>
      <trkpt lat="46.00977" lon="4.48545">
        <ele>446.9</ele>
        <time>2015-11-05T10:57:57Z</time>
      </trkpt>
      <trkpt lat="46.00988" lon="4.4854">
        <ele>446.8</ele>
        <time>2015-11-05T10:57:59Z</time>
      </trkpt>
      <trkpt lat="46.01001" lon="4.48533">
        <ele>446.7</ele>
        <time>2015-11-05T10:58:01Z</time>
      </trkpt>
      <trkpt lat="46.01013" lon="4.48528">
        <ele>446.7</ele>
        <time>2015-11-05T10:58:03Z</time>
      </trkpt>
      <trkpt lat="46.01024" lon="4.48522">
        <ele>446.7</ele>
        <time>2015-11-05T10:58:05Z</time>
      </trkpt>
      <trkpt lat="46.01035" lon="4.48515">
        <ele>446.5</ele>
        <time>2015-11-05T10:58:07Z</time>
      </trkpt>
      <trkpt lat="46.01045" lon="4.48507">
        <ele>446.4</ele>
        <time>2015-11-05T10:58:09Z</time>
      </trkpt>
      <trkpt lat="46.01053" lon="4.48501">
        <ele>446.3</ele>
        <time>2015-11-05T10:58:11Z</time>
      </trkpt>
      <trkpt lat="46.01064" lon="4.48492">
        <ele>446.3</ele>
        <time>2015-11-05T10:58:14Z</time>
      </trkpt>
      <trkpt lat="46.01075" lon="4.4848">
        <ele>446.3</ele>
        <time>2015-11-05T10:58:15Z</time>
      </trkpt>
      <trkpt lat="46.01084" lon="4.48467">
        <ele>446.5</ele>
        <time>2015-11-05T10:58:17Z</time>
      </trkpt>
      <trkpt lat="46.01092" lon="4.48454">
        <ele>446.7</ele>
        <time>2015-11-05T10:58:19Z</time>
      </trkpt>
      <trkpt lat="46.011" lon="4.4844">
        <ele>447</ele>
        <time>2015-11-05T10:58:22Z</time>
      </trkpt>
      <trkpt lat="46.01106" lon="4.48431">
        <ele>447.3</ele>
        <time>2015-11-05T10:58:23Z</time>
      </trkpt>
      <trkpt lat="46.01113" lon="4.48419">
        <ele>447.7</ele>
        <time>2015-11-05T10:58:25Z</time>
      </trkpt>
      <trkpt lat="46.01119" lon="4.48405">
        <ele>448.4</ele>
        <time>2015-11-05T10:58:28Z</time>
      </trkpt>
      <trkpt lat="46.01124" lon="4.48396">
        <ele>449.2</ele>
        <time>2015-11-05T10:58:30Z</time>
      </trkpt>
      <trkpt lat="46.0113" lon="4.48384">
        <ele>450</ele>
        <time>2015-11-05T10:58:32Z</time>
      </trkpt>
      <trkpt lat="46.01136" lon="4.48371">
        <ele>450.8</ele>
        <time>2015-11-05T10:58:35Z</time>
      </trkpt>
      <trkpt lat="46.01141" lon="4.48359">
        <ele>451.6</ele>
        <time>2015-11-05T10:58:37Z</time>
      </trkpt>
      <trkpt lat="46.01148" lon="4.48347">
        <ele>452.2</ele>
        <time>2015-11-05T10:58:39Z</time>
      </trkpt>
      <trkpt lat="46.01153" lon="4.48336">
        <ele>452.8</ele>
        <time>2015-11-05T10:58:41Z</time>
      </trkpt>
      <trkpt lat="46.0116" lon="4.48327">
        <ele>453.6</ele>
        <time>2015-11-05T10:58:44Z</time>
      </trkpt>
      <trkpt lat="46.01162" lon="4.48313">
        <ele>454.4</ele>
        <time>2015-11-05T10:58:48Z</time>
      </trkpt>
      <trkpt lat="46.01164" lon="4.483">
        <ele>455.2</ele>
        <time>2015-11-05T10:58:51Z</time>
      </trkpt>
      <trkpt lat="46.01169" lon="4.48289">
        <ele>456</ele>
        <time>2015-11-05T10:58:53Z</time>
      </trkpt>
      <trkpt lat="46.01169" lon="4.48274">
        <ele>456.7</ele>
        <time>2015-11-05T10:58:57Z</time>
      </trkpt>
      <trkpt lat="46.01171" lon="4.48262">
        <ele>457.3</ele>
        <time>2015-11-05T10:59:00Z</time>
      </trkpt>
      <trkpt lat="46.0117" lon="4.48249">
        <ele>458.1</ele>
        <time>2015-11-05T10:59:04Z</time>
      </trkpt>
      <trkpt lat="46.01169" lon="4.48236">
        <ele>458.3</ele>
        <time>2015-11-05T10:59:08Z</time>
      </trkpt>
      <trkpt lat="46.01169" lon="4.48224">
        <ele>458.4</ele>
        <time>2015-11-05T10:59:10Z</time>
      </trkpt>
      <trkpt lat="46.01169" lon="4.48211">
        <ele>458.7</ele>
        <time>2015-11-05T10:59:12Z</time>
      </trkpt>
      <trkpt lat="46.01169" lon="4.482">
        <ele>458.7</ele>
        <time>2015-11-05T10:59:14Z</time>
      </trkpt>
      <trkpt lat="46.01171" lon="4.48183">
        <ele>458.7</ele>
        <time>2015-11-05T10:59:18Z</time>
      </trkpt>
      <trkpt lat="46.01172" lon="4.48168">
        <ele>458.6</ele>
        <time>2015-11-05T10:59:20Z</time>
      </trkpt>
      <trkpt lat="46.0117" lon="4.48156">
        <ele>458.3</ele>
        <time>2015-11-05T10:59:23Z</time>
      </trkpt>
      <trkpt lat="46.01174" lon="4.48139">
        <ele>457.8</ele>
        <time>2015-11-05T10:59:26Z</time>
      </trkpt>
      <trkpt lat="46.0118" lon="4.48127">
        <ele>457.3</ele>
        <time>2015-11-05T10:59:28Z</time>
      </trkpt>
      <trkpt lat="46.01185" lon="4.48117">
        <ele>456.8</ele>
        <time>2015-11-05T10:59:30Z</time>
      </trkpt>
      <trkpt lat="46.01192" lon="4.48109">
        <ele>456.1</ele>
        <time>2015-11-05T10:59:33Z</time>
      </trkpt>
      <trkpt lat="46.01202" lon="4.48107">
        <ele>456</ele>
        <time>2015-11-05T10:59:36Z</time>
      </trkpt>
      <trkpt lat="46.01211" lon="4.48108">
        <ele>456</ele>
        <time>2015-11-05T10:59:39Z</time>
      </trkpt>
      <trkpt lat="46.0122" lon="4.48111">
        <ele>456</ele>
        <time>2015-11-05T10:59:42Z</time>
      </trkpt>
      <trkpt lat="46.01228" lon="4.48114">
        <ele>456.2</ele>
        <time>2015-11-05T10:59:45Z</time>
      </trkpt>
      <trkpt lat="46.01237" lon="4.48118">
        <ele>456.4</ele>
        <time>2015-11-05T10:59:48Z</time>
      </trkpt>
      <trkpt lat="46.01245" lon="4.48124">
        <ele>456.7</ele>
        <time>2015-11-05T10:59:51Z</time>
      </trkpt>
      <trkpt lat="46.01252" lon="4.48129">
        <ele>457.3</ele>
        <time>2015-11-05T10:59:55Z</time>
      </trkpt>
      <trkpt lat="46.01262" lon="4.48132">
        <ele>458.1</ele>
        <time>2015-11-05T10:59:59Z</time>
      </trkpt>
      <trkpt lat="46.0127" lon="4.48134">
        <ele>458.8</ele>
        <time>2015-11-05T11:00:03Z</time>
      </trkpt>
      <trkpt lat="46.01279" lon="4.48136">
        <ele>459.3</ele>
        <time>2015-11-05T11:00:08Z</time>
      </trkpt>
      <trkpt lat="46.01283" lon="4.48147">
        <ele>459.8</ele>
        <time>2015-11-05T11:00:15Z</time>
      </trkpt>
      <trkpt lat="46.01283" lon="4.4816">
        <ele>460.2</ele>
        <time>2015-11-05T11:00:19Z</time>
      </trkpt>
      <trkpt lat="46.01285" lon="4.48173">
        <ele>460.3</ele>
        <time>2015-11-05T11:00:21Z</time>
      </trkpt>
      <trkpt lat="46.0129" lon="4.4819">
        <ele>460.2</ele>
        <time>2015-11-05T11:00:23Z</time>
      </trkpt>
      <trkpt lat="46.01296" lon="4.48204">
        <ele>459.9</ele>
        <time>2015-11-05T11:00:25Z</time>
      </trkpt>
      <trkpt lat="46.01301" lon="4.48219">
        <ele>459.3</ele>
        <time>2015-11-05T11:00:27Z</time>
      </trkpt>
      <trkpt lat="46.01308" lon="4.48234">
        <ele>458.4</ele>
        <time>2015-11-05T11:00:29Z</time>
      </trkpt>
      <trkpt lat="46.01315" lon="4.48253">
        <ele>457.2</ele>
        <time>2015-11-05T11:00:31Z</time>
      </trkpt>
      <trkpt lat="46.01323" lon="4.48272">
        <ele>456.2</ele>
        <time>2015-11-05T11:00:33Z</time>
      </trkpt>
      <trkpt lat="46.01328" lon="4.48289">
        <ele>455.1</ele>
        <time>2015-11-05T11:00:35Z</time>
      </trkpt>
      <trkpt lat="46.01334" lon="4.48305">
        <ele>454.4</ele>
        <time>2015-11-05T11:00:37Z</time>
      </trkpt>
      <trkpt lat="46.0134" lon="4.48319">
        <ele>454</ele>
        <time>2015-11-05T11:00:39Z</time>
      </trkpt>
      <trkpt lat="46.01344" lon="4.48334">
        <ele>454.1</ele>
        <time>2015-11-05T11:00:41Z</time>
      </trkpt>
      <trkpt lat="46.01348" lon="4.4835">
        <ele>454.4</ele>
        <time>2015-11-05T11:00:43Z</time>
      </trkpt>
      <trkpt lat="46.0135" lon="4.48363">
        <ele>454.9</ele>
        <time>2015-11-05T11:00:45Z</time>
      </trkpt>
      <trkpt lat="46.01352" lon="4.48377">
        <ele>455.7</ele>
        <time>2015-11-05T11:00:48Z</time>
      </trkpt>
      <trkpt lat="46.01355" lon="4.48388">
        <ele>457.1</ele>
        <time>2015-11-05T11:00:51Z</time>
      </trkpt>
      <trkpt lat="46.0136" lon="4.484">
        <ele>458.5</ele>
        <time>2015-11-05T11:00:55Z</time>
      </trkpt>
      <trkpt lat="46.01363" lon="4.48413">
        <ele>460</ele>
        <time>2015-11-05T11:00:59Z</time>
      </trkpt>
      <trkpt lat="46.01367" lon="4.48426">
        <ele>461.4</ele>
        <time>2015-11-05T11:01:03Z</time>
      </trkpt>
      <trkpt lat="46.01365" lon="4.4844">
        <ele>462.4</ele>
        <time>2015-11-05T11:01:08Z</time>
      </trkpt>
      <trkpt lat="46.01361" lon="4.48452">
        <ele>463.2</ele>
        <time>2015-11-05T11:01:13Z</time>
      </trkpt>
      <trkpt lat="46.01357" lon="4.48464">
        <ele>463.8</ele>
        <time>2015-11-05T11:01:18Z</time>
      </trkpt>
      <trkpt lat="46.0135" lon="4.48472">
        <ele>464</ele>
        <time>2015-11-05T11:01:23Z</time>
      </trkpt>
      <trkpt lat="46.01344" lon="4.4848">
        <ele>464.1</ele>
        <time>2015-11-05T11:01:26Z</time>
      </trkpt>
      <trkpt lat="46.01335" lon="4.48487">
        <ele>464.2</ele>
        <time>2015-11-05T11:01:30Z</time>
      </trkpt>
      <trkpt lat="46.01327" lon="4.48495">
        <ele>464.1</ele>
        <time>2015-11-05T11:01:34Z</time>
      </trkpt>
      <trkpt lat="46.01319" lon="4.48505">
        <ele>463.6</ele>
        <time>2015-11-05T11:01:38Z</time>
      </trkpt>
      <trkpt lat="46.01313" lon="4.48514">
        <ele>463.2</ele>
        <time>2015-11-05T11:01:41Z</time>
      </trkpt>
      <trkpt lat="46.01306" lon="4.48522">
        <ele>462.7</ele>
        <time>2015-11-05T11:01:44Z</time>
      </trkpt>
      <trkpt lat="46.01299" lon="4.48531">
        <ele>462.4</ele>
        <time>2015-11-05T11:01:47Z</time>
      </trkpt>
      <trkpt lat="46.01291" lon="4.48543">
        <ele>462.4</ele>
        <time>2015-11-05T11:01:50Z</time>
      </trkpt>
      <trkpt lat="46.01285" lon="4.48551">
        <ele>462.4</ele>
        <time>2015-11-05T11:01:52Z</time>
      </trkpt>
      <trkpt lat="46.01278" lon="4.48562">
        <ele>462.5</ele>
        <time>2015-11-05T11:01:54Z</time>
      </trkpt>
      <trkpt lat="46.01272" lon="4.48575">
        <ele>462.6</ele>
        <time>2015-11-05T11:01:56Z</time>
      </trkpt>
      <trkpt lat="46.01266" lon="4.48587">
        <ele>462.7</ele>
        <time>2015-11-05T11:01:58Z</time>
      </trkpt>
      <trkpt lat="46.01259" lon="4.48602">
        <ele>462.7</ele>
        <time>2015-11-05T11:02:00Z</time>
      </trkpt>
      <trkpt lat="46.01253" lon="4.48617">
        <ele>462.7</ele>
        <time>2015-11-05T11:02:02Z</time>
      </trkpt>
      <trkpt lat="46.01248" lon="4.48634">
        <ele>462.5</ele>
        <time>2015-11-05T11:02:04Z</time>
      </trkpt>
      <trkpt lat="46.01245" lon="4.48651">
        <ele>462.4</ele>
        <time>2015-11-05T11:02:06Z</time>
      </trkpt>
      <trkpt lat="46.01242" lon="4.48666">
        <ele>462</ele>
        <time>2015-11-05T11:02:08Z</time>
      </trkpt>
      <trkpt lat="46.0124" lon="4.48679">
        <ele>461.4</ele>
        <time>2015-11-05T11:02:10Z</time>
      </trkpt>
      <trkpt lat="46.01236" lon="4.48692">
        <ele>460.8</ele>
        <time>2015-11-05T11:02:12Z</time>
      </trkpt>
      <trkpt lat="46.01233" lon="4.48708">
        <ele>460.1</ele>
        <time>2015-11-05T11:02:14Z</time>
      </trkpt>
      <trkpt lat="46.01229" lon="4.48726">
        <ele>459.5</ele>
        <time>2015-11-05T11:02:16Z</time>
      </trkpt>
      <trkpt lat="46.01225" lon="4.48745">
        <ele>458.9</ele>
        <time>2015-11-05T11:02:18Z</time>
      </trkpt>
      <trkpt lat="46.0122" lon="4.48765">
        <ele>458.4</ele>
        <time>2015-11-05T11:02:20Z</time>
      </trkpt>
      <trkpt lat="46.01216" lon="4.48788">
        <ele>458</ele>
        <time>2015-11-05T11:02:22Z</time>
      </trkpt>
      <trkpt lat="46.01214" lon="4.48811">
        <ele>457.7</ele>
        <time>2015-11-05T11:02:24Z</time>
      </trkpt>
      <trkpt lat="46.01213" lon="4.48823">
        <ele>457.4</ele>
        <time>2015-11-05T11:02:25Z</time>
      </trkpt>
      <trkpt lat="46.01213" lon="4.4885">
        <ele>457</ele>
        <time>2015-11-05T11:02:28Z</time>
      </trkpt>
      <trkpt lat="46.01211" lon="4.48863">
        <ele>456.7</ele>
        <time>2015-11-05T11:02:28Z</time>
      </trkpt>
      <trkpt lat="46.01207" lon="4.48882">
        <ele>456.4</ele>
        <time>2015-11-05T11:02:30Z</time>
      </trkpt>
      <trkpt lat="46.01203" lon="4.48901">
        <ele>456.1</ele>
        <time>2015-11-05T11:02:32Z</time>
      </trkpt>
      <trkpt lat="46.01202" lon="4.48913">
        <ele>455.7</ele>
        <time>2015-11-05T11:02:33Z</time>
      </trkpt>
      <trkpt lat="46.012" lon="4.48933">
        <ele>455.2</ele>
        <time>2015-11-05T11:02:35Z</time>
      </trkpt>
      <trkpt lat="46.01203" lon="4.48952">
        <ele>454.6</ele>
        <time>2015-11-05T11:02:37Z</time>
      </trkpt>
      <trkpt lat="46.01206" lon="4.48962">
        <ele>453.8</ele>
        <time>2015-11-05T11:02:38Z</time>
      </trkpt>
      <trkpt lat="46.0121" lon="4.48974">
        <ele>453</ele>
        <time>2015-11-05T11:02:39Z</time>
      </trkpt>
      <trkpt lat="46.01215" lon="4.48986">
        <ele>452</ele>
        <time>2015-11-05T11:02:40Z</time>
      </trkpt>
      <trkpt lat="46.0122" lon="4.48997">
        <ele>451.2</ele>
        <time>2015-11-05T11:02:42Z</time>
      </trkpt>
      <trkpt lat="46.01225" lon="4.49009">
        <ele>450.5</ele>
        <time>2015-11-05T11:02:42Z</time>
      </trkpt>
      <trkpt lat="46.0123" lon="4.49018">
        <ele>450</ele>
        <time>2015-11-05T11:02:43Z</time>
      </trkpt>
      <trkpt lat="46.01235" lon="4.49029">
        <ele>449.5</ele>
        <time>2015-11-05T11:02:45Z</time>
      </trkpt>
      <trkpt lat="46.01243" lon="4.49047">
        <ele>448.9</ele>
        <time>2015-11-05T11:02:47Z</time>
      </trkpt>
      <trkpt lat="46.01249" lon="4.49062">
        <ele>448.2</ele>
        <time>2015-11-05T11:02:48Z</time>
      </trkpt>
      <trkpt lat="46.01254" lon="4.49072">
        <ele>447.6</ele>
        <time>2015-11-05T11:02:50Z</time>
      </trkpt>
      <trkpt lat="46.01259" lon="4.49083">
        <ele>446.9</ele>
        <time>2015-11-05T11:02:52Z</time>
      </trkpt>
      <trkpt lat="46.01265" lon="4.49096">
        <ele>446.1</ele>
        <time>2015-11-05T11:02:54Z</time>
      </trkpt>
      <trkpt lat="46.01272" lon="4.49112">
        <ele>445.2</ele>
        <time>2015-11-05T11:02:56Z</time>
      </trkpt>
      <trkpt lat="46.01279" lon="4.49131">
        <ele>444.2</ele>
        <time>2015-11-05T11:02:58Z</time>
      </trkpt>
      <trkpt lat="46.01285" lon="4.49148">
        <ele>443.1</ele>
        <time>2015-11-05T11:03:00Z</time>
      </trkpt>
      <trkpt lat="46.01294" lon="4.49167">
        <ele>442</ele>
        <time>2015-11-05T11:03:02Z</time>
      </trkpt>
      <trkpt lat="46.01304" lon="4.49181">
        <ele>440.7</ele>
        <time>2015-11-05T11:03:04Z</time>
      </trkpt>
      <trkpt lat="46.01311" lon="4.49189">
        <ele>439.4</ele>
        <time>2015-11-05T11:03:05Z</time>
      </trkpt>
      <trkpt lat="46.0132" lon="4.49196">
        <ele>438.2</ele>
        <time>2015-11-05T11:03:06Z</time>
      </trkpt>
      <trkpt lat="46.01329" lon="4.49205">
        <ele>436.9</ele>
        <time>2015-11-05T11:03:07Z</time>
      </trkpt>
      <trkpt lat="46.01337" lon="4.49211">
        <ele>435.6</ele>
        <time>2015-11-05T11:03:08Z</time>
      </trkpt>
      <trkpt lat="46.01346" lon="4.49221">
        <ele>434.3</ele>
        <time>2015-11-05T11:03:09Z</time>
      </trkpt>
      <trkpt lat="46.01359" lon="4.49227">
        <ele>433.1</ele>
        <time>2015-11-05T11:03:10Z</time>
      </trkpt>
      <trkpt lat="46.01369" lon="4.49231">
        <ele>431.9</ele>
        <time>2015-11-05T11:03:11Z</time>
      </trkpt>
      <trkpt lat="46.0138" lon="4.49237">
        <ele>430.7</ele>
        <time>2015-11-05T11:03:12Z</time>
      </trkpt>
      <trkpt lat="46.01392" lon="4.49244">
        <ele>429.5</ele>
        <time>2015-11-05T11:03:13Z</time>
      </trkpt>
      <trkpt lat="46.01402" lon="4.49253">
        <ele>428.2</ele>
        <time>2015-11-05T11:03:14Z</time>
      </trkpt>
      <trkpt lat="46.01414" lon="4.49262">
        <ele>427</ele>
        <time>2015-11-05T11:03:15Z</time>
      </trkpt>
      <trkpt lat="46.01423" lon="4.49269">
        <ele>425.7</ele>
        <time>2015-11-05T11:03:16Z</time>
      </trkpt>
      <trkpt lat="46.01432" lon="4.49277">
        <ele>424.5</ele>
        <time>2015-11-05T11:03:17Z</time>
      </trkpt>
      <trkpt lat="46.01444" lon="4.49287">
        <ele>423.3</ele>
        <time>2015-11-05T11:03:18Z</time>
      </trkpt>
      <trkpt lat="46.01454" lon="4.49297">
        <ele>422.4</ele>
        <time>2015-11-05T11:03:19Z</time>
      </trkpt>
      <trkpt lat="46.01464" lon="4.49305">
        <ele>421.5</ele>
        <time>2015-11-05T11:03:20Z</time>
      </trkpt>
      <trkpt lat="46.01473" lon="4.49314">
        <ele>420.7</ele>
        <time>2015-11-05T11:03:21Z</time>
      </trkpt>
      <trkpt lat="46.01483" lon="4.49324">
        <ele>419.8</ele>
        <time>2015-11-05T11:03:22Z</time>
      </trkpt>
      <trkpt lat="46.01493" lon="4.49333">
        <ele>418.9</ele>
        <time>2015-11-05T11:03:23Z</time>
      </trkpt>
      <trkpt lat="46.01502" lon="4.49339">
        <ele>418</ele>
        <time>2015-11-05T11:03:24Z</time>
      </trkpt>
      <trkpt lat="46.01512" lon="4.4935">
        <ele>417.2</ele>
        <time>2015-11-05T11:03:25Z</time>
      </trkpt>
      <trkpt lat="46.01523" lon="4.49361">
        <ele>416.4</ele>
        <time>2015-11-05T11:03:26Z</time>
      </trkpt>
      <trkpt lat="46.01534" lon="4.49371">
        <ele>415.6</ele>
        <time>2015-11-05T11:03:27Z</time>
      </trkpt>
      <trkpt lat="46.01543" lon="4.4938">
        <ele>414.9</ele>
        <time>2015-11-05T11:03:28Z</time>
      </trkpt>
      <trkpt lat="46.01552" lon="4.49389">
        <ele>414.2</ele>
        <time>2015-11-05T11:03:29Z</time>
      </trkpt>
      <trkpt lat="46.01562" lon="4.49397">
        <ele>413.3</ele>
        <time>2015-11-05T11:03:30Z</time>
      </trkpt>
      <trkpt lat="46.01571" lon="4.49405">
        <ele>412.3</ele>
        <time>2015-11-05T11:03:31Z</time>
      </trkpt>
      <trkpt lat="46.0158" lon="4.49412">
        <ele>411.3</ele>
        <time>2015-11-05T11:03:32Z</time>
      </trkpt>
      <trkpt lat="46.01587" lon="4.49419">
        <ele>410.4</ele>
        <time>2015-11-05T11:03:33Z</time>
      </trkpt>
      <trkpt lat="46.01596" lon="4.49426">
        <ele>409.6</ele>
        <time>2015-11-05T11:03:34Z</time>
      </trkpt>
      <trkpt lat="46.01605" lon="4.49432">
        <ele>408.8</ele>
        <time>2015-11-05T11:03:35Z</time>
      </trkpt>
      <trkpt lat="46.01613" lon="4.49438">
        <ele>408.1</ele>
        <time>2015-11-05T11:03:36Z</time>
      </trkpt>
      <trkpt lat="46.01621" lon="4.49444">
        <ele>407.3</ele>
        <time>2015-11-05T11:03:37Z</time>
      </trkpt>
      <trkpt lat="46.01631" lon="4.49451">
        <ele>406.5</ele>
        <time>2015-11-05T11:03:39Z</time>
      </trkpt>
      <trkpt lat="46.01638" lon="4.49455">
        <ele>405.6</ele>
        <time>2015-11-05T11:03:39Z</time>
      </trkpt>
      <trkpt lat="46.01647" lon="4.49459">
        <ele>404.7</ele>
        <time>2015-11-05T11:03:41Z</time>
      </trkpt>
      <trkpt lat="46.01656" lon="4.49463">
        <ele>403.8</ele>
        <time>2015-11-05T11:03:41Z</time>
      </trkpt>
      <trkpt lat="46.01664" lon="4.49467">
        <ele>403.1</ele>
        <time>2015-11-05T11:03:43Z</time>
      </trkpt>
      <trkpt lat="46.01672" lon="4.4947">
        <ele>402.4</ele>
        <time>2015-11-05T11:03:43Z</time>
      </trkpt>
      <trkpt lat="46.01686" lon="4.49474">
        <ele>401.8</ele>
        <time>2015-11-05T11:03:46Z</time>
      </trkpt>
      <trkpt lat="46.01696" lon="4.49477">
        <ele>401.1</ele>
        <time>2015-11-05T11:03:48Z</time>
      </trkpt>
      <trkpt lat="46.01703" lon="4.49486">
        <ele>400.5</ele>
        <time>2015-11-05T11:03:49Z</time>
      </trkpt>
      <trkpt lat="46.01706" lon="4.49501">
        <ele>399.8</ele>
        <time>2015-11-05T11:03:51Z</time>
      </trkpt>
      <trkpt lat="46.01706" lon="4.49515">
        <ele>399.2</ele>
        <time>2015-11-05T11:03:53Z</time>
      </trkpt>
      <trkpt lat="46.01711" lon="4.49529">
        <ele>398.7</ele>
        <time>2015-11-05T11:03:55Z</time>
      </trkpt>
      <trkpt lat="46.01719" lon="4.49535">
        <ele>398.2</ele>
        <time>2015-11-05T11:03:57Z</time>
      </trkpt>
      <trkpt lat="46.01728" lon="4.49539">
        <ele>397.9</ele>
        <time>2015-11-05T11:04:00Z</time>
      </trkpt>
      <trkpt lat="46.01738" lon="4.49544">
        <ele>397.6</ele>
        <time>2015-11-05T11:04:01Z</time>
      </trkpt>
      <trkpt lat="46.01748" lon="4.49549">
        <ele>397.4</ele>
        <time>2015-11-05T11:04:03Z</time>
      </trkpt>
      <trkpt lat="46.01758" lon="4.49555">
        <ele>397.1</ele>
        <time>2015-11-05T11:04:05Z</time>
      </trkpt>
      <trkpt lat="46.01768" lon="4.49563">
        <ele>396.8</ele>
        <time>2015-11-05T11:04:07Z</time>
      </trkpt>
      <trkpt lat="46.01777" lon="4.49569">
        <ele>396.5</ele>
        <time>2015-11-05T11:04:09Z</time>
      </trkpt>
      <trkpt lat="46.01785" lon="4.49575">
        <ele>396.3</ele>
        <time>2015-11-05T11:04:11Z</time>
      </trkpt>
      <trkpt lat="46.01792" lon="4.49582">
        <ele>396.1</ele>
        <time>2015-11-05T11:04:13Z</time>
      </trkpt>
      <trkpt lat="46.018" lon="4.49588">
        <ele>396</ele>
        <time>2015-11-05T11:04:15Z</time>
      </trkpt>
      <trkpt lat="46.01808" lon="4.49595">
        <ele>395.8</ele>
        <time>2015-11-05T11:04:17Z</time>
      </trkpt>
      <trkpt lat="46.01816" lon="4.49603">
        <ele>395.7</ele>
        <time>2015-11-05T11:04:19Z</time>
      </trkpt>
      <trkpt lat="46.01825" lon="4.49612">
        <ele>395.5</ele>
        <time>2015-11-05T11:04:21Z</time>
      </trkpt>
      <trkpt lat="46.01833" lon="4.49621">
        <ele>395.3</ele>
        <time>2015-11-05T11:04:23Z</time>
      </trkpt>
      <trkpt lat="46.01841" lon="4.4963">
        <ele>395</ele>
        <time>2015-11-05T11:04:25Z</time>
      </trkpt>
      <trkpt lat="46.0185" lon="4.49639">
        <ele>394.6</ele>
        <time>2015-11-05T11:04:27Z</time>
      </trkpt>
      <trkpt lat="46.01859" lon="4.49648">
        <ele>394.2</ele>
        <time>2015-11-05T11:04:29Z</time>
      </trkpt>
      <trkpt lat="46.01868" lon="4.49657">
        <ele>393.7</ele>
        <time>2015-11-05T11:04:31Z</time>
      </trkpt>
      <trkpt lat="46.01878" lon="4.49667">
        <ele>393.3</ele>
        <time>2015-11-05T11:04:33Z</time>
      </trkpt>
      <trkpt lat="46.01889" lon="4.49677">
        <ele>392.7</ele>
        <time>2015-11-05T11:04:35Z</time>
      </trkpt>
      <trkpt lat="46.019" lon="4.49685">
        <ele>392.3</ele>
        <time>2015-11-05T11:04:37Z</time>
      </trkpt>
      <trkpt lat="46.01908" lon="4.49694">
        <ele>392</ele>
        <time>2015-11-05T11:04:39Z</time>
      </trkpt>
      <trkpt lat="46.01914" lon="4.49709">
        <ele>391.7</ele>
        <time>2015-11-05T11:04:41Z</time>
      </trkpt>
      <trkpt lat="46.0191" lon="4.49725">
        <ele>391.5</ele>
        <time>2015-11-05T11:04:43Z</time>
      </trkpt>
      <trkpt lat="46.01904" lon="4.49741">
        <ele>391.4</ele>
        <time>2015-11-05T11:04:45Z</time>
      </trkpt>
      <trkpt lat="46.01894" lon="4.49755">
        <ele>391.4</ele>
        <time>2015-11-05T11:04:47Z</time>
      </trkpt>
      <trkpt lat="46.01885" lon="4.49762">
        <ele>391.4</ele>
        <time>2015-11-05T11:04:49Z</time>
      </trkpt>
      <trkpt lat="46.01877" lon="4.49773">
        <ele>391.7</ele>
        <time>2015-11-05T11:04:51Z</time>
      </trkpt>
      <trkpt lat="46.01869" lon="4.49784">
        <ele>392.1</ele>
        <time>2015-11-05T11:04:54Z</time>
      </trkpt>
      <trkpt lat="46.01864" lon="4.49794">
        <ele>392.5</ele>
        <time>2015-11-05T11:04:55Z</time>
      </trkpt>
      <trkpt lat="46.01859" lon="4.49803">
        <ele>393.5</ele>
        <time>2015-11-05T11:04:57Z</time>
      </trkpt>
      <trkpt lat="46.01854" lon="4.49816">
        <ele>394.9</ele>
        <time>2015-11-05T11:05:00Z</time>
      </trkpt>
      <trkpt lat="46.0185" lon="4.4983">
        <ele>396.4</ele>
        <time>2015-11-05T11:05:03Z</time>
      </trkpt>
      <trkpt lat="46.01846" lon="4.49842">
        <ele>398.1</ele>
        <time>2015-11-05T11:05:06Z</time>
      </trkpt>
      <trkpt lat="46.01843" lon="4.49854">
        <ele>399.7</ele>
        <time>2015-11-05T11:05:09Z</time>
      </trkpt>
      <trkpt lat="46.01841" lon="4.49867">
        <ele>401.4</ele>
        <time>2015-11-05T11:05:13Z</time>
      </trkpt>
      <trkpt lat="46.01837" lon="4.49879">
        <ele>403.1</ele>
        <time>2015-11-05T11:05:19Z</time>
      </trkpt>
      <trkpt lat="46.01828" lon="4.49878">
        <ele>404.7</ele>
        <time>2015-11-05T11:05:23Z</time>
      </trkpt>
      <trkpt lat="46.01822" lon="4.49869">
        <ele>405.8</ele>
        <time>2015-11-05T11:05:27Z</time>
      </trkpt>
      <trkpt lat="46.01813" lon="4.49861">
        <ele>406.7</ele>
        <time>2015-11-05T11:05:30Z</time>
      </trkpt>
      <trkpt lat="46.01803" lon="4.49853">
        <ele>407.2</ele>
        <time>2015-11-05T11:05:33Z</time>
      </trkpt>
      <trkpt lat="46.01793" lon="4.49844">
        <ele>407.4</ele>
        <time>2015-11-05T11:05:36Z</time>
      </trkpt>
      <trkpt lat="46.01783" lon="4.49834">
        <ele>407</ele>
        <time>2015-11-05T11:05:39Z</time>
      </trkpt>
      <trkpt lat="46.01775" lon="4.49838">
        <ele>406.4</ele>
        <time>2015-11-05T11:05:42Z</time>
      </trkpt>
      <trkpt lat="46.0178" lon="4.49849">
        <ele>405.6</ele>
        <time>2015-11-05T11:05:45Z</time>
      </trkpt>
      <trkpt lat="46.0179" lon="4.49857">
        <ele>404.7</ele>
        <time>2015-11-05T11:05:48Z</time>
      </trkpt>
      <trkpt lat="46.01801" lon="4.49864">
        <ele>403.7</ele>
        <time>2015-11-05T11:05:51Z</time>
      </trkpt>
      <trkpt lat="46.01811" lon="4.49873">
        <ele>402.6</ele>
        <time>2015-11-05T11:05:54Z</time>
      </trkpt>
      <trkpt lat="46.01821" lon="4.49883">
        <ele>401.7</ele>
        <time>2015-11-05T11:05:57Z</time>
      </trkpt>
      <trkpt lat="46.0183" lon="4.49891">
        <ele>401.1</ele>
        <time>2015-11-05T11:06:00Z</time>
      </trkpt>
      <trkpt lat="46.01839" lon="4.49899">
        <ele>400.8</ele>
        <time>2015-11-05T11:06:03Z</time>
      </trkpt>
      <trkpt lat="46.01849" lon="4.49907">
        <ele>400.6</ele>
        <time>2015-11-05T11:06:06Z</time>
      </trkpt>
      <trkpt lat="46.01859" lon="4.49914">
        <ele>400.3</ele>
        <time>2015-11-05T11:06:09Z</time>
      </trkpt>
      <trkpt lat="46.0187" lon="4.49918">
        <ele>400.1</ele>
        <time>2015-11-05T11:06:12Z</time>
      </trkpt>
      <trkpt lat="46.0188" lon="4.49922">
        <ele>400</ele>
        <time>2015-11-05T11:06:15Z</time>
      </trkpt>
      <trkpt lat="46.01891" lon="4.49926">
        <ele>399.8</ele>
        <time>2015-11-05T11:06:18Z</time>
      </trkpt>
      <trkpt lat="46.01901" lon="4.4993">
        <ele>399.8</ele>
        <time>2015-11-05T11:06:21Z</time>
      </trkpt>
      <trkpt lat="46.01911" lon="4.49934">
        <ele>400.1</ele>
        <time>2015-11-05T11:06:24Z</time>
      </trkpt>
      <trkpt lat="46.01921" lon="4.49938">
        <ele>400.6</ele>
        <time>2015-11-05T11:06:27Z</time>
      </trkpt>
      <trkpt lat="46.0193" lon="4.49941">
        <ele>401</ele>
        <time>2015-11-05T11:06:30Z</time>
      </trkpt>
      <trkpt lat="46.01941" lon="4.49945">
        <ele>401.5</ele>
        <time>2015-11-05T11:06:33Z</time>
      </trkpt>
      <trkpt lat="46.01951" lon="4.4995">
        <ele>401.6</ele>
        <time>2015-11-05T11:06:36Z</time>
      </trkpt>
      <trkpt lat="46.01961" lon="4.49952">
        <ele>402</ele>
        <time>2015-11-05T11:06:39Z</time>
      </trkpt>
      <trkpt lat="46.01971" lon="4.49954">
        <ele>402.7</ele>
        <time>2015-11-05T11:06:42Z</time>
      </trkpt>
      <trkpt lat="46.0198" lon="4.4996">
        <ele>403.3</ele>
        <time>2015-11-05T11:06:46Z</time>
      </trkpt>
      <trkpt lat="46.01987" lon="4.49953">
        <ele>404.1</ele>
        <time>2015-11-05T11:08:09Z</time>
      </trkpt>
      <trkpt lat="46.01987" lon="4.49965">
        <ele>405.1</ele>
        <time>2015-11-05T11:11:34Z</time>
      </trkpt>
      <trkpt lat="46.01993" lon="4.49976">
        <ele>406.1</ele>
        <time>2015-11-05T11:11:41Z</time>
      </trkpt>
      <trkpt lat="46.01998" lon="4.49985">
        <ele>406.8</ele>
        <time>2015-11-05T11:11:46Z</time>
      </trkpt>
      <trkpt lat="46.02003" lon="4.49994">
        <ele>407.5</ele>
        <time>2015-11-05T11:11:51Z</time>
      </trkpt>
      <trkpt lat="46.0201" lon="4.50003">
        <ele>408.7</ele>
        <time>2015-11-05T11:11:56Z</time>
      </trkpt>
      <trkpt lat="46.02016" lon="4.50013">
        <ele>410.4</ele>
        <time>2015-11-05T11:12:01Z</time>
      </trkpt>
      <trkpt lat="46.02024" lon="4.50021">
        <ele>412.5</ele>
        <time>2015-11-05T11:12:06Z</time>
      </trkpt>
      <trkpt lat="46.0203" lon="4.5003">
        <ele>414.4</ele>
        <time>2015-11-05T11:12:10Z</time>
      </trkpt>
      <trkpt lat="46.02037" lon="4.50039">
        <ele>416.3</ele>
        <time>2015-11-05T11:12:15Z</time>
      </trkpt>
      <trkpt lat="46.02044" lon="4.50045">
        <ele>418</ele>
        <time>2015-11-05T11:12:22Z</time>
      </trkpt>
      <trkpt lat="46.0205" lon="4.50058">
        <ele>419.8</ele>
        <time>2015-11-05T11:12:33Z</time>
      </trkpt>
      <trkpt lat="46.02056" lon="4.50068">
        <ele>421.3</ele>
        <time>2015-11-05T11:12:40Z</time>
      </trkpt>
      <trkpt lat="46.02062" lon="4.50077">
        <ele>422.6</ele>
        <time>2015-11-05T11:12:44Z</time>
      </trkpt>
      <trkpt lat="46.02069" lon="4.50087">
        <ele>423.9</ele>
        <time>2015-11-05T11:12:49Z</time>
      </trkpt>
      <trkpt lat="46.02074" lon="4.50096">
        <ele>425.1</ele>
        <time>2015-11-05T11:12:54Z</time>
      </trkpt>
      <trkpt lat="46.0208" lon="4.50106">
        <ele>425.7</ele>
        <time>2015-11-05T11:13:00Z</time>
      </trkpt>
      <trkpt lat="46.02084" lon="4.50116">
        <ele>426</ele>
        <time>2015-11-05T11:13:06Z</time>
      </trkpt>
      <trkpt lat="46.02088" lon="4.50129">
        <ele>426.4</ele>
        <time>2015-11-05T11:13:14Z</time>
      </trkpt>
      <trkpt lat="46.02091" lon="4.50141">
        <ele>426.6</ele>
        <time>2015-11-05T11:13:19Z</time>
      </trkpt>
      <trkpt lat="46.02094" lon="4.50153">
        <ele>426.8</ele>
        <time>2015-11-05T11:13:24Z</time>
      </trkpt>
      <trkpt lat="46.02098" lon="4.50165">
        <ele>427.4</ele>
        <time>2015-11-05T11:13:30Z</time>
      </trkpt>
      <trkpt lat="46.021" lon="4.50177">
        <ele>428.1</ele>
        <time>2015-11-05T11:13:36Z</time>
      </trkpt>
      <trkpt lat="46.02104" lon="4.50189">
        <ele>428.9</ele>
        <time>2015-11-05T11:13:42Z</time>
      </trkpt>
      <trkpt lat="46.02106" lon="4.50201">
        <ele>430.1</ele>
        <time>2015-11-05T11:13:49Z</time>
      </trkpt>
      <trkpt lat="46.0211" lon="4.50214">
        <ele>431.5</ele>
        <time>2015-11-05T11:13:55Z</time>
      </trkpt>
      <trkpt lat="46.02112" lon="4.50227">
        <ele>433.1</ele>
        <time>2015-11-05T11:14:01Z</time>
      </trkpt>
      <trkpt lat="46.02111" lon="4.50238">
        <ele>435.1</ele>
        <time>2015-11-05T11:14:08Z</time>
      </trkpt>
      <trkpt lat="46.02106" lon="4.50249">
        <ele>437.3</ele>
        <time>2015-11-05T11:14:15Z</time>
      </trkpt>
      <trkpt lat="46.02098" lon="4.50254">
        <ele>439.5</ele>
        <time>2015-11-05T11:14:22Z</time>
      </trkpt>
      <trkpt lat="46.02091" lon="4.5026">
        <ele>441.7</ele>
        <time>2015-11-05T11:14:30Z</time>
      </trkpt>
      <trkpt lat="46.02085" lon="4.50269">
        <ele>444.1</ele>
        <time>2015-11-05T11:14:37Z</time>
      </trkpt>
      <trkpt lat="46.02079" lon="4.50278">
        <ele>445.6</ele>
        <time>2015-11-05T11:14:43Z</time>
      </trkpt>
      <trkpt lat="46.02075" lon="4.50291">
        <ele>446.8</ele>
        <time>2015-11-05T11:14:49Z</time>
      </trkpt>
      <trkpt lat="46.02069" lon="4.503">
        <ele>447.6</ele>
        <time>2015-11-05T11:14:54Z</time>
      </trkpt>
      <trkpt lat="46.02062" lon="4.50309">
        <ele>448.1</ele>
        <time>2015-11-05T11:14:59Z</time>
      </trkpt>
      <trkpt lat="46.02057" lon="4.50321">
        <ele>448.5</ele>
        <time>2015-11-05T11:15:02Z</time>
      </trkpt>
      <trkpt lat="46.02051" lon="4.50334">
        <ele>448.3</ele>
        <time>2015-11-05T11:15:05Z</time>
      </trkpt>
      <trkpt lat="46.0205" lon="4.5035">
        <ele>448.3</ele>
        <time>2015-11-05T11:15:08Z</time>
      </trkpt>
      <trkpt lat="46.02052" lon="4.50365">
        <ele>448.4</ele>
        <time>2015-11-05T11:15:11Z</time>
      </trkpt>
      <trkpt lat="46.02054" lon="4.50378">
        <ele>448.5</ele>
        <time>2015-11-05T11:15:14Z</time>
      </trkpt>
      <trkpt lat="46.02057" lon="4.50389">
        <ele>448.7</ele>
        <time>2015-11-05T11:15:17Z</time>
      </trkpt>
      <trkpt lat="46.02058" lon="4.50401">
        <ele>449</ele>
        <time>2015-11-05T11:15:20Z</time>
      </trkpt>
      <trkpt lat="46.02056" lon="4.50414">
        <ele>449.8</ele>
        <time>2015-11-05T11:15:25Z</time>
      </trkpt>
      <trkpt lat="46.02054" lon="4.50427">
        <ele>451</ele>
        <time>2015-11-05T11:15:30Z</time>
      </trkpt>
      <trkpt lat="46.02052" lon="4.50439">
        <ele>452.5</ele>
        <time>2015-11-05T11:15:33Z</time>
      </trkpt>
      <trkpt lat="46.02052" lon="4.50452">
        <ele>453.8</ele>
        <time>2015-11-05T11:15:39Z</time>
      </trkpt>
      <trkpt lat="46.02052" lon="4.50464">
        <ele>455.2</ele>
        <time>2015-11-05T11:15:44Z</time>
      </trkpt>
      <trkpt lat="46.02051" lon="4.50478">
        <ele>456.9</ele>
        <time>2015-11-05T11:15:50Z</time>
      </trkpt>
      <trkpt lat="46.02052" lon="4.50489">
        <ele>457.8</ele>
        <time>2015-11-05T11:15:55Z</time>
      </trkpt>
      <trkpt lat="46.02051" lon="4.50502">
        <ele>458.7</ele>
        <time>2015-11-05T11:16:01Z</time>
      </trkpt>
      <trkpt lat="46.02055" lon="4.50514">
        <ele>459.7</ele>
        <time>2015-11-05T11:16:05Z</time>
      </trkpt>
      <trkpt lat="46.02064" lon="4.5052">
        <ele>460.8</ele>
        <time>2015-11-05T11:16:09Z</time>
      </trkpt>
      <trkpt lat="46.02072" lon="4.50521">
        <ele>462</ele>
        <time>2015-11-05T11:16:13Z</time>
      </trkpt>
      <trkpt lat="46.02081" lon="4.5052">
        <ele>463.2</ele>
        <time>2015-11-05T11:16:18Z</time>
      </trkpt>
      <trkpt lat="46.02091" lon="4.50523">
        <ele>463.6</ele>
        <time>2015-11-05T11:16:24Z</time>
      </trkpt>
      <trkpt lat="46.021" lon="4.50524">
        <ele>464.5</ele>
        <time>2015-11-05T11:16:30Z</time>
      </trkpt>
      <trkpt lat="46.02107" lon="4.50516">
        <ele>465.5</ele>
        <time>2015-11-05T11:16:37Z</time>
      </trkpt>
      <trkpt lat="46.02114" lon="4.50511">
        <ele>466.4</ele>
        <time>2015-11-05T11:16:42Z</time>
      </trkpt>
      <trkpt lat="46.02121" lon="4.50504">
        <ele>467.6</ele>
        <time>2015-11-05T11:16:47Z</time>
      </trkpt>
      <trkpt lat="46.02129" lon="4.50504">
        <ele>469.3</ele>
        <time>2015-11-05T11:16:59Z</time>
      </trkpt>
      <trkpt lat="46.02139" lon="4.50507">
        <ele>470.4</ele>
        <time>2015-11-05T11:17:04Z</time>
      </trkpt>
      <trkpt lat="46.02149" lon="4.50509">
        <ele>471</ele>
        <time>2015-11-05T11:17:07Z</time>
      </trkpt>
      <trkpt lat="46.02158" lon="4.50511">
        <ele>471.4</ele>
        <time>2015-11-05T11:17:11Z</time>
      </trkpt>
      <trkpt lat="46.02167" lon="4.50515">
        <ele>471.9</ele>
        <time>2015-11-05T11:17:15Z</time>
      </trkpt>
      <trkpt lat="46.02175" lon="4.50518">
        <ele>472.1</ele>
        <time>2015-11-05T11:17:19Z</time>
      </trkpt>
      <trkpt lat="46.02183" lon="4.50523">
        <ele>472.8</ele>
        <time>2015-11-05T11:17:23Z</time>
      </trkpt>
      <trkpt lat="46.02193" lon="4.50532">
        <ele>473.2</ele>
        <time>2015-11-05T11:17:28Z</time>
      </trkpt>
      <trkpt lat="46.02198" lon="4.50542">
        <ele>473.5</ele>
        <time>2015-11-05T11:17:30Z</time>
      </trkpt>
      <trkpt lat="46.02206" lon="4.50553">
        <ele>473.7</ele>
        <time>2015-11-05T11:17:33Z</time>
      </trkpt>
      <trkpt lat="46.02214" lon="4.50565">
        <ele>473.8</ele>
        <time>2015-11-05T11:17:35Z</time>
      </trkpt>
      <trkpt lat="46.0222" lon="4.50574">
        <ele>473.8</ele>
        <time>2015-11-05T11:17:37Z</time>
      </trkpt>
      <trkpt lat="46.02229" lon="4.50584">
        <ele>474</ele>
        <time>2015-11-05T11:17:40Z</time>
      </trkpt>
      <trkpt lat="46.02237" lon="4.50594">
        <ele>474.6</ele>
        <time>2015-11-05T11:17:43Z</time>
      </trkpt>
      <trkpt lat="46.02241" lon="4.50608">
        <ele>475</ele>
        <time>2015-11-05T11:17:47Z</time>
      </trkpt>
      <trkpt lat="46.02247" lon="4.5062">
        <ele>474.5</ele>
        <time>2015-11-05T11:17:52Z</time>
      </trkpt>
      <trkpt lat="46.02253" lon="4.50629">
        <ele>474.3</ele>
        <time>2015-11-05T11:17:54Z</time>
      </trkpt>
      <trkpt lat="46.02258" lon="4.50641">
        <ele>474.5</ele>
        <time>2015-11-05T11:18:02Z</time>
      </trkpt>
      <trkpt lat="46.02265" lon="4.50654">
        <ele>474.6</ele>
        <time>2015-11-05T11:18:06Z</time>
      </trkpt>
      <trkpt lat="46.02271" lon="4.50664">
        <ele>474.7</ele>
        <time>2015-11-05T11:18:08Z</time>
      </trkpt>
      <trkpt lat="46.02275" lon="4.50675">
        <ele>474.8</ele>
        <time>2015-11-05T11:18:13Z</time>
      </trkpt>
      <trkpt lat="46.02281" lon="4.50686">
        <ele>474.8</ele>
        <time>2015-11-05T11:18:16Z</time>
      </trkpt>
      <trkpt lat="46.02286" lon="4.507">
        <ele>475</ele>
        <time>2015-11-05T11:18:18Z</time>
      </trkpt>
      <trkpt lat="46.02292" lon="4.50714">
        <ele>474.9</ele>
        <time>2015-11-05T11:18:21Z</time>
      </trkpt>
      <trkpt lat="46.02295" lon="4.50725">
        <ele>474.6</ele>
        <time>2015-11-05T11:18:25Z</time>
      </trkpt>
      <trkpt lat="46.02299" lon="4.50737">
        <ele>474</ele>
        <time>2015-11-05T11:18:30Z</time>
      </trkpt>
      <trkpt lat="46.02303" lon="4.5075">
        <ele>474</ele>
        <time>2015-11-05T11:18:35Z</time>
      </trkpt>
      <trkpt lat="46.02308" lon="4.5076">
        <ele>473.7</ele>
        <time>2015-11-05T11:18:41Z</time>
      </trkpt>
      <trkpt lat="46.02318" lon="4.50769">
        <ele>473.1</ele>
        <time>2015-11-05T11:18:47Z</time>
      </trkpt>
      <trkpt lat="46.02326" lon="4.50777">
        <ele>472.4</ele>
        <time>2015-11-05T11:18:49Z</time>
      </trkpt>
      <trkpt lat="46.02336" lon="4.50791">
        <ele>471.7</ele>
        <time>2015-11-05T11:18:52Z</time>
      </trkpt>
      <trkpt lat="46.02345" lon="4.50813">
        <ele>470.9</ele>
        <time>2015-11-05T11:18:52Z</time>
      </trkpt>
      <trkpt lat="46.02352" lon="4.50829">
        <ele>470.4</ele>
        <time>2015-11-05T11:18:54Z</time>
      </trkpt>
      <trkpt lat="46.02356" lon="4.50843">
        <ele>469.8</ele>
        <time>2015-11-05T11:18:56Z</time>
      </trkpt>
      <trkpt lat="46.02358" lon="4.50856">
        <ele>469.6</ele>
        <time>2015-11-05T11:18:59Z</time>
      </trkpt>
      <trkpt lat="46.02362" lon="4.50867">
        <ele>469.2</ele>
        <time>2015-11-05T11:19:02Z</time>
      </trkpt>
      <trkpt lat="46.02365" lon="4.50881">
        <ele>469.1</ele>
        <time>2015-11-05T11:19:07Z</time>
      </trkpt>
      <trkpt lat="46.02369" lon="4.50895">
        <ele>469.6</ele>
        <time>2015-11-05T11:19:11Z</time>
      </trkpt>
      <trkpt lat="46.02372" lon="4.50908">
        <ele>470.2</ele>
        <time>2015-11-05T11:19:16Z</time>
      </trkpt>
      <trkpt lat="46.02374" lon="4.50921">
        <ele>470.9</ele>
        <time>2015-11-05T11:19:18Z</time>
      </trkpt>
      <trkpt lat="46.02377" lon="4.50936">
        <ele>472.1</ele>
        <time>2015-11-05T11:19:21Z</time>
      </trkpt>
      <trkpt lat="46.02377" lon="4.50949">
        <ele>473.4</ele>
        <time>2015-11-05T11:19:25Z</time>
      </trkpt>
      <trkpt lat="46.02378" lon="4.50963">
        <ele>474.4</ele>
        <time>2015-11-05T11:19:30Z</time>
      </trkpt>
      <trkpt lat="46.0238" lon="4.50976">
        <ele>475.3</ele>
        <time>2015-11-05T11:19:33Z</time>
      </trkpt>
      <trkpt lat="46.02381" lon="4.50987">
        <ele>476.2</ele>
        <time>2015-11-05T11:19:35Z</time>
      </trkpt>
      <trkpt lat="46.02379" lon="4.51">
        <ele>476.9</ele>
        <time>2015-11-05T11:19:40Z</time>
      </trkpt>
      <trkpt lat="46.02379" lon="4.51015">
        <ele>478</ele>
        <time>2015-11-05T11:19:45Z</time>
      </trkpt>
      <trkpt lat="46.0238" lon="4.51027">
        <ele>479</ele>
        <time>2015-11-05T11:19:49Z</time>
      </trkpt>
      <trkpt lat="46.0238" lon="4.5104">
        <ele>479.7</ele>
        <time>2015-11-05T11:19:53Z</time>
      </trkpt>
      <trkpt lat="46.02381" lon="4.51054">
        <ele>480</ele>
        <time>2015-11-05T11:19:59Z</time>
      </trkpt>
      <trkpt lat="46.02382" lon="4.51066">
        <ele>480.4</ele>
        <time>2015-11-05T11:20:05Z</time>
      </trkpt>
      <trkpt lat="46.02383" lon="4.51079">
        <ele>480.5</ele>
        <time>2015-11-05T11:20:11Z</time>
      </trkpt>
      <trkpt lat="46.02385" lon="4.51091">
        <ele>481.1</ele>
        <time>2015-11-05T11:20:16Z</time>
      </trkpt>
      <trkpt lat="46.02387" lon="4.51104">
        <ele>482.1</ele>
        <time>2015-11-05T11:20:23Z</time>
      </trkpt>
      <trkpt lat="46.02384" lon="4.51116">
        <ele>482.8</ele>
        <time>2015-11-05T11:20:29Z</time>
      </trkpt>
      <trkpt lat="46.02385" lon="4.51129">
        <ele>483.3</ele>
        <time>2015-11-05T11:20:33Z</time>
      </trkpt>
      <trkpt lat="46.02386" lon="4.51144">
        <ele>484.1</ele>
        <time>2015-11-05T11:20:37Z</time>
      </trkpt>
      <trkpt lat="46.02386" lon="4.51157">
        <ele>484.1</ele>
        <time>2015-11-05T11:20:42Z</time>
      </trkpt>
      <trkpt lat="46.02389" lon="4.5117">
        <ele>484.2</ele>
        <time>2015-11-05T11:20:45Z</time>
      </trkpt>
      <trkpt lat="46.02388" lon="4.51182">
        <ele>484.1</ele>
        <time>2015-11-05T11:20:49Z</time>
      </trkpt>
      <trkpt lat="46.02387" lon="4.51196">
        <ele>484.3</ele>
        <time>2015-11-05T11:20:54Z</time>
      </trkpt>
      <trkpt lat="46.02387" lon="4.51208">
        <ele>484.2</ele>
        <time>2015-11-05T11:21:00Z</time>
      </trkpt>
      <trkpt lat="46.02384" lon="4.51219">
        <ele>484</ele>
        <time>2015-11-05T11:21:04Z</time>
      </trkpt>
      <trkpt lat="46.02381" lon="4.51233">
        <ele>483.5</ele>
        <time>2015-11-05T11:21:09Z</time>
      </trkpt>
      <trkpt lat="46.02376" lon="4.51247">
        <ele>483.2</ele>
        <time>2015-11-05T11:21:14Z</time>
      </trkpt>
      <trkpt lat="46.02371" lon="4.5126">
        <ele>483.2</ele>
        <time>2015-11-05T11:21:17Z</time>
      </trkpt>
      <trkpt lat="46.02369" lon="4.51289">
        <ele>483.3</ele>
        <time>2015-11-05T11:21:18Z</time>
      </trkpt>
      <trkpt lat="46.02364" lon="4.51304">
        <ele>483</ele>
        <time>2015-11-05T11:21:20Z</time>
      </trkpt>
      <trkpt lat="46.02363" lon="4.51317">
        <ele>483.3</ele>
        <time>2015-11-05T11:21:22Z</time>
      </trkpt>
      <trkpt lat="46.02362" lon="4.5133">
        <ele>483.6</ele>
        <time>2015-11-05T11:21:26Z</time>
      </trkpt>
      <trkpt lat="46.02363" lon="4.51342">
        <ele>483.9</ele>
        <time>2015-11-05T11:21:29Z</time>
      </trkpt>
      <trkpt lat="46.02365" lon="4.51358">
        <ele>484.1</ele>
        <time>2015-11-05T11:21:31Z</time>
      </trkpt>
      <trkpt lat="46.02366" lon="4.51371">
        <ele>484.4</ele>
        <time>2015-11-05T11:21:35Z</time>
      </trkpt>
      <trkpt lat="46.02364" lon="4.51382">
        <ele>484.9</ele>
        <time>2015-11-05T11:21:37Z</time>
      </trkpt>
      <trkpt lat="46.02362" lon="4.51397">
        <ele>485.2</ele>
        <time>2015-11-05T11:21:41Z</time>
      </trkpt>
      <trkpt lat="46.02361" lon="4.5141">
        <ele>485.2</ele>
        <time>2015-11-05T11:21:44Z</time>
      </trkpt>
      <trkpt lat="46.02359" lon="4.51422">
        <ele>484.9</ele>
        <time>2015-11-05T11:21:48Z</time>
      </trkpt>
      <trkpt lat="46.02354" lon="4.51435">
        <ele>484.9</ele>
        <time>2015-11-05T11:21:52Z</time>
      </trkpt>
      <trkpt lat="46.02351" lon="4.51447">
        <ele>485</ele>
        <time>2015-11-05T11:21:54Z</time>
      </trkpt>
      <trkpt lat="46.02347" lon="4.51461">
        <ele>484.6</ele>
        <time>2015-11-05T11:21:57Z</time>
      </trkpt>
      <trkpt lat="46.02342" lon="4.51471">
        <ele>484.2</ele>
        <time>2015-11-05T11:21:59Z</time>
      </trkpt>
      <trkpt lat="46.02336" lon="4.51479">
        <ele>483.8</ele>
        <time>2015-11-05T11:22:01Z</time>
      </trkpt>
      <trkpt lat="46.0233" lon="4.5149">
        <ele>483.6</ele>
        <time>2015-11-05T11:22:04Z</time>
      </trkpt>
      <trkpt lat="46.02328" lon="4.51504">
        <ele>483.3</ele>
        <time>2015-11-05T11:22:07Z</time>
      </trkpt>
      <trkpt lat="46.02334" lon="4.51518">
        <ele>482.9</ele>
        <time>2015-11-05T11:22:10Z</time>
      </trkpt>
      <trkpt lat="46.0234" lon="4.51527">
        <ele>482.3</ele>
        <time>2015-11-05T11:22:13Z</time>
      </trkpt>
      <trkpt lat="46.02347" lon="4.51535">
        <ele>481.5</ele>
        <time>2015-11-05T11:22:15Z</time>
      </trkpt>
      <trkpt lat="46.02355" lon="4.51544">
        <ele>480.4</ele>
        <time>2015-11-05T11:22:17Z</time>
      </trkpt>
      <trkpt lat="46.02361" lon="4.51557">
        <ele>478.7</ele>
        <time>2015-11-05T11:22:22Z</time>
      </trkpt>
      <trkpt lat="46.02367" lon="4.51569">
        <ele>476.8</ele>
        <time>2015-11-05T11:22:26Z</time>
      </trkpt>
      <trkpt lat="46.02374" lon="4.5158">
        <ele>474.9</ele>
        <time>2015-11-05T11:22:30Z</time>
      </trkpt>
      <trkpt lat="46.02381" lon="4.51587">
        <ele>472.8</ele>
        <time>2015-11-05T11:22:31Z</time>
      </trkpt>
      <trkpt lat="46.02392" lon="4.51601">
        <ele>470.5</ele>
        <time>2015-11-05T11:22:33Z</time>
      </trkpt>
      <trkpt lat="46.02403" lon="4.51615">
        <ele>468.1</ele>
        <time>2015-11-05T11:22:35Z</time>
      </trkpt>
      <trkpt lat="46.02413" lon="4.51628">
        <ele>465.7</ele>
        <time>2015-11-05T11:22:38Z</time>
      </trkpt>
      <trkpt lat="46.02423" lon="4.51642">
        <ele>463.1</ele>
        <time>2015-11-05T11:22:40Z</time>
      </trkpt>
      <trkpt lat="46.02433" lon="4.51657">
        <ele>460.8</ele>
        <time>2015-11-05T11:22:42Z</time>
      </trkpt>
      <trkpt lat="46.02443" lon="4.51676">
        <ele>458.6</ele>
        <time>2015-11-05T11:22:43Z</time>
      </trkpt>
      <trkpt lat="46.02448" lon="4.51687">
        <ele>456.9</ele>
        <time>2015-11-05T11:22:45Z</time>
      </trkpt>
      <trkpt lat="46.02454" lon="4.51696">
        <ele>455.7</ele>
        <time>2015-11-05T11:22:45Z</time>
      </trkpt>
      <trkpt lat="46.02461" lon="4.51705">
        <ele>454.7</ele>
        <time>2015-11-05T11:22:47Z</time>
      </trkpt>
      <trkpt lat="46.02468" lon="4.51713">
        <ele>454.1</ele>
        <time>2015-11-05T11:22:47Z</time>
      </trkpt>
      <trkpt lat="46.02476" lon="4.51719">
        <ele>453.7</ele>
        <time>2015-11-05T11:22:48Z</time>
      </trkpt>
      <trkpt lat="46.02484" lon="4.51725">
        <ele>453.5</ele>
        <time>2015-11-05T11:22:50Z</time>
      </trkpt>
      <trkpt lat="46.02494" lon="4.51737">
        <ele>453.3</ele>
        <time>2015-11-05T11:22:51Z</time>
      </trkpt>
      <trkpt lat="46.02502" lon="4.51749">
        <ele>453.1</ele>
        <time>2015-11-05T11:22:54Z</time>
      </trkpt>
      <trkpt lat="46.02508" lon="4.51761">
        <ele>453</ele>
        <time>2015-11-05T11:22:55Z</time>
      </trkpt>
      <trkpt lat="46.02515" lon="4.51774">
        <ele>452.8</ele>
        <time>2015-11-05T11:22:57Z</time>
      </trkpt>
      <trkpt lat="46.02521" lon="4.51786">
        <ele>452.7</ele>
        <time>2015-11-05T11:22:59Z</time>
      </trkpt>
      <trkpt lat="46.02525" lon="4.51799">
        <ele>452.4</ele>
        <time>2015-11-05T11:23:01Z</time>
      </trkpt>
      <trkpt lat="46.02529" lon="4.51811">
        <ele>451.6</ele>
        <time>2015-11-05T11:23:03Z</time>
      </trkpt>
      <trkpt lat="46.02532" lon="4.51825">
        <ele>450.8</ele>
        <time>2015-11-05T11:23:05Z</time>
      </trkpt>
      <trkpt lat="46.02534" lon="4.5184">
        <ele>449.9</ele>
        <time>2015-11-05T11:23:07Z</time>
      </trkpt>
      <trkpt lat="46.02534" lon="4.51854">
        <ele>448.5</ele>
        <time>2015-11-05T11:23:09Z</time>
      </trkpt>
      <trkpt lat="46.02533" lon="4.51871">
        <ele>447.2</ele>
        <time>2015-11-05T11:23:11Z</time>
      </trkpt>
      <trkpt lat="46.02535" lon="4.51887">
        <ele>445.9</ele>
        <time>2015-11-05T11:23:13Z</time>
      </trkpt>
      <trkpt lat="46.02534" lon="4.51901">
        <ele>444.8</ele>
        <time>2015-11-05T11:23:15Z</time>
      </trkpt>
      <trkpt lat="46.02534" lon="4.51914">
        <ele>443.7</ele>
        <time>2015-11-05T11:23:17Z</time>
      </trkpt>
      <trkpt lat="46.0253" lon="4.5193">
        <ele>442.6</ele>
        <time>2015-11-05T11:23:20Z</time>
      </trkpt>
      <trkpt lat="46.02526" lon="4.51942">
        <ele>441.5</ele>
        <time>2015-11-05T11:23:22Z</time>
      </trkpt>
      <trkpt lat="46.02522" lon="4.51956">
        <ele>440.7</ele>
        <time>2015-11-05T11:23:24Z</time>
      </trkpt>
      <trkpt lat="46.02515" lon="4.51966">
        <ele>440.7</ele>
        <time>2015-11-05T11:23:26Z</time>
      </trkpt>
      <trkpt lat="46.0251" lon="4.51977">
        <ele>440.8</ele>
        <time>2015-11-05T11:23:28Z</time>
      </trkpt>
      <trkpt lat="46.02502" lon="4.51985">
        <ele>441.2</ele>
        <time>2015-11-05T11:23:31Z</time>
      </trkpt>
      <trkpt lat="46.02501" lon="4.51997">
        <ele>442</ele>
        <time>2015-11-05T11:23:33Z</time>
      </trkpt>
      <trkpt lat="46.02495" lon="4.52005">
        <ele>442.9</ele>
        <time>2015-11-05T11:23:38Z</time>
      </trkpt>
      <trkpt lat="46.02491" lon="4.52017">
        <ele>443.9</ele>
        <time>2015-11-05T11:23:42Z</time>
      </trkpt>
      <trkpt lat="46.02485" lon="4.52027">
        <ele>444.9</ele>
        <time>2015-11-05T11:23:46Z</time>
      </trkpt>
      <trkpt lat="46.02479" lon="4.52036">
        <ele>445.8</ele>
        <time>2015-11-05T11:23:49Z</time>
      </trkpt>
      <trkpt lat="46.02472" lon="4.52045">
        <ele>446.8</ele>
        <time>2015-11-05T11:23:52Z</time>
      </trkpt>
      <trkpt lat="46.02466" lon="4.52054">
        <ele>448.1</ele>
        <time>2015-11-05T11:23:55Z</time>
      </trkpt>
      <trkpt lat="46.0246" lon="4.52066">
        <ele>449</ele>
        <time>2015-11-05T11:24:36Z</time>
      </trkpt>
      <trkpt lat="46.02449" lon="4.52078">
        <ele>449.1</ele>
        <time>2015-11-05T11:24:39Z</time>
      </trkpt>
      <trkpt lat="46.02442" lon="4.5209">
        <ele>449.2</ele>
        <time>2015-11-05T11:24:41Z</time>
      </trkpt>
      <trkpt lat="46.02436" lon="4.52102">
        <ele>449.6</ele>
        <time>2015-11-05T11:24:43Z</time>
      </trkpt>
      <trkpt lat="46.02445" lon="4.52101">
        <ele>450.1</ele>
        <time>2015-11-05T11:24:55Z</time>
      </trkpt>
      <trkpt lat="46.02451" lon="4.52091">
        <ele>450.7</ele>
        <time>2015-11-05T11:25:02Z</time>
      </trkpt>
      <trkpt lat="46.02454" lon="4.5208">
        <ele>451.6</ele>
        <time>2015-11-05T11:25:17Z</time>
      </trkpt>
      <trkpt lat="46.02447" lon="4.52088">
        <ele>452.5</ele>
        <time>2015-11-05T11:25:26Z</time>
      </trkpt>
      <trkpt lat="46.0244" lon="4.52097">
        <ele>453.5</ele>
        <time>2015-11-05T11:25:30Z</time>
      </trkpt>
      <trkpt lat="46.02432" lon="4.52104">
        <ele>454.6</ele>
        <time>2015-11-05T11:25:34Z</time>
      </trkpt>
      <trkpt lat="46.02425" lon="4.52112">
        <ele>455.2</ele>
        <time>2015-11-05T11:25:38Z</time>
      </trkpt>
      <trkpt lat="46.02417" lon="4.52121">
        <ele>456.5</ele>
        <time>2015-11-05T11:25:42Z</time>
      </trkpt>
      <trkpt lat="46.0241" lon="4.52132">
        <ele>458.3</ele>
        <time>2015-11-05T11:25:46Z</time>
      </trkpt>
      <trkpt lat="46.02404" lon="4.52143">
        <ele>460.2</ele>
        <time>2015-11-05T11:25:50Z</time>
      </trkpt>
      <trkpt lat="46.02397" lon="4.52154">
        <ele>462</ele>
        <time>2015-11-05T11:25:54Z</time>
      </trkpt>
      <trkpt lat="46.02388" lon="4.52161">
        <ele>463.7</ele>
        <time>2015-11-05T11:25:58Z</time>
      </trkpt>
      <trkpt lat="46.0238" lon="4.52165">
        <ele>464.9</ele>
        <time>2015-11-05T11:26:02Z</time>
      </trkpt>
      <trkpt lat="46.02373" lon="4.52172">
        <ele>465.7</ele>
        <time>2015-11-05T11:26:05Z</time>
      </trkpt>
      <trkpt lat="46.02366" lon="4.52179">
        <ele>466.4</ele>
        <time>2015-11-05T11:26:07Z</time>
      </trkpt>
      <trkpt lat="46.02358" lon="4.52187">
        <ele>466.7</ele>
        <time>2015-11-05T11:26:11Z</time>
      </trkpt>
      <trkpt lat="46.02349" lon="4.52194">
        <ele>466.9</ele>
        <time>2015-11-05T11:26:16Z</time>
      </trkpt>
      <trkpt lat="46.02341" lon="4.52201">
        <ele>467.3</ele>
        <time>2015-11-05T11:26:19Z</time>
      </trkpt>
      <trkpt lat="46.02333" lon="4.52209">
        <ele>467.3</ele>
        <time>2015-11-05T11:26:24Z</time>
      </trkpt>
      <trkpt lat="46.02325" lon="4.52218">
        <ele>467.3</ele>
        <time>2015-11-05T11:26:27Z</time>
      </trkpt>
      <trkpt lat="46.02319" lon="4.52229">
        <ele>467.2</ele>
        <time>2015-11-05T11:26:31Z</time>
      </trkpt>
      <trkpt lat="46.02313" lon="4.52241">
        <ele>466.8</ele>
        <time>2015-11-05T11:26:35Z</time>
      </trkpt>
      <trkpt lat="46.02307" lon="4.52253">
        <ele>466.7</ele>
        <time>2015-11-05T11:26:39Z</time>
      </trkpt>
      <trkpt lat="46.023" lon="4.52264">
        <ele>466.9</ele>
        <time>2015-11-05T11:26:43Z</time>
      </trkpt>
      <trkpt lat="46.02292" lon="4.52272">
        <ele>467</ele>
        <time>2015-11-05T11:26:47Z</time>
      </trkpt>
      <trkpt lat="46.02286" lon="4.5228">
        <ele>467.2</ele>
        <time>2015-11-05T11:26:51Z</time>
      </trkpt>
      <trkpt lat="46.02278" lon="4.52288">
        <ele>467.8</ele>
        <time>2015-11-05T11:26:56Z</time>
      </trkpt>
      <trkpt lat="46.02271" lon="4.52295">
        <ele>468.7</ele>
        <time>2015-11-05T11:27:00Z</time>
      </trkpt>
      <trkpt lat="46.02265" lon="4.52304">
        <ele>469.5</ele>
        <time>2015-11-05T11:27:04Z</time>
      </trkpt>
      <trkpt lat="46.02258" lon="4.52312">
        <ele>470.2</ele>
        <time>2015-11-05T11:27:09Z</time>
      </trkpt>
      <trkpt lat="46.02249" lon="4.52316">
        <ele>470.8</ele>
        <time>2015-11-05T11:27:11Z</time>
      </trkpt>
      <trkpt lat="46.0224" lon="4.52318">
        <ele>471</ele>
        <time>2015-11-05T11:27:13Z</time>
      </trkpt>
      <trkpt lat="46.02231" lon="4.52321">
        <ele>471.2</ele>
        <time>2015-11-05T11:27:15Z</time>
      </trkpt>
      <trkpt lat="46.02223" lon="4.52327">
        <ele>471.3</ele>
        <time>2015-11-05T11:27:17Z</time>
      </trkpt>
      <trkpt lat="46.02217" lon="4.52335">
        <ele>471.4</ele>
        <time>2015-11-05T11:27:19Z</time>
      </trkpt>
      <trkpt lat="46.02211" lon="4.52349">
        <ele>471.8</ele>
        <time>2015-11-05T11:27:22Z</time>
      </trkpt>
      <trkpt lat="46.02205" lon="4.52359">
        <ele>471.9</ele>
        <time>2015-11-05T11:27:25Z</time>
      </trkpt>
      <trkpt lat="46.02198" lon="4.52367">
        <ele>471.8</ele>
        <time>2015-11-05T11:27:28Z</time>
      </trkpt>
      <trkpt lat="46.0219" lon="4.52374">
        <ele>471.4</ele>
        <time>2015-11-05T11:27:32Z</time>
      </trkpt>
      <trkpt lat="46.02181" lon="4.52382">
        <ele>471</ele>
        <time>2015-11-05T11:27:36Z</time>
      </trkpt>
      <trkpt lat="46.02173" lon="4.52388">
        <ele>470.3</ele>
        <time>2015-11-05T11:27:39Z</time>
      </trkpt>
      <trkpt lat="46.02161" lon="4.52395">
        <ele>469.8</ele>
        <time>2015-11-05T11:27:42Z</time>
      </trkpt>
      <trkpt lat="46.0215" lon="4.52402">
        <ele>469</ele>
        <time>2015-11-05T11:27:44Z</time>
      </trkpt>
      <trkpt lat="46.0214" lon="4.52409">
        <ele>468.5</ele>
        <time>2015-11-05T11:27:46Z</time>
      </trkpt>
      <trkpt lat="46.02133" lon="4.52417">
        <ele>467.9</ele>
        <time>2015-11-05T11:27:48Z</time>
      </trkpt>
      <trkpt lat="46.02125" lon="4.52424">
        <ele>467.1</ele>
        <time>2015-11-05T11:27:50Z</time>
      </trkpt>
      <trkpt lat="46.02117" lon="4.52433">
        <ele>466.1</ele>
        <time>2015-11-05T11:27:52Z</time>
      </trkpt>
      <trkpt lat="46.02105" lon="4.52442">
        <ele>465.2</ele>
        <time>2015-11-05T11:27:54Z</time>
      </trkpt>
      <trkpt lat="46.02094" lon="4.52453">
        <ele>464.5</ele>
        <time>2015-11-05T11:27:56Z</time>
      </trkpt>
      <trkpt lat="46.02084" lon="4.52463">
        <ele>464.4</ele>
        <time>2015-11-05T11:27:58Z</time>
      </trkpt>
      <trkpt lat="46.02074" lon="4.52473">
        <ele>464.3</ele>
        <time>2015-11-05T11:28:00Z</time>
      </trkpt>
      <trkpt lat="46.02064" lon="4.52485">
        <ele>464.1</ele>
        <time>2015-11-05T11:28:02Z</time>
      </trkpt>
      <trkpt lat="46.02059" lon="4.52498">
        <ele>464.5</ele>
        <time>2015-11-05T11:28:04Z</time>
      </trkpt>
      <trkpt lat="46.02055" lon="4.52512">
        <ele>465</ele>
        <time>2015-11-05T11:28:07Z</time>
      </trkpt>
      <trkpt lat="46.02047" lon="4.52521">
        <ele>465.8</ele>
        <time>2015-11-05T11:28:11Z</time>
      </trkpt>
      <trkpt lat="46.02047" lon="4.52534">
        <ele>466.8</ele>
        <time>2015-11-05T11:28:13Z</time>
      </trkpt>
      <trkpt lat="46.02046" lon="4.52546">
        <ele>467.9</ele>
        <time>2015-11-05T11:28:16Z</time>
      </trkpt>
      <trkpt lat="46.02051" lon="4.52556">
        <ele>469.4</ele>
        <time>2015-11-05T11:28:27Z</time>
      </trkpt>
      <trkpt lat="46.02056" lon="4.52567">
        <ele>471.1</ele>
        <time>2015-11-05T11:28:33Z</time>
      </trkpt>
      <trkpt lat="46.02063" lon="4.52577">
        <ele>473</ele>
        <time>2015-11-05T11:28:39Z</time>
      </trkpt>
      <trkpt lat="46.02065" lon="4.52588">
        <ele>474.6</ele>
        <time>2015-11-05T11:28:48Z</time>
      </trkpt>
      <trkpt lat="46.02067" lon="4.526">
        <ele>476.6</ele>
        <time>2015-11-05T11:28:55Z</time>
      </trkpt>
      <trkpt lat="46.02068" lon="4.52612">
        <ele>478.9</ele>
        <time>2015-11-05T11:29:01Z</time>
      </trkpt>
      <trkpt lat="46.02069" lon="4.52625">
        <ele>480.6</ele>
        <time>2015-11-05T11:29:08Z</time>
      </trkpt>
      <trkpt lat="46.02068" lon="4.52639">
        <ele>482.6</ele>
        <time>2015-11-05T11:29:14Z</time>
      </trkpt>
      <trkpt lat="46.02067" lon="4.52651">
        <ele>484.4</ele>
        <time>2015-11-05T11:29:19Z</time>
      </trkpt>
      <trkpt lat="46.02066" lon="4.52665">
        <ele>486.1</ele>
        <time>2015-11-05T11:29:25Z</time>
      </trkpt>
      <trkpt lat="46.02064" lon="4.52678">
        <ele>487.5</ele>
        <time>2015-11-05T11:29:30Z</time>
      </trkpt>
      <trkpt lat="46.0206" lon="4.52691">
        <ele>488.6</ele>
        <time>2015-11-05T11:29:35Z</time>
      </trkpt>
      <trkpt lat="46.02061" lon="4.52704">
        <ele>489.7</ele>
        <time>2015-11-05T11:29:39Z</time>
      </trkpt>
      <trkpt lat="46.02061" lon="4.52717">
        <ele>490.5</ele>
        <time>2015-11-05T11:29:42Z</time>
      </trkpt>
      <trkpt lat="46.02064" lon="4.52729">
        <ele>491</ele>
        <time>2015-11-05T11:29:45Z</time>
      </trkpt>
      <trkpt lat="46.0206" lon="4.5274">
        <ele>491.4</ele>
        <time>2015-11-05T11:29:49Z</time>
      </trkpt>
      <trkpt lat="46.02057" lon="4.52753">
        <ele>491.7</ele>
        <time>2015-11-05T11:29:53Z</time>
      </trkpt>
      <trkpt lat="46.02055" lon="4.52764">
        <ele>492.1</ele>
        <time>2015-11-05T11:29:57Z</time>
      </trkpt>
      <trkpt lat="46.0205" lon="4.52775">
        <ele>492.3</ele>
        <time>2015-11-05T11:30:02Z</time>
      </trkpt>
      <trkpt lat="46.02048" lon="4.52788">
        <ele>492.5</ele>
        <time>2015-11-05T11:30:06Z</time>
      </trkpt>
      <trkpt lat="46.02052" lon="4.52802">
        <ele>492.5</ele>
        <time>2015-11-05T11:30:09Z</time>
      </trkpt>
      <trkpt lat="46.02056" lon="4.52814">
        <ele>492.6</ele>
        <time>2015-11-05T11:30:12Z</time>
      </trkpt>
      <trkpt lat="46.02059" lon="4.52828">
        <ele>492.6</ele>
        <time>2015-11-05T11:30:16Z</time>
      </trkpt>
      <trkpt lat="46.02059" lon="4.5284">
        <ele>492.5</ele>
        <time>2015-11-05T11:30:20Z</time>
      </trkpt>
      <trkpt lat="46.02058" lon="4.52852">
        <ele>492.5</ele>
        <time>2015-11-05T11:30:24Z</time>
      </trkpt>
      <trkpt lat="46.02056" lon="4.52866">
        <ele>492.4</ele>
        <time>2015-11-05T11:30:29Z</time>
      </trkpt>
      <trkpt lat="46.02052" lon="4.52877">
        <ele>492.4</ele>
        <time>2015-11-05T11:30:34Z</time>
      </trkpt>
      <trkpt lat="46.02047" lon="4.52886">
        <ele>493.1</ele>
        <time>2015-11-05T11:30:39Z</time>
      </trkpt>
      <trkpt lat="46.02041" lon="4.52897">
        <ele>493.4</ele>
        <time>2015-11-05T11:30:45Z</time>
      </trkpt>
      <trkpt lat="46.02037" lon="4.52908">
        <ele>493.9</ele>
        <time>2015-11-05T11:30:51Z</time>
      </trkpt>
      <trkpt lat="46.02034" lon="4.52922">
        <ele>494.4</ele>
        <time>2015-11-05T11:30:57Z</time>
      </trkpt>
      <trkpt lat="46.02029" lon="4.52932">
        <ele>494.8</ele>
        <time>2015-11-05T11:31:03Z</time>
      </trkpt>
      <trkpt lat="46.02023" lon="4.52942">
        <ele>495.5</ele>
        <time>2015-11-05T11:31:12Z</time>
      </trkpt>
      <trkpt lat="46.02018" lon="4.52953">
        <ele>496.7</ele>
        <time>2015-11-05T11:31:18Z</time>
      </trkpt>
      <trkpt lat="46.02014" lon="4.52963">
        <ele>497.8</ele>
        <time>2015-11-05T11:31:23Z</time>
      </trkpt>
      <trkpt lat="46.0201" lon="4.52973">
        <ele>499.3</ele>
        <time>2015-11-05T11:31:28Z</time>
      </trkpt>
      <trkpt lat="46.02007" lon="4.52984">
        <ele>500.7</ele>
        <time>2015-11-05T11:31:32Z</time>
      </trkpt>
      <trkpt lat="46.02001" lon="4.52993">
        <ele>502.3</ele>
        <time>2015-11-05T11:31:40Z</time>
      </trkpt>
      <trkpt lat="46.01997" lon="4.53005">
        <ele>503.2</ele>
        <time>2015-11-05T11:31:46Z</time>
      </trkpt>
      <trkpt lat="46.01994" lon="4.53017">
        <ele>504.3</ele>
        <time>2015-11-05T11:31:52Z</time>
      </trkpt>
      <trkpt lat="46.01989" lon="4.53027">
        <ele>505</ele>
        <time>2015-11-05T11:31:58Z</time>
      </trkpt>
      <trkpt lat="46.01985" lon="4.53041">
        <ele>505.6</ele>
        <time>2015-11-05T11:32:04Z</time>
      </trkpt>
      <trkpt lat="46.0198" lon="4.5305">
        <ele>506.7</ele>
        <time>2015-11-05T11:32:09Z</time>
      </trkpt>
      <trkpt lat="46.01975" lon="4.53061">
        <ele>507.9</ele>
        <time>2015-11-05T11:32:15Z</time>
      </trkpt>
      <trkpt lat="46.01971" lon="4.53072">
        <ele>508.6</ele>
        <time>2015-11-05T11:32:20Z</time>
      </trkpt>
      <trkpt lat="46.01966" lon="4.53082">
        <ele>509.6</ele>
        <time>2015-11-05T11:32:26Z</time>
      </trkpt>
      <trkpt lat="46.01963" lon="4.53094">
        <ele>510.9</ele>
        <time>2015-11-05T11:32:32Z</time>
      </trkpt>
      <trkpt lat="46.01959" lon="4.53106">
        <ele>512.3</ele>
        <time>2015-11-05T11:32:39Z</time>
      </trkpt>
      <trkpt lat="46.01958" lon="4.53118">
        <ele>513.9</ele>
        <time>2015-11-05T11:32:45Z</time>
      </trkpt>
      <trkpt lat="46.01958" lon="4.5313">
        <ele>516</ele>
        <time>2015-11-05T11:32:51Z</time>
      </trkpt>
      <trkpt lat="46.01958" lon="4.53142">
        <ele>518</ele>
        <time>2015-11-05T11:32:57Z</time>
      </trkpt>
      <trkpt lat="46.01962" lon="4.53153">
        <ele>520</ele>
        <time>2015-11-05T11:33:06Z</time>
      </trkpt>
      <trkpt lat="46.01961" lon="4.53165">
        <ele>522</ele>
        <time>2015-11-05T11:33:13Z</time>
      </trkpt>
      <trkpt lat="46.01959" lon="4.53177">
        <ele>524.3</ele>
        <time>2015-11-05T11:33:19Z</time>
      </trkpt>
      <trkpt lat="46.01955" lon="4.53187">
        <ele>526.2</ele>
        <time>2015-11-05T11:33:25Z</time>
      </trkpt>
      <trkpt lat="46.01951" lon="4.53199">
        <ele>528.2</ele>
        <time>2015-11-05T11:33:35Z</time>
      </trkpt>
      <trkpt lat="46.01946" lon="4.5321">
        <ele>530.2</ele>
        <time>2015-11-05T11:33:42Z</time>
      </trkpt>
      <trkpt lat="46.01938" lon="4.53215">
        <ele>531.7</ele>
        <time>2015-11-05T11:33:49Z</time>
      </trkpt>
      <trkpt lat="46.01929" lon="4.53218">
        <ele>533.4</ele>
        <time>2015-11-05T11:33:55Z</time>
      </trkpt>
      <trkpt lat="46.01922" lon="4.53226">
        <ele>534.9</ele>
        <time>2015-11-05T11:34:00Z</time>
      </trkpt>
      <trkpt lat="46.01918" lon="4.53238">
        <ele>536.1</ele>
        <time>2015-11-05T11:34:05Z</time>
      </trkpt>
      <trkpt lat="46.01913" lon="4.53248">
        <ele>537.2</ele>
        <time>2015-11-05T11:34:08Z</time>
      </trkpt>
      <trkpt lat="46.01906" lon="4.53259">
        <ele>538.4</ele>
        <time>2015-11-05T11:34:13Z</time>
      </trkpt>
      <trkpt lat="46.019" lon="4.53266">
        <ele>539.8</ele>
        <time>2015-11-05T11:34:18Z</time>
      </trkpt>
      <trkpt lat="46.01892" lon="4.53271">
        <ele>540.9</ele>
        <time>2015-11-05T11:34:23Z</time>
      </trkpt>
      <trkpt lat="46.01884" lon="4.53275">
        <ele>541.9</ele>
        <time>2015-11-05T11:34:28Z</time>
      </trkpt>
      <trkpt lat="46.01876" lon="4.53275">
        <ele>543</ele>
        <time>2015-11-05T11:34:33Z</time>
      </trkpt>
      <trkpt lat="46.01869" lon="4.53282">
        <ele>544.2</ele>
        <time>2015-11-05T11:34:38Z</time>
      </trkpt>
      <trkpt lat="46.0186" lon="4.53287">
        <ele>544.9</ele>
        <time>2015-11-05T11:34:44Z</time>
      </trkpt>
      <trkpt lat="46.01853" lon="4.53294">
        <ele>544.8</ele>
        <time>2015-11-05T11:34:50Z</time>
      </trkpt>
      <trkpt lat="46.01847" lon="4.53305">
        <ele>544.7</ele>
        <time>2015-11-05T11:34:56Z</time>
      </trkpt>
      <trkpt lat="46.01839" lon="4.5331">
        <ele>544</ele>
        <time>2015-11-05T11:35:02Z</time>
      </trkpt>
      <trkpt lat="46.01829" lon="4.53314">
        <ele>543.1</ele>
        <time>2015-11-05T11:35:08Z</time>
      </trkpt>
      <trkpt lat="46.01821" lon="4.53318">
        <ele>542.3</ele>
        <time>2015-11-05T11:35:15Z</time>
      </trkpt>
      <trkpt lat="46.01814" lon="4.53324">
        <ele>541.6</ele>
        <time>2015-11-05T11:35:27Z</time>
      </trkpt>
      <trkpt lat="46.01809" lon="4.53335">
        <ele>540.5</ele>
        <time>2015-11-05T11:35:34Z</time>
      </trkpt>
      <trkpt lat="46.01803" lon="4.53345">
        <ele>539.6</ele>
        <time>2015-11-05T11:35:41Z</time>
      </trkpt>
      <trkpt lat="46.01796" lon="4.53354">
        <ele>538.5</ele>
        <time>2015-11-05T11:35:48Z</time>
      </trkpt>
      <trkpt lat="46.01789" lon="4.53362">
        <ele>537.1</ele>
        <time>2015-11-05T11:35:55Z</time>
      </trkpt>
      <trkpt lat="46.01781" lon="4.53368">
        <ele>536</ele>
        <time>2015-11-05T11:36:02Z</time>
      </trkpt>
      <trkpt lat="46.01775" lon="4.53377">
        <ele>535.3</ele>
        <time>2015-11-05T11:36:08Z</time>
      </trkpt>
      <trkpt lat="46.01768" lon="4.53385">
        <ele>534.6</ele>
        <time>2015-11-05T11:36:15Z</time>
      </trkpt>
      <trkpt lat="46.0176" lon="4.53389">
        <ele>534.5</ele>
        <time>2015-11-05T11:36:21Z</time>
      </trkpt>
      <trkpt lat="46.01753" lon="4.53399">
        <ele>535</ele>
        <time>2015-11-05T11:36:27Z</time>
      </trkpt>
      <trkpt lat="46.01749" lon="4.5341">
        <ele>535.4</ele>
        <time>2015-11-05T11:36:33Z</time>
      </trkpt>
      <trkpt lat="46.01746" lon="4.53424">
        <ele>535.9</ele>
        <time>2015-11-05T11:36:39Z</time>
      </trkpt>
      <trkpt lat="46.0174" lon="4.53434">
        <ele>536.7</ele>
        <time>2015-11-05T11:36:45Z</time>
      </trkpt>
      <trkpt lat="46.01732" lon="4.53435">
        <ele>537.6</ele>
        <time>2015-11-05T11:36:50Z</time>
      </trkpt>
      <trkpt lat="46.01723" lon="4.53437">
        <ele>538.5</ele>
        <time>2015-11-05T11:36:56Z</time>
      </trkpt>
      <trkpt lat="46.01716" lon="4.53444">
        <ele>539.2</ele>
        <time>2015-11-05T11:37:03Z</time>
      </trkpt>
      <trkpt lat="46.0171" lon="4.53453">
        <ele>540.1</ele>
        <time>2015-11-05T11:37:09Z</time>
      </trkpt>
      <trkpt lat="46.01703" lon="4.5346">
        <ele>540.9</ele>
        <time>2015-11-05T11:37:16Z</time>
      </trkpt>
      <trkpt lat="46.01696" lon="4.53468">
        <ele>541.5</ele>
        <time>2015-11-05T11:37:23Z</time>
      </trkpt>
      <trkpt lat="46.01691" lon="4.53478">
        <ele>542.3</ele>
        <time>2015-11-05T11:37:29Z</time>
      </trkpt>
      <trkpt lat="46.01686" lon="4.53487">
        <ele>542.9</ele>
        <time>2015-11-05T11:37:35Z</time>
      </trkpt>
      <trkpt lat="46.01679" lon="4.53495">
        <ele>543.4</ele>
        <time>2015-11-05T11:37:41Z</time>
      </trkpt>
      <trkpt lat="46.01674" lon="4.53507">
        <ele>544.2</ele>
        <time>2015-11-05T11:37:47Z</time>
      </trkpt>
      <trkpt lat="46.0167" lon="4.53519">
        <ele>545.1</ele>
        <time>2015-11-05T11:37:53Z</time>
      </trkpt>
      <trkpt lat="46.01662" lon="4.53525">
        <ele>546.2</ele>
        <time>2015-11-05T11:38:01Z</time>
      </trkpt>
      <trkpt lat="46.01662" lon="4.53538">
        <ele>547.4</ele>
        <time>2015-11-05T11:38:08Z</time>
      </trkpt>
      <trkpt lat="46.01659" lon="4.53552">
        <ele>548.6</ele>
        <time>2015-11-05T11:38:14Z</time>
      </trkpt>
      <trkpt lat="46.01653" lon="4.53561">
        <ele>549.6</ele>
        <time>2015-11-05T11:38:20Z</time>
      </trkpt>
      <trkpt lat="46.01646" lon="4.53568">
        <ele>550.9</ele>
        <time>2015-11-05T11:38:27Z</time>
      </trkpt>
      <trkpt lat="46.0164" lon="4.53577">
        <ele>552.2</ele>
        <time>2015-11-05T11:38:35Z</time>
      </trkpt>
      <trkpt lat="46.01635" lon="4.53588">
        <ele>553.6</ele>
        <time>2015-11-05T11:38:42Z</time>
      </trkpt>
      <trkpt lat="46.0163" lon="4.53599">
        <ele>554.8</ele>
        <time>2015-11-05T11:38:47Z</time>
      </trkpt>
      <trkpt lat="46.01628" lon="4.5361">
        <ele>556.7</ele>
        <time>2015-11-05T11:38:51Z</time>
      </trkpt>
      <trkpt lat="46.01624" lon="4.53621">
        <ele>558.5</ele>
        <time>2015-11-05T11:38:58Z</time>
      </trkpt>
      <trkpt lat="46.01619" lon="4.53632">
        <ele>560.1</ele>
        <time>2015-11-05T11:39:03Z</time>
      </trkpt>
      <trkpt lat="46.01615" lon="4.53642">
        <ele>562.4</ele>
        <time>2015-11-05T11:39:10Z</time>
      </trkpt>
      <trkpt lat="46.01614" lon="4.53654">
        <ele>564.4</ele>
        <time>2015-11-05T11:39:16Z</time>
      </trkpt>
      <trkpt lat="46.01608" lon="4.53663">
        <ele>566.3</ele>
        <time>2015-11-05T11:39:23Z</time>
      </trkpt>
      <trkpt lat="46.01602" lon="4.53673">
        <ele>568.5</ele>
        <time>2015-11-05T11:39:30Z</time>
      </trkpt>
      <trkpt lat="46.01597" lon="4.53683">
        <ele>570.7</ele>
        <time>2015-11-05T11:39:39Z</time>
      </trkpt>
      <trkpt lat="46.01594" lon="4.53693">
        <ele>572.8</ele>
        <time>2015-11-05T11:39:51Z</time>
      </trkpt>
      <trkpt lat="46.01592" lon="4.53706">
        <ele>574.2</ele>
        <time>2015-11-05T11:39:56Z</time>
      </trkpt>
      <trkpt lat="46.01591" lon="4.53719">
        <ele>575.9</ele>
        <time>2015-11-05T11:40:01Z</time>
      </trkpt>
      <trkpt lat="46.01588" lon="4.5373">
        <ele>576.8</ele>
        <time>2015-11-05T11:40:05Z</time>
      </trkpt>
      <trkpt lat="46.01583" lon="4.53739">
        <ele>578.6</ele>
        <time>2015-11-05T11:40:10Z</time>
      </trkpt>
      <trkpt lat="46.01579" lon="4.5375">
        <ele>580</ele>
        <time>2015-11-05T11:40:15Z</time>
      </trkpt>
      <trkpt lat="46.01577" lon="4.53764">
        <ele>580.8</ele>
        <time>2015-11-05T11:40:19Z</time>
      </trkpt>
      <trkpt lat="46.01572" lon="4.53774">
        <ele>581.7</ele>
        <time>2015-11-05T11:40:23Z</time>
      </trkpt>
      <trkpt lat="46.01567" lon="4.53783">
        <ele>583.3</ele>
        <time>2015-11-05T11:40:27Z</time>
      </trkpt>
      <trkpt lat="46.01559" lon="4.53783">
        <ele>585</ele>
        <time>2015-11-05T11:40:33Z</time>
      </trkpt>
      <trkpt lat="46.01552" lon="4.53792">
        <ele>587</ele>
        <time>2015-11-05T11:40:39Z</time>
      </trkpt>
      <trkpt lat="46.01544" lon="4.53798">
        <ele>589.8</ele>
        <time>2015-11-05T11:40:44Z</time>
      </trkpt>
      <trkpt lat="46.01535" lon="4.53806">
        <ele>592.9</ele>
        <time>2015-11-05T11:40:48Z</time>
      </trkpt>
      <trkpt lat="46.01529" lon="4.53816">
        <ele>596.1</ele>
        <time>2015-11-05T11:40:53Z</time>
      </trkpt>
      <trkpt lat="46.01523" lon="4.53825">
        <ele>597.6</ele>
        <time>2015-11-05T11:40:57Z</time>
      </trkpt>
      <trkpt lat="46.01521" lon="4.53837">
        <ele>597.7</ele>
        <time>2015-11-05T11:41:03Z</time>
      </trkpt>
      <trkpt lat="46.0153" lon="4.53835">
        <ele>597.3</ele>
        <time>2015-11-05T11:41:10Z</time>
      </trkpt>
      <trkpt lat="46.01538" lon="4.5383">
        <ele>596.7</ele>
        <time>2015-11-05T11:41:16Z</time>
      </trkpt>
      <trkpt lat="46.01545" lon="4.53826">
        <ele>595.8</ele>
        <time>2015-11-05T11:41:24Z</time>
      </trkpt>
      <trkpt lat="46.01553" lon="4.53833">
        <ele>594.5</ele>
        <time>2015-11-05T11:41:30Z</time>
      </trkpt>
      <trkpt lat="46.01562" lon="4.53838">
        <ele>593</ele>
        <time>2015-11-05T11:41:37Z</time>
      </trkpt>
      <trkpt lat="46.0157" lon="4.53837">
        <ele>591</ele>
        <time>2015-11-05T11:41:44Z</time>
      </trkpt>
      <trkpt lat="46.01579" lon="4.53834">
        <ele>588.3</ele>
        <time>2015-11-05T11:41:50Z</time>
      </trkpt>
      <trkpt lat="46.01587" lon="4.5383">
        <ele>585.4</ele>
        <time>2015-11-05T11:41:57Z</time>
      </trkpt>
      <trkpt lat="46.01593" lon="4.53821">
        <ele>582.3</ele>
        <time>2015-11-05T11:42:04Z</time>
      </trkpt>
      <trkpt lat="46.016" lon="4.53814">
        <ele>581.3</ele>
        <time>2015-11-05T11:42:11Z</time>
      </trkpt>
      <trkpt lat="46.01609" lon="4.53811">
        <ele>580.9</ele>
        <time>2015-11-05T11:42:18Z</time>
      </trkpt>
      <trkpt lat="46.01616" lon="4.53805">
        <ele>580.7</ele>
        <time>2015-11-05T11:42:24Z</time>
      </trkpt>
      <trkpt lat="46.01624" lon="4.53797">
        <ele>580.7</ele>
        <time>2015-11-05T11:42:31Z</time>
      </trkpt>
      <trkpt lat="46.01631" lon="4.53792">
        <ele>580.9</ele>
        <time>2015-11-05T11:42:37Z</time>
      </trkpt>
      <trkpt lat="46.01637" lon="4.53783">
        <ele>581.1</ele>
        <time>2015-11-05T11:42:44Z</time>
      </trkpt>
      <trkpt lat="46.01641" lon="4.53771">
        <ele>581</ele>
        <time>2015-11-05T11:42:51Z</time>
      </trkpt>
      <trkpt lat="46.01646" lon="4.5376">
        <ele>581</ele>
        <time>2015-11-05T11:42:57Z</time>
      </trkpt>
      <trkpt lat="46.01649" lon="4.53748">
        <ele>581.3</ele>
        <time>2015-11-05T11:43:03Z</time>
      </trkpt>
      <trkpt lat="46.01653" lon="4.53736">
        <ele>581.8</ele>
        <time>2015-11-05T11:43:10Z</time>
      </trkpt>
      <trkpt lat="46.0166" lon="4.5373">
        <ele>582.3</ele>
        <time>2015-11-05T11:43:16Z</time>
      </trkpt>
      <trkpt lat="46.01662" lon="4.53718">
        <ele>582.7</ele>
        <time>2015-11-05T11:43:21Z</time>
      </trkpt>
      <trkpt lat="46.0167" lon="4.53712">
        <ele>583.1</ele>
        <time>2015-11-05T11:43:27Z</time>
      </trkpt>
      <trkpt lat="46.01677" lon="4.53705">
        <ele>584</ele>
        <time>2015-11-05T11:43:34Z</time>
      </trkpt>
      <trkpt lat="46.01682" lon="4.53696">
        <ele>584.7</ele>
        <time>2015-11-05T11:43:42Z</time>
      </trkpt>
      <trkpt lat="46.0169" lon="4.5369">
        <ele>585.7</ele>
        <time>2015-11-05T11:43:49Z</time>
      </trkpt>
      <trkpt lat="46.01697" lon="4.53684">
        <ele>587.2</ele>
        <time>2015-11-05T11:43:56Z</time>
      </trkpt>
      <trkpt lat="46.01705" lon="4.53681">
        <ele>589.4</ele>
        <time>2015-11-05T11:44:02Z</time>
      </trkpt>
      <trkpt lat="46.01712" lon="4.53675">
        <ele>591.6</ele>
        <time>2015-11-05T11:44:08Z</time>
      </trkpt>
      <trkpt lat="46.01721" lon="4.5367">
        <ele>593.8</ele>
        <time>2015-11-05T11:44:14Z</time>
      </trkpt>
      <trkpt lat="46.01729" lon="4.53667">
        <ele>596.1</ele>
        <time>2015-11-05T11:44:20Z</time>
      </trkpt>
      <trkpt lat="46.01737" lon="4.53664">
        <ele>598.4</ele>
        <time>2015-11-05T11:44:27Z</time>
      </trkpt>
      <trkpt lat="46.01746" lon="4.53661">
        <ele>600.7</ele>
        <time>2015-11-05T11:44:35Z</time>
      </trkpt>
      <trkpt lat="46.01755" lon="4.53661">
        <ele>603.3</ele>
        <time>2015-11-05T11:44:41Z</time>
      </trkpt>
      <trkpt lat="46.01764" lon="4.53663">
        <ele>606</ele>
        <time>2015-11-05T11:44:48Z</time>
      </trkpt>
      <trkpt lat="46.01771" lon="4.53655">
        <ele>609.1</ele>
        <time>2015-11-05T11:44:57Z</time>
      </trkpt>
      <trkpt lat="46.01779" lon="4.53652">
        <ele>612</ele>
        <time>2015-11-05T11:45:07Z</time>
      </trkpt>
      <trkpt lat="46.01788" lon="4.53651">
        <ele>614.4</ele>
        <time>2015-11-05T11:45:13Z</time>
      </trkpt>
      <trkpt lat="46.01796" lon="4.53647">
        <ele>616.4</ele>
        <time>2015-11-05T11:45:19Z</time>
      </trkpt>
      <trkpt lat="46.01804" lon="4.53643">
        <ele>618.2</ele>
        <time>2015-11-05T11:45:25Z</time>
      </trkpt>
      <trkpt lat="46.01812" lon="4.53637">
        <ele>619.4</ele>
        <time>2015-11-05T11:45:32Z</time>
      </trkpt>
      <trkpt lat="46.01821" lon="4.53633">
        <ele>620.4</ele>
        <time>2015-11-05T11:45:38Z</time>
      </trkpt>
      <trkpt lat="46.0183" lon="4.53632">
        <ele>621.2</ele>
        <time>2015-11-05T11:45:44Z</time>
      </trkpt>
      <trkpt lat="46.01839" lon="4.53631">
        <ele>621.8</ele>
        <time>2015-11-05T11:45:50Z</time>
      </trkpt>
      <trkpt lat="46.01848" lon="4.53626">
        <ele>622.3</ele>
        <time>2015-11-05T11:45:57Z</time>
      </trkpt>
      <trkpt lat="46.01856" lon="4.53622">
        <ele>622.6</ele>
        <time>2015-11-05T11:46:03Z</time>
      </trkpt>
      <trkpt lat="46.01863" lon="4.53626">
        <ele>622.8</ele>
        <time>2015-11-05T11:46:09Z</time>
      </trkpt>
      <trkpt lat="46.01872" lon="4.53625">
        <ele>623.6</ele>
        <time>2015-11-05T11:46:14Z</time>
      </trkpt>
      <trkpt lat="46.0188" lon="4.53627">
        <ele>625.1</ele>
        <time>2015-11-05T11:46:20Z</time>
      </trkpt>
      <trkpt lat="46.01889" lon="4.53627">
        <ele>626.9</ele>
        <time>2015-11-05T11:46:29Z</time>
      </trkpt>
      <trkpt lat="46.01898" lon="4.53626">
        <ele>628.9</ele>
        <time>2015-11-05T11:46:38Z</time>
      </trkpt>
      <trkpt lat="46.01906" lon="4.53628">
        <ele>631.9</ele>
        <time>2015-11-05T11:46:45Z</time>
      </trkpt>
      <trkpt lat="46.01914" lon="4.53629">
        <ele>635.2</ele>
        <time>2015-11-05T11:46:53Z</time>
      </trkpt>
      <trkpt lat="46.01923" lon="4.53628">
        <ele>638.7</ele>
        <time>2015-11-05T11:47:01Z</time>
      </trkpt>
      <trkpt lat="46.01931" lon="4.53628">
        <ele>641.6</ele>
        <time>2015-11-05T11:47:07Z</time>
      </trkpt>
      <trkpt lat="46.0194" lon="4.53629">
        <ele>644.2</ele>
        <time>2015-11-05T11:47:12Z</time>
      </trkpt>
      <trkpt lat="46.01948" lon="4.5363">
        <ele>646.4</ele>
        <time>2015-11-05T11:47:17Z</time>
      </trkpt>
      <trkpt lat="46.01957" lon="4.53635">
        <ele>648.1</ele>
        <time>2015-11-05T11:47:22Z</time>
      </trkpt>
      <trkpt lat="46.01965" lon="4.53639">
        <ele>649</ele>
        <time>2015-11-05T11:47:26Z</time>
      </trkpt>
      <trkpt lat="46.01962" lon="4.53651">
        <ele>649</ele>
        <time>2015-11-05T11:47:45Z</time>
      </trkpt>
      <trkpt lat="46.01953" lon="4.53652">
        <ele>648.8</ele>
        <time>2015-11-05T11:47:52Z</time>
      </trkpt>
      <trkpt lat="46.01945" lon="4.53659">
        <ele>649</ele>
        <time>2015-11-05T11:47:59Z</time>
      </trkpt>
      <trkpt lat="46.01936" lon="4.53662">
        <ele>649</ele>
        <time>2015-11-05T11:48:06Z</time>
      </trkpt>
      <trkpt lat="46.01927" lon="4.53662">
        <ele>648.6</ele>
        <time>2015-11-05T11:48:13Z</time>
      </trkpt>
      <trkpt lat="46.01922" lon="4.53674">
        <ele>648</ele>
        <time>2015-11-05T11:48:20Z</time>
      </trkpt>
      <trkpt lat="46.01914" lon="4.5368">
        <ele>648.3</ele>
        <time>2015-11-05T11:48:27Z</time>
      </trkpt>
      <trkpt lat="46.01905" lon="4.5368">
        <ele>648.9</ele>
        <time>2015-11-05T11:48:32Z</time>
      </trkpt>
      <trkpt lat="46.01897" lon="4.53679">
        <ele>650.2</ele>
        <time>2015-11-05T11:48:37Z</time>
      </trkpt>
      <trkpt lat="46.01889" lon="4.53684">
        <ele>652.3</ele>
        <time>2015-11-05T11:48:44Z</time>
      </trkpt>
      <trkpt lat="46.01882" lon="4.53692">
        <ele>654.3</ele>
        <time>2015-11-05T11:48:51Z</time>
      </trkpt>
      <trkpt lat="46.01873" lon="4.53693">
        <ele>656</ele>
        <time>2015-11-05T11:48:59Z</time>
      </trkpt>
      <trkpt lat="46.01865" lon="4.53692">
        <ele>657.3</ele>
        <time>2015-11-05T11:49:06Z</time>
      </trkpt>
      <trkpt lat="46.01856" lon="4.53695">
        <ele>658.2</ele>
        <time>2015-11-05T11:49:12Z</time>
      </trkpt>
      <trkpt lat="46.01848" lon="4.53702">
        <ele>658.6</ele>
        <time>2015-11-05T11:49:18Z</time>
      </trkpt>
      <trkpt lat="46.01843" lon="4.53711">
        <ele>658.8</ele>
        <time>2015-11-05T11:49:26Z</time>
      </trkpt>
      <trkpt lat="46.01842" lon="4.53723">
        <ele>659.2</ele>
        <time>2015-11-05T11:49:33Z</time>
      </trkpt>
      <trkpt lat="46.01835" lon="4.53731">
        <ele>659</ele>
        <time>2015-11-05T11:49:44Z</time>
      </trkpt>
      <trkpt lat="46.01829" lon="4.53739">
        <ele>658.2</ele>
        <time>2015-11-05T11:49:52Z</time>
      </trkpt>
      <trkpt lat="46.01827" lon="4.5375">
        <ele>657.9</ele>
        <time>2015-11-05T11:49:58Z</time>
      </trkpt>
      <trkpt lat="46.01823" lon="4.53761">
        <ele>657.7</ele>
        <time>2015-11-05T11:50:04Z</time>
      </trkpt>
      <trkpt lat="46.01815" lon="4.53767">
        <ele>657.8</ele>
        <time>2015-11-05T11:50:11Z</time>
      </trkpt>
      <trkpt lat="46.01808" lon="4.53772">
        <ele>658.5</ele>
        <time>2015-11-05T11:50:20Z</time>
      </trkpt>
      <trkpt lat="46.018" lon="4.53776">
        <ele>660.1</ele>
        <time>2015-11-05T11:50:32Z</time>
      </trkpt>
      <trkpt lat="46.01792" lon="4.53782">
        <ele>662</ele>
        <time>2015-11-05T11:50:52Z</time>
      </trkpt>
      <trkpt lat="46.01785" lon="4.53788">
        <ele>664.4</ele>
        <time>2015-11-05T11:51:02Z</time>
      </trkpt>
      <trkpt lat="46.01783" lon="4.538">
        <ele>667</ele>
        <time>2015-11-05T11:51:12Z</time>
      </trkpt>
      <trkpt lat="46.01779" lon="4.53811">
        <ele>669.6</ele>
        <time>2015-11-05T11:51:48Z</time>
      </trkpt>
      <trkpt lat="46.01775" lon="4.53822">
        <ele>672.1</ele>
        <time>2015-11-05T11:51:59Z</time>
      </trkpt>
      <trkpt lat="46.0177" lon="4.53833">
        <ele>674.8</ele>
        <time>2015-11-05T11:52:07Z</time>
      </trkpt>
      <trkpt lat="46.01761" lon="4.53839">
        <ele>676.5</ele>
        <time>2015-11-05T11:52:14Z</time>
      </trkpt>
      <trkpt lat="46.01756" lon="4.53849">
        <ele>678.2</ele>
        <time>2015-11-05T11:52:25Z</time>
      </trkpt>
      <trkpt lat="46.01751" lon="4.53859">
        <ele>679.8</ele>
        <time>2015-11-05T11:52:32Z</time>
      </trkpt>
      <trkpt lat="46.01745" lon="4.53868">
        <ele>681.5</ele>
        <time>2015-11-05T11:52:39Z</time>
      </trkpt>
      <trkpt lat="46.01742" lon="4.53881">
        <ele>682</ele>
        <time>2015-11-05T11:52:45Z</time>
      </trkpt>
      <trkpt lat="46.01738" lon="4.53892">
        <ele>681.8</ele>
        <time>2015-11-05T11:52:51Z</time>
      </trkpt>
      <trkpt lat="46.01731" lon="4.53901">
        <ele>680.9</ele>
        <time>2015-11-05T11:52:58Z</time>
      </trkpt>
      <trkpt lat="46.01724" lon="4.53911">
        <ele>679.8</ele>
        <time>2015-11-05T11:53:05Z</time>
      </trkpt>
      <trkpt lat="46.01719" lon="4.5392">
        <ele>678.9</ele>
        <time>2015-11-05T11:53:12Z</time>
      </trkpt>
      <trkpt lat="46.01725" lon="4.53928">
        <ele>678.4</ele>
        <time>2015-11-05T11:53:21Z</time>
      </trkpt>
      <trkpt lat="46.01733" lon="4.53925">
        <ele>678.1</ele>
        <time>2015-11-05T11:53:33Z</time>
      </trkpt>
      <trkpt lat="46.01741" lon="4.53925">
        <ele>677.8</ele>
        <time>2015-11-05T11:53:43Z</time>
      </trkpt>
      <trkpt lat="46.0175" lon="4.53925">
        <ele>677</ele>
        <time>2015-11-05T11:53:50Z</time>
      </trkpt>
      <trkpt lat="46.01759" lon="4.53922">
        <ele>676.3</ele>
        <time>2015-11-05T11:53:58Z</time>
      </trkpt>
      <trkpt lat="46.01766" lon="4.53913">
        <ele>675.4</ele>
        <time>2015-11-05T11:54:05Z</time>
      </trkpt>
      <trkpt lat="46.01773" lon="4.53908">
        <ele>675.2</ele>
        <time>2015-11-05T11:54:10Z</time>
      </trkpt>
      <trkpt lat="46.01781" lon="4.53903">
        <ele>675.3</ele>
        <time>2015-11-05T11:54:15Z</time>
      </trkpt>
      <trkpt lat="46.01789" lon="4.53898">
        <ele>675.6</ele>
        <time>2015-11-05T11:54:20Z</time>
      </trkpt>
      <trkpt lat="46.01797" lon="4.53892">
        <ele>675.9</ele>
        <time>2015-11-05T11:54:25Z</time>
      </trkpt>
      <trkpt lat="46.01806" lon="4.53887">
        <ele>675.8</ele>
        <time>2015-11-05T11:54:30Z</time>
      </trkpt>
      <trkpt lat="46.01815" lon="4.53883">
        <ele>675.5</ele>
        <time>2015-11-05T11:54:35Z</time>
      </trkpt>
      <trkpt lat="46.01823" lon="4.53878">
        <ele>675.4</ele>
        <time>2015-11-05T11:54:40Z</time>
      </trkpt>
      <trkpt lat="46.01831" lon="4.53873">
        <ele>675.6</ele>
        <time>2015-11-05T11:54:45Z</time>
      </trkpt>
      <trkpt lat="46.01839" lon="4.53867">
        <ele>676</ele>
        <time>2015-11-05T11:54:50Z</time>
      </trkpt>
      <trkpt lat="46.01848" lon="4.53863">
        <ele>676.8</ele>
        <time>2015-11-05T11:54:55Z</time>
      </trkpt>
      <trkpt lat="46.01857" lon="4.5386">
        <ele>677.8</ele>
        <time>2015-11-05T11:55:00Z</time>
      </trkpt>
      <trkpt lat="46.01865" lon="4.53858">
        <ele>678.7</ele>
        <time>2015-11-05T11:55:05Z</time>
      </trkpt>
      <trkpt lat="46.01874" lon="4.53858">
        <ele>680</ele>
        <time>2015-11-05T11:55:11Z</time>
      </trkpt>
      <trkpt lat="46.01883" lon="4.53854">
        <ele>682.1</ele>
        <time>2015-11-05T11:55:19Z</time>
      </trkpt>
      <trkpt lat="46.01892" lon="4.53854">
        <ele>684.6</ele>
        <time>2015-11-05T11:55:26Z</time>
      </trkpt>
      <trkpt lat="46.01901" lon="4.53855">
        <ele>687.9</ele>
        <time>2015-11-05T11:55:32Z</time>
      </trkpt>
      <trkpt lat="46.0191" lon="4.53852">
        <ele>691</ele>
        <time>2015-11-05T11:55:39Z</time>
      </trkpt>
      <trkpt lat="46.01918" lon="4.53848">
        <ele>694</ele>
        <time>2015-11-05T11:55:45Z</time>
      </trkpt>
      <trkpt lat="46.01926" lon="4.5385">
        <ele>696.9</ele>
        <time>2015-11-05T11:55:52Z</time>
      </trkpt>
      <trkpt lat="46.01935" lon="4.53854">
        <ele>698.7</ele>
        <time>2015-11-05T11:55:59Z</time>
      </trkpt>
      <trkpt lat="46.01944" lon="4.53856">
        <ele>699.9</ele>
        <time>2015-11-05T11:56:06Z</time>
      </trkpt>
      <trkpt lat="46.01952" lon="4.5386">
        <ele>700.5</ele>
        <time>2015-11-05T11:56:12Z</time>
      </trkpt>
      <trkpt lat="46.0196" lon="4.53863">
        <ele>701.2</ele>
        <time>2015-11-05T11:56:17Z</time>
      </trkpt>
      <trkpt lat="46.01967" lon="4.53867">
        <ele>701.8</ele>
        <time>2015-11-05T11:56:22Z</time>
      </trkpt>
      <trkpt lat="46.01958" lon="4.5387">
        <ele>702</ele>
        <time>2015-11-05T11:56:31Z</time>
      </trkpt>
      <trkpt lat="46.01949" lon="4.53869">
        <ele>702.7</ele>
        <time>2015-11-05T11:56:36Z</time>
      </trkpt>
      <trkpt lat="46.01939" lon="4.53869">
        <ele>703.2</ele>
        <time>2015-11-05T11:56:41Z</time>
      </trkpt>
      <trkpt lat="46.01928" lon="4.53869">
        <ele>703.8</ele>
        <time>2015-11-05T11:56:45Z</time>
      </trkpt>
      <trkpt lat="46.01919" lon="4.53867">
        <ele>704.4</ele>
        <time>2015-11-05T11:56:48Z</time>
      </trkpt>
      <trkpt lat="46.01909" lon="4.53871">
        <ele>704.5</ele>
        <time>2015-11-05T11:56:51Z</time>
      </trkpt>
      <trkpt lat="46.01902" lon="4.53879">
        <ele>705.2</ele>
        <time>2015-11-05T11:56:54Z</time>
      </trkpt>
      <trkpt lat="46.01892" lon="4.53882">
        <ele>706.2</ele>
        <time>2015-11-05T11:56:57Z</time>
      </trkpt>
      <trkpt lat="46.01883" lon="4.53886">
        <ele>706.8</ele>
        <time>2015-11-05T11:57:00Z</time>
      </trkpt>
      <trkpt lat="46.01876" lon="4.53893">
        <ele>707.1</ele>
        <time>2015-11-05T11:57:03Z</time>
      </trkpt>
      <trkpt lat="46.01871" lon="4.53904">
        <ele>706.9</ele>
        <time>2015-11-05T11:57:06Z</time>
      </trkpt>
      <trkpt lat="46.01866" lon="4.53913">
        <ele>706.5</ele>
        <time>2015-11-05T11:57:09Z</time>
      </trkpt>
      <trkpt lat="46.0186" lon="4.53924">
        <ele>705.3</ele>
        <time>2015-11-05T11:57:12Z</time>
      </trkpt>
      <trkpt lat="46.01853" lon="4.53931">
        <ele>703.6</ele>
        <time>2015-11-05T11:57:16Z</time>
      </trkpt>
      <trkpt lat="46.01845" lon="4.53933">
        <ele>702</ele>
        <time>2015-11-05T11:57:20Z</time>
      </trkpt>
      <trkpt lat="46.01838" lon="4.5394">
        <ele>700.7</ele>
        <time>2015-11-05T11:57:24Z</time>
      </trkpt>
      <trkpt lat="46.0183" lon="4.53948">
        <ele>699.7</ele>
        <time>2015-11-05T11:57:28Z</time>
      </trkpt>
      <trkpt lat="46.01821" lon="4.53956">
        <ele>699</ele>
        <time>2015-11-05T11:57:32Z</time>
      </trkpt>
      <trkpt lat="46.01814" lon="4.53967">
        <ele>698</ele>
        <time>2015-11-05T11:57:36Z</time>
      </trkpt>
      <trkpt lat="46.01806" lon="4.53977">
        <ele>698</ele>
        <time>2015-11-05T11:57:40Z</time>
      </trkpt>
      <trkpt lat="46.01801" lon="4.5399">
        <ele>698.4</ele>
        <time>2015-11-05T11:57:44Z</time>
      </trkpt>
      <trkpt lat="46.01797" lon="4.54001">
        <ele>699.3</ele>
        <time>2015-11-05T11:57:48Z</time>
      </trkpt>
      <trkpt lat="46.01798" lon="4.54015">
        <ele>700.4</ele>
        <time>2015-11-05T11:57:52Z</time>
      </trkpt>
      <trkpt lat="46.01801" lon="4.54028">
        <ele>701.4</ele>
        <time>2015-11-05T11:57:55Z</time>
      </trkpt>
      <trkpt lat="46.01805" lon="4.54042">
        <ele>702.5</ele>
        <time>2015-11-05T11:57:58Z</time>
      </trkpt>
      <trkpt lat="46.01808" lon="4.54055">
        <ele>703.4</ele>
        <time>2015-11-05T11:58:01Z</time>
      </trkpt>
      <trkpt lat="46.01811" lon="4.54068">
        <ele>704.6</ele>
        <time>2015-11-05T11:58:04Z</time>
      </trkpt>
      <trkpt lat="46.01816" lon="4.54081">
        <ele>705.6</ele>
        <time>2015-11-05T11:58:07Z</time>
      </trkpt>
      <trkpt lat="46.0182" lon="4.54092">
        <ele>706.7</ele>
        <time>2015-11-05T11:58:09Z</time>
      </trkpt>
      <trkpt lat="46.01824" lon="4.54103">
        <ele>708</ele>
        <time>2015-11-05T11:58:11Z</time>
      </trkpt>
      <trkpt lat="46.01828" lon="4.54119">
        <ele>709</ele>
        <time>2015-11-05T11:58:14Z</time>
      </trkpt>
      <trkpt lat="46.01832" lon="4.54134">
        <ele>709.8</ele>
        <time>2015-11-05T11:58:17Z</time>
      </trkpt>
      <trkpt lat="46.01837" lon="4.54148">
        <ele>710.6</ele>
        <time>2015-11-05T11:58:20Z</time>
      </trkpt>
      <trkpt lat="46.01842" lon="4.54163">
        <ele>711.9</ele>
        <time>2015-11-05T11:58:23Z</time>
      </trkpt>
      <trkpt lat="46.01847" lon="4.54178">
        <ele>714.1</ele>
        <time>2015-11-05T11:58:26Z</time>
      </trkpt>
      <trkpt lat="46.01851" lon="4.54191">
        <ele>716.5</ele>
        <time>2015-11-05T11:58:28Z</time>
      </trkpt>
      <trkpt lat="46.01854" lon="4.54206">
        <ele>718.9</ele>
        <time>2015-11-05T11:58:30Z</time>
      </trkpt>
      <trkpt lat="46.01855" lon="4.54222">
        <ele>720.8</ele>
        <time>2015-11-05T11:58:33Z</time>
      </trkpt>
      <trkpt lat="46.01856" lon="4.54237">
        <ele>722.8</ele>
        <time>2015-11-05T11:58:36Z</time>
      </trkpt>
      <trkpt lat="46.01853" lon="4.54249">
        <ele>724.4</ele>
        <time>2015-11-05T11:58:39Z</time>
      </trkpt>
      <trkpt lat="46.01851" lon="4.54266">
        <ele>725.7</ele>
        <time>2015-11-05T11:58:42Z</time>
      </trkpt>
      <trkpt lat="46.01851" lon="4.54278">
        <ele>726.6</ele>
        <time>2015-11-05T11:58:44Z</time>
      </trkpt>
      <trkpt lat="46.01853" lon="4.5429">
        <ele>727.5</ele>
        <time>2015-11-05T11:58:45Z</time>
      </trkpt>
      <trkpt lat="46.01853" lon="4.54306">
        <ele>728.1</ele>
        <time>2015-11-05T11:58:47Z</time>
      </trkpt>
      <trkpt lat="46.01853" lon="4.54322">
        <ele>728.1</ele>
        <time>2015-11-05T11:58:49Z</time>
      </trkpt>
      <trkpt lat="46.01848" lon="4.54336">
        <ele>727.2</ele>
        <time>2015-11-05T11:58:52Z</time>
      </trkpt>
      <trkpt lat="46.0184" lon="4.54354">
        <ele>726.3</ele>
        <time>2015-11-05T11:58:55Z</time>
      </trkpt>
      <trkpt lat="46.01834" lon="4.54368">
        <ele>724.8</ele>
        <time>2015-11-05T11:58:57Z</time>
      </trkpt>
      <trkpt lat="46.01827" lon="4.54377">
        <ele>723.3</ele>
        <time>2015-11-05T11:58:59Z</time>
      </trkpt>
      <trkpt lat="46.01821" lon="4.54392">
        <ele>721.7</ele>
        <time>2015-11-05T11:59:02Z</time>
      </trkpt>
      <trkpt lat="46.01815" lon="4.54401">
        <ele>720</ele>
        <time>2015-11-05T11:59:04Z</time>
      </trkpt>
      <trkpt lat="46.01805" lon="4.54409">
        <ele>718.6</ele>
        <time>2015-11-05T11:59:07Z</time>
      </trkpt>
      <trkpt lat="46.01798" lon="4.54421">
        <ele>717.5</ele>
        <time>2015-11-05T11:59:11Z</time>
      </trkpt>
      <trkpt lat="46.0179" lon="4.5443">
        <ele>716.3</ele>
        <time>2015-11-05T11:59:14Z</time>
      </trkpt>
      <trkpt lat="46.01783" lon="4.54442">
        <ele>715</ele>
        <time>2015-11-05T11:59:17Z</time>
      </trkpt>
      <trkpt lat="46.01778" lon="4.54457">
        <ele>713.6</ele>
        <time>2015-11-05T11:59:20Z</time>
      </trkpt>
      <trkpt lat="46.01774" lon="4.54468">
        <ele>712</ele>
        <time>2015-11-05T11:59:22Z</time>
      </trkpt>
      <trkpt lat="46.01767" lon="4.54481">
        <ele>710.2</ele>
        <time>2015-11-05T11:59:24Z</time>
      </trkpt>
      <trkpt lat="46.0176" lon="4.54492">
        <ele>708.5</ele>
        <time>2015-11-05T11:59:26Z</time>
      </trkpt>
      <trkpt lat="46.01754" lon="4.54506">
        <ele>707</ele>
        <time>2015-11-05T11:59:28Z</time>
      </trkpt>
      <trkpt lat="46.01746" lon="4.5452">
        <ele>705.5</ele>
        <time>2015-11-05T11:59:30Z</time>
      </trkpt>
      <trkpt lat="46.01737" lon="4.54533">
        <ele>703.9</ele>
        <time>2015-11-05T11:59:32Z</time>
      </trkpt>
      <trkpt lat="46.01728" lon="4.54537">
        <ele>702.4</ele>
        <time>2015-11-05T11:59:34Z</time>
      </trkpt>
      <trkpt lat="46.01715" lon="4.5454">
        <ele>700.8</ele>
        <time>2015-11-05T11:59:36Z</time>
      </trkpt>
      <trkpt lat="46.01705" lon="4.54536">
        <ele>699.5</ele>
        <time>2015-11-05T11:59:38Z</time>
      </trkpt>
      <trkpt lat="46.0169" lon="4.54533">
        <ele>697.9</ele>
        <time>2015-11-05T11:59:41Z</time>
      </trkpt>
      <trkpt lat="46.01681" lon="4.54529">
        <ele>696.4</ele>
        <time>2015-11-05T11:59:43Z</time>
      </trkpt>
      <trkpt lat="46.01672" lon="4.54522">
        <ele>695.1</ele>
        <time>2015-11-05T11:59:45Z</time>
      </trkpt>
      <trkpt lat="46.01662" lon="4.5451">
        <ele>694</ele>
        <time>2015-11-05T11:59:48Z</time>
      </trkpt>
      <trkpt lat="46.01654" lon="4.54497">
        <ele>693.2</ele>
        <time>2015-11-05T11:59:50Z</time>
      </trkpt>
      <trkpt lat="46.01646" lon="4.54485">
        <ele>692.5</ele>
        <time>2015-11-05T11:59:53Z</time>
      </trkpt>
      <trkpt lat="46.01642" lon="4.54473">
        <ele>691.9</ele>
        <time>2015-11-05T11:59:55Z</time>
      </trkpt>
      <trkpt lat="46.01636" lon="4.54465">
        <ele>691.5</ele>
        <time>2015-11-05T11:59:57Z</time>
      </trkpt>
      <trkpt lat="46.01629" lon="4.54458">
        <ele>691.2</ele>
        <time>2015-11-05T11:59:59Z</time>
      </trkpt>
      <trkpt lat="46.01624" lon="4.54449">
        <ele>691</ele>
        <time>2015-11-05T12:00:01Z</time>
      </trkpt>
      <trkpt lat="46.01619" lon="4.54439">
        <ele>690.5</ele>
        <time>2015-11-05T12:00:03Z</time>
      </trkpt>
      <trkpt lat="46.01615" lon="4.54429">
        <ele>690.6</ele>
        <time>2015-11-05T12:00:05Z</time>
      </trkpt>
      <trkpt lat="46.01611" lon="4.54418">
        <ele>690.6</ele>
        <time>2015-11-05T12:00:07Z</time>
      </trkpt>
      <trkpt lat="46.01606" lon="4.54403">
        <ele>690.6</ele>
        <time>2015-11-05T12:00:10Z</time>
      </trkpt>
      <trkpt lat="46.01601" lon="4.54387">
        <ele>690.4</ele>
        <time>2015-11-05T12:00:13Z</time>
      </trkpt>
      <trkpt lat="46.01597" lon="4.54377">
        <ele>690.2</ele>
        <time>2015-11-05T12:00:15Z</time>
      </trkpt>
      <trkpt lat="46.01593" lon="4.54367">
        <ele>689.9</ele>
        <time>2015-11-05T12:00:17Z</time>
      </trkpt>
      <trkpt lat="46.01589" lon="4.54356">
        <ele>689.4</ele>
        <time>2015-11-05T12:00:19Z</time>
      </trkpt>
      <trkpt lat="46.01585" lon="4.54345">
        <ele>689</ele>
        <time>2015-11-05T12:00:21Z</time>
      </trkpt>
      <trkpt lat="46.01579" lon="4.54335">
        <ele>688.4</ele>
        <time>2015-11-05T12:00:23Z</time>
      </trkpt>
      <trkpt lat="46.01573" lon="4.54326">
        <ele>687.9</ele>
        <time>2015-11-05T12:00:25Z</time>
      </trkpt>
      <trkpt lat="46.01567" lon="4.54317">
        <ele>687.4</ele>
        <time>2015-11-05T12:00:27Z</time>
      </trkpt>
      <trkpt lat="46.01559" lon="4.54309">
        <ele>686.8</ele>
        <time>2015-11-05T12:00:29Z</time>
      </trkpt>
      <trkpt lat="46.01552" lon="4.54302">
        <ele>686.1</ele>
        <time>2015-11-05T12:00:31Z</time>
      </trkpt>
      <trkpt lat="46.01542" lon="4.54294">
        <ele>685.5</ele>
        <time>2015-11-05T12:00:33Z</time>
      </trkpt>
      <trkpt lat="46.01534" lon="4.54286">
        <ele>685</ele>
        <time>2015-11-05T12:00:35Z</time>
      </trkpt>
      <trkpt lat="46.01527" lon="4.54277">
        <ele>684.5</ele>
        <time>2015-11-05T12:00:37Z</time>
      </trkpt>
      <trkpt lat="46.01518" lon="4.54268">
        <ele>683.9</ele>
        <time>2015-11-05T12:00:40Z</time>
      </trkpt>
      <trkpt lat="46.01509" lon="4.54261">
        <ele>682.9</ele>
        <time>2015-11-05T12:00:45Z</time>
      </trkpt>
      <trkpt lat="46.015" lon="4.54256">
        <ele>682.1</ele>
        <time>2015-11-05T12:00:49Z</time>
      </trkpt>
      <trkpt lat="46.01491" lon="4.5425">
        <ele>682.1</ele>
        <time>2015-11-05T12:00:53Z</time>
      </trkpt>
      <trkpt lat="46.0148" lon="4.54247">
        <ele>682</ele>
        <time>2015-11-05T12:00:57Z</time>
      </trkpt>
      <trkpt lat="46.0147" lon="4.54247">
        <ele>681.8</ele>
        <time>2015-11-05T12:01:01Z</time>
      </trkpt>
      <trkpt lat="46.01473" lon="4.54233">
        <ele>681.6</ele>
        <time>2015-11-05T12:01:38Z</time>
      </trkpt>
      <trkpt lat="46.0146" lon="4.54246">
        <ele>681.3</ele>
        <time>2015-11-05T12:03:21Z</time>
      </trkpt>
      <trkpt lat="46.01451" lon="4.54246">
        <ele>681.1</ele>
        <time>2015-11-05T12:03:25Z</time>
      </trkpt>
      <trkpt lat="46.0144" lon="4.54254">
        <ele>680.8</ele>
        <time>2015-11-05T12:03:28Z</time>
      </trkpt>
      <trkpt lat="46.01433" lon="4.54261">
        <ele>680.6</ele>
        <time>2015-11-05T12:03:30Z</time>
      </trkpt>
      <trkpt lat="46.01426" lon="4.54268">
        <ele>680.4</ele>
        <time>2015-11-05T12:03:32Z</time>
      </trkpt>
      <trkpt lat="46.01419" lon="4.54275">
        <ele>680.8</ele>
        <time>2015-11-05T12:03:34Z</time>
      </trkpt>
      <trkpt lat="46.01412" lon="4.54283">
        <ele>680.9</ele>
        <time>2015-11-05T12:03:36Z</time>
      </trkpt>
      <trkpt lat="46.01406" lon="4.54293">
        <ele>680.3</ele>
        <time>2015-11-05T12:03:38Z</time>
      </trkpt>
      <trkpt lat="46.014" lon="4.54302">
        <ele>679.8</ele>
        <time>2015-11-05T12:03:40Z</time>
      </trkpt>
      <trkpt lat="46.01393" lon="4.54312">
        <ele>679.3</ele>
        <time>2015-11-05T12:03:42Z</time>
      </trkpt>
      <trkpt lat="46.01386" lon="4.54321">
        <ele>678.8</ele>
        <time>2015-11-05T12:03:44Z</time>
      </trkpt>
      <trkpt lat="46.0138" lon="4.54332">
        <ele>678.2</ele>
        <time>2015-11-05T12:03:46Z</time>
      </trkpt>
      <trkpt lat="46.01374" lon="4.54342">
        <ele>677.7</ele>
        <time>2015-11-05T12:03:48Z</time>
      </trkpt>
      <trkpt lat="46.01368" lon="4.54353">
        <ele>677.1</ele>
        <time>2015-11-05T12:03:50Z</time>
      </trkpt>
      <trkpt lat="46.01361" lon="4.54363">
        <ele>676.6</ele>
        <time>2015-11-05T12:03:52Z</time>
      </trkpt>
      <trkpt lat="46.01352" lon="4.5437">
        <ele>676.2</ele>
        <time>2015-11-05T12:03:54Z</time>
      </trkpt>
      <trkpt lat="46.01343" lon="4.5437">
        <ele>676</ele>
        <time>2015-11-05T12:03:56Z</time>
      </trkpt>
      <trkpt lat="46.01334" lon="4.54363">
        <ele>675.8</ele>
        <time>2015-11-05T12:03:58Z</time>
      </trkpt>
      <trkpt lat="46.01328" lon="4.54352">
        <ele>675.8</ele>
        <time>2015-11-05T12:04:00Z</time>
      </trkpt>
      <trkpt lat="46.01322" lon="4.54341">
        <ele>675.8</ele>
        <time>2015-11-05T12:04:02Z</time>
      </trkpt>
      <trkpt lat="46.01318" lon="4.54328">
        <ele>675.9</ele>
        <time>2015-11-05T12:04:04Z</time>
      </trkpt>
      <trkpt lat="46.01313" lon="4.54317">
        <ele>676</ele>
        <time>2015-11-05T12:04:06Z</time>
      </trkpt>
      <trkpt lat="46.0131" lon="4.54304">
        <ele>676.3</ele>
        <time>2015-11-05T12:04:08Z</time>
      </trkpt>
      <trkpt lat="46.01305" lon="4.54293">
        <ele>676.7</ele>
        <time>2015-11-05T12:04:10Z</time>
      </trkpt>
      <trkpt lat="46.01301" lon="4.54282">
        <ele>677.1</ele>
        <time>2015-11-05T12:04:12Z</time>
      </trkpt>
      <trkpt lat="46.01298" lon="4.54271">
        <ele>677.6</ele>
        <time>2015-11-05T12:04:14Z</time>
      </trkpt>
      <trkpt lat="46.01292" lon="4.54255">
        <ele>678.1</ele>
        <time>2015-11-05T12:04:17Z</time>
      </trkpt>
      <trkpt lat="46.01288" lon="4.54245">
        <ele>678.6</ele>
        <time>2015-11-05T12:04:19Z</time>
      </trkpt>
      <trkpt lat="46.01285" lon="4.54233">
        <ele>679.1</ele>
        <time>2015-11-05T12:04:21Z</time>
      </trkpt>
      <trkpt lat="46.01282" lon="4.54222">
        <ele>679.6</ele>
        <time>2015-11-05T12:04:23Z</time>
      </trkpt>
      <trkpt lat="46.01278" lon="4.54207">
        <ele>680.1</ele>
        <time>2015-11-05T12:04:26Z</time>
      </trkpt>
      <trkpt lat="46.01275" lon="4.54196">
        <ele>680.6</ele>
        <time>2015-11-05T12:04:28Z</time>
      </trkpt>
      <trkpt lat="46.01272" lon="4.54184">
        <ele>680.9</ele>
        <time>2015-11-05T12:04:30Z</time>
      </trkpt>
      <trkpt lat="46.0127" lon="4.54173">
        <ele>681.2</ele>
        <time>2015-11-05T12:04:32Z</time>
      </trkpt>
      <trkpt lat="46.01268" lon="4.54161">
        <ele>681.3</ele>
        <time>2015-11-05T12:04:34Z</time>
      </trkpt>
      <trkpt lat="46.01262" lon="4.54147">
        <ele>681.3</ele>
        <time>2015-11-05T12:04:37Z</time>
      </trkpt>
      <trkpt lat="46.01252" lon="4.54139">
        <ele>681.2</ele>
        <time>2015-11-05T12:04:40Z</time>
      </trkpt>
      <trkpt lat="46.01242" lon="4.5414">
        <ele>681.2</ele>
        <time>2015-11-05T12:04:43Z</time>
      </trkpt>
      <trkpt lat="46.01233" lon="4.54145">
        <ele>681</ele>
        <time>2015-11-05T12:04:46Z</time>
      </trkpt>
      <trkpt lat="46.01224" lon="4.54152">
        <ele>680.9</ele>
        <time>2015-11-05T12:04:49Z</time>
      </trkpt>
      <trkpt lat="46.01215" lon="4.54158">
        <ele>680.7</ele>
        <time>2015-11-05T12:04:52Z</time>
      </trkpt>
      <trkpt lat="46.01205" lon="4.54162">
        <ele>680.6</ele>
        <time>2015-11-05T12:04:55Z</time>
      </trkpt>
      <trkpt lat="46.01194" lon="4.54167">
        <ele>680.3</ele>
        <time>2015-11-05T12:04:58Z</time>
      </trkpt>
      <trkpt lat="46.01184" lon="4.54171">
        <ele>680.1</ele>
        <time>2015-11-05T12:05:01Z</time>
      </trkpt>
      <trkpt lat="46.01174" lon="4.54176">
        <ele>679.9</ele>
        <time>2015-11-05T12:05:04Z</time>
      </trkpt>
      <trkpt lat="46.01165" lon="4.54179">
        <ele>679.8</ele>
        <time>2015-11-05T12:05:07Z</time>
      </trkpt>
      <trkpt lat="46.01155" lon="4.54181">
        <ele>679.8</ele>
        <time>2015-11-05T12:05:10Z</time>
      </trkpt>
      <trkpt lat="46.01146" lon="4.54184">
        <ele>679.7</ele>
        <time>2015-11-05T12:05:13Z</time>
      </trkpt>
      <trkpt lat="46.01137" lon="4.54188">
        <ele>679.6</ele>
        <time>2015-11-05T12:05:16Z</time>
      </trkpt>
      <trkpt lat="46.01128" lon="4.54192">
        <ele>679.5</ele>
        <time>2015-11-05T12:05:19Z</time>
      </trkpt>
      <trkpt lat="46.01119" lon="4.54196">
        <ele>679.4</ele>
        <time>2015-11-05T12:05:22Z</time>
      </trkpt>
      <trkpt lat="46.0111" lon="4.54199">
        <ele>679.4</ele>
        <time>2015-11-05T12:05:25Z</time>
      </trkpt>
      <trkpt lat="46.011" lon="4.54202">
        <ele>679.3</ele>
        <time>2015-11-05T12:05:28Z</time>
      </trkpt>
      <trkpt lat="46.01091" lon="4.54203">
        <ele>679.4</ele>
        <time>2015-11-05T12:05:31Z</time>
      </trkpt>
      <trkpt lat="46.01081" lon="4.54202">
        <ele>679.4</ele>
        <time>2015-11-05T12:05:34Z</time>
      </trkpt>
      <trkpt lat="46.01072" lon="4.542">
        <ele>679.4</ele>
        <time>2015-11-05T12:05:37Z</time>
      </trkpt>
      <trkpt lat="46.01062" lon="4.54194">
        <ele>679.3</ele>
        <time>2015-11-05T12:05:40Z</time>
      </trkpt>
      <trkpt lat="46.01053" lon="4.54188">
        <ele>679.4</ele>
        <time>2015-11-05T12:05:43Z</time>
      </trkpt>
      <trkpt lat="46.01044" lon="4.54184">
        <ele>679.7</ele>
        <time>2015-11-05T12:05:46Z</time>
      </trkpt>
      <trkpt lat="46.01035" lon="4.54179">
        <ele>679.9</ele>
        <time>2015-11-05T12:05:50Z</time>
      </trkpt>
      <trkpt lat="46.01025" lon="4.54175">
        <ele>680</ele>
        <time>2015-11-05T12:05:54Z</time>
      </trkpt>
      <trkpt lat="46.01017" lon="4.54171">
        <ele>680.2</ele>
        <time>2015-11-05T12:05:57Z</time>
      </trkpt>
      <trkpt lat="46.01008" lon="4.54169">
        <ele>680.4</ele>
        <time>2015-11-05T12:06:00Z</time>
      </trkpt>
      <trkpt lat="46.00999" lon="4.54168">
        <ele>680.7</ele>
        <time>2015-11-05T12:06:03Z</time>
      </trkpt>
      <trkpt lat="46.00991" lon="4.54166">
        <ele>681.1</ele>
        <time>2015-11-05T12:06:06Z</time>
      </trkpt>
      <trkpt lat="46.00982" lon="4.54162">
        <ele>681.6</ele>
        <time>2015-11-05T12:06:09Z</time>
      </trkpt>
      <trkpt lat="46.00974" lon="4.54157">
        <ele>682.1</ele>
        <time>2015-11-05T12:06:12Z</time>
      </trkpt>
      <trkpt lat="46.00966" lon="4.54152">
        <ele>682.7</ele>
        <time>2015-11-05T12:06:15Z</time>
      </trkpt>
      <trkpt lat="46.00959" lon="4.54144">
        <ele>683</ele>
        <time>2015-11-05T12:06:18Z</time>
      </trkpt>
      <trkpt lat="46.00959" lon="4.54131">
        <ele>683.3</ele>
        <time>2015-11-05T12:06:21Z</time>
      </trkpt>
      <trkpt lat="46.00964" lon="4.5412">
        <ele>683.9</ele>
        <time>2015-11-05T12:06:24Z</time>
      </trkpt>
      <trkpt lat="46.00971" lon="4.54111">
        <ele>684.7</ele>
        <time>2015-11-05T12:06:27Z</time>
      </trkpt>
      <trkpt lat="46.0098" lon="4.54104">
        <ele>685.4</ele>
        <time>2015-11-05T12:06:30Z</time>
      </trkpt>
      <trkpt lat="46.00988" lon="4.54098">
        <ele>686.1</ele>
        <time>2015-11-05T12:06:33Z</time>
      </trkpt>
      <trkpt lat="46.00995" lon="4.54093">
        <ele>686.7</ele>
        <time>2015-11-05T12:06:36Z</time>
      </trkpt>
      <trkpt lat="46.01005" lon="4.54086">
        <ele>687.2</ele>
        <time>2015-11-05T12:06:40Z</time>
      </trkpt>
      <trkpt lat="46.01012" lon="4.54079">
        <ele>687.6</ele>
        <time>2015-11-05T12:06:43Z</time>
      </trkpt>
      <trkpt lat="46.01019" lon="4.54074">
        <ele>688</ele>
        <time>2015-11-05T12:06:46Z</time>
      </trkpt>
      <trkpt lat="46.01027" lon="4.54068">
        <ele>688.3</ele>
        <time>2015-11-05T12:06:49Z</time>
      </trkpt>
      <trkpt lat="46.01033" lon="4.54059">
        <ele>689.1</ele>
        <time>2015-11-05T12:06:52Z</time>
      </trkpt>
      <trkpt lat="46.0104" lon="4.54051">
        <ele>689.7</ele>
        <time>2015-11-05T12:06:55Z</time>
      </trkpt>
      <trkpt lat="46.01046" lon="4.54043">
        <ele>690.4</ele>
        <time>2015-11-05T12:06:58Z</time>
      </trkpt>
      <trkpt lat="46.01052" lon="4.54035">
        <ele>690.8</ele>
        <time>2015-11-05T12:07:01Z</time>
      </trkpt>
      <trkpt lat="46.01059" lon="4.54024">
        <ele>691.3</ele>
        <time>2015-11-05T12:07:05Z</time>
      </trkpt>
      <trkpt lat="46.01064" lon="4.54014">
        <ele>691.6</ele>
        <time>2015-11-05T12:07:08Z</time>
      </trkpt>
      <trkpt lat="46.01068" lon="4.54004">
        <ele>692</ele>
        <time>2015-11-05T12:07:11Z</time>
      </trkpt>
      <trkpt lat="46.0107" lon="4.53993">
        <ele>692.5</ele>
        <time>2015-11-05T12:07:14Z</time>
      </trkpt>
      <trkpt lat="46.01073" lon="4.53978">
        <ele>693.3</ele>
        <time>2015-11-05T12:07:18Z</time>
      </trkpt>
      <trkpt lat="46.01074" lon="4.53966">
        <ele>694.3</ele>
        <time>2015-11-05T12:07:22Z</time>
      </trkpt>
      <trkpt lat="46.01074" lon="4.53952">
        <ele>695.4</ele>
        <time>2015-11-05T12:07:26Z</time>
      </trkpt>
      <trkpt lat="46.01073" lon="4.53939">
        <ele>696.8</ele>
        <time>2015-11-05T12:07:29Z</time>
      </trkpt>
      <trkpt lat="46.01073" lon="4.53927">
        <ele>697.7</ele>
        <time>2015-11-05T12:07:32Z</time>
      </trkpt>
      <trkpt lat="46.01075" lon="4.53915">
        <ele>698.6</ele>
        <time>2015-11-05T12:07:35Z</time>
      </trkpt>
      <trkpt lat="46.01077" lon="4.539">
        <ele>699.6</ele>
        <time>2015-11-05T12:07:39Z</time>
      </trkpt>
      <trkpt lat="46.01078" lon="4.53884">
        <ele>700.5</ele>
        <time>2015-11-05T12:07:43Z</time>
      </trkpt>
      <trkpt lat="46.01078" lon="4.53871">
        <ele>701.6</ele>
        <time>2015-11-05T12:07:46Z</time>
      </trkpt>
      <trkpt lat="46.01079" lon="4.53858">
        <ele>702.5</ele>
        <time>2015-11-05T12:07:49Z</time>
      </trkpt>
      <trkpt lat="46.0108" lon="4.53846">
        <ele>703.2</ele>
        <time>2015-11-05T12:07:52Z</time>
      </trkpt>
      <trkpt lat="46.01081" lon="4.53834">
        <ele>703.9</ele>
        <time>2015-11-05T12:07:55Z</time>
      </trkpt>
      <trkpt lat="46.01083" lon="4.53822">
        <ele>704.6</ele>
        <time>2015-11-05T12:07:58Z</time>
      </trkpt>
      <trkpt lat="46.01085" lon="4.5381">
        <ele>705.3</ele>
        <time>2015-11-05T12:08:01Z</time>
      </trkpt>
      <trkpt lat="46.01088" lon="4.53799">
        <ele>705.9</ele>
        <time>2015-11-05T12:08:04Z</time>
      </trkpt>
      <trkpt lat="46.01092" lon="4.53788">
        <ele>706.7</ele>
        <time>2015-11-05T12:08:07Z</time>
      </trkpt>
      <trkpt lat="46.01097" lon="4.53778">
        <ele>707.6</ele>
        <time>2015-11-05T12:08:10Z</time>
      </trkpt>
      <trkpt lat="46.01102" lon="4.53768">
        <ele>708.4</ele>
        <time>2015-11-05T12:08:13Z</time>
      </trkpt>
      <trkpt lat="46.01108" lon="4.53759">
        <ele>708.7</ele>
        <time>2015-11-05T12:08:16Z</time>
      </trkpt>
      <trkpt lat="46.01115" lon="4.5375">
        <ele>708.9</ele>
        <time>2015-11-05T12:08:19Z</time>
      </trkpt>
      <trkpt lat="46.01122" lon="4.53742">
        <ele>709</ele>
        <time>2015-11-05T12:08:22Z</time>
      </trkpt>
      <trkpt lat="46.01131" lon="4.53733">
        <ele>709.1</ele>
        <time>2015-11-05T12:08:25Z</time>
      </trkpt>
      <trkpt lat="46.01137" lon="4.53724">
        <ele>708.7</ele>
        <time>2015-11-05T12:08:27Z</time>
      </trkpt>
      <trkpt lat="46.0114" lon="4.53711">
        <ele>708.2</ele>
        <time>2015-11-05T12:08:29Z</time>
      </trkpt>
      <trkpt lat="46.01137" lon="4.53693">
        <ele>707.4</ele>
        <time>2015-11-05T12:08:31Z</time>
      </trkpt>
      <trkpt lat="46.01133" lon="4.53679">
        <ele>706.3</ele>
        <time>2015-11-05T12:08:33Z</time>
      </trkpt>
      <trkpt lat="46.01127" lon="4.53666">
        <ele>705.1</ele>
        <time>2015-11-05T12:08:35Z</time>
      </trkpt>
      <trkpt lat="46.01118" lon="4.53654">
        <ele>703.6</ele>
        <time>2015-11-05T12:08:37Z</time>
      </trkpt>
      <trkpt lat="46.01108" lon="4.53643">
        <ele>702.1</ele>
        <time>2015-11-05T12:08:39Z</time>
      </trkpt>
      <trkpt lat="46.01095" lon="4.53632">
        <ele>700.7</ele>
        <time>2015-11-05T12:08:41Z</time>
      </trkpt>
      <trkpt lat="46.01084" lon="4.53623">
        <ele>699.3</ele>
        <time>2015-11-05T12:08:43Z</time>
      </trkpt>
      <trkpt lat="46.01071" lon="4.53614">
        <ele>698</ele>
        <time>2015-11-05T12:08:45Z</time>
      </trkpt>
      <trkpt lat="46.01059" lon="4.53605">
        <ele>696.9</ele>
        <time>2015-11-05T12:08:47Z</time>
      </trkpt>
      <trkpt lat="46.01047" lon="4.53599">
        <ele>696.1</ele>
        <time>2015-11-05T12:08:49Z</time>
      </trkpt>
      <trkpt lat="46.01034" lon="4.53592">
        <ele>695.4</ele>
        <time>2015-11-05T12:08:51Z</time>
      </trkpt>
      <trkpt lat="46.01021" lon="4.53585">
        <ele>694.5</ele>
        <time>2015-11-05T12:08:53Z</time>
      </trkpt>
      <trkpt lat="46.01012" lon="4.5358">
        <ele>693.7</ele>
        <time>2015-11-05T12:08:55Z</time>
      </trkpt>
      <trkpt lat="46.01002" lon="4.53577">
        <ele>692.8</ele>
        <time>2015-11-05T12:09:00Z</time>
      </trkpt>
      <trkpt lat="46.00991" lon="4.53575">
        <ele>692</ele>
        <time>2015-11-05T12:09:03Z</time>
      </trkpt>
      <trkpt lat="46.00983" lon="4.53573">
        <ele>691.4</ele>
        <time>2015-11-05T12:09:05Z</time>
      </trkpt>
      <trkpt lat="46.00975" lon="4.53572">
        <ele>690.9</ele>
        <time>2015-11-05T12:09:07Z</time>
      </trkpt>
      <trkpt lat="46.00965" lon="4.53572">
        <ele>690.5</ele>
        <time>2015-11-05T12:09:09Z</time>
      </trkpt>
      <trkpt lat="46.00955" lon="4.53571">
        <ele>690.2</ele>
        <time>2015-11-05T12:09:11Z</time>
      </trkpt>
      <trkpt lat="46.00945" lon="4.53571">
        <ele>689.8</ele>
        <time>2015-11-05T12:09:13Z</time>
      </trkpt>
      <trkpt lat="46.00935" lon="4.53572">
        <ele>689.4</ele>
        <time>2015-11-05T12:09:15Z</time>
      </trkpt>
      <trkpt lat="46.00926" lon="4.53573">
        <ele>688.8</ele>
        <time>2015-11-05T12:09:17Z</time>
      </trkpt>
      <trkpt lat="46.00915" lon="4.53575">
        <ele>688.3</ele>
        <time>2015-11-05T12:09:19Z</time>
      </trkpt>
      <trkpt lat="46.00904" lon="4.53578">
        <ele>687.9</ele>
        <time>2015-11-05T12:09:21Z</time>
      </trkpt>
      <trkpt lat="46.00893" lon="4.53579">
        <ele>687.4</ele>
        <time>2015-11-05T12:09:23Z</time>
      </trkpt>
      <trkpt lat="46.00883" lon="4.53579">
        <ele>687</ele>
        <time>2015-11-05T12:09:25Z</time>
      </trkpt>
      <trkpt lat="46.00872" lon="4.53576">
        <ele>686.5</ele>
        <time>2015-11-05T12:09:27Z</time>
      </trkpt>
      <trkpt lat="46.00861" lon="4.53576">
        <ele>686.1</ele>
        <time>2015-11-05T12:09:29Z</time>
      </trkpt>
      <trkpt lat="46.0085" lon="4.53576">
        <ele>685.5</ele>
        <time>2015-11-05T12:09:31Z</time>
      </trkpt>
      <trkpt lat="46.00839" lon="4.53577">
        <ele>684.9</ele>
        <time>2015-11-05T12:09:33Z</time>
      </trkpt>
      <trkpt lat="46.00828" lon="4.53579">
        <ele>684.3</ele>
        <time>2015-11-05T12:09:35Z</time>
      </trkpt>
      <trkpt lat="46.00818" lon="4.53582">
        <ele>683.8</ele>
        <time>2015-11-05T12:09:37Z</time>
      </trkpt>
      <trkpt lat="46.00808" lon="4.53586">
        <ele>683.3</ele>
        <time>2015-11-05T12:09:39Z</time>
      </trkpt>
      <trkpt lat="46.00798" lon="4.53589">
        <ele>682.9</ele>
        <time>2015-11-05T12:09:41Z</time>
      </trkpt>
      <trkpt lat="46.00787" lon="4.53591">
        <ele>682.4</ele>
        <time>2015-11-05T12:09:43Z</time>
      </trkpt>
      <trkpt lat="46.00776" lon="4.53593">
        <ele>681.9</ele>
        <time>2015-11-05T12:09:45Z</time>
      </trkpt>
      <trkpt lat="46.00765" lon="4.53594">
        <ele>681.5</ele>
        <time>2015-11-05T12:09:47Z</time>
      </trkpt>
      <trkpt lat="46.00754" lon="4.53593">
        <ele>681.2</ele>
        <time>2015-11-05T12:09:49Z</time>
      </trkpt>
      <trkpt lat="46.00743" lon="4.53592">
        <ele>681</ele>
        <time>2015-11-05T12:09:51Z</time>
      </trkpt>
      <trkpt lat="46.00732" lon="4.53589">
        <ele>680.8</ele>
        <time>2015-11-05T12:09:53Z</time>
      </trkpt>
      <trkpt lat="46.00722" lon="4.53586">
        <ele>680.9</ele>
        <time>2015-11-05T12:09:55Z</time>
      </trkpt>
      <trkpt lat="46.00711" lon="4.53583">
        <ele>680.9</ele>
        <time>2015-11-05T12:09:57Z</time>
      </trkpt>
      <trkpt lat="46.00699" lon="4.53579">
        <ele>680.9</ele>
        <time>2015-11-05T12:09:59Z</time>
      </trkpt>
      <trkpt lat="46.00688" lon="4.53579">
        <ele>681</ele>
        <time>2015-11-05T12:10:01Z</time>
      </trkpt>
      <trkpt lat="46.00678" lon="4.53581">
        <ele>681.1</ele>
        <time>2015-11-05T12:10:03Z</time>
      </trkpt>
      <trkpt lat="46.00669" lon="4.53582">
        <ele>681.3</ele>
        <time>2015-11-05T12:10:05Z</time>
      </trkpt>
      <trkpt lat="46.0066" lon="4.53583">
        <ele>681.4</ele>
        <time>2015-11-05T12:10:07Z</time>
      </trkpt>
      <trkpt lat="46.00649" lon="4.53584">
        <ele>681.7</ele>
        <time>2015-11-05T12:10:10Z</time>
      </trkpt>
      <trkpt lat="46.00639" lon="4.53586">
        <ele>681.9</ele>
        <time>2015-11-05T12:10:13Z</time>
      </trkpt>
      <trkpt lat="46.00631" lon="4.53588">
        <ele>682.1</ele>
        <time>2015-11-05T12:10:16Z</time>
      </trkpt>
      <trkpt lat="46.0062" lon="4.53593">
        <ele>682.4</ele>
        <time>2015-11-05T12:10:20Z</time>
      </trkpt>
      <trkpt lat="46.00612" lon="4.53596">
        <ele>682.7</ele>
        <time>2015-11-05T12:10:23Z</time>
      </trkpt>
      <trkpt lat="46.00604" lon="4.53599">
        <ele>683.1</ele>
        <time>2015-11-05T12:10:26Z</time>
      </trkpt>
      <trkpt lat="46.00596" lon="4.53601">
        <ele>683.6</ele>
        <time>2015-11-05T12:10:29Z</time>
      </trkpt>
      <trkpt lat="46.00588" lon="4.53603">
        <ele>684.2</ele>
        <time>2015-11-05T12:10:32Z</time>
      </trkpt>
      <trkpt lat="46.00578" lon="4.53605">
        <ele>684.8</ele>
        <time>2015-11-05T12:10:36Z</time>
      </trkpt>
      <trkpt lat="46.00567" lon="4.53605">
        <ele>685.5</ele>
        <time>2015-11-05T12:10:40Z</time>
      </trkpt>
      <trkpt lat="46.00557" lon="4.53605">
        <ele>686.2</ele>
        <time>2015-11-05T12:10:44Z</time>
      </trkpt>
      <trkpt lat="46.00546" lon="4.53602">
        <ele>686.9</ele>
        <time>2015-11-05T12:10:48Z</time>
      </trkpt>
      <trkpt lat="46.00537" lon="4.53596">
        <ele>687.6</ele>
        <time>2015-11-05T12:10:52Z</time>
      </trkpt>
      <trkpt lat="46.00527" lon="4.5359">
        <ele>688.4</ele>
        <time>2015-11-05T12:10:56Z</time>
      </trkpt>
      <trkpt lat="46.00519" lon="4.53582">
        <ele>689.1</ele>
        <time>2015-11-05T12:11:00Z</time>
      </trkpt>
      <trkpt lat="46.00511" lon="4.53575">
        <ele>689.8</ele>
        <time>2015-11-05T12:11:04Z</time>
      </trkpt>
      <trkpt lat="46.00503" lon="4.53568">
        <ele>690.5</ele>
        <time>2015-11-05T12:11:08Z</time>
      </trkpt>
      <trkpt lat="46.00495" lon="4.53561">
        <ele>691.1</ele>
        <time>2015-11-05T12:11:12Z</time>
      </trkpt>
      <trkpt lat="46.00487" lon="4.53555">
        <ele>691.8</ele>
        <time>2015-11-05T12:11:17Z</time>
      </trkpt>
      <trkpt lat="46.0048" lon="4.5355">
        <ele>692.4</ele>
        <time>2015-11-05T12:11:22Z</time>
      </trkpt>
      <trkpt lat="46.00472" lon="4.53544">
        <ele>693.1</ele>
        <time>2015-11-05T12:11:27Z</time>
      </trkpt>
      <trkpt lat="46.00464" lon="4.5354">
        <ele>693.5</ele>
        <time>2015-11-05T12:11:32Z</time>
      </trkpt>
      <trkpt lat="46.00456" lon="4.53536">
        <ele>693.7</ele>
        <time>2015-11-05T12:11:37Z</time>
      </trkpt>
      <trkpt lat="46.00448" lon="4.53532">
        <ele>693.6</ele>
        <time>2015-11-05T12:11:43Z</time>
      </trkpt>
      <trkpt lat="46.0044" lon="4.53524">
        <ele>693.2</ele>
        <time>2015-11-05T12:11:50Z</time>
      </trkpt>
      <trkpt lat="46.00435" lon="4.53513">
        <ele>692.7</ele>
        <time>2015-11-05T12:11:56Z</time>
      </trkpt>
      <trkpt lat="46.00427" lon="4.53514">
        <ele>692.1</ele>
        <time>2015-11-05T12:12:42Z</time>
      </trkpt>
      <trkpt lat="46.0043" lon="4.5353">
        <ele>691.1</ele>
        <time>2015-11-05T12:12:44Z</time>
      </trkpt>
      <trkpt lat="46.0043" lon="4.5355">
        <ele>690.1</ele>
        <time>2015-11-05T12:12:46Z</time>
      </trkpt>
      <trkpt lat="46.00426" lon="4.53571">
        <ele>688.8</ele>
        <time>2015-11-05T12:12:48Z</time>
      </trkpt>
      <trkpt lat="46.00422" lon="4.53582">
        <ele>687.3</ele>
        <time>2015-11-05T12:12:49Z</time>
      </trkpt>
      <trkpt lat="46.00413" lon="4.536">
        <ele>685.7</ele>
        <time>2015-11-05T12:12:51Z</time>
      </trkpt>
      <trkpt lat="46.00402" lon="4.53616">
        <ele>684</ele>
        <time>2015-11-05T12:12:53Z</time>
      </trkpt>
      <trkpt lat="46.00396" lon="4.53624">
        <ele>682.3</ele>
        <time>2015-11-05T12:12:54Z</time>
      </trkpt>
      <trkpt lat="46.00384" lon="4.53638">
        <ele>680.8</ele>
        <time>2015-11-05T12:12:56Z</time>
      </trkpt>
      <trkpt lat="46.00373" lon="4.53652">
        <ele>679.3</ele>
        <time>2015-11-05T12:12:58Z</time>
      </trkpt>
      <trkpt lat="46.00362" lon="4.53664">
        <ele>677.8</ele>
        <time>2015-11-05T12:13:00Z</time>
      </trkpt>
      <trkpt lat="46.00352" lon="4.53677">
        <ele>676.3</ele>
        <time>2015-11-05T12:13:02Z</time>
      </trkpt>
      <trkpt lat="46.00344" lon="4.53689">
        <ele>674.9</ele>
        <time>2015-11-05T12:13:04Z</time>
      </trkpt>
      <trkpt lat="46.00338" lon="4.537">
        <ele>673.5</ele>
        <time>2015-11-05T12:13:06Z</time>
      </trkpt>
      <trkpt lat="46.00334" lon="4.53712">
        <ele>672.1</ele>
        <time>2015-11-05T12:13:08Z</time>
      </trkpt>
      <trkpt lat="46.00331" lon="4.53724">
        <ele>670.9</ele>
        <time>2015-11-05T12:13:10Z</time>
      </trkpt>
      <trkpt lat="46.00329" lon="4.53741">
        <ele>669.6</ele>
        <time>2015-11-05T12:13:13Z</time>
      </trkpt>
      <trkpt lat="46.00329" lon="4.53754">
        <ele>668.7</ele>
        <time>2015-11-05T12:13:16Z</time>
      </trkpt>
      <trkpt lat="46.00333" lon="4.53768">
        <ele>667.8</ele>
        <time>2015-11-05T12:13:19Z</time>
      </trkpt>
      <trkpt lat="46.0034" lon="4.53782">
        <ele>667.1</ele>
        <time>2015-11-05T12:13:22Z</time>
      </trkpt>
      <trkpt lat="46.00347" lon="4.53791">
        <ele>666.5</ele>
        <time>2015-11-05T12:13:25Z</time>
      </trkpt>
      <trkpt lat="46.00337" lon="4.53786">
        <ele>665.9</ele>
        <time>2015-11-05T12:13:34Z</time>
      </trkpt>
      <trkpt lat="46.00332" lon="4.53777">
        <ele>665.2</ele>
        <time>2015-11-05T12:13:37Z</time>
      </trkpt>
      <trkpt lat="46.00326" lon="4.53765">
        <ele>664.4</ele>
        <time>2015-11-05T12:13:41Z</time>
      </trkpt>
      <trkpt lat="46.00322" lon="4.53754">
        <ele>663.7</ele>
        <time>2015-11-05T12:13:45Z</time>
      </trkpt>
      <trkpt lat="46.00317" lon="4.53741">
        <ele>663</ele>
        <time>2015-11-05T12:13:50Z</time>
      </trkpt>
      <trkpt lat="46.00314" lon="4.5373">
        <ele>662.4</ele>
        <time>2015-11-05T12:13:53Z</time>
      </trkpt>
      <trkpt lat="46.00313" lon="4.53716">
        <ele>661.7</ele>
        <time>2015-11-05T12:13:56Z</time>
      </trkpt>
      <trkpt lat="46.00313" lon="4.537">
        <ele>661</ele>
        <time>2015-11-05T12:13:59Z</time>
      </trkpt>
      <trkpt lat="46.00314" lon="4.53687">
        <ele>660.2</ele>
        <time>2015-11-05T12:14:01Z</time>
      </trkpt>
      <trkpt lat="46.00318" lon="4.53672">
        <ele>659.3</ele>
        <time>2015-11-05T12:14:04Z</time>
      </trkpt>
      <trkpt lat="46.00324" lon="4.53659">
        <ele>658.4</ele>
        <time>2015-11-05T12:14:07Z</time>
      </trkpt>
      <trkpt lat="46.0033" lon="4.53646">
        <ele>657.5</ele>
        <time>2015-11-05T12:14:10Z</time>
      </trkpt>
      <trkpt lat="46.00335" lon="4.53634">
        <ele>656.7</ele>
        <time>2015-11-05T12:14:13Z</time>
      </trkpt>
      <trkpt lat="46.00341" lon="4.53623">
        <ele>656.5</ele>
        <time>2015-11-05T12:14:16Z</time>
      </trkpt>
      <trkpt lat="46.00347" lon="4.53611">
        <ele>656</ele>
        <time>2015-11-05T12:14:19Z</time>
      </trkpt>
      <trkpt lat="46.00353" lon="4.53599">
        <ele>655.4</ele>
        <time>2015-11-05T12:14:22Z</time>
      </trkpt>
      <trkpt lat="46.00359" lon="4.53586">
        <ele>654.8</ele>
        <time>2015-11-05T12:14:25Z</time>
      </trkpt>
      <trkpt lat="46.00365" lon="4.53576">
        <ele>654.3</ele>
        <time>2015-11-05T12:14:28Z</time>
      </trkpt>
      <trkpt lat="46.0037" lon="4.53564">
        <ele>653.7</ele>
        <time>2015-11-05T12:14:31Z</time>
      </trkpt>
      <trkpt lat="46.0036" lon="4.53568">
        <ele>653</ele>
        <time>2015-11-05T12:14:38Z</time>
      </trkpt>
      <trkpt lat="46.0035" lon="4.53585">
        <ele>652.3</ele>
        <time>2015-11-05T12:14:40Z</time>
      </trkpt>
      <trkpt lat="46.00338" lon="4.53598">
        <ele>651.6</ele>
        <time>2015-11-05T12:14:42Z</time>
      </trkpt>
      <trkpt lat="46.00331" lon="4.53605">
        <ele>650.8</ele>
        <time>2015-11-05T12:14:43Z</time>
      </trkpt>
      <trkpt lat="46.00318" lon="4.53618">
        <ele>649.8</ele>
        <time>2015-11-05T12:14:45Z</time>
      </trkpt>
      <trkpt lat="46.00307" lon="4.53632">
        <ele>648.6</ele>
        <time>2015-11-05T12:14:47Z</time>
      </trkpt>
      <trkpt lat="46.00295" lon="4.53648">
        <ele>647.4</ele>
        <time>2015-11-05T12:14:49Z</time>
      </trkpt>
      <trkpt lat="46.0029" lon="4.53656">
        <ele>646</ele>
        <time>2015-11-05T12:14:50Z</time>
      </trkpt>
      <trkpt lat="46.00279" lon="4.5367">
        <ele>644.6</ele>
        <time>2015-11-05T12:14:52Z</time>
      </trkpt>
      <trkpt lat="46.00269" lon="4.53684">
        <ele>642.9</ele>
        <time>2015-11-05T12:14:54Z</time>
      </trkpt>
      <trkpt lat="46.0026" lon="4.53696">
        <ele>641.1</ele>
        <time>2015-11-05T12:14:56Z</time>
      </trkpt>
      <trkpt lat="46.00252" lon="4.53709">
        <ele>639.2</ele>
        <time>2015-11-05T12:14:58Z</time>
      </trkpt>
      <trkpt lat="46.00246" lon="4.53721">
        <ele>637.2</ele>
        <time>2015-11-05T12:15:00Z</time>
      </trkpt>
      <trkpt lat="46.00244" lon="4.53733">
        <ele>635.2</ele>
        <time>2015-11-05T12:15:02Z</time>
      </trkpt>
      <trkpt lat="46.00244" lon="4.53747">
        <ele>633.1</ele>
        <time>2015-11-05T12:15:04Z</time>
      </trkpt>
      <trkpt lat="46.00246" lon="4.53763">
        <ele>631.1</ele>
        <time>2015-11-05T12:15:06Z</time>
      </trkpt>
      <trkpt lat="46.00249" lon="4.53781">
        <ele>628.9</ele>
        <time>2015-11-05T12:15:08Z</time>
      </trkpt>
      <trkpt lat="46.00251" lon="4.53798">
        <ele>627</ele>
        <time>2015-11-05T12:15:10Z</time>
      </trkpt>
      <trkpt lat="46.00253" lon="4.53816">
        <ele>625.3</ele>
        <time>2015-11-05T12:15:12Z</time>
      </trkpt>
      <trkpt lat="46.00255" lon="4.53834">
        <ele>623.8</ele>
        <time>2015-11-05T12:15:14Z</time>
      </trkpt>
      <trkpt lat="46.00255" lon="4.53851">
        <ele>622.2</ele>
        <time>2015-11-05T12:15:16Z</time>
      </trkpt>
      <trkpt lat="46.00253" lon="4.53867">
        <ele>620.8</ele>
        <time>2015-11-05T12:15:18Z</time>
      </trkpt>
      <trkpt lat="46.00251" lon="4.53879">
        <ele>619.9</ele>
        <time>2015-11-05T12:15:20Z</time>
      </trkpt>
      <trkpt lat="46.00248" lon="4.53891">
        <ele>618.6</ele>
        <time>2015-11-05T12:15:22Z</time>
      </trkpt>
      <trkpt lat="46.00243" lon="4.53904">
        <ele>617.7</ele>
        <time>2015-11-05T12:15:25Z</time>
      </trkpt>
      <trkpt lat="46.00236" lon="4.5391">
        <ele>616.6</ele>
        <time>2015-11-05T12:17:35Z</time>
      </trkpt>
      <trkpt lat="46.00227" lon="4.5391">
        <ele>615.2</ele>
        <time>2015-11-05T12:18:04Z</time>
      </trkpt>
      <trkpt lat="46.00235" lon="4.53906">
        <ele>613.4</ele>
        <time>2015-11-05T12:18:32Z</time>
      </trkpt>
      <trkpt lat="46.00227" lon="4.53911">
        <ele>611.4</ele>
        <time>2015-11-05T12:20:40Z</time>
      </trkpt>
      <trkpt lat="46.00219" lon="4.53903">
        <ele>609.2</ele>
        <time>2015-11-05T12:20:45Z</time>
      </trkpt>
      <trkpt lat="46.00211" lon="4.53894">
        <ele>607.3</ele>
        <time>2015-11-05T12:21:06Z</time>
      </trkpt>
      <trkpt lat="46.00202" lon="4.5389">
        <ele>605.6</ele>
        <time>2015-11-05T12:21:11Z</time>
      </trkpt>
      <trkpt lat="46.00193" lon="4.53887">
        <ele>603.8</ele>
        <time>2015-11-05T12:21:16Z</time>
      </trkpt>
      <trkpt lat="46.00185" lon="4.53882">
        <ele>601.9</ele>
        <time>2015-11-05T12:21:20Z</time>
      </trkpt>
      <trkpt lat="46.00177" lon="4.53877">
        <ele>600.3</ele>
        <time>2015-11-05T12:21:23Z</time>
      </trkpt>
      <trkpt lat="46.00167" lon="4.53873">
        <ele>598.5</ele>
        <time>2015-11-05T12:21:27Z</time>
      </trkpt>
      <trkpt lat="46.00159" lon="4.53875">
        <ele>597.6</ele>
        <time>2015-11-05T12:21:30Z</time>
      </trkpt>
      <trkpt lat="46.00151" lon="4.53879">
        <ele>597.3</ele>
        <time>2015-11-05T12:21:33Z</time>
      </trkpt>
      <trkpt lat="46.00143" lon="4.53883">
        <ele>597.7</ele>
        <time>2015-11-05T12:21:36Z</time>
      </trkpt>
      <trkpt lat="46.00135" lon="4.53888">
        <ele>598.6</ele>
        <time>2015-11-05T12:21:39Z</time>
      </trkpt>
      <trkpt lat="46.00125" lon="4.53885">
        <ele>599.1</ele>
        <time>2015-11-05T12:21:43Z</time>
      </trkpt>
      <trkpt lat="46.00122" lon="4.53874">
        <ele>599.6</ele>
        <time>2015-11-05T12:21:46Z</time>
      </trkpt>
      <trkpt lat="46.0012" lon="4.53861">
        <ele>600.5</ele>
        <time>2015-11-05T12:21:49Z</time>
      </trkpt>
      <trkpt lat="46.00112" lon="4.53849">
        <ele>601.4</ele>
        <time>2015-11-05T12:21:52Z</time>
      </trkpt>
      <trkpt lat="46.00105" lon="4.5384">
        <ele>602.1</ele>
        <time>2015-11-05T12:21:55Z</time>
      </trkpt>
      <trkpt lat="46.00098" lon="4.53831">
        <ele>603</ele>
        <time>2015-11-05T12:21:58Z</time>
      </trkpt>
      <trkpt lat="46.0009" lon="4.53823">
        <ele>603.7</ele>
        <time>2015-11-05T12:22:01Z</time>
      </trkpt>
      <trkpt lat="46.00082" lon="4.53816">
        <ele>603.8</ele>
        <time>2015-11-05T12:22:04Z</time>
      </trkpt>
      <trkpt lat="46.00076" lon="4.53807">
        <ele>603.5</ele>
        <time>2015-11-05T12:22:08Z</time>
      </trkpt>
      <trkpt lat="46.00066" lon="4.53805">
        <ele>602.9</ele>
        <time>2015-11-05T12:22:12Z</time>
      </trkpt>
      <trkpt lat="46.00058" lon="4.53804">
        <ele>601.9</ele>
        <time>2015-11-05T12:22:14Z</time>
      </trkpt>
      <trkpt lat="46.00049" lon="4.53801">
        <ele>601.2</ele>
        <time>2015-11-05T12:22:16Z</time>
      </trkpt>
      <trkpt lat="46.0004" lon="4.53794">
        <ele>600.2</ele>
        <time>2015-11-05T12:22:18Z</time>
      </trkpt>
      <trkpt lat="46.0003" lon="4.53786">
        <ele>598.5</ele>
        <time>2015-11-05T12:22:20Z</time>
      </trkpt>
      <trkpt lat="46.00023" lon="4.53775">
        <ele>596.9</ele>
        <time>2015-11-05T12:22:22Z</time>
      </trkpt>
      <trkpt lat="46.00016" lon="4.53766">
        <ele>595.3</ele>
        <time>2015-11-05T12:22:24Z</time>
      </trkpt>
      <trkpt lat="46.00008" lon="4.53762">
        <ele>593.9</ele>
        <time>2015-11-05T12:22:26Z</time>
      </trkpt>
      <trkpt lat="45.99999" lon="4.53758">
        <ele>592.6</ele>
        <time>2015-11-05T12:22:28Z</time>
      </trkpt>
      <trkpt lat="45.99989" lon="4.53753">
        <ele>591.6</ele>
        <time>2015-11-05T12:22:31Z</time>
      </trkpt>
      <trkpt lat="45.99979" lon="4.53747">
        <ele>590.9</ele>
        <time>2015-11-05T12:22:34Z</time>
      </trkpt>
      <trkpt lat="45.9997" lon="4.53741">
        <ele>589.9</ele>
        <time>2015-11-05T12:22:37Z</time>
      </trkpt>
      <trkpt lat="45.99962" lon="4.53733">
        <ele>589.3</ele>
        <time>2015-11-05T12:22:40Z</time>
      </trkpt>
      <trkpt lat="45.99954" lon="4.53721">
        <ele>589</ele>
        <time>2015-11-05T12:22:43Z</time>
      </trkpt>
      <trkpt lat="45.99945" lon="4.53712">
        <ele>588.9</ele>
        <time>2015-11-05T12:22:46Z</time>
      </trkpt>
      <trkpt lat="45.99936" lon="4.53707">
        <ele>589.1</ele>
        <time>2015-11-05T12:22:51Z</time>
      </trkpt>
      <trkpt lat="45.99928" lon="4.53704">
        <ele>588.9</ele>
        <time>2015-11-05T12:22:54Z</time>
      </trkpt>
      <trkpt lat="45.99908" lon="4.53696">
        <ele>588.9</ele>
        <time>2015-11-05T12:22:56Z</time>
      </trkpt>
      <trkpt lat="45.99899" lon="4.53692">
        <ele>588.6</ele>
        <time>2015-11-05T12:22:58Z</time>
      </trkpt>
      <trkpt lat="45.99889" lon="4.53688">
        <ele>588.6</ele>
        <time>2015-11-05T12:23:00Z</time>
      </trkpt>
      <trkpt lat="45.99879" lon="4.53682">
        <ele>588.3</ele>
        <time>2015-11-05T12:23:02Z</time>
      </trkpt>
      <trkpt lat="45.99871" lon="4.53677">
        <ele>587.5</ele>
        <time>2015-11-05T12:23:04Z</time>
      </trkpt>
      <trkpt lat="45.9986" lon="4.53679">
        <ele>586.9</ele>
        <time>2015-11-05T12:23:07Z</time>
      </trkpt>
      <trkpt lat="45.99847" lon="4.53679">
        <ele>586.2</ele>
        <time>2015-11-05T12:23:11Z</time>
      </trkpt>
      <trkpt lat="45.99833" lon="4.53674">
        <ele>585.2</ele>
        <time>2015-11-05T12:23:13Z</time>
      </trkpt>
      <trkpt lat="45.99822" lon="4.53672">
        <ele>584.3</ele>
        <time>2015-11-05T12:23:15Z</time>
      </trkpt>
      <trkpt lat="45.99813" lon="4.53668">
        <ele>583.7</ele>
        <time>2015-11-05T12:23:16Z</time>
      </trkpt>
      <trkpt lat="45.99801" lon="4.53667">
        <ele>583.2</ele>
        <time>2015-11-05T12:23:18Z</time>
      </trkpt>
      <trkpt lat="45.99793" lon="4.53677">
        <ele>582.7</ele>
        <time>2015-11-05T12:23:20Z</time>
      </trkpt>
      <trkpt lat="45.99783" lon="4.53678">
        <ele>582.2</ele>
        <time>2015-11-05T12:23:22Z</time>
      </trkpt>
      <trkpt lat="45.99773" lon="4.5367">
        <ele>580.4</ele>
        <time>2015-11-05T12:23:24Z</time>
      </trkpt>
      <trkpt lat="45.99763" lon="4.53658">
        <ele>578.4</ele>
        <time>2015-11-05T12:23:26Z</time>
      </trkpt>
      <trkpt lat="45.99753" lon="4.53648">
        <ele>576.2</ele>
        <time>2015-11-05T12:23:28Z</time>
      </trkpt>
      <trkpt lat="45.99747" lon="4.53636">
        <ele>573.7</ele>
        <time>2015-11-05T12:23:30Z</time>
      </trkpt>
      <trkpt lat="45.99743" lon="4.53623">
        <ele>571.2</ele>
        <time>2015-11-05T12:23:32Z</time>
      </trkpt>
      <trkpt lat="45.99743" lon="4.53611">
        <ele>568.5</ele>
        <time>2015-11-05T12:23:54Z</time>
      </trkpt>
      <trkpt lat="45.99735" lon="4.53598">
        <ele>565.9</ele>
        <time>2015-11-05T12:23:58Z</time>
      </trkpt>
      <trkpt lat="45.99722" lon="4.53582">
        <ele>563.1</ele>
        <time>2015-11-05T12:24:00Z</time>
      </trkpt>
      <trkpt lat="45.99713" lon="4.53568">
        <ele>560.2</ele>
        <time>2015-11-05T12:24:02Z</time>
      </trkpt>
      <trkpt lat="45.99704" lon="4.53558">
        <ele>557.2</ele>
        <time>2015-11-05T12:24:04Z</time>
      </trkpt>
      <trkpt lat="45.99697" lon="4.53549">
        <ele>554.1</ele>
        <time>2015-11-05T12:24:06Z</time>
      </trkpt>
      <trkpt lat="45.99689" lon="4.53541">
        <ele>552.1</ele>
        <time>2015-11-05T12:24:08Z</time>
      </trkpt>
      <trkpt lat="45.99678" lon="4.53539">
        <ele>550.5</ele>
        <time>2015-11-05T12:24:10Z</time>
      </trkpt>
      <trkpt lat="45.99666" lon="4.5353">
        <ele>549.3</ele>
        <time>2015-11-05T12:24:12Z</time>
      </trkpt>
      <trkpt lat="45.99658" lon="4.53521">
        <ele>548.7</ele>
        <time>2015-11-05T12:24:14Z</time>
      </trkpt>
      <trkpt lat="45.99651" lon="4.53513">
        <ele>548</ele>
        <time>2015-11-05T12:24:16Z</time>
      </trkpt>
      <trkpt lat="45.99643" lon="4.53507">
        <ele>547.3</ele>
        <time>2015-11-05T12:24:18Z</time>
      </trkpt>
      <trkpt lat="45.99634" lon="4.535">
        <ele>546.6</ele>
        <time>2015-11-05T12:24:20Z</time>
      </trkpt>
      <trkpt lat="45.99625" lon="4.53497">
        <ele>545.7</ele>
        <time>2015-11-05T12:24:23Z</time>
      </trkpt>
      <trkpt lat="45.99614" lon="4.53496">
        <ele>545.1</ele>
        <time>2015-11-05T12:24:26Z</time>
      </trkpt>
      <trkpt lat="45.99603" lon="4.5349">
        <ele>544.8</ele>
        <time>2015-11-05T12:24:29Z</time>
      </trkpt>
      <trkpt lat="45.99596" lon="4.53482">
        <ele>544.1</ele>
        <time>2015-11-05T12:24:31Z</time>
      </trkpt>
      <trkpt lat="45.99589" lon="4.53473">
        <ele>543</ele>
        <time>2015-11-05T12:24:33Z</time>
      </trkpt>
      <trkpt lat="45.99582" lon="4.53466">
        <ele>542.3</ele>
        <time>2015-11-05T12:24:35Z</time>
      </trkpt>
      <trkpt lat="45.99572" lon="4.53458">
        <ele>541.4</ele>
        <time>2015-11-05T12:24:38Z</time>
      </trkpt>
      <trkpt lat="45.99565" lon="4.53449">
        <ele>540.6</ele>
        <time>2015-11-05T12:24:41Z</time>
      </trkpt>
      <trkpt lat="45.99561" lon="4.53437">
        <ele>540.2</ele>
        <time>2015-11-05T12:24:44Z</time>
      </trkpt>
      <trkpt lat="45.99555" lon="4.53428">
        <ele>540.1</ele>
        <time>2015-11-05T12:25:11Z</time>
      </trkpt>
      <trkpt lat="45.99548" lon="4.53422">
        <ele>540</ele>
        <time>2015-11-05T12:25:25Z</time>
      </trkpt>
      <trkpt lat="45.99539" lon="4.53414">
        <ele>539.9</ele>
        <time>2015-11-05T12:25:29Z</time>
      </trkpt>
      <trkpt lat="45.99533" lon="4.53404">
        <ele>539.6</ele>
        <time>2015-11-05T12:25:32Z</time>
      </trkpt>
      <trkpt lat="45.99529" lon="4.53391">
        <ele>539</ele>
        <time>2015-11-05T12:25:36Z</time>
      </trkpt>
      <trkpt lat="45.99521" lon="4.53387">
        <ele>538.8</ele>
        <time>2015-11-05T12:25:40Z</time>
      </trkpt>
      <trkpt lat="45.99512" lon="4.53388">
        <ele>538.9</ele>
        <time>2015-11-05T12:25:44Z</time>
      </trkpt>
      <trkpt lat="45.995" lon="4.53385">
        <ele>538.6</ele>
        <time>2015-11-05T12:25:47Z</time>
      </trkpt>
      <trkpt lat="45.99491" lon="4.53383">
        <ele>538.2</ele>
        <time>2015-11-05T12:25:49Z</time>
      </trkpt>
      <trkpt lat="45.99483" lon="4.53379">
        <ele>538.3</ele>
        <time>2015-11-05T12:25:51Z</time>
      </trkpt>
      <trkpt lat="45.99473" lon="4.53373">
        <ele>538.3</ele>
        <time>2015-11-05T12:25:53Z</time>
      </trkpt>
      <trkpt lat="45.99464" lon="4.53369">
        <ele>538.5</ele>
        <time>2015-11-05T12:25:55Z</time>
      </trkpt>
      <trkpt lat="45.99455" lon="4.53366">
        <ele>539.3</ele>
        <time>2015-11-05T12:25:57Z</time>
      </trkpt>
      <trkpt lat="45.99446" lon="4.53362">
        <ele>540.8</ele>
        <time>2015-11-05T12:26:00Z</time>
      </trkpt>
      <trkpt lat="45.99437" lon="4.53359">
        <ele>542.5</ele>
        <time>2015-11-05T12:26:04Z</time>
      </trkpt>
      <trkpt lat="45.99428" lon="4.53354">
        <ele>544</ele>
        <time>2015-11-05T12:26:08Z</time>
      </trkpt>
      <trkpt lat="45.9942" lon="4.53355">
        <ele>545.7</ele>
        <time>2015-11-05T12:26:12Z</time>
      </trkpt>
      <trkpt lat="45.99412" lon="4.53354">
        <ele>547.3</ele>
        <time>2015-11-05T12:26:16Z</time>
      </trkpt>
      <trkpt lat="45.99403" lon="4.53355">
        <ele>549.1</ele>
        <time>2015-11-05T12:26:21Z</time>
      </trkpt>
      <trkpt lat="45.99393" lon="4.53354">
        <ele>551.2</ele>
        <time>2015-11-05T12:26:27Z</time>
      </trkpt>
      <trkpt lat="45.99383" lon="4.53351">
        <ele>552.8</ele>
        <time>2015-11-05T12:26:30Z</time>
      </trkpt>
      <trkpt lat="45.99373" lon="4.53346">
        <ele>554.2</ele>
        <time>2015-11-05T12:26:33Z</time>
      </trkpt>
      <trkpt lat="45.99364" lon="4.53343">
        <ele>554.8</ele>
        <time>2015-11-05T12:26:36Z</time>
      </trkpt>
      <trkpt lat="45.99355" lon="4.53345">
        <ele>554.7</ele>
        <time>2015-11-05T12:26:44Z</time>
      </trkpt>
      <trkpt lat="45.99346" lon="4.53351">
        <ele>553.3</ele>
        <time>2015-11-05T12:26:48Z</time>
      </trkpt>
      <trkpt lat="45.99338" lon="4.53354">
        <ele>551.6</ele>
        <time>2015-11-05T12:26:53Z</time>
      </trkpt>
      <trkpt lat="45.99328" lon="4.53357">
        <ele>550</ele>
        <time>2015-11-05T12:26:57Z</time>
      </trkpt>
      <trkpt lat="45.99319" lon="4.53356">
        <ele>548.6</ele>
        <time>2015-11-05T12:27:01Z</time>
      </trkpt>
      <trkpt lat="45.99311" lon="4.53351">
        <ele>547.3</ele>
        <time>2015-11-05T12:27:04Z</time>
      </trkpt>
      <trkpt lat="45.99299" lon="4.53343">
        <ele>545.9</ele>
        <time>2015-11-05T12:27:07Z</time>
      </trkpt>
      <trkpt lat="45.99288" lon="4.53338">
        <ele>544.5</ele>
        <time>2015-11-05T12:27:09Z</time>
      </trkpt>
      <trkpt lat="45.99278" lon="4.53336">
        <ele>542.8</ele>
        <time>2015-11-05T12:27:11Z</time>
      </trkpt>
      <trkpt lat="45.99268" lon="4.53339">
        <ele>540.9</ele>
        <time>2015-11-05T12:27:13Z</time>
      </trkpt>
      <trkpt lat="45.99259" lon="4.53345">
        <ele>539.2</ele>
        <time>2015-11-05T12:27:16Z</time>
      </trkpt>
      <trkpt lat="45.9925" lon="4.53351">
        <ele>537.4</ele>
        <time>2015-11-05T12:27:20Z</time>
      </trkpt>
      <trkpt lat="45.99243" lon="4.53357">
        <ele>536.3</ele>
        <time>2015-11-05T12:27:23Z</time>
      </trkpt>
      <trkpt lat="45.99234" lon="4.53361">
        <ele>535.4</ele>
        <time>2015-11-05T12:27:28Z</time>
      </trkpt>
      <trkpt lat="45.99225" lon="4.53363">
        <ele>534.6</ele>
        <time>2015-11-05T12:27:32Z</time>
      </trkpt>
      <trkpt lat="45.99215" lon="4.53362">
        <ele>533.5</ele>
        <time>2015-11-05T12:27:35Z</time>
      </trkpt>
      <trkpt lat="45.99205" lon="4.53365">
        <ele>532.4</ele>
        <time>2015-11-05T12:27:38Z</time>
      </trkpt>
      <trkpt lat="45.99195" lon="4.53368">
        <ele>531</ele>
        <time>2015-11-05T12:27:41Z</time>
      </trkpt>
      <trkpt lat="45.99186" lon="4.53371">
        <ele>529.2</ele>
        <time>2015-11-05T12:27:43Z</time>
      </trkpt>
      <trkpt lat="45.99179" lon="4.53377">
        <ele>527.8</ele>
        <time>2015-11-05T12:27:45Z</time>
      </trkpt>
      <trkpt lat="45.99171" lon="4.53383">
        <ele>526.5</ele>
        <time>2015-11-05T12:27:47Z</time>
      </trkpt>
      <trkpt lat="45.99162" lon="4.53387">
        <ele>525.4</ele>
        <time>2015-11-05T12:27:49Z</time>
      </trkpt>
      <trkpt lat="45.99153" lon="4.53391">
        <ele>524.6</ele>
        <time>2015-11-05T12:27:51Z</time>
      </trkpt>
      <trkpt lat="45.99143" lon="4.5339">
        <ele>523.8</ele>
        <time>2015-11-05T12:27:53Z</time>
      </trkpt>
      <trkpt lat="45.99134" lon="4.53388">
        <ele>522.7</ele>
        <time>2015-11-05T12:27:55Z</time>
      </trkpt>
      <trkpt lat="45.99125" lon="4.53389">
        <ele>521.3</ele>
        <time>2015-11-05T12:27:57Z</time>
      </trkpt>
      <trkpt lat="45.99117" lon="4.53389">
        <ele>520</ele>
        <time>2015-11-05T12:27:59Z</time>
      </trkpt>
      <trkpt lat="45.99108" lon="4.53391">
        <ele>518.4</ele>
        <time>2015-11-05T12:28:01Z</time>
      </trkpt>
      <trkpt lat="45.99099" lon="4.53392">
        <ele>517.3</ele>
        <time>2015-11-05T12:28:03Z</time>
      </trkpt>
      <trkpt lat="45.9909" lon="4.53392">
        <ele>516.5</ele>
        <time>2015-11-05T12:28:05Z</time>
      </trkpt>
      <trkpt lat="45.9908" lon="4.53393">
        <ele>515.7</ele>
        <time>2015-11-05T12:28:07Z</time>
      </trkpt>
      <trkpt lat="45.99065" lon="4.53391">
        <ele>514.9</ele>
        <time>2015-11-05T12:28:09Z</time>
      </trkpt>
      <trkpt lat="45.99056" lon="4.53388">
        <ele>514.1</ele>
        <time>2015-11-05T12:28:11Z</time>
      </trkpt>
      <trkpt lat="45.99047" lon="4.53388">
        <ele>513.2</ele>
        <time>2015-11-05T12:28:13Z</time>
      </trkpt>
      <trkpt lat="45.99039" lon="4.53384">
        <ele>511.8</ele>
        <time>2015-11-05T12:28:16Z</time>
      </trkpt>
      <trkpt lat="45.9903" lon="4.53375">
        <ele>511</ele>
        <time>2015-11-05T12:28:20Z</time>
      </trkpt>
      <trkpt lat="45.9902" lon="4.53371">
        <ele>510.2</ele>
        <time>2015-11-05T12:28:23Z</time>
      </trkpt>
      <trkpt lat="45.99008" lon="4.53367">
        <ele>509.4</ele>
        <time>2015-11-05T12:28:26Z</time>
      </trkpt>
      <trkpt lat="45.99" lon="4.53364">
        <ele>508.8</ele>
        <time>2015-11-05T12:28:28Z</time>
      </trkpt>
      <trkpt lat="45.98992" lon="4.53362">
        <ele>508.4</ele>
        <time>2015-11-05T12:28:30Z</time>
      </trkpt>
      <trkpt lat="45.98983" lon="4.53355">
        <ele>507.9</ele>
        <time>2015-11-05T12:28:43Z</time>
      </trkpt>
      <trkpt lat="45.98975" lon="4.53352">
        <ele>507</ele>
        <time>2015-11-05T12:28:47Z</time>
      </trkpt>
      <trkpt lat="45.98964" lon="4.53348">
        <ele>506.5</ele>
        <time>2015-11-05T12:28:50Z</time>
      </trkpt>
      <trkpt lat="45.98956" lon="4.53344">
        <ele>506</ele>
        <time>2015-11-05T12:28:52Z</time>
      </trkpt>
      <trkpt lat="45.98948" lon="4.5334">
        <ele>505</ele>
        <time>2015-11-05T12:28:54Z</time>
      </trkpt>
      <trkpt lat="45.98938" lon="4.53332">
        <ele>504.3</ele>
        <time>2015-11-05T12:28:57Z</time>
      </trkpt>
      <trkpt lat="45.9893" lon="4.53327">
        <ele>503.4</ele>
        <time>2015-11-05T12:28:59Z</time>
      </trkpt>
      <trkpt lat="45.9892" lon="4.53323">
        <ele>502.4</ele>
        <time>2015-11-05T12:29:02Z</time>
      </trkpt>
      <trkpt lat="45.98909" lon="4.53316">
        <ele>501.2</ele>
        <time>2015-11-05T12:29:05Z</time>
      </trkpt>
      <trkpt lat="45.989" lon="4.5331">
        <ele>500</ele>
        <time>2015-11-05T12:29:07Z</time>
      </trkpt>
      <trkpt lat="45.98891" lon="4.53299">
        <ele>498.6</ele>
        <time>2015-11-05T12:29:09Z</time>
      </trkpt>
      <trkpt lat="45.98879" lon="4.53287">
        <ele>496.9</ele>
        <time>2015-11-05T12:29:10Z</time>
      </trkpt>
      <trkpt lat="45.9887" lon="4.53276">
        <ele>495.4</ele>
        <time>2015-11-05T12:29:12Z</time>
      </trkpt>
      <trkpt lat="45.98861" lon="4.53263">
        <ele>494.2</ele>
        <time>2015-11-05T12:29:14Z</time>
      </trkpt>
      <trkpt lat="45.98853" lon="4.53254">
        <ele>493.3</ele>
        <time>2015-11-05T12:29:16Z</time>
      </trkpt>
      <trkpt lat="45.98844" lon="4.53244">
        <ele>493.1</ele>
        <time>2015-11-05T12:29:18Z</time>
      </trkpt>
      <trkpt lat="45.98836" lon="4.53238">
        <ele>493</ele>
        <time>2015-11-05T12:29:20Z</time>
      </trkpt>
      <trkpt lat="45.98828" lon="4.53233">
        <ele>493</ele>
        <time>2015-11-05T12:29:22Z</time>
      </trkpt>
      <trkpt lat="45.98821" lon="4.53226">
        <ele>493.5</ele>
        <time>2015-11-05T12:29:25Z</time>
      </trkpt>
      <trkpt lat="45.98812" lon="4.53219">
        <ele>494.3</ele>
        <time>2015-11-05T12:29:28Z</time>
      </trkpt>
      <trkpt lat="45.98805" lon="4.53215">
        <ele>494.9</ele>
        <time>2015-11-05T12:29:32Z</time>
      </trkpt>
      <trkpt lat="45.98795" lon="4.53211">
        <ele>495.8</ele>
        <time>2015-11-05T12:29:37Z</time>
      </trkpt>
      <trkpt lat="45.98783" lon="4.53208">
        <ele>496.6</ele>
        <time>2015-11-05T12:29:40Z</time>
      </trkpt>
      <trkpt lat="45.98772" lon="4.53202">
        <ele>497.3</ele>
        <time>2015-11-05T12:29:43Z</time>
      </trkpt>
      <trkpt lat="45.98763" lon="4.53195">
        <ele>497.1</ele>
        <time>2015-11-05T12:29:46Z</time>
      </trkpt>
      <trkpt lat="45.98755" lon="4.5319">
        <ele>496.4</ele>
        <time>2015-11-05T12:29:49Z</time>
      </trkpt>
      <trkpt lat="45.98746" lon="4.53185">
        <ele>495.4</ele>
        <time>2015-11-05T12:29:52Z</time>
      </trkpt>
      <trkpt lat="45.98737" lon="4.53183">
        <ele>494</ele>
        <time>2015-11-05T12:29:55Z</time>
      </trkpt>
      <trkpt lat="45.98728" lon="4.53179">
        <ele>492.2</ele>
        <time>2015-11-05T12:29:58Z</time>
      </trkpt>
      <trkpt lat="45.9872" lon="4.53174">
        <ele>489.8</ele>
        <time>2015-11-05T12:30:00Z</time>
      </trkpt>
      <trkpt lat="45.98711" lon="4.5317">
        <ele>487.7</ele>
        <time>2015-11-05T12:30:02Z</time>
      </trkpt>
      <trkpt lat="45.98702" lon="4.53165">
        <ele>485.7</ele>
        <time>2015-11-05T12:30:04Z</time>
      </trkpt>
      <trkpt lat="45.98692" lon="4.5316">
        <ele>483.5</ele>
        <time>2015-11-05T12:30:07Z</time>
      </trkpt>
      <trkpt lat="45.98682" lon="4.53153">
        <ele>481.3</ele>
        <time>2015-11-05T12:30:10Z</time>
      </trkpt>
      <trkpt lat="45.98673" lon="4.53149">
        <ele>479.4</ele>
        <time>2015-11-05T12:30:13Z</time>
      </trkpt>
      <trkpt lat="45.98664" lon="4.53142">
        <ele>477.8</ele>
        <time>2015-11-05T12:30:25Z</time>
      </trkpt>
      <trkpt lat="45.98656" lon="4.53137">
        <ele>476.7</ele>
        <time>2015-11-05T12:30:28Z</time>
      </trkpt>
      <trkpt lat="45.98644" lon="4.53132">
        <ele>475.8</ele>
        <time>2015-11-05T12:30:31Z</time>
      </trkpt>
      <trkpt lat="45.98634" lon="4.5313">
        <ele>475.6</ele>
        <time>2015-11-05T12:30:33Z</time>
      </trkpt>
      <trkpt lat="45.98624" lon="4.53126">
        <ele>475.9</ele>
        <time>2015-11-05T12:30:35Z</time>
      </trkpt>
      <trkpt lat="45.98616" lon="4.53123">
        <ele>476.4</ele>
        <time>2015-11-05T12:30:37Z</time>
      </trkpt>
      <trkpt lat="45.98606" lon="4.53122">
        <ele>476.6</ele>
        <time>2015-11-05T12:30:42Z</time>
      </trkpt>
      <trkpt lat="45.98597" lon="4.53123">
        <ele>477</ele>
        <time>2015-11-05T12:30:46Z</time>
      </trkpt>
      <trkpt lat="45.98587" lon="4.53126">
        <ele>477</ele>
        <time>2015-11-05T12:30:51Z</time>
      </trkpt>
      <trkpt lat="45.98579" lon="4.53125">
        <ele>477.4</ele>
        <time>2015-11-05T12:30:54Z</time>
      </trkpt>
      <trkpt lat="45.98569" lon="4.53124">
        <ele>477.3</ele>
        <time>2015-11-05T12:30:57Z</time>
      </trkpt>
      <trkpt lat="45.9856" lon="4.53123">
        <ele>476.7</ele>
        <time>2015-11-05T12:31:00Z</time>
      </trkpt>
      <trkpt lat="45.9855" lon="4.53119">
        <ele>476</ele>
        <time>2015-11-05T12:31:03Z</time>
      </trkpt>
      <trkpt lat="45.98541" lon="4.5311">
        <ele>475.2</ele>
        <time>2015-11-05T12:31:06Z</time>
      </trkpt>
      <trkpt lat="45.98533" lon="4.53102">
        <ele>474.2</ele>
        <time>2015-11-05T12:31:09Z</time>
      </trkpt>
      <trkpt lat="45.98523" lon="4.53099">
        <ele>473.3</ele>
        <time>2015-11-05T12:31:12Z</time>
      </trkpt>
      <trkpt lat="45.98511" lon="4.53097">
        <ele>472.2</ele>
        <time>2015-11-05T12:31:15Z</time>
      </trkpt>
      <trkpt lat="45.98502" lon="4.53096">
        <ele>471.1</ele>
        <time>2015-11-05T12:31:17Z</time>
      </trkpt>
      <trkpt lat="45.98493" lon="4.53095">
        <ele>470.3</ele>
        <time>2015-11-05T12:31:19Z</time>
      </trkpt>
      <trkpt lat="45.98485" lon="4.53094">
        <ele>469.7</ele>
        <time>2015-11-05T12:31:21Z</time>
      </trkpt>
      <trkpt lat="45.98474" lon="4.53093">
        <ele>468.8</ele>
        <time>2015-11-05T12:31:24Z</time>
      </trkpt>
      <trkpt lat="45.98463" lon="4.53093">
        <ele>468.4</ele>
        <time>2015-11-05T12:31:28Z</time>
      </trkpt>
      <trkpt lat="45.98453" lon="4.53099">
        <ele>468.2</ele>
        <time>2015-11-05T12:31:31Z</time>
      </trkpt>
      <trkpt lat="45.98444" lon="4.53102">
        <ele>468</ele>
        <time>2015-11-05T12:31:33Z</time>
      </trkpt>
      <trkpt lat="45.98435" lon="4.53098">
        <ele>467.8</ele>
        <time>2015-11-05T12:31:35Z</time>
      </trkpt>
      <trkpt lat="45.98427" lon="4.53095">
        <ele>467.6</ele>
        <time>2015-11-05T12:31:37Z</time>
      </trkpt>
      <trkpt lat="45.98419" lon="4.53092">
        <ele>467.3</ele>
        <time>2015-11-05T12:31:39Z</time>
      </trkpt>
      <trkpt lat="45.9841" lon="4.53089">
        <ele>467.1</ele>
        <time>2015-11-05T12:31:41Z</time>
      </trkpt>
      <trkpt lat="45.98398" lon="4.53089">
        <ele>467</ele>
        <time>2015-11-05T12:31:43Z</time>
      </trkpt>
      <trkpt lat="45.98386" lon="4.53087">
        <ele>466.7</ele>
        <time>2015-11-05T12:31:47Z</time>
      </trkpt>
      <trkpt lat="45.98377" lon="4.53088">
        <ele>466.7</ele>
        <time>2015-11-05T12:31:50Z</time>
      </trkpt>
      <trkpt lat="45.98369" lon="4.53083">
        <ele>466.6</ele>
        <time>2015-11-05T12:31:53Z</time>
      </trkpt>
      <trkpt lat="45.98361" lon="4.53076">
        <ele>466.4</ele>
        <time>2015-11-05T12:31:56Z</time>
      </trkpt>
      <trkpt lat="45.98352" lon="4.53069">
        <ele>466.3</ele>
        <time>2015-11-05T12:31:59Z</time>
      </trkpt>
      <trkpt lat="45.98343" lon="4.53066">
        <ele>466.1</ele>
        <time>2015-11-05T12:32:02Z</time>
      </trkpt>
      <trkpt lat="45.98335" lon="4.53065">
        <ele>465.9</ele>
        <time>2015-11-05T12:32:05Z</time>
      </trkpt>
      <trkpt lat="45.98326" lon="4.53062">
        <ele>465.6</ele>
        <time>2015-11-05T12:32:08Z</time>
      </trkpt>
      <trkpt lat="45.98317" lon="4.53055">
        <ele>465.4</ele>
        <time>2015-11-05T12:32:11Z</time>
      </trkpt>
      <trkpt lat="45.98308" lon="4.5305">
        <ele>465.2</ele>
        <time>2015-11-05T12:32:13Z</time>
      </trkpt>
      <trkpt lat="45.98298" lon="4.53042">
        <ele>464.9</ele>
        <time>2015-11-05T12:32:15Z</time>
      </trkpt>
      <trkpt lat="45.98285" lon="4.53032">
        <ele>464.2</ele>
        <time>2015-11-05T12:32:17Z</time>
      </trkpt>
      <trkpt lat="45.98274" lon="4.53029">
        <ele>463.4</ele>
        <time>2015-11-05T12:32:20Z</time>
      </trkpt>
      <trkpt lat="45.98266" lon="4.53028">
        <ele>462.9</ele>
        <time>2015-11-05T12:32:22Z</time>
      </trkpt>
      <trkpt lat="45.98256" lon="4.53027">
        <ele>462.2</ele>
        <time>2015-11-05T12:32:24Z</time>
      </trkpt>
      <trkpt lat="45.98247" lon="4.53028">
        <ele>461.2</ele>
        <time>2015-11-05T12:32:26Z</time>
      </trkpt>
      <trkpt lat="45.98238" lon="4.53031">
        <ele>460.1</ele>
        <time>2015-11-05T12:32:28Z</time>
      </trkpt>
      <trkpt lat="45.9823" lon="4.53034">
        <ele>459.5</ele>
        <time>2015-11-05T12:32:30Z</time>
      </trkpt>
      <trkpt lat="45.9822" lon="4.53035">
        <ele>458.8</ele>
        <time>2015-11-05T12:32:32Z</time>
      </trkpt>
      <trkpt lat="45.9821" lon="4.53038">
        <ele>458.1</ele>
        <time>2015-11-05T12:32:35Z</time>
      </trkpt>
      <trkpt lat="45.982" lon="4.53042">
        <ele>457.2</ele>
        <time>2015-11-05T12:32:38Z</time>
      </trkpt>
      <trkpt lat="45.98192" lon="4.53048">
        <ele>456</ele>
        <time>2015-11-05T12:32:40Z</time>
      </trkpt>
      <trkpt lat="45.98183" lon="4.53054">
        <ele>455.3</ele>
        <time>2015-11-05T12:32:43Z</time>
      </trkpt>
      <trkpt lat="45.98175" lon="4.53058">
        <ele>454.5</ele>
        <time>2015-11-05T12:32:46Z</time>
      </trkpt>
      <trkpt lat="45.98166" lon="4.53062">
        <ele>453.5</ele>
        <time>2015-11-05T12:32:49Z</time>
      </trkpt>
      <trkpt lat="45.98156" lon="4.53066">
        <ele>452.5</ele>
        <time>2015-11-05T12:32:52Z</time>
      </trkpt>
      <trkpt lat="45.98145" lon="4.53072">
        <ele>452</ele>
        <time>2015-11-05T12:32:55Z</time>
      </trkpt>
      <trkpt lat="45.98133" lon="4.53075">
        <ele>451.6</ele>
        <time>2015-11-05T12:32:58Z</time>
      </trkpt>
      <trkpt lat="45.98121" lon="4.53076">
        <ele>450.9</ele>
        <time>2015-11-05T12:33:01Z</time>
      </trkpt>
      <trkpt lat="45.9811" lon="4.53077">
        <ele>449.9</ele>
        <time>2015-11-05T12:33:04Z</time>
      </trkpt>
      <trkpt lat="45.981" lon="4.53078">
        <ele>448.6</ele>
        <time>2015-11-05T12:33:07Z</time>
      </trkpt>
      <trkpt lat="45.98091" lon="4.5307">
        <ele>447.4</ele>
        <time>2015-11-05T12:33:10Z</time>
      </trkpt>
      <trkpt lat="45.9808" lon="4.53065">
        <ele>446.3</ele>
        <time>2015-11-05T12:33:13Z</time>
      </trkpt>
      <trkpt lat="45.98071" lon="4.5306">
        <ele>445.2</ele>
        <time>2015-11-05T12:33:15Z</time>
      </trkpt>
      <trkpt lat="45.98063" lon="4.53056">
        <ele>444</ele>
        <time>2015-11-05T12:33:17Z</time>
      </trkpt>
      <trkpt lat="45.98055" lon="4.53054">
        <ele>443</ele>
        <time>2015-11-05T12:33:19Z</time>
      </trkpt>
      <trkpt lat="45.98044" lon="4.53051">
        <ele>442.4</ele>
        <time>2015-11-05T12:33:22Z</time>
      </trkpt>
      <trkpt lat="45.98034" lon="4.5305">
        <ele>441.4</ele>
        <time>2015-11-05T12:33:25Z</time>
      </trkpt>
      <trkpt lat="45.98024" lon="4.53044">
        <ele>441</ele>
        <time>2015-11-05T12:33:28Z</time>
      </trkpt>
      <trkpt lat="45.98017" lon="4.53036">
        <ele>440.5</ele>
        <time>2015-11-05T12:33:30Z</time>
      </trkpt>
      <trkpt lat="45.9801" lon="4.53029">
        <ele>440.4</ele>
        <time>2015-11-05T12:33:32Z</time>
      </trkpt>
      <trkpt lat="45.98003" lon="4.53023">
        <ele>440.6</ele>
        <time>2015-11-05T12:33:34Z</time>
      </trkpt>
      <trkpt lat="45.97994" lon="4.53019">
        <ele>441</ele>
        <time>2015-11-05T12:33:37Z</time>
      </trkpt>
      <trkpt lat="45.97983" lon="4.53016">
        <ele>441.8</ele>
        <time>2015-11-05T12:33:40Z</time>
      </trkpt>
      <trkpt lat="45.97971" lon="4.53015">
        <ele>442.5</ele>
        <time>2015-11-05T12:33:43Z</time>
      </trkpt>
      <trkpt lat="45.97962" lon="4.53012">
        <ele>443.4</ele>
        <time>2015-11-05T12:33:44Z</time>
      </trkpt>
      <trkpt lat="45.97952" lon="4.53009">
        <ele>444.1</ele>
        <time>2015-11-05T12:33:46Z</time>
      </trkpt>
      <trkpt lat="45.97943" lon="4.53008">
        <ele>444.7</ele>
        <time>2015-11-05T12:33:48Z</time>
      </trkpt>
      <trkpt lat="45.97935" lon="4.53013">
        <ele>445.3</ele>
        <time>2015-11-05T12:33:50Z</time>
      </trkpt>
      <trkpt lat="45.97926" lon="4.53018">
        <ele>445.3</ele>
        <time>2015-11-05T12:33:52Z</time>
      </trkpt>
      <trkpt lat="45.97915" lon="4.53021">
        <ele>445.3</ele>
        <time>2015-11-05T12:33:55Z</time>
      </trkpt>
      <trkpt lat="45.97905" lon="4.53012">
        <ele>445.1</ele>
        <time>2015-11-05T12:33:57Z</time>
      </trkpt>
      <trkpt lat="45.97895" lon="4.53">
        <ele>444.7</ele>
        <time>2015-11-05T12:33:59Z</time>
      </trkpt>
      <trkpt lat="45.97884" lon="4.52997">
        <ele>444.1</ele>
        <time>2015-11-05T12:34:01Z</time>
      </trkpt>
      <trkpt lat="45.97876" lon="4.52994">
        <ele>443.1</ele>
        <time>2015-11-05T12:34:03Z</time>
      </trkpt>
      <trkpt lat="45.97865" lon="4.52992">
        <ele>442.1</ele>
        <time>2015-11-05T12:34:06Z</time>
      </trkpt>
      <trkpt lat="45.97854" lon="4.52989">
        <ele>441</ele>
        <time>2015-11-05T12:34:09Z</time>
      </trkpt>
      <trkpt lat="45.97845" lon="4.52982">
        <ele>440.2</ele>
        <time>2015-11-05T12:34:11Z</time>
      </trkpt>
      <trkpt lat="45.97837" lon="4.52978">
        <ele>439.5</ele>
        <time>2015-11-05T12:34:13Z</time>
      </trkpt>
      <trkpt lat="45.97829" lon="4.52977">
        <ele>438.9</ele>
        <time>2015-11-05T12:34:15Z</time>
      </trkpt>
      <trkpt lat="45.9782" lon="4.5298">
        <ele>438.9</ele>
        <time>2015-11-05T12:34:17Z</time>
      </trkpt>
      <trkpt lat="45.97809" lon="4.52987">
        <ele>438.9</ele>
        <time>2015-11-05T12:34:20Z</time>
      </trkpt>
      <trkpt lat="45.978" lon="4.5299">
        <ele>438.9</ele>
        <time>2015-11-05T12:34:23Z</time>
      </trkpt>
      <trkpt lat="45.9779" lon="4.52987">
        <ele>439.1</ele>
        <time>2015-11-05T12:34:26Z</time>
      </trkpt>
      <trkpt lat="45.97781" lon="4.52984">
        <ele>439.3</ele>
        <time>2015-11-05T12:34:31Z</time>
      </trkpt>
      <trkpt lat="45.97772" lon="4.52982">
        <ele>439.5</ele>
        <time>2015-11-05T12:34:36Z</time>
      </trkpt>
      <trkpt lat="45.97763" lon="4.52978">
        <ele>439.7</ele>
        <time>2015-11-05T12:34:41Z</time>
      </trkpt>
      <trkpt lat="45.97753" lon="4.52975">
        <ele>440.3</ele>
        <time>2015-11-05T12:34:44Z</time>
      </trkpt>
      <trkpt lat="45.97744" lon="4.52971">
        <ele>440.3</ele>
        <time>2015-11-05T12:34:47Z</time>
      </trkpt>
      <trkpt lat="45.97736" lon="4.52968">
        <ele>440.4</ele>
        <time>2015-11-05T12:34:50Z</time>
      </trkpt>
      <trkpt lat="45.97728" lon="4.52964">
        <ele>440.5</ele>
        <time>2015-11-05T12:34:53Z</time>
      </trkpt>
      <trkpt lat="45.97719" lon="4.52958">
        <ele>440.2</ele>
        <time>2015-11-05T12:34:57Z</time>
      </trkpt>
      <trkpt lat="45.97711" lon="4.52953">
        <ele>439.8</ele>
        <time>2015-11-05T12:35:01Z</time>
      </trkpt>
      <trkpt lat="45.97702" lon="4.52944">
        <ele>439.4</ele>
        <time>2015-11-05T12:35:05Z</time>
      </trkpt>
      <trkpt lat="45.97696" lon="4.52933">
        <ele>439.1</ele>
        <time>2015-11-05T12:35:08Z</time>
      </trkpt>
      <trkpt lat="45.9769" lon="4.52922">
        <ele>438.8</ele>
        <time>2015-11-05T12:35:11Z</time>
      </trkpt>
      <trkpt lat="45.97682" lon="4.52916">
        <ele>438.7</ele>
        <time>2015-11-05T12:35:14Z</time>
      </trkpt>
      <trkpt lat="45.97673" lon="4.5291">
        <ele>438.7</ele>
        <time>2015-11-05T12:35:17Z</time>
      </trkpt>
      <trkpt lat="45.97665" lon="4.52903">
        <ele>438.2</ele>
        <time>2015-11-05T12:35:20Z</time>
      </trkpt>
      <trkpt lat="45.97656" lon="4.52895">
        <ele>437.9</ele>
        <time>2015-11-05T12:35:23Z</time>
      </trkpt>
      <trkpt lat="45.97648" lon="4.52886">
        <ele>437.7</ele>
        <time>2015-11-05T12:35:26Z</time>
      </trkpt>
      <trkpt lat="45.97641" lon="4.52878">
        <ele>437.7</ele>
        <time>2015-11-05T12:35:29Z</time>
      </trkpt>
      <trkpt lat="45.97634" lon="4.52868">
        <ele>437.8</ele>
        <time>2015-11-05T12:35:33Z</time>
      </trkpt>
      <trkpt lat="45.97625" lon="4.52864">
        <ele>438.2</ele>
        <time>2015-11-05T12:35:38Z</time>
      </trkpt>
      <trkpt lat="45.97615" lon="4.52858">
        <ele>438.9</ele>
        <time>2015-11-05T12:35:42Z</time>
      </trkpt>
      <trkpt lat="45.97608" lon="4.52853">
        <ele>439</ele>
        <time>2015-11-05T12:35:45Z</time>
      </trkpt>
      <trkpt lat="45.976" lon="4.52845">
        <ele>439.2</ele>
        <time>2015-11-05T12:35:50Z</time>
      </trkpt>
      <trkpt lat="45.97592" lon="4.5284">
        <ele>439.5</ele>
        <time>2015-11-05T12:35:53Z</time>
      </trkpt>
      <trkpt lat="45.97582" lon="4.52838">
        <ele>439.9</ele>
        <time>2015-11-05T12:35:57Z</time>
      </trkpt>
      <trkpt lat="45.97572" lon="4.52833">
        <ele>440.5</ele>
        <time>2015-11-05T12:36:00Z</time>
      </trkpt>
      <trkpt lat="45.97564" lon="4.52828">
        <ele>440.6</ele>
        <time>2015-11-05T12:36:03Z</time>
      </trkpt>
      <trkpt lat="45.97555" lon="4.52822">
        <ele>440.4</ele>
        <time>2015-11-05T12:36:06Z</time>
      </trkpt>
      <trkpt lat="45.97547" lon="4.52816">
        <ele>439.7</ele>
        <time>2015-11-05T12:36:09Z</time>
      </trkpt>
      <trkpt lat="45.97538" lon="4.52812">
        <ele>439</ele>
        <time>2015-11-05T12:36:12Z</time>
      </trkpt>
      <trkpt lat="45.97531" lon="4.52805">
        <ele>437.9</ele>
        <time>2015-11-05T12:36:15Z</time>
      </trkpt>
      <trkpt lat="45.97519" lon="4.52784">
        <ele>436.8</ele>
        <time>2015-11-05T12:36:18Z</time>
      </trkpt>
      <trkpt lat="45.97509" lon="4.52774">
        <ele>436.3</ele>
        <time>2015-11-05T12:36:20Z</time>
      </trkpt>
      <trkpt lat="45.97499" lon="4.52765">
        <ele>435.6</ele>
        <time>2015-11-05T12:36:22Z</time>
      </trkpt>
      <trkpt lat="45.97492" lon="4.52757">
        <ele>434.8</ele>
        <time>2015-11-05T12:36:24Z</time>
      </trkpt>
      <trkpt lat="45.97485" lon="4.5275">
        <ele>433.8</ele>
        <time>2015-11-05T12:36:26Z</time>
      </trkpt>
      <trkpt lat="45.97478" lon="4.52738">
        <ele>432.7</ele>
        <time>2015-11-05T12:36:29Z</time>
      </trkpt>
      <trkpt lat="45.9747" lon="4.52728">
        <ele>432</ele>
        <time>2015-11-05T12:36:32Z</time>
      </trkpt>
      <trkpt lat="45.97462" lon="4.52719">
        <ele>431.4</ele>
        <time>2015-11-05T12:36:35Z</time>
      </trkpt>
      <trkpt lat="45.97455" lon="4.52711">
        <ele>430.4</ele>
        <time>2015-11-05T12:36:38Z</time>
      </trkpt>
      <trkpt lat="45.97447" lon="4.52702">
        <ele>429.2</ele>
        <time>2015-11-05T12:36:42Z</time>
      </trkpt>
      <trkpt lat="45.97442" lon="4.52692">
        <ele>428</ele>
        <time>2015-11-05T12:36:45Z</time>
      </trkpt>
      <trkpt lat="45.97438" lon="4.52681">
        <ele>426.9</ele>
        <time>2015-11-05T12:36:48Z</time>
      </trkpt>
      <trkpt lat="45.97434" lon="4.52667">
        <ele>425.6</ele>
        <time>2015-11-05T12:36:51Z</time>
      </trkpt>
      <trkpt lat="45.97429" lon="4.52655">
        <ele>425</ele>
        <time>2015-11-05T12:36:53Z</time>
      </trkpt>
      <trkpt lat="45.97423" lon="4.52643">
        <ele>424.7</ele>
        <time>2015-11-05T12:36:55Z</time>
      </trkpt>
      <trkpt lat="45.97412" lon="4.52627">
        <ele>423.8</ele>
        <time>2015-11-05T12:36:57Z</time>
      </trkpt>
      <trkpt lat="45.97402" lon="4.52626">
        <ele>422.7</ele>
        <time>2015-11-05T12:36:59Z</time>
      </trkpt>
      <trkpt lat="45.9739" lon="4.52627">
        <ele>422.2</ele>
        <time>2015-11-05T12:37:01Z</time>
      </trkpt>
      <trkpt lat="45.97381" lon="4.52628">
        <ele>422.1</ele>
        <time>2015-11-05T12:37:06Z</time>
      </trkpt>
      <trkpt lat="45.97372" lon="4.52625">
        <ele>422.4</ele>
        <time>2015-11-05T12:37:11Z</time>
      </trkpt>
      <trkpt lat="45.97365" lon="4.52621">
        <ele>423.6</ele>
        <time>2015-11-05T12:37:17Z</time>
      </trkpt>
      <trkpt lat="45.97358" lon="4.52613">
        <ele>424.8</ele>
        <time>2015-11-05T12:39:58Z</time>
      </trkpt>
      <trkpt lat="45.97356" lon="4.52602">
        <ele>426.2</ele>
        <time>2015-11-05T12:41:14Z</time>
      </trkpt>
      <trkpt lat="45.97351" lon="4.52591">
        <ele>427.8</ele>
        <time>2015-11-05T12:41:41Z</time>
      </trkpt>
      <trkpt lat="45.97348" lon="4.5258">
        <ele>429.2</ele>
        <time>2015-11-05T12:41:49Z</time>
      </trkpt>
      <trkpt lat="45.97342" lon="4.52572">
        <ele>430.7</ele>
        <time>2015-11-05T12:42:01Z</time>
      </trkpt>
      <trkpt lat="45.97338" lon="4.52561">
        <ele>433.1</ele>
        <time>2015-11-05T12:42:09Z</time>
      </trkpt>
      <trkpt lat="45.97335" lon="4.52549">
        <ele>435.4</ele>
        <time>2015-11-05T12:42:17Z</time>
      </trkpt>
      <trkpt lat="45.97332" lon="4.52537">
        <ele>437</ele>
        <time>2015-11-05T12:42:29Z</time>
      </trkpt>
      <trkpt lat="45.97329" lon="4.52526">
        <ele>438.4</ele>
        <time>2015-11-05T12:42:35Z</time>
      </trkpt>
      <trkpt lat="45.97326" lon="4.52515">
        <ele>439.9</ele>
        <time>2015-11-05T12:42:42Z</time>
      </trkpt>
      <trkpt lat="45.97324" lon="4.52502">
        <ele>440.8</ele>
        <time>2015-11-05T12:42:52Z</time>
      </trkpt>
      <trkpt lat="45.97318" lon="4.52493">
        <ele>441.9</ele>
        <time>2015-11-05T12:42:59Z</time>
      </trkpt>
      <trkpt lat="45.97312" lon="4.52484">
        <ele>443.3</ele>
        <time>2015-11-05T12:43:05Z</time>
      </trkpt>
      <trkpt lat="45.97306" lon="4.52475">
        <ele>444.6</ele>
        <time>2015-11-05T12:43:12Z</time>
      </trkpt>
      <trkpt lat="45.973" lon="4.52465">
        <ele>445.4</ele>
        <time>2015-11-05T12:43:21Z</time>
      </trkpt>
      <trkpt lat="45.97298" lon="4.52453">
        <ele>445.9</ele>
        <time>2015-11-05T12:43:45Z</time>
      </trkpt>
      <trkpt lat="45.97291" lon="4.52443">
        <ele>445.8</ele>
        <time>2015-11-05T12:43:54Z</time>
      </trkpt>
      <trkpt lat="45.97285" lon="4.52435">
        <ele>445.8</ele>
        <time>2015-11-05T12:44:05Z</time>
      </trkpt>
      <trkpt lat="45.97277" lon="4.5243">
        <ele>446.1</ele>
        <time>2015-11-05T12:44:16Z</time>
      </trkpt>
      <trkpt lat="45.9727" lon="4.52423">
        <ele>446.4</ele>
        <time>2015-11-05T12:44:23Z</time>
      </trkpt>
      <trkpt lat="45.97264" lon="4.52413">
        <ele>446.8</ele>
        <time>2015-11-05T12:44:28Z</time>
      </trkpt>
      <trkpt lat="45.97259" lon="4.52401">
        <ele>447.4</ele>
        <time>2015-11-05T12:44:33Z</time>
      </trkpt>
      <trkpt lat="45.97255" lon="4.52389">
        <ele>447.7</ele>
        <time>2015-11-05T12:44:38Z</time>
      </trkpt>
      <trkpt lat="45.97251" lon="4.52379">
        <ele>447.5</ele>
        <time>2015-11-05T12:44:43Z</time>
      </trkpt>
      <trkpt lat="45.97245" lon="4.52369">
        <ele>447.1</ele>
        <time>2015-11-05T12:44:47Z</time>
      </trkpt>
      <trkpt lat="45.97241" lon="4.52358">
        <ele>446.9</ele>
        <time>2015-11-05T12:44:51Z</time>
      </trkpt>
      <trkpt lat="45.97238" lon="4.52348">
        <ele>446.8</ele>
        <time>2015-11-05T12:44:55Z</time>
      </trkpt>
      <trkpt lat="45.97233" lon="4.52338">
        <ele>447.3</ele>
        <time>2015-11-05T12:44:59Z</time>
      </trkpt>
      <trkpt lat="45.97228" lon="4.52328">
        <ele>447.9</ele>
        <time>2015-11-05T12:45:03Z</time>
      </trkpt>
      <trkpt lat="45.97224" lon="4.52317">
        <ele>448.4</ele>
        <time>2015-11-05T12:45:07Z</time>
      </trkpt>
      <trkpt lat="45.97219" lon="4.52305">
        <ele>448.8</ele>
        <time>2015-11-05T12:45:12Z</time>
      </trkpt>
      <trkpt lat="45.97212" lon="4.52295">
        <ele>449.1</ele>
        <time>2015-11-05T12:45:17Z</time>
      </trkpt>
      <trkpt lat="45.97205" lon="4.52285">
        <ele>449.4</ele>
        <time>2015-11-05T12:45:22Z</time>
      </trkpt>
      <trkpt lat="45.97198" lon="4.52276">
        <ele>449.6</ele>
        <time>2015-11-05T12:45:27Z</time>
      </trkpt>
      <trkpt lat="45.97189" lon="4.52266">
        <ele>449.8</ele>
        <time>2015-11-05T12:45:32Z</time>
      </trkpt>
      <trkpt lat="45.97182" lon="4.52255">
        <ele>449.8</ele>
        <time>2015-11-05T12:45:36Z</time>
      </trkpt>
      <trkpt lat="45.97175" lon="4.52246">
        <ele>449.6</ele>
        <time>2015-11-05T12:45:39Z</time>
      </trkpt>
      <trkpt lat="45.97168" lon="4.52234">
        <ele>449.3</ele>
        <time>2015-11-05T12:45:42Z</time>
      </trkpt>
      <trkpt lat="45.97162" lon="4.52225">
        <ele>448.7</ele>
        <time>2015-11-05T12:45:44Z</time>
      </trkpt>
      <trkpt lat="45.97156" lon="4.52215">
        <ele>447.8</ele>
        <time>2015-11-05T12:45:46Z</time>
      </trkpt>
      <trkpt lat="45.9715" lon="4.52199">
        <ele>446.9</ele>
        <time>2015-11-05T12:45:48Z</time>
      </trkpt>
      <trkpt lat="45.97146" lon="4.52181">
        <ele>445.8</ele>
        <time>2015-11-05T12:45:50Z</time>
      </trkpt>
      <trkpt lat="45.97141" lon="4.52163">
        <ele>444.8</ele>
        <time>2015-11-05T12:45:52Z</time>
      </trkpt>
      <trkpt lat="45.97137" lon="4.52143">
        <ele>443.6</ele>
        <time>2015-11-05T12:45:54Z</time>
      </trkpt>
      <trkpt lat="45.97134" lon="4.52121">
        <ele>442.5</ele>
        <time>2015-11-05T12:45:56Z</time>
      </trkpt>
      <trkpt lat="45.9713" lon="4.52098">
        <ele>441.4</ele>
        <time>2015-11-05T12:45:58Z</time>
      </trkpt>
      <trkpt lat="45.97129" lon="4.52085">
        <ele>440.4</ele>
        <time>2015-11-05T12:45:59Z</time>
      </trkpt>
      <trkpt lat="45.97126" lon="4.52074">
        <ele>439.5</ele>
        <time>2015-11-05T12:46:00Z</time>
      </trkpt>
      <trkpt lat="45.9712" lon="4.52054">
        <ele>438.5</ele>
        <time>2015-11-05T12:46:02Z</time>
      </trkpt>
      <trkpt lat="45.97108" lon="4.5204">
        <ele>437.8</ele>
        <time>2015-11-05T12:46:04Z</time>
      </trkpt>
      <trkpt lat="45.97095" lon="4.52032">
        <ele>437.1</ele>
        <time>2015-11-05T12:46:06Z</time>
      </trkpt>
      <trkpt lat="45.9708" lon="4.52033">
        <ele>436.5</ele>
        <time>2015-11-05T12:46:08Z</time>
      </trkpt>
      <trkpt lat="45.97066" lon="4.52039">
        <ele>435.9</ele>
        <time>2015-11-05T12:46:10Z</time>
      </trkpt>
      <trkpt lat="45.97052" lon="4.5205">
        <ele>435.3</ele>
        <time>2015-11-05T12:46:12Z</time>
      </trkpt>
      <trkpt lat="45.97038" lon="4.5206">
        <ele>434.7</ele>
        <time>2015-11-05T12:46:14Z</time>
      </trkpt>
      <trkpt lat="45.97024" lon="4.5207">
        <ele>434</ele>
        <time>2015-11-05T12:46:16Z</time>
      </trkpt>
      <trkpt lat="45.97009" lon="4.52079">
        <ele>433.3</ele>
        <time>2015-11-05T12:46:18Z</time>
      </trkpt>
      <trkpt lat="45.97" lon="4.52081">
        <ele>432.7</ele>
        <time>2015-11-05T12:46:19Z</time>
      </trkpt>
      <trkpt lat="45.96984" lon="4.5208">
        <ele>432</ele>
        <time>2015-11-05T12:46:21Z</time>
      </trkpt>
      <trkpt lat="45.96976" lon="4.52076">
        <ele>431.4</ele>
        <time>2015-11-05T12:46:22Z</time>
      </trkpt>
      <trkpt lat="45.96969" lon="4.5207">
        <ele>430.7</ele>
        <time>2015-11-05T12:46:23Z</time>
      </trkpt>
      <trkpt lat="45.96962" lon="4.52063">
        <ele>430</ele>
        <time>2015-11-05T12:46:24Z</time>
      </trkpt>
      <trkpt lat="45.96957" lon="4.52054">
        <ele>429.4</ele>
        <time>2015-11-05T12:46:25Z</time>
      </trkpt>
      <trkpt lat="45.96952" lon="4.52045">
        <ele>428.8</ele>
        <time>2015-11-05T12:46:26Z</time>
      </trkpt>
      <trkpt lat="45.96947" lon="4.52034">
        <ele>428.1</ele>
        <time>2015-11-05T12:46:27Z</time>
      </trkpt>
      <trkpt lat="45.96943" lon="4.52024">
        <ele>427.5</ele>
        <time>2015-11-05T12:46:28Z</time>
      </trkpt>
      <trkpt lat="45.96939" lon="4.52014">
        <ele>426.8</ele>
        <time>2015-11-05T12:46:29Z</time>
      </trkpt>
      <trkpt lat="45.96935" lon="4.52003">
        <ele>426.1</ele>
        <time>2015-11-05T12:46:30Z</time>
      </trkpt>
      <trkpt lat="45.96931" lon="4.51993">
        <ele>425.4</ele>
        <time>2015-11-05T12:46:31Z</time>
      </trkpt>
      <trkpt lat="45.96928" lon="4.51981">
        <ele>424.7</ele>
        <time>2015-11-05T12:46:32Z</time>
      </trkpt>
      <trkpt lat="45.96926" lon="4.51969">
        <ele>424</ele>
        <time>2015-11-05T12:46:33Z</time>
      </trkpt>
      <trkpt lat="45.96925" lon="4.51956">
        <ele>423.4</ele>
        <time>2015-11-05T12:46:34Z</time>
      </trkpt>
      <trkpt lat="45.96924" lon="4.51943">
        <ele>423</ele>
        <time>2015-11-05T12:46:35Z</time>
      </trkpt>
      <trkpt lat="45.96921" lon="4.51925">
        <ele>422.7</ele>
        <time>2015-11-05T12:46:37Z</time>
      </trkpt>
      <trkpt lat="45.96916" lon="4.51913">
        <ele>422.6</ele>
        <time>2015-11-05T12:46:39Z</time>
      </trkpt>
      <trkpt lat="45.96912" lon="4.51901">
        <ele>422.6</ele>
        <time>2015-11-05T12:46:44Z</time>
      </trkpt>
      <trkpt lat="45.96911" lon="4.5189">
        <ele>422.9</ele>
        <time>2015-11-05T12:46:49Z</time>
      </trkpt>
      <trkpt lat="45.96907" lon="4.51878">
        <ele>423.2</ele>
        <time>2015-11-05T12:46:54Z</time>
      </trkpt>
      <trkpt lat="45.96902" lon="4.51865">
        <ele>423.7</ele>
        <time>2015-11-05T12:46:59Z</time>
      </trkpt>
      <trkpt lat="45.96899" lon="4.51854">
        <ele>424.3</ele>
        <time>2015-11-05T12:47:03Z</time>
      </trkpt>
      <trkpt lat="45.96896" lon="4.51843">
        <ele>425.1</ele>
        <time>2015-11-05T12:47:07Z</time>
      </trkpt>
      <trkpt lat="45.96896" lon="4.51828">
        <ele>426.1</ele>
        <time>2015-11-05T12:47:12Z</time>
      </trkpt>
      <trkpt lat="45.96896" lon="4.51816">
        <ele>427.1</ele>
        <time>2015-11-05T12:47:16Z</time>
      </trkpt>
      <trkpt lat="45.96898" lon="4.51804">
        <ele>428.2</ele>
        <time>2015-11-05T12:47:20Z</time>
      </trkpt>
      <trkpt lat="45.969" lon="4.51792">
        <ele>429.2</ele>
        <time>2015-11-05T12:47:24Z</time>
      </trkpt>
      <trkpt lat="45.96901" lon="4.5178">
        <ele>430.3</ele>
        <time>2015-11-05T12:47:28Z</time>
      </trkpt>
      <trkpt lat="45.96903" lon="4.51767">
        <ele>431.3</ele>
        <time>2015-11-05T12:47:32Z</time>
      </trkpt>
      <trkpt lat="45.96904" lon="4.51755">
        <ele>432.3</ele>
        <time>2015-11-05T12:47:36Z</time>
      </trkpt>
      <trkpt lat="45.96907" lon="4.51742">
        <ele>433.3</ele>
        <time>2015-11-05T12:47:41Z</time>
      </trkpt>
      <trkpt lat="45.96912" lon="4.5173">
        <ele>434.4</ele>
        <time>2015-11-05T12:47:46Z</time>
      </trkpt>
      <trkpt lat="45.96916" lon="4.51719">
        <ele>435.5</ele>
        <time>2015-11-05T12:47:51Z</time>
      </trkpt>
      <trkpt lat="45.9692" lon="4.51708">
        <ele>436.7</ele>
        <time>2015-11-05T12:47:56Z</time>
      </trkpt>
      <trkpt lat="45.96925" lon="4.51698">
        <ele>437.8</ele>
        <time>2015-11-05T12:48:01Z</time>
      </trkpt>
      <trkpt lat="45.96931" lon="4.51687">
        <ele>438.8</ele>
        <time>2015-11-05T12:48:07Z</time>
      </trkpt>
      <trkpt lat="45.96935" lon="4.51677">
        <ele>439.8</ele>
        <time>2015-11-05T12:48:12Z</time>
      </trkpt>
      <trkpt lat="45.9694" lon="4.51666">
        <ele>440.8</ele>
        <time>2015-11-05T12:48:17Z</time>
      </trkpt>
      <trkpt lat="45.96945" lon="4.51655">
        <ele>441.7</ele>
        <time>2015-11-05T12:48:23Z</time>
      </trkpt>
      <trkpt lat="45.96951" lon="4.51645">
        <ele>442.5</ele>
        <time>2015-11-05T12:48:28Z</time>
      </trkpt>
      <trkpt lat="45.96957" lon="4.51636">
        <ele>443.3</ele>
        <time>2015-11-05T12:48:33Z</time>
      </trkpt>
      <trkpt lat="45.96961" lon="4.51625">
        <ele>443.9</ele>
        <time>2015-11-05T12:48:38Z</time>
      </trkpt>
      <trkpt lat="45.96967" lon="4.51614">
        <ele>444.3</ele>
        <time>2015-11-05T12:48:44Z</time>
      </trkpt>
      <trkpt lat="45.96971" lon="4.51604">
        <ele>444.7</ele>
        <time>2015-11-05T12:48:49Z</time>
      </trkpt>
      <trkpt lat="45.96976" lon="4.51594">
        <ele>444.9</ele>
        <time>2015-11-05T12:48:54Z</time>
      </trkpt>
      <trkpt lat="45.96982" lon="4.51585">
        <ele>445</ele>
        <time>2015-11-05T12:48:58Z</time>
      </trkpt>
      <trkpt lat="45.96987" lon="4.51575">
        <ele>445</ele>
        <time>2015-11-05T12:49:02Z</time>
      </trkpt>
      <trkpt lat="45.96993" lon="4.51565">
        <ele>444.9</ele>
        <time>2015-11-05T12:49:06Z</time>
      </trkpt>
      <trkpt lat="45.97" lon="4.51555">
        <ele>444.9</ele>
        <time>2015-11-05T12:49:10Z</time>
      </trkpt>
      <trkpt lat="45.97005" lon="4.51542">
        <ele>444.8</ele>
        <time>2015-11-05T12:49:14Z</time>
      </trkpt>
      <trkpt lat="45.9701" lon="4.51529">
        <ele>444.5</ele>
        <time>2015-11-05T12:49:17Z</time>
      </trkpt>
      <trkpt lat="45.97015" lon="4.51518">
        <ele>444.2</ele>
        <time>2015-11-05T12:49:19Z</time>
      </trkpt>
      <trkpt lat="45.97019" lon="4.51507">
        <ele>443.8</ele>
        <time>2015-11-05T12:49:21Z</time>
      </trkpt>
      <trkpt lat="45.97025" lon="4.51492">
        <ele>443.4</ele>
        <time>2015-11-05T12:49:24Z</time>
      </trkpt>
      <trkpt lat="45.97032" lon="4.51475">
        <ele>442.8</ele>
        <time>2015-11-05T12:49:26Z</time>
      </trkpt>
      <trkpt lat="45.97037" lon="4.5146">
        <ele>442.1</ele>
        <time>2015-11-05T12:49:28Z</time>
      </trkpt>
      <trkpt lat="45.97043" lon="4.51444">
        <ele>441.3</ele>
        <time>2015-11-05T12:49:30Z</time>
      </trkpt>
      <trkpt lat="45.97048" lon="4.51428">
        <ele>440.2</ele>
        <time>2015-11-05T12:49:32Z</time>
      </trkpt>
      <trkpt lat="45.9705" lon="4.51409">
        <ele>438.9</ele>
        <time>2015-11-05T12:49:34Z</time>
      </trkpt>
      <trkpt lat="45.9705" lon="4.51391">
        <ele>437.3</ele>
        <time>2015-11-05T12:49:36Z</time>
      </trkpt>
      <trkpt lat="45.97048" lon="4.51372">
        <ele>435.4</ele>
        <time>2015-11-05T12:49:38Z</time>
      </trkpt>
      <trkpt lat="45.97043" lon="4.51355">
        <ele>433.4</ele>
        <time>2015-11-05T12:49:40Z</time>
      </trkpt>
      <trkpt lat="45.97038" lon="4.51337">
        <ele>431.4</ele>
        <time>2015-11-05T12:49:42Z</time>
      </trkpt>
      <trkpt lat="45.97032" lon="4.51321">
        <ele>429.3</ele>
        <time>2015-11-05T12:49:44Z</time>
      </trkpt>
      <trkpt lat="45.9703" lon="4.51303">
        <ele>427.1</ele>
        <time>2015-11-05T12:49:46Z</time>
      </trkpt>
      <trkpt lat="45.97031" lon="4.51287">
        <ele>424.7</ele>
        <time>2015-11-05T12:49:48Z</time>
      </trkpt>
      <trkpt lat="45.97027" lon="4.51277">
        <ele>422.3</ele>
        <time>2015-11-05T12:49:50Z</time>
      </trkpt>
      <trkpt lat="45.97021" lon="4.51266">
        <ele>419.9</ele>
        <time>2015-11-05T12:49:52Z</time>
      </trkpt>
      <trkpt lat="45.97021" lon="4.51248">
        <ele>417.6</ele>
        <time>2015-11-05T12:49:54Z</time>
      </trkpt>
      <trkpt lat="45.97026" lon="4.51232">
        <ele>415.4</ele>
        <time>2015-11-05T12:49:56Z</time>
      </trkpt>
      <trkpt lat="45.97034" lon="4.51217">
        <ele>413.3</ele>
        <time>2015-11-05T12:49:58Z</time>
      </trkpt>
      <trkpt lat="45.97047" lon="4.51205">
        <ele>411.4</ele>
        <time>2015-11-05T12:50:00Z</time>
      </trkpt>
      <trkpt lat="45.97063" lon="4.51198">
        <ele>409.8</ele>
        <time>2015-11-05T12:50:02Z</time>
      </trkpt>
      <trkpt lat="45.97078" lon="4.51196">
        <ele>408.3</ele>
        <time>2015-11-05T12:50:04Z</time>
      </trkpt>
      <trkpt lat="45.97094" lon="4.51196">
        <ele>406.8</ele>
        <time>2015-11-05T12:50:06Z</time>
      </trkpt>
      <trkpt lat="45.97103" lon="4.51197">
        <ele>405.5</ele>
        <time>2015-11-05T12:50:07Z</time>
      </trkpt>
      <trkpt lat="45.97111" lon="4.51199">
        <ele>404.4</ele>
        <time>2015-11-05T12:50:08Z</time>
      </trkpt>
      <trkpt lat="45.9712" lon="4.51202">
        <ele>403.4</ele>
        <time>2015-11-05T12:50:09Z</time>
      </trkpt>
      <trkpt lat="45.97128" lon="4.51206">
        <ele>402.2</ele>
        <time>2015-11-05T12:50:10Z</time>
      </trkpt>
      <trkpt lat="45.97141" lon="4.51215">
        <ele>401.2</ele>
        <time>2015-11-05T12:50:12Z</time>
      </trkpt>
      <trkpt lat="45.97153" lon="4.51221">
        <ele>400.1</ele>
        <time>2015-11-05T12:50:14Z</time>
      </trkpt>
      <trkpt lat="45.97165" lon="4.51219">
        <ele>399</ele>
        <time>2015-11-05T12:50:16Z</time>
      </trkpt>
      <trkpt lat="45.97178" lon="4.51212">
        <ele>397.8</ele>
        <time>2015-11-05T12:50:18Z</time>
      </trkpt>
      <trkpt lat="45.97191" lon="4.51206">
        <ele>396.5</ele>
        <time>2015-11-05T12:50:20Z</time>
      </trkpt>
      <trkpt lat="45.97202" lon="4.51201">
        <ele>394.9</ele>
        <time>2015-11-05T12:50:22Z</time>
      </trkpt>
      <trkpt lat="45.97212" lon="4.51193">
        <ele>393.3</ele>
        <time>2015-11-05T12:50:24Z</time>
      </trkpt>
      <trkpt lat="45.97216" lon="4.5118">
        <ele>391.5</ele>
        <time>2015-11-05T12:50:26Z</time>
      </trkpt>
      <trkpt lat="45.97216" lon="4.51163">
        <ele>389.9</ele>
        <time>2015-11-05T12:50:28Z</time>
      </trkpt>
      <trkpt lat="45.97213" lon="4.51144">
        <ele>388.1</ele>
        <time>2015-11-05T12:50:30Z</time>
      </trkpt>
      <trkpt lat="45.97209" lon="4.51123">
        <ele>386.4</ele>
        <time>2015-11-05T12:50:32Z</time>
      </trkpt>
      <trkpt lat="45.97208" lon="4.51112">
        <ele>384.6</ele>
        <time>2015-11-05T12:50:33Z</time>
      </trkpt>
      <trkpt lat="45.97204" lon="4.51094">
        <ele>383</ele>
        <time>2015-11-05T12:50:35Z</time>
      </trkpt>
      <trkpt lat="45.97201" lon="4.51073">
        <ele>381.1</ele>
        <time>2015-11-05T12:50:37Z</time>
      </trkpt>
      <trkpt lat="45.972" lon="4.51053">
        <ele>379.4</ele>
        <time>2015-11-05T12:50:39Z</time>
      </trkpt>
      <trkpt lat="45.97201" lon="4.51035">
        <ele>377.6</ele>
        <time>2015-11-05T12:50:41Z</time>
      </trkpt>
      <trkpt lat="45.97206" lon="4.51019">
        <ele>375.9</ele>
        <time>2015-11-05T12:50:43Z</time>
      </trkpt>
      <trkpt lat="45.97213" lon="4.51002">
        <ele>374</ele>
        <time>2015-11-05T12:50:45Z</time>
      </trkpt>
      <trkpt lat="45.97222" lon="4.50989">
        <ele>372.3</ele>
        <time>2015-11-05T12:50:47Z</time>
      </trkpt>
      <trkpt lat="45.9723" lon="4.50975">
        <ele>370.4</ele>
        <time>2015-11-05T12:50:49Z</time>
      </trkpt>
      <trkpt lat="45.9724" lon="4.50962">
        <ele>368.6</ele>
        <time>2015-11-05T12:50:51Z</time>
      </trkpt>
      <trkpt lat="45.97248" lon="4.50951">
        <ele>367.1</ele>
        <time>2015-11-05T12:50:53Z</time>
      </trkpt>
      <trkpt lat="45.97257" lon="4.50944">
        <ele>365.7</ele>
        <time>2015-11-05T12:50:55Z</time>
      </trkpt>
      <trkpt lat="45.97266" lon="4.50941">
        <ele>364.6</ele>
        <time>2015-11-05T12:50:57Z</time>
      </trkpt>
      <trkpt lat="45.97277" lon="4.5094">
        <ele>363.7</ele>
        <time>2015-11-05T12:50:59Z</time>
      </trkpt>
      <trkpt lat="45.97286" lon="4.50944">
        <ele>362.9</ele>
        <time>2015-11-05T12:51:01Z</time>
      </trkpt>
      <trkpt lat="45.97295" lon="4.50946">
        <ele>361.9</ele>
        <time>2015-11-05T12:51:03Z</time>
      </trkpt>
      <trkpt lat="45.97305" lon="4.50946">
        <ele>361.3</ele>
        <time>2015-11-05T12:51:05Z</time>
      </trkpt>
      <trkpt lat="45.97313" lon="4.50946">
        <ele>360.7</ele>
        <time>2015-11-05T12:51:07Z</time>
      </trkpt>
      <trkpt lat="45.97321" lon="4.50945">
        <ele>360.1</ele>
        <time>2015-11-05T12:51:09Z</time>
      </trkpt>
      <trkpt lat="45.9733" lon="4.50943">
        <ele>359.7</ele>
        <time>2015-11-05T12:51:11Z</time>
      </trkpt>
      <trkpt lat="45.9734" lon="4.5094">
        <ele>359.6</ele>
        <time>2015-11-05T12:51:13Z</time>
      </trkpt>
      <trkpt lat="45.97348" lon="4.50937">
        <ele>359.3</ele>
        <time>2015-11-05T12:51:15Z</time>
      </trkpt>
      <trkpt lat="45.97357" lon="4.50933">
        <ele>359.2</ele>
        <time>2015-11-05T12:51:17Z</time>
      </trkpt>
      <trkpt lat="45.97365" lon="4.50929">
        <ele>359.2</ele>
        <time>2015-11-05T12:51:19Z</time>
      </trkpt>
      <trkpt lat="45.97373" lon="4.50925">
        <ele>359.1</ele>
        <time>2015-11-05T12:51:21Z</time>
      </trkpt>
      <trkpt lat="45.97384" lon="4.5092">
        <ele>359.1</ele>
        <time>2015-11-05T12:51:24Z</time>
      </trkpt>
      <trkpt lat="45.97394" lon="4.50915">
        <ele>359.5</ele>
        <time>2015-11-05T12:51:27Z</time>
      </trkpt>
      <trkpt lat="45.97405" lon="4.5091">
        <ele>359.6</ele>
        <time>2015-11-05T12:51:30Z</time>
      </trkpt>
      <trkpt lat="45.97416" lon="4.50904">
        <ele>360</ele>
        <time>2015-11-05T12:51:33Z</time>
      </trkpt>
      <trkpt lat="45.97427" lon="4.50897">
        <ele>360.2</ele>
        <time>2015-11-05T12:51:36Z</time>
      </trkpt>
      <trkpt lat="45.97435" lon="4.5089">
        <ele>360.6</ele>
        <time>2015-11-05T12:51:38Z</time>
      </trkpt>
      <trkpt lat="45.97444" lon="4.50889">
        <ele>360.8</ele>
        <time>2015-11-05T12:51:40Z</time>
      </trkpt>
      <trkpt lat="45.97453" lon="4.50887">
        <ele>361.1</ele>
        <time>2015-11-05T12:51:42Z</time>
      </trkpt>
      <trkpt lat="45.97464" lon="4.50882">
        <ele>361.2</ele>
        <time>2015-11-05T12:51:45Z</time>
      </trkpt>
      <trkpt lat="45.97473" lon="4.50877">
        <ele>361.2</ele>
        <time>2015-11-05T12:51:47Z</time>
      </trkpt>
      <trkpt lat="45.97482" lon="4.50873">
        <ele>361.3</ele>
        <time>2015-11-05T12:51:49Z</time>
      </trkpt>
      <trkpt lat="45.9749" lon="4.50871">
        <ele>361.3</ele>
        <time>2015-11-05T12:51:51Z</time>
      </trkpt>
      <trkpt lat="45.97499" lon="4.50867">
        <ele>361.4</ele>
        <time>2015-11-05T12:51:53Z</time>
      </trkpt>
      <trkpt lat="45.97507" lon="4.50864">
        <ele>361.6</ele>
        <time>2015-11-05T12:51:55Z</time>
      </trkpt>
      <trkpt lat="45.97516" lon="4.5086">
        <ele>361.8</ele>
        <time>2015-11-05T12:51:57Z</time>
      </trkpt>
      <trkpt lat="45.97523" lon="4.50856">
        <ele>362</ele>
        <time>2015-11-05T12:51:59Z</time>
      </trkpt>
      <trkpt lat="45.97532" lon="4.50853">
        <ele>362.3</ele>
        <time>2015-11-05T12:52:01Z</time>
      </trkpt>
      <trkpt lat="45.97541" lon="4.50848">
        <ele>362.5</ele>
        <time>2015-11-05T12:52:03Z</time>
      </trkpt>
      <trkpt lat="45.97549" lon="4.50844">
        <ele>362.7</ele>
        <time>2015-11-05T12:52:05Z</time>
      </trkpt>
      <trkpt lat="45.97557" lon="4.50838">
        <ele>363</ele>
        <time>2015-11-05T12:52:07Z</time>
      </trkpt>
      <trkpt lat="45.97565" lon="4.50833">
        <ele>363.1</ele>
        <time>2015-11-05T12:52:09Z</time>
      </trkpt>
      <trkpt lat="45.97573" lon="4.50829">
        <ele>363.1</ele>
        <time>2015-11-05T12:52:11Z</time>
      </trkpt>
      <trkpt lat="45.97581" lon="4.50824">
        <ele>363.2</ele>
        <time>2015-11-05T12:52:13Z</time>
      </trkpt>
      <trkpt lat="45.97589" lon="4.50818">
        <ele>363.6</ele>
        <time>2015-11-05T12:52:15Z</time>
      </trkpt>
      <trkpt lat="45.97598" lon="4.50814">
        <ele>363.8</ele>
        <time>2015-11-05T12:52:17Z</time>
      </trkpt>
      <trkpt lat="45.97606" lon="4.50812">
        <ele>364.2</ele>
        <time>2015-11-05T12:52:19Z</time>
      </trkpt>
      <trkpt lat="45.97616" lon="4.50811">
        <ele>364.6</ele>
        <time>2015-11-05T12:52:21Z</time>
      </trkpt>
      <trkpt lat="45.97626" lon="4.50814">
        <ele>364.9</ele>
        <time>2015-11-05T12:52:24Z</time>
      </trkpt>
      <trkpt lat="45.97636" lon="4.50817">
        <ele>365.4</ele>
        <time>2015-11-05T12:52:28Z</time>
      </trkpt>
      <trkpt lat="45.97645" lon="4.5082">
        <ele>366</ele>
        <time>2015-11-05T12:52:32Z</time>
      </trkpt>
      <trkpt lat="45.97654" lon="4.50824">
        <ele>366.4</ele>
        <time>2015-11-05T12:52:36Z</time>
      </trkpt>
      <trkpt lat="45.97663" lon="4.50828">
        <ele>367</ele>
        <time>2015-11-05T12:52:40Z</time>
      </trkpt>
      <trkpt lat="45.97673" lon="4.50831">
        <ele>367.7</ele>
        <time>2015-11-05T12:52:44Z</time>
      </trkpt>
      <trkpt lat="45.97683" lon="4.50835">
        <ele>368.5</ele>
        <time>2015-11-05T12:52:48Z</time>
      </trkpt>
      <trkpt lat="45.97693" lon="4.50839">
        <ele>369.1</ele>
        <time>2015-11-05T12:52:52Z</time>
      </trkpt>
      <trkpt lat="45.97703" lon="4.50843">
        <ele>369.6</ele>
        <time>2015-11-05T12:52:56Z</time>
      </trkpt>
      <trkpt lat="45.97713" lon="4.50847">
        <ele>370.1</ele>
        <time>2015-11-05T12:53:00Z</time>
      </trkpt>
      <trkpt lat="45.97723" lon="4.50851">
        <ele>370.6</ele>
        <time>2015-11-05T12:53:04Z</time>
      </trkpt>
      <trkpt lat="45.97731" lon="4.50855">
        <ele>371.2</ele>
        <time>2015-11-05T12:53:07Z</time>
      </trkpt>
      <trkpt lat="45.97741" lon="4.50859">
        <ele>371.6</ele>
        <time>2015-11-05T12:53:11Z</time>
      </trkpt>
      <trkpt lat="45.9775" lon="4.50864">
        <ele>371.9</ele>
        <time>2015-11-05T12:53:15Z</time>
      </trkpt>
      <trkpt lat="45.97758" lon="4.50869">
        <ele>372.2</ele>
        <time>2015-11-05T12:53:19Z</time>
      </trkpt>
      <trkpt lat="45.97766" lon="4.50873">
        <ele>372.4</ele>
        <time>2015-11-05T12:53:23Z</time>
      </trkpt>
      <trkpt lat="45.97774" lon="4.50876">
        <ele>372.8</ele>
        <time>2015-11-05T12:53:27Z</time>
      </trkpt>
      <trkpt lat="45.97782" lon="4.50879">
        <ele>373.1</ele>
        <time>2015-11-05T12:53:31Z</time>
      </trkpt>
      <trkpt lat="45.9779" lon="4.50881">
        <ele>373.5</ele>
        <time>2015-11-05T12:53:35Z</time>
      </trkpt>
      <trkpt lat="45.97799" lon="4.50883">
        <ele>374.1</ele>
        <time>2015-11-05T12:53:39Z</time>
      </trkpt>
      <trkpt lat="45.97808" lon="4.50884">
        <ele>374.6</ele>
        <time>2015-11-05T12:53:43Z</time>
      </trkpt>
      <trkpt lat="45.97816" lon="4.50884">
        <ele>375.3</ele>
        <time>2015-11-05T12:53:47Z</time>
      </trkpt>
      <trkpt lat="45.97825" lon="4.50884">
        <ele>376</ele>
        <time>2015-11-05T12:53:51Z</time>
      </trkpt>
      <trkpt lat="45.97833" lon="4.50884">
        <ele>376.7</ele>
        <time>2015-11-05T12:53:56Z</time>
      </trkpt>
      <trkpt lat="45.97842" lon="4.50885">
        <ele>377.6</ele>
        <time>2015-11-05T12:54:01Z</time>
      </trkpt>
      <trkpt lat="45.97851" lon="4.50885">
        <ele>378.4</ele>
        <time>2015-11-05T12:54:06Z</time>
      </trkpt>
      <trkpt lat="45.97859" lon="4.50886">
        <ele>379.3</ele>
        <time>2015-11-05T12:54:11Z</time>
      </trkpt>
      <trkpt lat="45.97868" lon="4.50889">
        <ele>380</ele>
        <time>2015-11-05T12:54:16Z</time>
      </trkpt>
      <trkpt lat="45.97876" lon="4.50893">
        <ele>380.7</ele>
        <time>2015-11-05T12:54:21Z</time>
      </trkpt>
      <trkpt lat="45.97885" lon="4.50898">
        <ele>381.4</ele>
        <time>2015-11-05T12:54:27Z</time>
      </trkpt>
      <trkpt lat="45.97894" lon="4.50902">
        <ele>381.9</ele>
        <time>2015-11-05T12:54:33Z</time>
      </trkpt>
      <trkpt lat="45.97902" lon="4.50905">
        <ele>382.5</ele>
        <time>2015-11-05T12:54:38Z</time>
      </trkpt>
      <trkpt lat="45.97911" lon="4.50909">
        <ele>383.1</ele>
        <time>2015-11-05T12:54:43Z</time>
      </trkpt>
      <trkpt lat="45.97919" lon="4.50912">
        <ele>383.9</ele>
        <time>2015-11-05T12:54:47Z</time>
      </trkpt>
      <trkpt lat="45.97927" lon="4.50915">
        <ele>384.7</ele>
        <time>2015-11-05T12:54:51Z</time>
      </trkpt>
      <trkpt lat="45.97935" lon="4.50919">
        <ele>385.6</ele>
        <time>2015-11-05T12:54:55Z</time>
      </trkpt>
      <trkpt lat="45.97944" lon="4.50923">
        <ele>386.6</ele>
        <time>2015-11-05T12:54:59Z</time>
      </trkpt>
      <trkpt lat="45.97952" lon="4.50927">
        <ele>387.5</ele>
        <time>2015-11-05T12:55:03Z</time>
      </trkpt>
      <trkpt lat="45.9796" lon="4.50931">
        <ele>388.5</ele>
        <time>2015-11-05T12:55:07Z</time>
      </trkpt>
      <trkpt lat="45.97969" lon="4.50935">
        <ele>389.5</ele>
        <time>2015-11-05T12:55:11Z</time>
      </trkpt>
      <trkpt lat="45.97977" lon="4.50939">
        <ele>390.6</ele>
        <time>2015-11-05T12:55:15Z</time>
      </trkpt>
      <trkpt lat="45.97985" lon="4.50943">
        <ele>391.6</ele>
        <time>2015-11-05T12:55:19Z</time>
      </trkpt>
      <trkpt lat="45.97993" lon="4.50946">
        <ele>392.6</ele>
        <time>2015-11-05T12:55:23Z</time>
      </trkpt>
      <trkpt lat="45.98001" lon="4.50951">
        <ele>393.3</ele>
        <time>2015-11-05T12:55:27Z</time>
      </trkpt>
      <trkpt lat="45.98009" lon="4.50956">
        <ele>393.8</ele>
        <time>2015-11-05T12:55:31Z</time>
      </trkpt>
      <trkpt lat="45.98018" lon="4.50963">
        <ele>393.9</ele>
        <time>2015-11-05T12:55:36Z</time>
      </trkpt>
      <trkpt lat="45.98025" lon="4.5097">
        <ele>393.7</ele>
        <time>2015-11-05T12:55:40Z</time>
      </trkpt>
      <trkpt lat="45.98036" lon="4.50979">
        <ele>393.4</ele>
        <time>2015-11-05T12:55:43Z</time>
      </trkpt>
      <trkpt lat="45.98047" lon="4.50988">
        <ele>393.2</ele>
        <time>2015-11-05T12:55:45Z</time>
      </trkpt>
      <trkpt lat="45.98054" lon="4.51">
        <ele>393</ele>
        <time>2015-11-05T12:55:47Z</time>
      </trkpt>
      <trkpt lat="45.98061" lon="4.51016">
        <ele>392.8</ele>
        <time>2015-11-05T12:55:49Z</time>
      </trkpt>
      <trkpt lat="45.98069" lon="4.51034">
        <ele>392.4</ele>
        <time>2015-11-05T12:55:51Z</time>
      </trkpt>
      <trkpt lat="45.98077" lon="4.51052">
        <ele>392.2</ele>
        <time>2015-11-05T12:55:53Z</time>
      </trkpt>
      <trkpt lat="45.98085" lon="4.51068">
        <ele>392</ele>
        <time>2015-11-05T12:55:55Z</time>
      </trkpt>
      <trkpt lat="45.98094" lon="4.51083">
        <ele>392</ele>
        <time>2015-11-05T12:55:57Z</time>
      </trkpt>
      <trkpt lat="45.98104" lon="4.51096">
        <ele>392</ele>
        <time>2015-11-05T12:55:59Z</time>
      </trkpt>
      <trkpt lat="45.98115" lon="4.511">
        <ele>392.4</ele>
        <time>2015-11-05T12:56:01Z</time>
      </trkpt>
      <trkpt lat="45.98125" lon="4.51095">
        <ele>392.8</ele>
        <time>2015-11-05T12:56:03Z</time>
      </trkpt>
      <trkpt lat="45.98134" lon="4.51091">
        <ele>393.3</ele>
        <time>2015-11-05T12:56:05Z</time>
      </trkpt>
      <trkpt lat="45.98143" lon="4.51084">
        <ele>393.6</ele>
        <time>2015-11-05T12:56:08Z</time>
      </trkpt>
      <trkpt lat="45.98151" lon="4.5108">
        <ele>393.8</ele>
        <time>2015-11-05T12:56:10Z</time>
      </trkpt>
      <trkpt lat="45.98161" lon="4.51081">
        <ele>393.9</ele>
        <time>2015-11-05T12:56:13Z</time>
      </trkpt>
      <trkpt lat="45.9817" lon="4.51086">
        <ele>393.9</ele>
        <time>2015-11-05T12:56:16Z</time>
      </trkpt>
      <trkpt lat="45.9818" lon="4.51091">
        <ele>393.9</ele>
        <time>2015-11-05T12:56:19Z</time>
      </trkpt>
      <trkpt lat="45.98189" lon="4.51099">
        <ele>393.8</ele>
        <time>2015-11-05T12:56:22Z</time>
      </trkpt>
      <trkpt lat="45.98198" lon="4.51108">
        <ele>393.6</ele>
        <time>2015-11-05T12:56:25Z</time>
      </trkpt>
      <trkpt lat="45.98206" lon="4.51119">
        <ele>393.6</ele>
        <time>2015-11-05T12:56:28Z</time>
      </trkpt>
      <trkpt lat="45.98214" lon="4.51129">
        <ele>393.5</ele>
        <time>2015-11-05T12:56:31Z</time>
      </trkpt>
      <trkpt lat="45.98224" lon="4.5114">
        <ele>393.6</ele>
        <time>2015-11-05T12:56:34Z</time>
      </trkpt>
      <trkpt lat="45.98232" lon="4.51146">
        <ele>393.7</ele>
        <time>2015-11-05T12:56:36Z</time>
      </trkpt>
      <trkpt lat="45.98243" lon="4.5115">
        <ele>393.9</ele>
        <time>2015-11-05T12:56:38Z</time>
      </trkpt>
      <trkpt lat="45.98251" lon="4.51151">
        <ele>394</ele>
        <time>2015-11-05T12:56:40Z</time>
      </trkpt>
      <trkpt lat="45.98262" lon="4.51149">
        <ele>394.2</ele>
        <time>2015-11-05T12:56:43Z</time>
      </trkpt>
      <trkpt lat="45.98272" lon="4.51147">
        <ele>394.5</ele>
        <time>2015-11-05T12:56:46Z</time>
      </trkpt>
      <trkpt lat="45.98282" lon="4.5115">
        <ele>394.6</ele>
        <time>2015-11-05T12:56:49Z</time>
      </trkpt>
      <trkpt lat="45.98291" lon="4.51153">
        <ele>394.8</ele>
        <time>2015-11-05T12:56:52Z</time>
      </trkpt>
      <trkpt lat="45.98301" lon="4.51156">
        <ele>395.2</ele>
        <time>2015-11-05T12:56:55Z</time>
      </trkpt>
      <trkpt lat="45.9831" lon="4.51162">
        <ele>395.6</ele>
        <time>2015-11-05T12:56:58Z</time>
      </trkpt>
      <trkpt lat="45.98318" lon="4.51168">
        <ele>395.9</ele>
        <time>2015-11-05T12:57:01Z</time>
      </trkpt>
      <trkpt lat="45.98325" lon="4.51175">
        <ele>396.3</ele>
        <time>2015-11-05T12:57:04Z</time>
      </trkpt>
      <trkpt lat="45.98333" lon="4.51182">
        <ele>396.6</ele>
        <time>2015-11-05T12:57:07Z</time>
      </trkpt>
      <trkpt lat="45.9834" lon="4.51189">
        <ele>396.8</ele>
        <time>2015-11-05T12:57:10Z</time>
      </trkpt>
      <trkpt lat="45.98347" lon="4.51195">
        <ele>397.1</ele>
        <time>2015-11-05T12:57:13Z</time>
      </trkpt>
      <trkpt lat="45.98356" lon="4.512">
        <ele>397.5</ele>
        <time>2015-11-05T12:57:16Z</time>
      </trkpt>
      <trkpt lat="45.98366" lon="4.51206">
        <ele>397.7</ele>
        <time>2015-11-05T12:57:19Z</time>
      </trkpt>
      <trkpt lat="45.98376" lon="4.51211">
        <ele>397.8</ele>
        <time>2015-11-05T12:57:22Z</time>
      </trkpt>
      <trkpt lat="45.98385" lon="4.51217">
        <ele>398</ele>
        <time>2015-11-05T12:57:25Z</time>
      </trkpt>
      <trkpt lat="45.98395" lon="4.51223">
        <ele>398</ele>
        <time>2015-11-05T12:57:28Z</time>
      </trkpt>
      <trkpt lat="45.98406" lon="4.51226">
        <ele>398</ele>
        <time>2015-11-05T12:57:31Z</time>
      </trkpt>
      <trkpt lat="45.98418" lon="4.51227">
        <ele>398</ele>
        <time>2015-11-05T12:57:34Z</time>
      </trkpt>
      <trkpt lat="45.98429" lon="4.51221">
        <ele>397.9</ele>
        <time>2015-11-05T12:57:37Z</time>
      </trkpt>
      <trkpt lat="45.98433" lon="4.51206">
        <ele>398</ele>
        <time>2015-11-05T12:57:40Z</time>
      </trkpt>
      <trkpt lat="45.98432" lon="4.51189">
        <ele>398.7</ele>
        <time>2015-11-05T12:57:43Z</time>
      </trkpt>
      <trkpt lat="45.98429" lon="4.51174">
        <ele>400</ele>
        <time>2015-11-05T12:57:46Z</time>
      </trkpt>
      <trkpt lat="45.98423" lon="4.51164">
        <ele>401.1</ele>
        <time>2015-11-05T12:57:49Z</time>
      </trkpt>
      <trkpt lat="45.98417" lon="4.51155">
        <ele>402</ele>
        <time>2015-11-05T12:57:54Z</time>
      </trkpt>
      <trkpt lat="45.98409" lon="4.51146">
        <ele>402.9</ele>
        <time>2015-11-05T12:57:59Z</time>
      </trkpt>
      <trkpt lat="45.98403" lon="4.51137">
        <ele>403.8</ele>
        <time>2015-11-05T12:58:04Z</time>
      </trkpt>
      <trkpt lat="45.98405" lon="4.51125">
        <ele>404.9</ele>
        <time>2015-11-05T12:58:10Z</time>
      </trkpt>
      <trkpt lat="45.98403" lon="4.51111">
        <ele>405.7</ele>
        <time>2015-11-05T12:58:15Z</time>
      </trkpt>
      <trkpt lat="45.98394" lon="4.51106">
        <ele>406.1</ele>
        <time>2015-11-05T12:58:19Z</time>
      </trkpt>
      <trkpt lat="45.98386" lon="4.51095">
        <ele>406.5</ele>
        <time>2015-11-05T12:58:22Z</time>
      </trkpt>
      <trkpt lat="45.98376" lon="4.51074">
        <ele>406.4</ele>
        <time>2015-11-05T12:58:24Z</time>
      </trkpt>
      <trkpt lat="45.98369" lon="4.51061">
        <ele>406.1</ele>
        <time>2015-11-05T12:58:26Z</time>
      </trkpt>
      <trkpt lat="45.98362" lon="4.51046">
        <ele>405.1</ele>
        <time>2015-11-05T12:58:28Z</time>
      </trkpt>
      <trkpt lat="45.98355" lon="4.51034">
        <ele>404.2</ele>
        <time>2015-11-05T12:58:31Z</time>
      </trkpt>
      <trkpt lat="45.98349" lon="4.51023">
        <ele>403.3</ele>
        <time>2015-11-05T12:58:33Z</time>
      </trkpt>
      <trkpt lat="45.98344" lon="4.51013">
        <ele>402.4</ele>
        <time>2015-11-05T12:58:35Z</time>
      </trkpt>
      <trkpt lat="45.98339" lon="4.51003">
        <ele>401.4</ele>
        <time>2015-11-05T12:58:37Z</time>
      </trkpt>
      <trkpt lat="45.98333" lon="4.50993">
        <ele>400.1</ele>
        <time>2015-11-05T12:58:39Z</time>
      </trkpt>
      <trkpt lat="45.98326" lon="4.50986">
        <ele>399.1</ele>
        <time>2015-11-05T12:58:41Z</time>
      </trkpt>
      <trkpt lat="45.98315" lon="4.50977">
        <ele>398.3</ele>
        <time>2015-11-05T12:58:43Z</time>
      </trkpt>
      <trkpt lat="45.98302" lon="4.50969">
        <ele>397.6</ele>
        <time>2015-11-05T12:58:45Z</time>
      </trkpt>
      <trkpt lat="45.9829" lon="4.50964">
        <ele>396.9</ele>
        <time>2015-11-05T12:58:47Z</time>
      </trkpt>
      <trkpt lat="45.98278" lon="4.5096">
        <ele>396</ele>
        <time>2015-11-05T12:58:49Z</time>
      </trkpt>
      <trkpt lat="45.98267" lon="4.50958">
        <ele>395.5</ele>
        <time>2015-11-05T12:58:51Z</time>
      </trkpt>
      <trkpt lat="45.98255" lon="4.50958">
        <ele>394.8</ele>
        <time>2015-11-05T12:58:53Z</time>
      </trkpt>
      <trkpt lat="45.98247" lon="4.50957">
        <ele>394.5</ele>
        <time>2015-11-05T12:58:55Z</time>
      </trkpt>
      <trkpt lat="45.98236" lon="4.50956">
        <ele>394.1</ele>
        <time>2015-11-05T12:58:58Z</time>
      </trkpt>
      <trkpt lat="45.98236" lon="4.50956">
        <ele>393.7</ele>
        <time>2015-11-05T12:58:58Z</time>
      </trkpt>
    </trkseg>
  </trk>
</gpx>